<?xml version='1.0' encoding='UTF-8'?><gpx version="1.1" creator="JPX - https://github.com/jenetics/jpx" xmlns="http://www.topografix.com/GPX/1/1"><trk><trkseg><trkpt lat="45.8631983" lon="8.6825817"><ele>264.0</ele><time>2026-03-29T07:11:29.141Z</time></trkpt><trkpt lat="45.86317" lon="8.6826783"><ele>264.0</ele><time>2026-03-29T07:11:31.14Z</time></trkpt><trkpt lat="45.863135" lon="8.6827667"><ele>264.0</ele><time>2026-03-29T07:11:34.14Z</time></trkpt><trkpt lat="45.8632267" lon="8.6828117"><ele>264.0</ele><time>2026-03-29T07:11:36.141Z</time></trkpt><trkpt lat="45.8632883" lon="8.682845"><ele>264.0</ele><time>2026-03-29T07:11:38.141Z</time></trkpt><trkpt lat="45.863275" lon="8.682755"><ele>264.0</ele><time>2026-03-29T07:11:41.141Z</time></trkpt><trkpt lat="45.8633017" lon="8.6826567"><ele>264.0</ele><time>2026-03-29T07:11:46.141Z</time></trkpt><trkpt lat="45.8632917" lon="8.6825517"><ele>264.0</ele><time>2026-03-29T07:11:51.14Z</time></trkpt><trkpt lat="45.8632183" lon="8.6824767"><ele>264.0</ele><time>2026-03-29T07:11:53.14Z</time></trkpt><trkpt lat="45.86314" lon="8.6824133"><ele>264.0</ele><time>2026-03-29T07:11:55.14Z</time></trkpt><trkpt lat="45.8630283" lon="8.6823433"><ele>264.0</ele><time>2026-03-29T07:11:58.14Z</time></trkpt><trkpt lat="45.8631483" lon="8.6824817"><ele>264.0</ele><time>2026-03-29T07:12:00.141Z</time></trkpt><trkpt lat="45.8631883" lon="8.682565"><ele>264.0</ele><time>2026-03-29T07:12:01.14Z</time></trkpt><trkpt lat="45.8631033" lon="8.6826433"><ele>264.0</ele><time>2026-03-29T07:13:55.14Z</time></trkpt><trkpt lat="45.8631533" lon="8.682735"><ele>264.0</ele><time>2026-03-29T07:13:57.141Z</time></trkpt><trkpt lat="45.8632467" lon="8.6828367"><ele>264.0</ele><time>2026-03-29T07:13:59.14Z</time></trkpt><trkpt lat="45.8632967" lon="8.6828917"><ele>264.0</ele><time>2026-03-29T07:14:00.14Z</time></trkpt><trkpt lat="45.86335" lon="8.6829417"><ele>264.0</ele><time>2026-03-29T07:14:01.141Z</time></trkpt><trkpt lat="45.86341" lon="8.6829933"><ele>264.0</ele><time>2026-03-29T07:14:02.14Z</time></trkpt><trkpt lat="45.863505" lon="8.6830683"><ele>264.0</ele><time>2026-03-29T07:14:03.141Z</time></trkpt><trkpt lat="45.8635883" lon="8.6831433"><ele>264.0</ele><time>2026-03-29T07:14:04.14Z</time></trkpt><trkpt lat="45.8636883" lon="8.68322"><ele>264.0</ele><time>2026-03-29T07:14:05.141Z</time></trkpt><trkpt lat="45.8637883" lon="8.6832967"><ele>265.75</ele><time>2026-03-29T07:14:06.14Z</time></trkpt><trkpt lat="45.8638983" lon="8.683375"><ele>267.5</ele><time>2026-03-29T07:14:07.141Z</time></trkpt><trkpt lat="45.864" lon="8.6834667"><ele>269.25</ele><time>2026-03-29T07:14:08.14Z</time></trkpt><trkpt lat="45.8641033" lon="8.6835617"><ele>271.0</ele><time>2026-03-29T07:14:09.14Z</time></trkpt><trkpt lat="45.8642033" lon="8.6836467"><ele>272.3333333333333</ele><time>2026-03-29T07:14:10.14Z</time></trkpt><trkpt lat="45.86429" lon="8.6836917"><ele>273.66666666666663</ele><time>2026-03-29T07:14:11.14Z</time></trkpt><trkpt lat="45.86437" lon="8.6837083"><ele>275.0</ele><time>2026-03-29T07:14:12.14Z</time></trkpt><trkpt lat="45.8644417" lon="8.6837"><ele>276.3333333333333</ele><time>2026-03-29T07:14:13.141Z</time></trkpt><trkpt lat="45.86452" lon="8.6836667"><ele>277.6666666666667</ele><time>2026-03-29T07:14:14.141Z</time></trkpt><trkpt lat="45.8646017" lon="8.6836083"><ele>279.0</ele><time>2026-03-29T07:14:15.14Z</time></trkpt><trkpt lat="45.8646683" lon="8.6835167"><ele>279.0</ele><time>2026-03-29T07:14:16.14Z</time></trkpt><trkpt lat="45.8647467" lon="8.6834533"><ele>279.0</ele><time>2026-03-29T07:14:17.14Z</time></trkpt><trkpt lat="45.8648333" lon="8.6834017"><ele>279.0</ele><time>2026-03-29T07:14:18.14Z</time></trkpt><trkpt lat="45.864935" lon="8.683375"><ele>279.0</ele><time>2026-03-29T07:14:19.14Z</time></trkpt><trkpt lat="45.8650417" lon="8.68335"><ele>279.0</ele><time>2026-03-29T07:14:20.14Z</time></trkpt><trkpt lat="45.8651333" lon="8.6833367"><ele>279.5</ele><time>2026-03-29T07:14:21.14Z</time></trkpt><trkpt lat="45.86522" lon="8.6833317"><ele>280.0</ele><time>2026-03-29T07:14:22.141Z</time></trkpt><trkpt lat="45.8652867" lon="8.6833383"><ele>280.5</ele><time>2026-03-29T07:14:23.141Z</time></trkpt><trkpt lat="45.86538" lon="8.6834283"><ele>281.0</ele><time>2026-03-29T07:14:25.14Z</time></trkpt><trkpt lat="45.8653783" lon="8.6835317"><ele>281.5</ele><time>2026-03-29T07:14:26.141Z</time></trkpt><trkpt lat="45.8653667" lon="8.6836467"><ele>282.0</ele><time>2026-03-29T07:14:27.14Z</time></trkpt><trkpt lat="45.865335" lon="8.6837783"><ele>283.0</ele><time>2026-03-29T07:14:28.14Z</time></trkpt><trkpt lat="45.8653" lon="8.6839067"><ele>284.0</ele><time>2026-03-29T07:14:29.14Z</time></trkpt><trkpt lat="45.865275" lon="8.6840267"><ele>285.0</ele><time>2026-03-29T07:14:30.14Z</time></trkpt><trkpt lat="45.8652883" lon="8.6841217"><ele>286.0</ele><time>2026-03-29T07:14:31.141Z</time></trkpt><trkpt lat="45.8653367" lon="8.6842083"><ele>287.0</ele><time>2026-03-29T07:14:32.14Z</time></trkpt><trkpt lat="45.8654" lon="8.6843017"><ele>288.0</ele><time>2026-03-29T07:14:33.14Z</time></trkpt><trkpt lat="45.8654583" lon="8.6844"><ele>288.8</ele><time>2026-03-29T07:14:34.14Z</time></trkpt><trkpt lat="45.8655117" lon="8.6845"><ele>289.6</ele><time>2026-03-29T07:14:35.14Z</time></trkpt><trkpt lat="45.865545" lon="8.684625"><ele>290.4</ele><time>2026-03-29T07:14:36.14Z</time></trkpt><trkpt lat="45.8655633" lon="8.68476"><ele>291.2</ele><time>2026-03-29T07:14:37.141Z</time></trkpt><trkpt lat="45.8655783" lon="8.6849017"><ele>292.0</ele><time>2026-03-29T07:14:38.141Z</time></trkpt><trkpt lat="45.86559" lon="8.6850383"><ele>292.0</ele><time>2026-03-29T07:14:39.14Z</time></trkpt><trkpt lat="45.8656067" lon="8.6851667"><ele>292.0</ele><time>2026-03-29T07:14:40.14Z</time></trkpt><trkpt lat="45.8656217" lon="8.6852783"><ele>292.0</ele><time>2026-03-29T07:14:41.14Z</time></trkpt><trkpt lat="45.8656517" lon="8.6854"><ele>292.0</ele><time>2026-03-29T07:14:43.14Z</time></trkpt><trkpt lat="45.8656733" lon="8.6854867"><ele>292.0</ele><time>2026-03-29T07:14:47.141Z</time></trkpt><trkpt lat="45.8657867" lon="8.6854533"><ele>292.0</ele><time>2026-03-29T07:14:50.14Z</time></trkpt><trkpt lat="45.865865" lon="8.68538"><ele>293.0</ele><time>2026-03-29T07:14:51.14Z</time></trkpt><trkpt lat="45.86595" lon="8.6852967"><ele>294.0</ele><time>2026-03-29T07:14:52.14Z</time></trkpt><trkpt lat="45.8660533" lon="8.6852233"><ele>295.0</ele><time>2026-03-29T07:14:53.14Z</time></trkpt><trkpt lat="45.86616" lon="8.6851417"><ele>296.0</ele><time>2026-03-29T07:14:54.14Z</time></trkpt><trkpt lat="45.866265" lon="8.6850483"><ele>296.0</ele><time>2026-03-29T07:14:55.14Z</time></trkpt><trkpt lat="45.866365" lon="8.6849583"><ele>296.0</ele><time>2026-03-29T07:14:56.14Z</time></trkpt><trkpt lat="45.8664583" lon="8.6848767"><ele>296.0</ele><time>2026-03-29T07:14:57.14Z</time></trkpt><trkpt lat="45.8665567" lon="8.6847933"><ele>296.0</ele><time>2026-03-29T07:14:58.14Z</time></trkpt><trkpt lat="45.8666683" lon="8.6847217"><ele>297.25</ele><time>2026-03-29T07:14:59.141Z</time></trkpt><trkpt lat="45.8667833" lon="8.6846433"><ele>298.5</ele><time>2026-03-29T07:15:00.141Z</time></trkpt><trkpt lat="45.8669" lon="8.68457"><ele>299.75</ele><time>2026-03-29T07:15:01.14Z</time></trkpt><trkpt lat="45.8670183" lon="8.6845133"><ele>301.0</ele><time>2026-03-29T07:15:02.14Z</time></trkpt><trkpt lat="45.8671233" lon="8.6844567"><ele>299.16666666666663</ele><time>2026-03-29T07:15:03.14Z</time></trkpt><trkpt lat="45.8672167" lon="8.684415"><ele>297.3333333333333</ele><time>2026-03-29T07:15:04.14Z</time></trkpt><trkpt lat="45.8672983" lon="8.6843867"><ele>295.5</ele><time>2026-03-29T07:15:05.14Z</time></trkpt><trkpt lat="45.867375" lon="8.68437"><ele>293.6666666666667</ele><time>2026-03-29T07:15:06.14Z</time></trkpt><trkpt lat="45.8674517" lon="8.684375"><ele>291.83333333333337</ele><time>2026-03-29T07:15:07.141Z</time></trkpt><trkpt lat="45.8675333" lon="8.6844017"><ele>290.0</ele><time>2026-03-29T07:15:08.14Z</time></trkpt><trkpt lat="45.8676117" lon="8.68447"><ele>294.6</ele><time>2026-03-29T07:15:09.14Z</time></trkpt><trkpt lat="45.8676867" lon="8.6845817"><ele>299.2</ele><time>2026-03-29T07:15:10.14Z</time></trkpt><trkpt lat="45.867735" lon="8.6847383"><ele>303.8</ele><time>2026-03-29T07:15:11.141Z</time></trkpt><trkpt lat="45.86777" lon="8.6848517"><ele>308.4</ele><time>2026-03-29T07:15:12.14Z</time></trkpt><trkpt lat="45.86781" lon="8.6849367"><ele>313.0</ele><time>2026-03-29T07:15:13.14Z</time></trkpt><trkpt lat="45.8678767" lon="8.68495"><ele>313.0</ele><time>2026-03-29T07:15:14.14Z</time></trkpt><trkpt lat="45.86796" lon="8.6849567"><ele>313.0</ele><time>2026-03-29T07:15:15.14Z</time></trkpt><trkpt lat="45.868055" lon="8.6849567"><ele>313.0</ele><time>2026-03-29T07:15:16.14Z</time></trkpt><trkpt lat="45.8681667" lon="8.6849433"><ele>313.0</ele><time>2026-03-29T07:15:17.14Z</time></trkpt><trkpt lat="45.8682917" lon="8.68494"><ele>313.0</ele><time>2026-03-29T07:15:18.14Z</time></trkpt><trkpt lat="45.8684117" lon="8.6849167"><ele>314.6</ele><time>2026-03-29T07:15:19.14Z</time></trkpt><trkpt lat="45.8685367" lon="8.6849133"><ele>316.20000000000005</ele><time>2026-03-29T07:15:20.14Z</time></trkpt><trkpt lat="45.8686483" lon="8.6848983"><ele>317.8</ele><time>2026-03-29T07:15:21.14Z</time></trkpt><trkpt lat="45.86874" lon="8.6848683"><ele>319.40000000000003</ele><time>2026-03-29T07:15:22.14Z</time></trkpt><trkpt lat="45.8688267" lon="8.6848583"><ele>321.0</ele><time>2026-03-29T07:15:23.14Z</time></trkpt><trkpt lat="45.8688883" lon="8.684775"><ele>321.0</ele><time>2026-03-29T07:15:24.14Z</time></trkpt><trkpt lat="45.86896" lon="8.6846917"><ele>321.0</ele><time>2026-03-29T07:15:25.14Z</time></trkpt><trkpt lat="45.869035" lon="8.68461"><ele>321.0</ele><time>2026-03-29T07:15:26.141Z</time></trkpt><trkpt lat="45.8691217" lon="8.6845617"><ele>321.0</ele><time>2026-03-29T07:15:27.14Z</time></trkpt><trkpt lat="45.869205" lon="8.6845233"><ele>321.0</ele><time>2026-03-29T07:15:28.141Z</time></trkpt><trkpt lat="45.86928" lon="8.6844583"><ele>319.3333333333333</ele><time>2026-03-29T07:15:29.141Z</time></trkpt><trkpt lat="45.8693433" lon="8.6843983"><ele>317.6666666666667</ele><time>2026-03-29T07:15:30.14Z</time></trkpt><trkpt lat="45.869405" lon="8.6843367"><ele>316.0</ele><time>2026-03-29T07:15:31.141Z</time></trkpt><trkpt lat="45.8694567" lon="8.6842683"><ele>314.33333333333337</ele><time>2026-03-29T07:15:32.14Z</time></trkpt><trkpt lat="45.8695617" lon="8.6841617"><ele>312.6666666666667</ele><time>2026-03-29T07:15:34.14Z</time></trkpt><trkpt lat="45.8696383" lon="8.68412"><ele>311.0</ele><time>2026-03-29T07:15:35.14Z</time></trkpt><trkpt lat="45.869725" lon="8.684075"><ele>311.0</ele><time>2026-03-29T07:15:36.14Z</time></trkpt><trkpt lat="45.8698067" lon="8.68403"><ele>311.0</ele><time>2026-03-29T07:15:37.14Z</time></trkpt><trkpt lat="45.869885" lon="8.683985"><ele>311.0</ele><time>2026-03-29T07:15:38.141Z</time></trkpt><trkpt lat="45.8699483" lon="8.6839283"><ele>311.0</ele><time>2026-03-29T07:15:39.14Z</time></trkpt><trkpt lat="45.87002" lon="8.68388"><ele>311.0</ele><time>2026-03-29T07:15:40.14Z</time></trkpt><trkpt lat="45.8700933" lon="8.68383"><ele>311.0</ele><time>2026-03-29T07:15:41.14Z</time></trkpt><trkpt lat="45.870175" lon="8.6838033"><ele>310.5</ele><time>2026-03-29T07:15:42.14Z</time></trkpt><trkpt lat="45.8702583" lon="8.683795"><ele>310.0</ele><time>2026-03-29T07:15:43.14Z</time></trkpt><trkpt lat="45.87033" lon="8.6837883"><ele>309.5</ele><time>2026-03-29T07:15:44.14Z</time></trkpt><trkpt lat="45.870395" lon="8.683765"><ele>309.0</ele><time>2026-03-29T07:15:45.14Z</time></trkpt><trkpt lat="45.8705033" lon="8.6837183"><ele>308.5</ele><time>2026-03-29T07:15:47.14Z</time></trkpt><trkpt lat="45.870605" lon="8.6836617"><ele>308.0</ele><time>2026-03-29T07:15:49.14Z</time></trkpt><trkpt lat="45.8707" lon="8.683595"><ele>308.0</ele><time>2026-03-29T07:15:51.14Z</time></trkpt><trkpt lat="45.87079" lon="8.6835133"><ele>308.0</ele><time>2026-03-29T07:15:53.141Z</time></trkpt><trkpt lat="45.8708917" lon="8.6834333"><ele>308.0</ele><time>2026-03-29T07:15:55.14Z</time></trkpt><trkpt lat="45.8710017" lon="8.6833467"><ele>308.0</ele><time>2026-03-29T07:15:57.141Z</time></trkpt><trkpt lat="45.871065" lon="8.6832933"><ele>308.0</ele><time>2026-03-29T07:15:58.14Z</time></trkpt><trkpt lat="45.8711267" lon="8.6832383"><ele>310.0</ele><time>2026-03-29T07:15:59.14Z</time></trkpt><trkpt lat="45.8712083" lon="8.6831717"><ele>312.0</ele><time>2026-03-29T07:16:00.14Z</time></trkpt><trkpt lat="45.8712917" lon="8.6831083"><ele>314.0</ele><time>2026-03-29T07:16:01.14Z</time></trkpt><trkpt lat="45.8713717" lon="8.6830333"><ele>316.0</ele><time>2026-03-29T07:16:02.14Z</time></trkpt><trkpt lat="45.871445" lon="8.682965"><ele>318.0</ele><time>2026-03-29T07:16:03.141Z</time></trkpt><trkpt lat="45.8715067" lon="8.682895"><ele>318.0</ele><time>2026-03-29T07:16:04.14Z</time></trkpt><trkpt lat="45.87157" lon="8.6828533"><ele>318.0</ele><time>2026-03-29T07:16:05.141Z</time></trkpt><trkpt lat="45.871635" lon="8.68281"><ele>318.0</ele><time>2026-03-29T07:16:06.141Z</time></trkpt><trkpt lat="45.87171" lon="8.6827633"><ele>318.0</ele><time>2026-03-29T07:16:07.14Z</time></trkpt><trkpt lat="45.8717867" lon="8.6827183"><ele>318.0</ele><time>2026-03-29T07:16:08.141Z</time></trkpt><trkpt lat="45.8718583" lon="8.6826733"><ele>318.0</ele><time>2026-03-29T07:16:09.141Z</time></trkpt><trkpt lat="45.8719233" lon="8.6826367"><ele>317.8333333333333</ele><time>2026-03-29T07:16:10.141Z</time></trkpt><trkpt lat="45.87199" lon="8.6825883"><ele>317.6666666666667</ele><time>2026-03-29T07:16:11.14Z</time></trkpt><trkpt lat="45.8720517" lon="8.6825333"><ele>317.5</ele><time>2026-03-29T07:16:12.141Z</time></trkpt><trkpt lat="45.8721583" lon="8.6824383"><ele>317.33333333333337</ele><time>2026-03-29T07:16:14.14Z</time></trkpt><trkpt lat="45.872225" lon="8.682395"><ele>317.1666666666667</ele><time>2026-03-29T07:16:15.14Z</time></trkpt><trkpt lat="45.8722867" lon="8.68237"><ele>317.0</ele><time>2026-03-29T07:16:16.14Z</time></trkpt><trkpt lat="45.872355" lon="8.68235"><ele>317.0</ele><time>2026-03-29T07:16:17.141Z</time></trkpt><trkpt lat="45.8724933" lon="8.682275"><ele>317.0</ele><time>2026-03-29T07:16:19.14Z</time></trkpt><trkpt lat="45.8725817" lon="8.6822217"><ele>317.0</ele><time>2026-03-29T07:16:20.14Z</time></trkpt><trkpt lat="45.8726633" lon="8.6821733"><ele>317.0</ele><time>2026-03-29T07:16:21.14Z</time></trkpt><trkpt lat="45.8727417" lon="8.6821417"><ele>317.0</ele><time>2026-03-29T07:16:22.141Z</time></trkpt><trkpt lat="45.8728083" lon="8.6821417"><ele>318.1666666666667</ele><time>2026-03-29T07:16:23.14Z</time></trkpt><trkpt lat="45.8728817" lon="8.6821567"><ele>319.33333333333337</ele><time>2026-03-29T07:16:24.14Z</time></trkpt><trkpt lat="45.8729483" lon="8.682175"><ele>320.5</ele><time>2026-03-29T07:16:25.14Z</time></trkpt><trkpt lat="45.8730333" lon="8.6821867"><ele>321.6666666666667</ele><time>2026-03-29T07:16:27.14Z</time></trkpt><trkpt lat="45.87311" lon="8.6821367"><ele>322.8333333333333</ele><time>2026-03-29T07:16:29.141Z</time></trkpt><trkpt lat="45.8732033" lon="8.682065"><ele>324.0</ele><time>2026-03-29T07:16:31.14Z</time></trkpt><trkpt lat="45.8733367" lon="8.6820083"><ele>323.79999999999995</ele><time>2026-03-29T07:16:33.14Z</time></trkpt><trkpt lat="45.8734483" lon="8.6819917"><ele>323.59999999999997</ele><time>2026-03-29T07:16:34.14Z</time></trkpt><trkpt lat="45.8735567" lon="8.681995"><ele>323.4</ele><time>2026-03-29T07:16:35.141Z</time></trkpt><trkpt lat="45.8736583" lon="8.6820083"><ele>323.2</ele><time>2026-03-29T07:16:36.14Z</time></trkpt><trkpt lat="45.8737783" lon="8.6820233"><ele>323.0</ele><time>2026-03-29T07:16:37.141Z</time></trkpt><trkpt lat="45.8738767" lon="8.682035"><ele>323.0</ele><time>2026-03-29T07:16:38.14Z</time></trkpt><trkpt lat="45.8739567" lon="8.682045"><ele>323.0</ele><time>2026-03-29T07:16:39.14Z</time></trkpt><trkpt lat="45.8740233" lon="8.6820517"><ele>323.0</ele><time>2026-03-29T07:16:40.14Z</time></trkpt><trkpt lat="45.8741" lon="8.6820583"><ele>323.0</ele><time>2026-03-29T07:16:42.14Z</time></trkpt><trkpt lat="45.8741517" lon="8.6821417"><ele>323.0</ele><time>2026-03-29T07:16:45.14Z</time></trkpt><trkpt lat="45.874135" lon="8.6822817"><ele>323.0</ele><time>2026-03-29T07:16:46.14Z</time></trkpt><trkpt lat="45.8741467" lon="8.682405"><ele>323.0</ele><time>2026-03-29T07:16:47.141Z</time></trkpt><trkpt lat="45.8741767" lon="8.68254"><ele>323.0</ele><time>2026-03-29T07:16:48.14Z</time></trkpt><trkpt lat="45.8742183" lon="8.6826617"><ele>323.0</ele><time>2026-03-29T07:16:49.14Z</time></trkpt><trkpt lat="45.8742767" lon="8.6827733"><ele>323.0</ele><time>2026-03-29T07:16:50.14Z</time></trkpt><trkpt lat="45.8743317" lon="8.6828783"><ele>323.0</ele><time>2026-03-29T07:16:51.14Z</time></trkpt><trkpt lat="45.87439" lon="8.6829817"><ele>324.1666666666667</ele><time>2026-03-29T07:16:52.14Z</time></trkpt><trkpt lat="45.8744317" lon="8.6830767"><ele>325.33333333333337</ele><time>2026-03-29T07:16:53.141Z</time></trkpt><trkpt lat="45.874465" lon="8.6831817"><ele>326.5</ele><time>2026-03-29T07:16:54.14Z</time></trkpt><trkpt lat="45.8744783" lon="8.6832917"><ele>327.6666666666667</ele><time>2026-03-29T07:16:55.14Z</time></trkpt><trkpt lat="45.874475" lon="8.6833967"><ele>328.8333333333333</ele><time>2026-03-29T07:16:56.14Z</time></trkpt><trkpt lat="45.874445" lon="8.6835367"><ele>330.0</ele><time>2026-03-29T07:16:58.14Z</time></trkpt><trkpt lat="45.8743683" lon="8.68359"><ele>330.8333333333333</ele><time>2026-03-29T07:17:00.14Z</time></trkpt><trkpt lat="45.8742833" lon="8.6837067"><ele>331.6666666666667</ele><time>2026-03-29T07:17:02.14Z</time></trkpt><trkpt lat="45.8742433" lon="8.6837783"><ele>332.5</ele><time>2026-03-29T07:17:03.14Z</time></trkpt><trkpt lat="45.8741983" lon="8.6838733"><ele>333.33333333333337</ele><time>2026-03-29T07:17:05.14Z</time></trkpt><trkpt lat="45.87427" lon="8.6839817"><ele>334.1666666666667</ele><time>2026-03-29T07:17:16.14Z</time></trkpt><trkpt lat="45.874335" lon="8.6840217"><ele>335.0</ele><time>2026-03-29T07:17:17.14Z</time></trkpt><trkpt lat="45.8744067" lon="8.684055"><ele>335.2</ele><time>2026-03-29T07:17:18.14Z</time></trkpt><trkpt lat="45.8744917" lon="8.6841183"><ele>335.4</ele><time>2026-03-29T07:17:19.141Z</time></trkpt><trkpt lat="45.87459" lon="8.6841967"><ele>335.6</ele><time>2026-03-29T07:17:20.14Z</time></trkpt><trkpt lat="45.8746817" lon="8.684295"><ele>335.8</ele><time>2026-03-29T07:17:21.14Z</time></trkpt><trkpt lat="45.874775" lon="8.6843917"><ele>336.0</ele><time>2026-03-29T07:17:22.141Z</time></trkpt><trkpt lat="45.87487" lon="8.6844817"><ele>337.0</ele><time>2026-03-29T07:17:23.14Z</time></trkpt><trkpt lat="45.8749567" lon="8.6845533"><ele>338.0</ele><time>2026-03-29T07:17:24.14Z</time></trkpt><trkpt lat="45.87505" lon="8.6846117"><ele>339.0</ele><time>2026-03-29T07:17:25.14Z</time></trkpt><trkpt lat="45.875145" lon="8.684655"><ele>340.0</ele><time>2026-03-29T07:17:26.14Z</time></trkpt><trkpt lat="45.8752367" lon="8.6846867"><ele>341.0</ele><time>2026-03-29T07:17:27.14Z</time></trkpt><trkpt lat="45.8753367" lon="8.6847333"><ele>341.0</ele><time>2026-03-29T07:17:28.14Z</time></trkpt><trkpt lat="45.875435" lon="8.6847767"><ele>341.0</ele><time>2026-03-29T07:17:29.14Z</time></trkpt><trkpt lat="45.8755317" lon="8.6848183"><ele>341.0</ele><time>2026-03-29T07:17:30.14Z</time></trkpt><trkpt lat="45.8756283" lon="8.6848617"><ele>341.0</ele><time>2026-03-29T07:17:31.14Z</time></trkpt><trkpt lat="45.87571" lon="8.68489"><ele>341.0</ele><time>2026-03-29T07:17:32.141Z</time></trkpt><trkpt lat="45.8758017" lon="8.6849333"><ele>341.0</ele><time>2026-03-29T07:17:33.141Z</time></trkpt><trkpt lat="45.8758767" lon="8.6849617"><ele>341.0</ele><time>2026-03-29T07:17:34.14Z</time></trkpt><trkpt lat="45.8759617" lon="8.68502"><ele>341.0</ele><time>2026-03-29T07:17:35.141Z</time></trkpt><trkpt lat="45.876055" lon="8.6850967"><ele>341.0</ele><time>2026-03-29T07:17:36.14Z</time></trkpt><trkpt lat="45.8761333" lon="8.6851917"><ele>341.0</ele><time>2026-03-29T07:17:37.14Z</time></trkpt><trkpt lat="45.8762133" lon="8.685305"><ele>340.6</ele><time>2026-03-29T07:17:38.14Z</time></trkpt><trkpt lat="45.8762817" lon="8.6854233"><ele>340.20000000000005</ele><time>2026-03-29T07:17:39.141Z</time></trkpt><trkpt lat="45.87635" lon="8.685555"><ele>339.79999999999995</ele><time>2026-03-29T07:17:40.141Z</time></trkpt><trkpt lat="45.8764117" lon="8.6856683"><ele>339.4</ele><time>2026-03-29T07:17:41.14Z</time></trkpt><trkpt lat="45.876475" lon="8.68578"><ele>339.0</ele><time>2026-03-29T07:17:42.14Z</time></trkpt><trkpt lat="45.8765233" lon="8.685875"><ele>339.0</ele><time>2026-03-29T07:17:43.141Z</time></trkpt><trkpt lat="45.8765667" lon="8.6859733"><ele>339.0</ele><time>2026-03-29T07:17:44.14Z</time></trkpt><trkpt lat="45.8766083" lon="8.6860783"><ele>339.0</ele><time>2026-03-29T07:17:45.141Z</time></trkpt><trkpt lat="45.8766483" lon="8.6861733"><ele>339.0</ele><time>2026-03-29T07:17:46.14Z</time></trkpt><trkpt lat="45.8766933" lon="8.6862617"><ele>339.0</ele><time>2026-03-29T07:17:47.14Z</time></trkpt><trkpt lat="45.8767667" lon="8.6864217"><ele>338.2857142857143</ele><time>2026-03-29T07:17:49.14Z</time></trkpt><trkpt lat="45.8768367" lon="8.6865117"><ele>337.5714285714286</ele><time>2026-03-29T07:17:51.14Z</time></trkpt><trkpt lat="45.876875" lon="8.6865933"><ele>336.8571428571429</ele><time>2026-03-29T07:17:55.14Z</time></trkpt><trkpt lat="45.8768983" lon="8.6866983"><ele>336.1428571428571</ele><time>2026-03-29T07:17:59.14Z</time></trkpt><trkpt lat="45.8769333" lon="8.6867833"><ele>335.42857142857144</ele><time>2026-03-29T07:18:02.14Z</time></trkpt><trkpt lat="45.876975" lon="8.6868617"><ele>334.7142857142857</ele><time>2026-03-29T07:18:06.14Z</time></trkpt><trkpt lat="45.8770117" lon="8.6869383"><ele>334.0</ele><time>2026-03-29T07:18:09.14Z</time></trkpt><trkpt lat="45.8771067" lon="8.687065"><ele>334.0</ele><time>2026-03-29T07:18:20.14Z</time></trkpt><trkpt lat="45.8771533" lon="8.68716"><ele>334.0</ele><time>2026-03-29T07:18:24.14Z</time></trkpt><trkpt lat="45.8772017" lon="8.6872383"><ele>334.0</ele><time>2026-03-29T07:18:26.141Z</time></trkpt><trkpt lat="45.8772667" lon="8.687355"><ele>334.0</ele><time>2026-03-29T07:18:28.14Z</time></trkpt><trkpt lat="45.8773083" lon="8.687425"><ele>334.0</ele><time>2026-03-29T07:18:29.141Z</time></trkpt><trkpt lat="45.8773583" lon="8.6875117"><ele>334.0</ele><time>2026-03-29T07:18:30.14Z</time></trkpt><trkpt lat="45.8774133" lon="8.6876033"><ele>334.0</ele><time>2026-03-29T07:18:31.14Z</time></trkpt><trkpt lat="45.87746" lon="8.687685"><ele>334.0</ele><time>2026-03-29T07:18:32.14Z</time></trkpt><trkpt lat="45.8775067" lon="8.6877533"><ele>334.0</ele><time>2026-03-29T07:18:33.14Z</time></trkpt><trkpt lat="45.8775417" lon="8.6878783"><ele>334.0</ele><time>2026-03-29T07:18:35.14Z</time></trkpt><trkpt lat="45.87759" lon="8.6879933"><ele>334.0</ele><time>2026-03-29T07:18:37.14Z</time></trkpt><trkpt lat="45.8776617" lon="8.6881167"><ele>334.0</ele><time>2026-03-29T07:18:39.14Z</time></trkpt><trkpt lat="45.8777033" lon="8.68821"><ele>333.66666666666663</ele><time>2026-03-29T07:18:40.14Z</time></trkpt><trkpt lat="45.8777433" lon="8.6882917"><ele>333.3333333333333</ele><time>2026-03-29T07:18:41.14Z</time></trkpt><trkpt lat="45.8777817" lon="8.6883867"><ele>333.0</ele><time>2026-03-29T07:18:42.14Z</time></trkpt><trkpt lat="45.877815" lon="8.6884933"><ele>332.6666666666667</ele><time>2026-03-29T07:18:43.14Z</time></trkpt><trkpt lat="45.8778433" lon="8.6886417"><ele>332.33333333333337</ele><time>2026-03-29T07:18:44.14Z</time></trkpt><trkpt lat="45.8778917" lon="8.6887517"><ele>332.0</ele><time>2026-03-29T07:18:45.141Z</time></trkpt><trkpt lat="45.8779633" lon="8.6888617"><ele>332.0</ele><time>2026-03-29T07:18:46.14Z</time></trkpt><trkpt lat="45.8780183" lon="8.6889533"><ele>332.0</ele><time>2026-03-29T07:18:47.14Z</time></trkpt><trkpt lat="45.8780683" lon="8.689035"><ele>332.0</ele><time>2026-03-29T07:18:48.14Z</time></trkpt><trkpt lat="45.8781117" lon="8.689125"><ele>332.0</ele><time>2026-03-29T07:18:49.14Z</time></trkpt><trkpt lat="45.8781567" lon="8.6891983"><ele>332.0</ele><time>2026-03-29T07:18:50.14Z</time></trkpt><trkpt lat="45.8781983" lon="8.6892783"><ele>332.0</ele><time>2026-03-29T07:18:51.141Z</time></trkpt><trkpt lat="45.878245" lon="8.689365"><ele>331.1666666666667</ele><time>2026-03-29T07:18:52.14Z</time></trkpt><trkpt lat="45.8782867" lon="8.6894467"><ele>330.33333333333337</ele><time>2026-03-29T07:18:53.14Z</time></trkpt><trkpt lat="45.878325" lon="8.6895317"><ele>329.5</ele><time>2026-03-29T07:18:54.14Z</time></trkpt><trkpt lat="45.878375" lon="8.6896767"><ele>328.6666666666667</ele><time>2026-03-29T07:18:56.141Z</time></trkpt><trkpt lat="45.878405" lon="8.689785"><ele>327.8333333333333</ele><time>2026-03-29T07:18:58.14Z</time></trkpt><trkpt lat="45.8784333" lon="8.689885"><ele>327.0</ele><time>2026-03-29T07:19:00.14Z</time></trkpt><trkpt lat="45.8784883" lon="8.6899683"><ele>327.0</ele><time>2026-03-29T07:19:02.14Z</time></trkpt><trkpt lat="45.87858" lon="8.6900717"><ele>327.0</ele><time>2026-03-29T07:19:04.14Z</time></trkpt><trkpt lat="45.878635" lon="8.69014"><ele>327.0</ele><time>2026-03-29T07:19:05.14Z</time></trkpt><trkpt lat="45.8786917" lon="8.6902117"><ele>327.0</ele><time>2026-03-29T07:19:06.14Z</time></trkpt><trkpt lat="45.8787683" lon="8.6902667"><ele>327.0</ele><time>2026-03-29T07:19:07.14Z</time></trkpt><trkpt lat="45.8788517" lon="8.6903333"><ele>327.0</ele><time>2026-03-29T07:19:08.14Z</time></trkpt><trkpt lat="45.878935" lon="8.6903917"><ele>328.0</ele><time>2026-03-29T07:19:09.14Z</time></trkpt><trkpt lat="45.8790117" lon="8.69047"><ele>329.0</ele><time>2026-03-29T07:19:10.141Z</time></trkpt><trkpt lat="45.8790867" lon="8.69057"><ele>330.0</ele><time>2026-03-29T07:19:11.14Z</time></trkpt><trkpt lat="45.8791417" lon="8.6906967"><ele>331.0</ele><time>2026-03-29T07:19:12.14Z</time></trkpt><trkpt lat="45.8792067" lon="8.6908467"><ele>332.0</ele><time>2026-03-29T07:19:13.141Z</time></trkpt><trkpt lat="45.8792767" lon="8.6909883"><ele>331.6666666666667</ele><time>2026-03-29T07:19:14.14Z</time></trkpt><trkpt lat="45.8793333" lon="8.6911183"><ele>331.33333333333337</ele><time>2026-03-29T07:19:15.141Z</time></trkpt><trkpt lat="45.87937" lon="8.6912217"><ele>331.0</ele><time>2026-03-29T07:19:16.14Z</time></trkpt><trkpt lat="45.8793983" lon="8.691315"><ele>330.6666666666667</ele><time>2026-03-29T07:19:17.14Z</time></trkpt><trkpt lat="45.8794167" lon="8.6914017"><ele>330.3333333333333</ele><time>2026-03-29T07:19:19.14Z</time></trkpt><trkpt lat="45.8794517" lon="8.6915683"><ele>330.0</ele><time>2026-03-29T07:19:31.14Z</time></trkpt><trkpt lat="45.8794383" lon="8.6916633"><ele>330.0</ele><time>2026-03-29T07:20:10.14Z</time></trkpt><trkpt lat="45.879525" lon="8.6917033"><ele>330.0</ele><time>2026-03-29T07:20:49.14Z</time></trkpt><trkpt lat="45.8796083" lon="8.6918117"><ele>330.0</ele><time>2026-03-29T07:20:51.14Z</time></trkpt><trkpt lat="45.8796433" lon="8.6919067"><ele>330.0</ele><time>2026-03-29T07:20:53.14Z</time></trkpt><trkpt lat="45.879685" lon="8.6919933"><ele>330.0</ele><time>2026-03-29T07:20:56.14Z</time></trkpt><trkpt lat="45.8796917" lon="8.692085"><ele>330.0</ele><time>2026-03-29T07:20:58.141Z</time></trkpt><trkpt lat="45.87967" lon="8.692215"><ele>330.6666666666667</ele><time>2026-03-29T07:21:03.14Z</time></trkpt><trkpt lat="45.8795767" lon="8.6921683"><ele>331.3333333333333</ele><time>2026-03-29T07:21:06.14Z</time></trkpt><trkpt lat="45.8795083" lon="8.6921283"><ele>332.0</ele><time>2026-03-29T07:21:08.14Z</time></trkpt><trkpt lat="45.8794417" lon="8.6920783"><ele>332.66666666666663</ele><time>2026-03-29T07:21:10.141Z</time></trkpt><trkpt lat="45.87938" lon="8.69204"><ele>333.3333333333333</ele><time>2026-03-29T07:21:13.14Z</time></trkpt><trkpt lat="45.8793033" lon="8.692"><ele>334.0</ele><time>2026-03-29T07:21:16.14Z</time></trkpt><trkpt lat="45.879245" lon="8.6919583"><ele>335.2</ele><time>2026-03-29T07:21:18.14Z</time></trkpt><trkpt lat="45.87919" lon="8.6918733"><ele>336.4</ele><time>2026-03-29T07:21:22.14Z</time></trkpt><trkpt lat="45.8791267" lon="8.6918433"><ele>337.6</ele><time>2026-03-29T07:21:25.14Z</time></trkpt><trkpt lat="45.879065" lon="8.6918122"><ele>338.8</ele><time>2026-03-29T07:21:28.21Z</time></trkpt><trkpt lat="45.8789392" lon="8.6917134"><ele>340.0</ele><time>2026-03-29T07:21:31.164Z</time></trkpt><trkpt lat="45.8788402" lon="8.6915956"><ele>340.0</ele><time>2026-03-29T07:21:33.158Z</time></trkpt><trkpt lat="45.8787017" lon="8.6914883"><ele>340.0</ele><time>2026-03-29T07:21:35.141Z</time></trkpt><trkpt lat="45.8786167" lon="8.6913933"><ele>340.0</ele><time>2026-03-29T07:21:37.141Z</time></trkpt><trkpt lat="45.8785417" lon="8.6913067"><ele>340.0</ele><time>2026-03-29T07:21:39.141Z</time></trkpt><trkpt lat="45.878475" lon="8.6912417"><ele>340.0</ele><time>2026-03-29T07:21:41.14Z</time></trkpt><trkpt lat="45.8783967" lon="8.69117"><ele>342.2</ele><time>2026-03-29T07:21:43.141Z</time></trkpt><trkpt lat="45.8782933" lon="8.6910767"><ele>344.4</ele><time>2026-03-29T07:21:45.14Z</time></trkpt><trkpt lat="45.87821" lon="8.6909917"><ele>346.6</ele><time>2026-03-29T07:21:47.14Z</time></trkpt><trkpt lat="45.8781417" lon="8.6909067"><ele>348.8</ele><time>2026-03-29T07:21:49.14Z</time></trkpt><trkpt lat="45.8780583" lon="8.6908217"><ele>351.0</ele><time>2026-03-29T07:21:51.141Z</time></trkpt><trkpt lat="45.8779967" lon="8.6907317"><ele>351.0</ele><time>2026-03-29T07:21:53.14Z</time></trkpt><trkpt lat="45.8779367" lon="8.6906083"><ele>351.0</ele><time>2026-03-29T07:21:55.14Z</time></trkpt><trkpt lat="45.87787" lon="8.6904767"><ele>351.0</ele><time>2026-03-29T07:21:57.14Z</time></trkpt><trkpt lat="45.8777867" lon="8.69034"><ele>351.0</ele><time>2026-03-29T07:21:59.14Z</time></trkpt><trkpt lat="45.8777417" lon="8.6902667"><ele>351.0</ele><time>2026-03-29T07:22:00.14Z</time></trkpt><trkpt lat="45.87766" lon="8.6901433"><ele>348.6</ele><time>2026-03-29T07:22:02.14Z</time></trkpt><trkpt lat="45.8776067" lon="8.6900433"><ele>346.20000000000005</ele><time>2026-03-29T07:22:04.14Z</time></trkpt><trkpt lat="45.8775533" lon="8.6899417"><ele>343.79999999999995</ele><time>2026-03-29T07:22:06.141Z</time></trkpt><trkpt lat="45.8774883" lon="8.6898333"><ele>341.4</ele><time>2026-03-29T07:22:08.141Z</time></trkpt><trkpt lat="45.8774333" lon="8.689705"><ele>339.0</ele><time>2026-03-29T07:22:10.14Z</time></trkpt><trkpt lat="45.8773867" lon="8.6896267"><ele>342.3333333333333</ele><time>2026-03-29T07:22:11.14Z</time></trkpt><trkpt lat="45.8773217" lon="8.6895133"><ele>345.6666666666667</ele><time>2026-03-29T07:22:13.14Z</time></trkpt><trkpt lat="45.8772733" lon="8.6894533"><ele>349.0</ele><time>2026-03-29T07:22:14.14Z</time></trkpt><trkpt lat="45.8772117" lon="8.68939"><ele>352.33333333333337</ele><time>2026-03-29T07:22:16.14Z</time></trkpt><trkpt lat="45.8771483" lon="8.68934"><ele>355.6666666666667</ele><time>2026-03-29T07:22:20.14Z</time></trkpt><trkpt lat="45.8771967" lon="8.6894233"><ele>359.0</ele><time>2026-03-29T07:22:30.14Z</time></trkpt><trkpt lat="45.8772233" lon="8.6895533"><ele>361.79999999999995</ele><time>2026-03-29T07:22:33.14Z</time></trkpt><trkpt lat="45.87724" lon="8.6896833"><ele>364.59999999999997</ele><time>2026-03-29T07:22:35.14Z</time></trkpt><trkpt lat="45.8772567" lon="8.689815"><ele>367.4</ele><time>2026-03-29T07:22:37.14Z</time></trkpt><trkpt lat="45.87726" lon="8.6899417"><ele>370.2</ele><time>2026-03-29T07:22:41.14Z</time></trkpt><trkpt lat="45.8772033" lon="8.690045"><ele>373.0</ele><time>2026-03-29T07:22:49.14Z</time></trkpt><trkpt lat="45.877145" lon="8.69014"><ele>373.0</ele><time>2026-03-29T07:23:06.141Z</time></trkpt><trkpt lat="45.87719" lon="8.6902317"><ele>373.0</ele><time>2026-03-29T07:23:12.14Z</time></trkpt><trkpt lat="45.8772033" lon="8.6903283"><ele>373.0</ele><time>2026-03-29T07:23:15.14Z</time></trkpt><trkpt lat="45.877225" lon="8.6904317"><ele>373.0</ele><time>2026-03-29T07:23:17.14Z</time></trkpt><trkpt lat="45.87725" lon="8.69057"><ele>373.0</ele><time>2026-03-29T07:23:19.141Z</time></trkpt><trkpt lat="45.8772433" lon="8.6907217"><ele>373.0</ele><time>2026-03-29T07:23:21.14Z</time></trkpt><trkpt lat="45.8772567" lon="8.69093"><ele>374.8333333333333</ele><time>2026-03-29T07:23:23.14Z</time></trkpt><trkpt lat="45.8772483" lon="8.6910333"><ele>376.66666666666663</ele><time>2026-03-29T07:23:24.14Z</time></trkpt><trkpt lat="45.8772267" lon="8.6911317"><ele>378.5</ele><time>2026-03-29T07:23:25.141Z</time></trkpt><trkpt lat="45.8771917" lon="8.691225"><ele>380.3333333333333</ele><time>2026-03-29T07:23:26.14Z</time></trkpt><trkpt lat="45.8771333" lon="8.691295"><ele>382.1666666666667</ele><time>2026-03-29T07:23:27.14Z</time></trkpt><trkpt lat="45.8770617" lon="8.6913867"><ele>384.0</ele><time>2026-03-29T07:23:28.14Z</time></trkpt><trkpt lat="45.8770167" lon="8.6914617"><ele>385.5</ele><time>2026-03-29T07:23:29.14Z</time></trkpt><trkpt lat="45.877" lon="8.6915533"><ele>387.0</ele><time>2026-03-29T07:23:31.141Z</time></trkpt><trkpt lat="45.8770383" lon="8.6916333"><ele>388.5</ele><time>2026-03-29T07:23:33.14Z</time></trkpt><trkpt lat="45.8771117" lon="8.6917117"><ele>390.0</ele><time>2026-03-29T07:23:35.14Z</time></trkpt><trkpt lat="45.8771833" lon="8.6917817"><ele>391.5</ele><time>2026-03-29T07:23:37.14Z</time></trkpt><trkpt lat="45.8772467" lon="8.6918267"><ele>393.0</ele><time>2026-03-29T07:23:40.14Z</time></trkpt><trkpt lat="45.877365" lon="8.6919067"><ele>393.5</ele><time>2026-03-29T07:23:55.14Z</time></trkpt><trkpt lat="45.8774017" lon="8.692015"><ele>394.0</ele><time>2026-03-29T07:24:00.14Z</time></trkpt><trkpt lat="45.8774717" lon="8.6921367"><ele>394.5</ele><time>2026-03-29T07:24:06.14Z</time></trkpt><trkpt lat="45.87751" lon="8.6922567"><ele>395.0</ele><time>2026-03-29T07:24:13.141Z</time></trkpt><trkpt lat="45.8775567" lon="8.6923567"><ele>395.5</ele><time>2026-03-29T07:24:15.14Z</time></trkpt><trkpt lat="45.8775933" lon="8.69244"><ele>396.0</ele><time>2026-03-29T07:24:17.14Z</time></trkpt><trkpt lat="45.8776267" lon="8.69256"><ele>395.1666666666667</ele><time>2026-03-29T07:24:19.14Z</time></trkpt><trkpt lat="45.877665" lon="8.6926767"><ele>394.33333333333337</ele><time>2026-03-29T07:24:21.141Z</time></trkpt><trkpt lat="45.877725" lon="8.6928533"><ele>393.5</ele><time>2026-03-29T07:24:23.14Z</time></trkpt><trkpt lat="45.8777583" lon="8.692955"><ele>392.6666666666667</ele><time>2026-03-29T07:24:24.14Z</time></trkpt><trkpt lat="45.8777883" lon="8.6930533"><ele>391.83333333333337</ele><time>2026-03-29T07:24:25.141Z</time></trkpt><trkpt lat="45.8778233" lon="8.6931367"><ele>391.0</ele><time>2026-03-29T07:24:26.14Z</time></trkpt><trkpt lat="45.8778983" lon="8.69325"><ele>391.0</ele><time>2026-03-29T07:24:28.141Z</time></trkpt><trkpt lat="45.877975" lon="8.6933533"><ele>391.0</ele><time>2026-03-29T07:24:30.14Z</time></trkpt><trkpt lat="45.878045" lon="8.6934683"><ele>391.0</ele><time>2026-03-29T07:24:32.14Z</time></trkpt><trkpt lat="45.8780983" lon="8.6935767"><ele>391.0</ele><time>2026-03-29T07:24:34.14Z</time></trkpt><trkpt lat="45.87815" lon="8.6936983"><ele>391.0</ele><time>2026-03-29T07:24:36.14Z</time></trkpt><trkpt lat="45.8782083" lon="8.6938517"><ele>391.20000000000005</ele><time>2026-03-29T07:24:38.141Z</time></trkpt><trkpt lat="45.878255" lon="8.6939817"><ele>391.40000000000003</ele><time>2026-03-29T07:24:40.14Z</time></trkpt><trkpt lat="45.8782917" lon="8.69411"><ele>391.6</ele><time>2026-03-29T07:24:42.14Z</time></trkpt><trkpt lat="45.8783417" lon="8.69424"><ele>391.8</ele><time>2026-03-29T07:24:44.14Z</time></trkpt><trkpt lat="45.8783833" lon="8.6943533"><ele>392.0</ele><time>2026-03-29T07:24:46.14Z</time></trkpt><trkpt lat="45.8784083" lon="8.6944567"><ele>391.57142857142856</ele><time>2026-03-29T07:24:49.14Z</time></trkpt><trkpt lat="45.878435" lon="8.6945583"><ele>391.1428571428571</ele><time>2026-03-29T07:25:11.141Z</time></trkpt><trkpt lat="45.8785" lon="8.6945983"><ele>390.7142857142857</ele><time>2026-03-29T07:25:23.14Z</time></trkpt><trkpt lat="45.8785071" lon="8.6946892"><ele>390.2857142857143</ele><time>2026-03-29T07:25:58.152Z</time></trkpt><trkpt lat="45.8785556" lon="8.6947618"><ele>389.85714285714283</ele><time>2026-03-29T07:26:12.079Z</time></trkpt><trkpt lat="45.8786215" lon="8.6947796"><ele>389.42857142857144</ele><time>2026-03-29T07:26:16.219Z</time></trkpt><trkpt lat="45.8786611" lon="8.6948531"><ele>389.0</ele><time>2026-03-29T07:26:22.181Z</time></trkpt><trkpt lat="45.8786731" lon="8.6949449"><ele>389.0</ele><time>2026-03-29T07:26:38.097Z</time></trkpt><trkpt lat="45.8786642" lon="8.6950346"><ele>389.0</ele><time>2026-03-29T07:26:58.16Z</time></trkpt><trkpt lat="45.8787606" lon="8.6952307"><ele>389.0</ele><time>2026-03-29T07:27:01.14Z</time></trkpt><trkpt lat="45.8788164" lon="8.6953356"><ele>389.0</ele><time>2026-03-29T07:27:02.14Z</time></trkpt><trkpt lat="45.8788611" lon="8.6954225"><ele>389.0</ele><time>2026-03-29T07:27:03.141Z</time></trkpt><trkpt lat="45.8789007" lon="8.6955074"><ele>389.66666666666663</ele><time>2026-03-29T07:27:04.14Z</time></trkpt><trkpt lat="45.878947" lon="8.695593"><ele>390.3333333333333</ele><time>2026-03-29T07:27:05.14Z</time></trkpt><trkpt lat="45.8790067" lon="8.6957"><ele>391.0</ele><time>2026-03-29T07:27:06.14Z</time></trkpt><trkpt lat="45.8790717" lon="8.69579"><ele>391.66666666666663</ele><time>2026-03-29T07:27:07.14Z</time></trkpt><trkpt lat="45.8791217" lon="8.69586"><ele>392.3333333333333</ele><time>2026-03-29T07:27:08.14Z</time></trkpt><trkpt lat="45.8791667" lon="8.6959283"><ele>393.0</ele><time>2026-03-29T07:27:09.14Z</time></trkpt><trkpt lat="45.8792217" lon="8.6960133"><ele>390.0</ele><time>2026-03-29T07:27:10.14Z</time></trkpt><trkpt lat="45.8792683" lon="8.6960917"><ele>387.0</ele><time>2026-03-29T07:27:11.141Z</time></trkpt><trkpt lat="45.8793" lon="8.6961717"><ele>384.0</ele><time>2026-03-29T07:27:12.14Z</time></trkpt><trkpt lat="45.8793267" lon="8.6963167"><ele>381.0</ele><time>2026-03-29T07:27:14.14Z</time></trkpt><trkpt lat="45.879285" lon="8.696465"><ele>378.0</ele><time>2026-03-29T07:27:16.14Z</time></trkpt><trkpt lat="45.8792683" lon="8.696615"><ele>378.0</ele><time>2026-03-29T07:27:18.14Z</time></trkpt><trkpt lat="45.87929" lon="8.6967933"><ele>378.0</ele><time>2026-03-29T07:27:20.14Z</time></trkpt><trkpt lat="45.87931" lon="8.6969217"><ele>378.0</ele><time>2026-03-29T07:27:21.14Z</time></trkpt><trkpt lat="45.879325" lon="8.697055"><ele>378.0</ele><time>2026-03-29T07:27:22.14Z</time></trkpt><trkpt lat="45.8793433" lon="8.697165"><ele>378.0</ele><time>2026-03-29T07:27:23.14Z</time></trkpt><trkpt lat="45.8793483" lon="8.6972633"><ele>378.0</ele><time>2026-03-29T07:27:24.14Z</time></trkpt><trkpt lat="45.8793317" lon="8.6974067"><ele>378.0</ele><time>2026-03-29T07:27:26.14Z</time></trkpt><trkpt lat="45.87941" lon="8.6974783"><ele>378.0</ele><time>2026-03-29T07:27:31.14Z</time></trkpt><trkpt lat="45.8794933" lon="8.697485"><ele>378.0</ele><time>2026-03-29T07:27:33.14Z</time></trkpt><trkpt lat="45.879555" lon="8.697515"><ele>378.0</ele><time>2026-03-29T07:27:34.14Z</time></trkpt><trkpt lat="45.8796583" lon="8.6975617"><ele>378.0</ele><time>2026-03-29T07:27:36.14Z</time></trkpt><trkpt lat="45.8797433" lon="8.6976117"><ele>378.0</ele><time>2026-03-29T07:27:38.14Z</time></trkpt><trkpt lat="45.879815" lon="8.69765"><ele>378.0</ele><time>2026-03-29T07:27:40.14Z</time></trkpt><trkpt lat="45.8798783" lon="8.6976767"><ele>378.0</ele><time>2026-03-29T07:27:42.14Z</time></trkpt><trkpt lat="45.8799517" lon="8.6977233"><ele>378.0</ele><time>2026-03-29T07:27:45.14Z</time></trkpt><trkpt lat="45.87999" lon="8.6978033"><ele>378.0</ele><time>2026-03-29T07:27:48.141Z</time></trkpt><trkpt lat="45.8800083" lon="8.6979"><ele>378.5</ele><time>2026-03-29T07:27:51.14Z</time></trkpt><trkpt lat="45.8800333" lon="8.6980233"><ele>379.0</ele><time>2026-03-29T07:27:54.14Z</time></trkpt><trkpt lat="45.880065" lon="8.6981133"><ele>379.5</ele><time>2026-03-29T07:27:56.14Z</time></trkpt><trkpt lat="45.8801" lon="8.6982333"><ele>380.0</ele><time>2026-03-29T07:27:58.141Z</time></trkpt><trkpt lat="45.8801483" lon="8.6983217"><ele>380.5</ele><time>2026-03-29T07:28:00.14Z</time></trkpt><trkpt lat="45.8801767" lon="8.6984283"><ele>381.0</ele><time>2026-03-29T07:28:02.14Z</time></trkpt><trkpt lat="45.8801817" lon="8.6985417"><ele>377.1666666666667</ele><time>2026-03-29T07:28:04.14Z</time></trkpt><trkpt lat="45.88017" lon="8.69865"><ele>373.3333333333333</ele><time>2026-03-29T07:28:06.141Z</time></trkpt><trkpt lat="45.8801867" lon="8.6987583"><ele>369.5</ele><time>2026-03-29T07:28:08.141Z</time></trkpt><trkpt lat="45.880205" lon="8.69889"><ele>365.66666666666663</ele><time>2026-03-29T07:28:10.14Z</time></trkpt><trkpt lat="45.880245" lon="8.6990133"><ele>361.8333333333333</ele><time>2026-03-29T07:28:12.141Z</time></trkpt><trkpt lat="45.88028" lon="8.6991183"><ele>358.0</ele><time>2026-03-29T07:28:15.141Z</time></trkpt><trkpt lat="45.8802783" lon="8.6992733"><ele>358.0</ele><time>2026-03-29T07:29:14.14Z</time></trkpt><trkpt lat="45.8802867" lon="8.6991422"><ele>358.0</ele><time>2026-03-29T07:29:15.14Z</time></trkpt><trkpt lat="45.8802871" lon="8.6992718"><ele>358.0</ele><time>2026-03-29T07:29:22.168Z</time></trkpt><trkpt lat="45.880231" lon="8.699315"><ele>358.0</ele><time>2026-03-29T07:30:25.23Z</time></trkpt><trkpt lat="45.8802069" lon="8.699201"><ele>358.0</ele><time>2026-03-29T07:30:45.166Z</time></trkpt><trkpt lat="45.8802158" lon="8.699076"><ele>358.0</ele><time>2026-03-29T07:30:46.09Z</time></trkpt><trkpt lat="45.8802106" lon="8.6989332"><ele>358.0</ele><time>2026-03-29T07:30:47.161Z</time></trkpt><trkpt lat="45.8801957" lon="8.6988271"><ele>358.0</ele><time>2026-03-29T07:30:48.21Z</time></trkpt><trkpt lat="45.8802066" lon="8.6986851"><ele>358.0</ele><time>2026-03-29T07:30:50.203Z</time></trkpt><trkpt lat="45.8802147" lon="8.6985653"><ele>358.0</ele><time>2026-03-29T07:30:52.14Z</time></trkpt><trkpt lat="45.8802075" lon="8.6984423"><ele>358.0</ele><time>2026-03-29T07:30:54.14Z</time></trkpt><trkpt lat="45.8801837" lon="8.6983323"><ele>358.0</ele><time>2026-03-29T07:30:56.14Z</time></trkpt><trkpt lat="45.8801357" lon="8.6982323"><ele>361.8333333333333</ele><time>2026-03-29T07:30:58.14Z</time></trkpt><trkpt lat="45.8800862" lon="8.6981358"><ele>365.66666666666663</ele><time>2026-03-29T07:31:00.141Z</time></trkpt><trkpt lat="45.8800315" lon="8.6980545"><ele>369.5</ele><time>2026-03-29T07:31:02.14Z</time></trkpt><trkpt lat="45.8799666" lon="8.6979675"><ele>373.3333333333333</ele><time>2026-03-29T07:31:04.14Z</time></trkpt><trkpt lat="45.8798884" lon="8.6978955"><ele>377.1666666666667</ele><time>2026-03-29T07:31:06.14Z</time></trkpt><trkpt lat="45.8798018" lon="8.697825"><ele>381.0</ele><time>2026-03-29T07:31:08.14Z</time></trkpt><trkpt lat="45.8797033" lon="8.6977533"><ele>380.25</ele><time>2026-03-29T07:31:10.14Z</time></trkpt><trkpt lat="45.8795967" lon="8.6977033"><ele>379.5</ele><time>2026-03-29T07:31:12.14Z</time></trkpt><trkpt lat="45.87948" lon="8.6976633"><ele>378.75</ele><time>2026-03-29T07:31:14.141Z</time></trkpt><trkpt lat="45.8793683" lon="8.6976567"><ele>378.0</ele><time>2026-03-29T07:31:16.14Z</time></trkpt><trkpt lat="45.8792433" lon="8.6976333"><ele>380.0</ele><time>2026-03-29T07:31:18.141Z</time></trkpt><trkpt lat="45.8791783" lon="8.6976267"><ele>382.0</ele><time>2026-03-29T07:31:19.141Z</time></trkpt><trkpt lat="45.879095" lon="8.6976217"><ele>384.0</ele><time>2026-03-29T07:31:20.14Z</time></trkpt><trkpt lat="45.8790267" lon="8.6976117"><ele>386.0</ele><time>2026-03-29T07:31:21.141Z</time></trkpt><trkpt lat="45.8789617" lon="8.6975983"><ele>388.0</ele><time>2026-03-29T07:31:22.14Z</time></trkpt><trkpt lat="45.8788333" lon="8.6975583"><ele>390.0</ele><time>2026-03-29T07:31:24.14Z</time></trkpt><trkpt lat="45.8787683" lon="8.6975367"><ele>390.0</ele><time>2026-03-29T07:31:25.141Z</time></trkpt><trkpt lat="45.8787067" lon="8.697505"><ele>390.0</ele><time>2026-03-29T07:31:26.14Z</time></trkpt><trkpt lat="45.8786433" lon="8.69745"><ele>390.0</ele><time>2026-03-29T07:31:27.141Z</time></trkpt><trkpt lat="45.8785783" lon="8.69738"><ele>390.0</ele><time>2026-03-29T07:31:28.14Z</time></trkpt><trkpt lat="45.8785167" lon="8.697305"><ele>390.0</ele><time>2026-03-29T07:31:29.141Z</time></trkpt><trkpt lat="45.8784383" lon="8.6972317"><ele>390.0</ele><time>2026-03-29T07:31:30.14Z</time></trkpt><trkpt lat="45.8783283" lon="8.6971283"><ele>389.75</ele><time>2026-03-29T07:31:31.14Z</time></trkpt><trkpt lat="45.8782067" lon="8.6970333"><ele>389.5</ele><time>2026-03-29T07:31:32.14Z</time></trkpt><trkpt lat="45.8780983" lon="8.69694"><ele>389.25</ele><time>2026-03-29T07:31:33.14Z</time></trkpt><trkpt lat="45.8779933" lon="8.69684"><ele>389.0</ele><time>2026-03-29T07:31:34.14Z</time></trkpt><trkpt lat="45.8779167" lon="8.6967567"><ele>388.99999999999994</ele><time>2026-03-29T07:31:35.14Z</time></trkpt><trkpt lat="45.8778417" lon="8.696675"><ele>389.0</ele><time>2026-03-29T07:31:36.14Z</time></trkpt><trkpt lat="45.8777733" lon="8.6965967"><ele>389.0</ele><time>2026-03-29T07:31:37.14Z</time></trkpt><trkpt lat="45.87771" lon="8.6965267"><ele>389.0</ele><time>2026-03-29T07:31:38.14Z</time></trkpt><trkpt lat="45.8776483" lon="8.69648"><ele>388.99999999999994</ele><time>2026-03-29T07:31:39.14Z</time></trkpt><trkpt lat="45.8775767" lon="8.6964433"><ele>389.0</ele><time>2026-03-29T07:31:41.14Z</time></trkpt><trkpt lat="45.8775917" lon="8.696535"><ele>389.0</ele><time>2026-03-29T07:31:47.141Z</time></trkpt><trkpt lat="45.8776217" lon="8.6966583"><ele>389.0</ele><time>2026-03-29T07:31:49.14Z</time></trkpt><trkpt lat="45.877655" lon="8.69678"><ele>389.0</ele><time>2026-03-29T07:31:50.14Z</time></trkpt><trkpt lat="45.8776967" lon="8.696925"><ele>389.0</ele><time>2026-03-29T07:31:51.14Z</time></trkpt><trkpt lat="45.8777517" lon="8.6971183"><ele>389.0</ele><time>2026-03-29T07:31:52.14Z</time></trkpt><trkpt lat="45.877805" lon="8.697315"><ele>390.75</ele><time>2026-03-29T07:31:53.14Z</time></trkpt><trkpt lat="45.8778583" lon="8.6975117"><ele>392.5</ele><time>2026-03-29T07:31:54.14Z</time></trkpt><trkpt lat="45.8779167" lon="8.69771"><ele>394.25</ele><time>2026-03-29T07:31:55.14Z</time></trkpt><trkpt lat="45.8779633" lon="8.6979083"><ele>396.0</ele><time>2026-03-29T07:31:56.141Z</time></trkpt><trkpt lat="45.8780083" lon="8.6981133"><ele>399.33333333333337</ele><time>2026-03-29T07:31:57.14Z</time></trkpt><trkpt lat="45.8780683" lon="8.6983167"><ele>402.6666666666667</ele><time>2026-03-29T07:31:58.14Z</time></trkpt><trkpt lat="45.8781233" lon="8.6985283"><ele>406.0</ele><time>2026-03-29T07:31:59.14Z</time></trkpt><trkpt lat="45.878185" lon="8.6987483"><ele>408.6666666666667</ele><time>2026-03-29T07:32:00.141Z</time></trkpt><trkpt lat="45.8782367" lon="8.698975"><ele>411.33333333333337</ele><time>2026-03-29T07:32:01.14Z</time></trkpt><trkpt lat="45.8782933" lon="8.699205"><ele>414.0</ele><time>2026-03-29T07:32:02.14Z</time></trkpt><trkpt lat="45.8783517" lon="8.699425"><ele>411.66666666666663</ele><time>2026-03-29T07:32:03.14Z</time></trkpt><trkpt lat="45.878405" lon="8.6996383"><ele>409.3333333333333</ele><time>2026-03-29T07:32:04.14Z</time></trkpt><trkpt lat="45.878445" lon="8.699835"><ele>407.0</ele><time>2026-03-29T07:32:05.141Z</time></trkpt><trkpt lat="45.8784933" lon="8.7000433"><ele>408.66666666666663</ele><time>2026-03-29T07:32:06.14Z</time></trkpt><trkpt lat="45.87855" lon="8.70025"><ele>410.33333333333337</ele><time>2026-03-29T07:32:07.14Z</time></trkpt><trkpt lat="45.8786167" lon="8.7004567"><ele>412.0</ele><time>2026-03-29T07:32:08.141Z</time></trkpt><trkpt lat="45.8786667" lon="8.7006567"><ele>412.0</ele><time>2026-03-29T07:32:09.14Z</time></trkpt><trkpt lat="45.8787433" lon="8.70088"><ele>412.0</ele><time>2026-03-29T07:32:10.141Z</time></trkpt><trkpt lat="45.8788017" lon="8.7011"><ele>412.0</ele><time>2026-03-29T07:32:11.14Z</time></trkpt><trkpt lat="45.8788633" lon="8.7013183"><ele>413.5</ele><time>2026-03-29T07:32:12.14Z</time></trkpt><trkpt lat="45.8789067" lon="8.701525"><ele>415.0</ele><time>2026-03-29T07:32:13.14Z</time></trkpt><trkpt lat="45.87894" lon="8.7017183"><ele>416.5</ele><time>2026-03-29T07:32:14.141Z</time></trkpt><trkpt lat="45.8789733" lon="8.7019017"><ele>418.0</ele><time>2026-03-29T07:32:15.14Z</time></trkpt><trkpt lat="45.8790217" lon="8.702095"><ele>419.25</ele><time>2026-03-29T07:32:16.14Z</time></trkpt><trkpt lat="45.8790767" lon="8.7022817"><ele>420.5</ele><time>2026-03-29T07:32:17.14Z</time></trkpt><trkpt lat="45.8791267" lon="8.7024633"><ele>421.75</ele><time>2026-03-29T07:32:18.14Z</time></trkpt><trkpt lat="45.8791683" lon="8.7026383"><ele>423.0</ele><time>2026-03-29T07:32:19.14Z</time></trkpt><trkpt lat="45.8792083" lon="8.702835"><ele>423.5</ele><time>2026-03-29T07:32:20.14Z</time></trkpt><trkpt lat="45.87924" lon="8.7030317"><ele>424.0</ele><time>2026-03-29T07:32:21.14Z</time></trkpt><trkpt lat="45.879285" lon="8.70323"><ele>424.5</ele><time>2026-03-29T07:32:22.14Z</time></trkpt><trkpt lat="45.8793317" lon="8.7034133"><ele>425.0</ele><time>2026-03-29T07:32:23.14Z</time></trkpt><trkpt lat="45.879385" lon="8.7036217"><ele>421.75</ele><time>2026-03-29T07:32:24.14Z</time></trkpt><trkpt lat="45.8794333" lon="8.7038283"><ele>418.5</ele><time>2026-03-29T07:32:25.14Z</time></trkpt><trkpt lat="45.87948" lon="8.70403"><ele>415.25</ele><time>2026-03-29T07:32:26.14Z</time></trkpt><trkpt lat="45.8795267" lon="8.704225"><ele>412.0</ele><time>2026-03-29T07:32:27.141Z</time></trkpt><trkpt lat="45.8795667" lon="8.7044117"><ele>414.0</ele><time>2026-03-29T07:32:28.141Z</time></trkpt><trkpt lat="45.8796117" lon="8.70461"><ele>416.0</ele><time>2026-03-29T07:32:29.141Z</time></trkpt><trkpt lat="45.8796583" lon="8.7048183"><ele>418.0</ele><time>2026-03-29T07:32:30.14Z</time></trkpt><trkpt lat="45.8797067" lon="8.7050317"><ele>418.0</ele><time>2026-03-29T07:32:31.141Z</time></trkpt><trkpt lat="45.8797517" lon="8.70524"><ele>418.0</ele><time>2026-03-29T07:32:32.14Z</time></trkpt><trkpt lat="45.8798067" lon="8.7054467"><ele>418.0</ele><time>2026-03-29T07:32:33.14Z</time></trkpt><trkpt lat="45.8798533" lon="8.7056383"><ele>418.0</ele><time>2026-03-29T07:32:34.14Z</time></trkpt><trkpt lat="45.8798933" lon="8.7058267"><ele>419.5</ele><time>2026-03-29T07:32:35.14Z</time></trkpt><trkpt lat="45.879935" lon="8.7060517"><ele>421.0</ele><time>2026-03-29T07:32:36.141Z</time></trkpt><trkpt lat="45.8799733" lon="8.70626"><ele>422.5</ele><time>2026-03-29T07:32:37.14Z</time></trkpt><trkpt lat="45.8799967" lon="8.7064533"><ele>424.0</ele><time>2026-03-29T07:32:38.141Z</time></trkpt><trkpt lat="45.880025" lon="8.706635"><ele>423.75</ele><time>2026-03-29T07:32:39.14Z</time></trkpt><trkpt lat="45.8800567" lon="8.7068217"><ele>423.5</ele><time>2026-03-29T07:32:40.14Z</time></trkpt><trkpt lat="45.8800833" lon="8.7070167"><ele>423.25</ele><time>2026-03-29T07:32:41.14Z</time></trkpt><trkpt lat="45.8801183" lon="8.70721"><ele>423.0</ele><time>2026-03-29T07:32:42.14Z</time></trkpt><trkpt lat="45.88013" lon="8.7074067"><ele>423.0</ele><time>2026-03-29T07:32:43.14Z</time></trkpt><trkpt lat="45.8801417" lon="8.7075917"><ele>423.0</ele><time>2026-03-29T07:32:44.14Z</time></trkpt><trkpt lat="45.8801483" lon="8.707785"><ele>423.0</ele><time>2026-03-29T07:32:45.141Z</time></trkpt><trkpt lat="45.8801533" lon="8.70798"><ele>423.0</ele><time>2026-03-29T07:32:46.14Z</time></trkpt><trkpt lat="45.8801617" lon="8.70817"><ele>423.0</ele><time>2026-03-29T07:32:47.14Z</time></trkpt><trkpt lat="45.88016" lon="8.7083533"><ele>423.0</ele><time>2026-03-29T07:32:48.14Z</time></trkpt><trkpt lat="45.8801733" lon="8.7085483"><ele>423.0</ele><time>2026-03-29T07:32:49.14Z</time></trkpt><trkpt lat="45.8801817" lon="8.7087433"><ele>423.0</ele><time>2026-03-29T07:32:50.14Z</time></trkpt><trkpt lat="45.8801967" lon="8.708945"><ele>423.0</ele><time>2026-03-29T07:32:51.14Z</time></trkpt><trkpt lat="45.8802217" lon="8.7091367"><ele>423.0</ele><time>2026-03-29T07:32:52.14Z</time></trkpt><trkpt lat="45.8802617" lon="8.7093033"><ele>423.0</ele><time>2026-03-29T07:32:53.14Z</time></trkpt><trkpt lat="45.8802933" lon="8.7094667"><ele>423.0</ele><time>2026-03-29T07:32:54.14Z</time></trkpt><trkpt lat="45.8803217" lon="8.7096317"><ele>423.59999999999997</ele><time>2026-03-29T07:32:55.14Z</time></trkpt><trkpt lat="45.88036" lon="8.709795"><ele>424.2</ele><time>2026-03-29T07:32:56.14Z</time></trkpt><trkpt lat="45.8803933" lon="8.7099417"><ele>424.8</ele><time>2026-03-29T07:32:57.14Z</time></trkpt><trkpt lat="45.880435" lon="8.7100767"><ele>425.4</ele><time>2026-03-29T07:32:58.14Z</time></trkpt><trkpt lat="45.8804633" lon="8.710205"><ele>426.0</ele><time>2026-03-29T07:32:59.14Z</time></trkpt><trkpt lat="45.88049" lon="8.710325"><ele>427.0</ele><time>2026-03-29T07:33:00.14Z</time></trkpt><trkpt lat="45.88052" lon="8.71044"><ele>428.0</ele><time>2026-03-29T07:33:01.14Z</time></trkpt><trkpt lat="45.8805617" lon="8.71057"><ele>429.0</ele><time>2026-03-29T07:33:02.14Z</time></trkpt><trkpt lat="45.8806217" lon="8.7107"><ele>430.0</ele><time>2026-03-29T07:33:03.141Z</time></trkpt><trkpt lat="45.8807" lon="8.7108233"><ele>431.0</ele><time>2026-03-29T07:33:04.141Z</time></trkpt><trkpt lat="45.880785" lon="8.7109367"><ele>431.0</ele><time>2026-03-29T07:33:05.14Z</time></trkpt><trkpt lat="45.8808883" lon="8.71104"><ele>431.0</ele><time>2026-03-29T07:33:06.141Z</time></trkpt><trkpt lat="45.881005" lon="8.711125"><ele>431.0</ele><time>2026-03-29T07:33:07.14Z</time></trkpt><trkpt lat="45.8811283" lon="8.7111933"><ele>431.0</ele><time>2026-03-29T07:33:08.14Z</time></trkpt><trkpt lat="45.8812533" lon="8.7112633"><ele>429.5</ele><time>2026-03-29T07:33:09.141Z</time></trkpt><trkpt lat="45.881385" lon="8.7113267"><ele>428.0</ele><time>2026-03-29T07:33:10.141Z</time></trkpt><trkpt lat="45.8815183" lon="8.711395"><ele>426.5</ele><time>2026-03-29T07:33:11.14Z</time></trkpt><trkpt lat="45.8816583" lon="8.7114767"><ele>425.0</ele><time>2026-03-29T07:33:12.141Z</time></trkpt><trkpt lat="45.88179" lon="8.711555"><ele>422.25</ele><time>2026-03-29T07:33:13.14Z</time></trkpt><trkpt lat="45.881925" lon="8.7116333"><ele>419.5</ele><time>2026-03-29T07:33:14.14Z</time></trkpt><trkpt lat="45.8820583" lon="8.7117083"><ele>416.75</ele><time>2026-03-29T07:33:15.141Z</time></trkpt><trkpt lat="45.8821883" lon="8.71179"><ele>414.0</ele><time>2026-03-29T07:33:16.14Z</time></trkpt><trkpt lat="45.8823083" lon="8.7118617"><ele>414.75</ele><time>2026-03-29T07:33:17.141Z</time></trkpt><trkpt lat="45.8824283" lon="8.7119333"><ele>415.5</ele><time>2026-03-29T07:33:18.14Z</time></trkpt><trkpt lat="45.88255" lon="8.71199"><ele>416.25</ele><time>2026-03-29T07:33:19.141Z</time></trkpt><trkpt lat="45.8826617" lon="8.7120533"><ele>417.0</ele><time>2026-03-29T07:33:20.14Z</time></trkpt><trkpt lat="45.8827717" lon="8.7121183"><ele>415.6</ele><time>2026-03-29T07:33:21.141Z</time></trkpt><trkpt lat="45.8828783" lon="8.7121817"><ele>414.20000000000005</ele><time>2026-03-29T07:33:22.14Z</time></trkpt><trkpt lat="45.882985" lon="8.71224"><ele>412.8</ele><time>2026-03-29T07:33:23.14Z</time></trkpt><trkpt lat="45.883085" lon="8.7122917"><ele>411.4</ele><time>2026-03-29T07:33:24.14Z</time></trkpt><trkpt lat="45.883185" lon="8.7123433"><ele>410.0</ele><time>2026-03-29T07:33:25.14Z</time></trkpt><trkpt lat="45.8832833" lon="8.7123967"><ele>410.0</ele><time>2026-03-29T07:33:26.14Z</time></trkpt><trkpt lat="45.88337" lon="8.712445"><ele>410.0</ele><time>2026-03-29T07:33:27.14Z</time></trkpt><trkpt lat="45.8834433" lon="8.7124817"><ele>410.0</ele><time>2026-03-29T07:33:28.14Z</time></trkpt><trkpt lat="45.883545" lon="8.7124933"><ele>410.0</ele><time>2026-03-29T07:33:30.14Z</time></trkpt><trkpt lat="45.8836283" lon="8.7124533"><ele>410.0</ele><time>2026-03-29T07:33:32.14Z</time></trkpt><trkpt lat="45.88369" lon="8.7122667"><ele>410.5</ele><time>2026-03-29T07:33:34.141Z</time></trkpt><trkpt lat="45.88372" lon="8.7121033"><ele>411.0</ele><time>2026-03-29T07:33:35.141Z</time></trkpt><trkpt lat="45.8837583" lon="8.7118917"><ele>411.5</ele><time>2026-03-29T07:33:36.141Z</time></trkpt><trkpt lat="45.883795" lon="8.7116967"><ele>412.0</ele><time>2026-03-29T07:33:37.14Z</time></trkpt><trkpt lat="45.883835" lon="8.7115133"><ele>410.75</ele><time>2026-03-29T07:33:38.14Z</time></trkpt><trkpt lat="45.8838783" lon="8.71134"><ele>409.5</ele><time>2026-03-29T07:33:39.141Z</time></trkpt><trkpt lat="45.8839183" lon="8.7111717"><ele>408.25</ele><time>2026-03-29T07:33:40.141Z</time></trkpt><trkpt lat="45.8839733" lon="8.7110117"><ele>407.0</ele><time>2026-03-29T07:33:41.14Z</time></trkpt><trkpt lat="45.8840233" lon="8.7108433"><ele>406.0</ele><time>2026-03-29T07:33:42.14Z</time></trkpt><trkpt lat="45.884045" lon="8.7106833"><ele>405.0</ele><time>2026-03-29T07:33:43.14Z</time></trkpt><trkpt lat="45.884065" lon="8.7105217"><ele>404.0</ele><time>2026-03-29T07:33:44.14Z</time></trkpt><trkpt lat="45.8840883" lon="8.7103517"><ele>403.0</ele><time>2026-03-29T07:33:45.14Z</time></trkpt><trkpt lat="45.8841167" lon="8.710185"><ele>401.5</ele><time>2026-03-29T07:33:46.141Z</time></trkpt><trkpt lat="45.8841483" lon="8.71002"><ele>400.0</ele><time>2026-03-29T07:33:47.14Z</time></trkpt><trkpt lat="45.8841833" lon="8.7098583"><ele>398.5</ele><time>2026-03-29T07:33:48.14Z</time></trkpt><trkpt lat="45.88422" lon="8.7096967"><ele>397.0</ele><time>2026-03-29T07:33:49.14Z</time></trkpt><trkpt lat="45.8842733" lon="8.70955"><ele>396.5</ele><time>2026-03-29T07:33:50.14Z</time></trkpt><trkpt lat="45.8843367" lon="8.7094183"><ele>396.0</ele><time>2026-03-29T07:33:51.14Z</time></trkpt><trkpt lat="45.88443" lon="8.7093233"><ele>395.5</ele><time>2026-03-29T07:33:52.14Z</time></trkpt><trkpt lat="45.8845183" lon="8.7092333"><ele>395.0</ele><time>2026-03-29T07:33:53.141Z</time></trkpt><trkpt lat="45.88464" lon="8.7091633"><ele>392.5</ele><time>2026-03-29T07:33:54.141Z</time></trkpt><trkpt lat="45.8847583" lon="8.7091167"><ele>390.0</ele><time>2026-03-29T07:33:55.141Z</time></trkpt><trkpt lat="45.8849" lon="8.7090717"><ele>387.5</ele><time>2026-03-29T07:33:56.14Z</time></trkpt><trkpt lat="45.88503" lon="8.709005"><ele>385.0</ele><time>2026-03-29T07:33:57.14Z</time></trkpt><trkpt lat="45.88517" lon="8.708895"><ele>383.6666666666667</ele><time>2026-03-29T07:33:58.14Z</time></trkpt><trkpt lat="45.8852967" lon="8.7087733"><ele>382.33333333333337</ele><time>2026-03-29T07:33:59.14Z</time></trkpt><trkpt lat="45.8854317" lon="8.7086483"><ele>381.0</ele><time>2026-03-29T07:34:00.14Z</time></trkpt><trkpt lat="45.8855683" lon="8.708525"><ele>380.0</ele><time>2026-03-29T07:34:01.141Z</time></trkpt><trkpt lat="45.8857067" lon="8.7083917"><ele>379.0</ele><time>2026-03-29T07:34:02.141Z</time></trkpt><trkpt lat="45.885825" lon="8.7082683"><ele>378.0</ele><time>2026-03-29T07:34:03.14Z</time></trkpt><trkpt lat="45.88594" lon="8.708155"><ele>376.75</ele><time>2026-03-29T07:34:04.14Z</time></trkpt><trkpt lat="45.8860483" lon="8.7080383"><ele>375.5</ele><time>2026-03-29T07:34:05.14Z</time></trkpt><trkpt lat="45.8861533" lon="8.707925"><ele>374.25</ele><time>2026-03-29T07:34:06.14Z</time></trkpt><trkpt lat="45.8862517" lon="8.7078283"><ele>373.0</ele><time>2026-03-29T07:34:07.141Z</time></trkpt><trkpt lat="45.886345" lon="8.70772"><ele>373.0</ele><time>2026-03-29T07:34:08.14Z</time></trkpt><trkpt lat="45.886425" lon="8.7076267"><ele>373.0</ele><time>2026-03-29T07:34:09.14Z</time></trkpt><trkpt lat="45.88653" lon="8.70754"><ele>373.0</ele><time>2026-03-29T07:34:10.14Z</time></trkpt><trkpt lat="45.88662" lon="8.7074783"><ele>373.0</ele><time>2026-03-29T07:34:11.14Z</time></trkpt><trkpt lat="45.8866967" lon="8.70742"><ele>373.0</ele><time>2026-03-29T07:34:12.14Z</time></trkpt><trkpt lat="45.8867883" lon="8.707345"><ele>373.0</ele><time>2026-03-29T07:34:14.141Z</time></trkpt><trkpt lat="45.88682" lon="8.7072233"><ele>373.0</ele><time>2026-03-29T07:34:17.14Z</time></trkpt><trkpt lat="45.88679" lon="8.7071133"><ele>373.0</ele><time>2026-03-29T07:34:18.14Z</time></trkpt><trkpt lat="45.8867517" lon="8.7070067"><ele>373.0</ele><time>2026-03-29T07:34:19.14Z</time></trkpt><trkpt lat="45.8866967" lon="8.706865"><ele>373.0</ele><time>2026-03-29T07:34:20.14Z</time></trkpt><trkpt lat="45.8866383" lon="8.7067183"><ele>372.8333333333333</ele><time>2026-03-29T07:34:21.14Z</time></trkpt><trkpt lat="45.88658" lon="8.70659"><ele>372.66666666666663</ele><time>2026-03-29T07:34:22.14Z</time></trkpt><trkpt lat="45.8865333" lon="8.706475"><ele>372.5</ele><time>2026-03-29T07:34:23.14Z</time></trkpt><trkpt lat="45.8864833" lon="8.7063683"><ele>372.3333333333333</ele><time>2026-03-29T07:34:24.14Z</time></trkpt><trkpt lat="45.8864433" lon="8.7062717"><ele>372.1666666666667</ele><time>2026-03-29T07:34:25.14Z</time></trkpt><trkpt lat="45.8864133" lon="8.7061917"><ele>372.0</ele><time>2026-03-29T07:34:26.14Z</time></trkpt><trkpt lat="45.886395" lon="8.7061033"><ele>371.40000000000003</ele><time>2026-03-29T07:34:27.141Z</time></trkpt><trkpt lat="45.8864233" lon="8.7059617"><ele>370.8</ele><time>2026-03-29T07:34:29.141Z</time></trkpt><trkpt lat="45.886515" lon="8.7058933"><ele>370.2</ele><time>2026-03-29T07:34:30.141Z</time></trkpt><trkpt lat="45.8866017" lon="8.7058183"><ele>369.6</ele><time>2026-03-29T07:34:31.141Z</time></trkpt><trkpt lat="45.8866783" lon="8.7057483"><ele>369.0</ele><time>2026-03-29T07:34:32.14Z</time></trkpt><trkpt lat="45.8867367" lon="8.7056667"><ele>369.0</ele><time>2026-03-29T07:34:33.14Z</time></trkpt><trkpt lat="45.8867733" lon="8.7055833"><ele>369.0</ele><time>2026-03-29T07:34:34.14Z</time></trkpt><trkpt lat="45.8867933" lon="8.7054967"><ele>369.0</ele><time>2026-03-29T07:34:35.14Z</time></trkpt><trkpt lat="45.8868" lon="8.7053967"><ele>369.0</ele><time>2026-03-29T07:34:36.14Z</time></trkpt><trkpt lat="45.88679" lon="8.7052983"><ele>369.0</ele><time>2026-03-29T07:34:37.141Z</time></trkpt><trkpt lat="45.8867933" lon="8.7052067"><ele>369.0</ele><time>2026-03-29T07:34:38.14Z</time></trkpt><trkpt lat="45.8868317" lon="8.7051267"><ele>369.0</ele><time>2026-03-29T07:34:39.14Z</time></trkpt><trkpt lat="45.8868833" lon="8.7050667"><ele>369.0</ele><time>2026-03-29T07:34:40.14Z</time></trkpt><trkpt lat="45.8869433" lon="8.704995"><ele>369.0</ele><time>2026-03-29T07:34:41.14Z</time></trkpt><trkpt lat="45.8870233" lon="8.7049183"><ele>369.0</ele><time>2026-03-29T07:34:42.14Z</time></trkpt><trkpt lat="45.8870967" lon="8.7048517"><ele>369.0</ele><time>2026-03-29T07:34:43.14Z</time></trkpt><trkpt lat="45.8871817" lon="8.704785"><ele>369.0</ele><time>2026-03-29T07:34:44.141Z</time></trkpt><trkpt lat="45.8872567" lon="8.70471"><ele>369.0</ele><time>2026-03-29T07:34:45.14Z</time></trkpt><trkpt lat="45.887335" lon="8.7046417"><ele>369.0</ele><time>2026-03-29T07:34:46.14Z</time></trkpt><trkpt lat="45.8874017" lon="8.7045867"><ele>369.0</ele><time>2026-03-29T07:34:47.14Z</time></trkpt><trkpt lat="45.8874617" lon="8.7045383"><ele>369.0</ele><time>2026-03-29T07:34:48.14Z</time></trkpt><trkpt lat="45.8875483" lon="8.7045217"><ele>369.0</ele><time>2026-03-29T07:34:50.141Z</time></trkpt><trkpt lat="45.8876517" lon="8.7044517"><ele>369.0</ele><time>2026-03-29T07:34:52.14Z</time></trkpt><trkpt lat="45.8877217" lon="8.70437"><ele>369.0</ele><time>2026-03-29T07:34:53.14Z</time></trkpt><trkpt lat="45.887795" lon="8.704255"><ele>368.3333333333333</ele><time>2026-03-29T07:34:54.14Z</time></trkpt><trkpt lat="45.887865" lon="8.704155"><ele>367.6666666666667</ele><time>2026-03-29T07:34:55.14Z</time></trkpt><trkpt lat="45.887925" lon="8.7040583"><ele>367.0</ele><time>2026-03-29T07:34:56.141Z</time></trkpt><trkpt lat="45.88799" lon="8.703965"><ele>366.33333333333337</ele><time>2026-03-29T07:34:57.14Z</time></trkpt><trkpt lat="45.8880517" lon="8.7038817"><ele>365.6666666666667</ele><time>2026-03-29T07:34:58.14Z</time></trkpt><trkpt lat="45.888105" lon="8.7038033"><ele>365.0</ele><time>2026-03-29T07:34:59.141Z</time></trkpt><trkpt lat="45.8881517" lon="8.70366"><ele>364.4</ele><time>2026-03-29T07:35:01.141Z</time></trkpt><trkpt lat="45.8881533" lon="8.7035183"><ele>363.8</ele><time>2026-03-29T07:35:03.14Z</time></trkpt><trkpt lat="45.8881517" lon="8.703365"><ele>363.20000000000005</ele><time>2026-03-29T07:35:05.14Z</time></trkpt><trkpt lat="45.888125" lon="8.70321"><ele>362.6</ele><time>2026-03-29T07:35:07.14Z</time></trkpt><trkpt lat="45.88811" lon="8.7030317"><ele>362.0</ele><time>2026-03-29T07:35:09.141Z</time></trkpt><trkpt lat="45.8881117" lon="8.702925"><ele>362.0</ele><time>2026-03-29T07:35:10.14Z</time></trkpt><trkpt lat="45.8881267" lon="8.7028233"><ele>362.0</ele><time>2026-03-29T07:35:11.14Z</time></trkpt><trkpt lat="45.88816" lon="8.702725"><ele>362.0</ele><time>2026-03-29T07:35:12.14Z</time></trkpt><trkpt lat="45.8882117" lon="8.70262"><ele>362.0</ele><time>2026-03-29T07:35:13.14Z</time></trkpt><trkpt lat="45.8882833" lon="8.7025317"><ele>362.0</ele><time>2026-03-29T07:35:14.14Z</time></trkpt><trkpt lat="45.8883633" lon="8.702465"><ele>362.0</ele><time>2026-03-29T07:35:15.14Z</time></trkpt><trkpt lat="45.88844" lon="8.7024017"><ele>361.6666666666667</ele><time>2026-03-29T07:35:16.14Z</time></trkpt><trkpt lat="45.8885083" lon="8.7023283"><ele>361.33333333333337</ele><time>2026-03-29T07:35:17.141Z</time></trkpt><trkpt lat="45.88857" lon="8.7022633"><ele>361.0</ele><time>2026-03-29T07:35:18.14Z</time></trkpt><trkpt lat="45.8886367" lon="8.702185"><ele>360.6666666666667</ele><time>2026-03-29T07:35:19.14Z</time></trkpt><trkpt lat="45.8886983" lon="8.7021183"><ele>360.3333333333333</ele><time>2026-03-29T07:35:20.141Z</time></trkpt><trkpt lat="45.888755" lon="8.70205"><ele>360.0</ele><time>2026-03-29T07:35:21.14Z</time></trkpt><trkpt lat="45.888805" lon="8.7019883"><ele>357.8</ele><time>2026-03-29T07:35:22.141Z</time></trkpt><trkpt lat="45.8889017" lon="8.7019083"><ele>355.6</ele><time>2026-03-29T07:35:24.14Z</time></trkpt><trkpt lat="45.8889617" lon="8.7018467"><ele>353.4</ele><time>2026-03-29T07:35:26.14Z</time></trkpt><trkpt lat="45.8890367" lon="8.7017383"><ele>351.2</ele><time>2026-03-29T07:35:28.14Z</time></trkpt><trkpt lat="45.889105" lon="8.70164"><ele>349.0</ele><time>2026-03-29T07:35:30.14Z</time></trkpt><trkpt lat="45.8891783" lon="8.7015083"><ele>348.3333333333333</ele><time>2026-03-29T07:35:32.14Z</time></trkpt><trkpt lat="45.88926" lon="8.7014383"><ele>347.66666666666663</ele><time>2026-03-29T07:35:34.14Z</time></trkpt><trkpt lat="45.889325" lon="8.70141"><ele>347.0</ele><time>2026-03-29T07:35:35.14Z</time></trkpt><trkpt lat="45.8893933" lon="8.7013733"><ele>346.3333333333333</ele><time>2026-03-29T07:35:36.14Z</time></trkpt><trkpt lat="45.889455" lon="8.7013467"><ele>345.6666666666667</ele><time>2026-03-29T07:35:37.14Z</time></trkpt><trkpt lat="45.8895183" lon="8.7013217"><ele>345.0</ele><time>2026-03-29T07:35:38.14Z</time></trkpt><trkpt lat="45.8896283" lon="8.701305"><ele>345.0</ele><time>2026-03-29T07:35:40.14Z</time></trkpt><trkpt lat="45.8897433" lon="8.7013117"><ele>345.0</ele><time>2026-03-29T07:35:42.14Z</time></trkpt><trkpt lat="45.8898117" lon="8.7013117"><ele>345.0</ele><time>2026-03-29T07:35:43.14Z</time></trkpt><trkpt lat="45.8898817" lon="8.7013083"><ele>345.0</ele><time>2026-03-29T07:35:44.14Z</time></trkpt><trkpt lat="45.8899567" lon="8.7012883"><ele>345.0</ele><time>2026-03-29T07:35:45.14Z</time></trkpt><trkpt lat="45.8900367" lon="8.7012583"><ele>345.0</ele><time>2026-03-29T07:35:46.14Z</time></trkpt><trkpt lat="45.89012" lon="8.7012283"><ele>344.0</ele><time>2026-03-29T07:35:47.14Z</time></trkpt><trkpt lat="45.8901917" lon="8.701195"><ele>343.0</ele><time>2026-03-29T07:35:48.141Z</time></trkpt><trkpt lat="45.8902967" lon="8.7011333"><ele>342.0</ele><time>2026-03-29T07:35:50.141Z</time></trkpt><trkpt lat="45.890355" lon="8.70107"><ele>341.0</ele><time>2026-03-29T07:35:53.14Z</time></trkpt><trkpt lat="45.89042" lon="8.7010317"><ele>340.0</ele><time>2026-03-29T07:35:57.14Z</time></trkpt><trkpt lat="45.8905033" lon="8.7010083"><ele>339.0</ele><time>2026-03-29T07:35:59.14Z</time></trkpt><trkpt lat="45.8905967" lon="8.7010283"><ele>339.0</ele><time>2026-03-29T07:36:01.14Z</time></trkpt><trkpt lat="45.8906883" lon="8.7010933"><ele>339.0</ele><time>2026-03-29T07:36:03.14Z</time></trkpt><trkpt lat="45.8907367" lon="8.7012083"><ele>339.0</ele><time>2026-03-29T07:36:05.14Z</time></trkpt><trkpt lat="45.8907817" lon="8.70139"><ele>339.0</ele><time>2026-03-29T07:36:07.14Z</time></trkpt><trkpt lat="45.8907883" lon="8.701495"><ele>339.0</ele><time>2026-03-29T07:36:08.14Z</time></trkpt><trkpt lat="45.8908267" lon="8.7016483"><ele>339.0</ele><time>2026-03-29T07:36:10.14Z</time></trkpt><trkpt lat="45.8908867" lon="8.7017717"><ele>339.0</ele><time>2026-03-29T07:36:12.14Z</time></trkpt><trkpt lat="45.8909417" lon="8.7018617"><ele>339.0</ele><time>2026-03-29T07:36:13.14Z</time></trkpt><trkpt lat="45.8909817" lon="8.7019767"><ele>339.0</ele><time>2026-03-29T07:36:14.141Z</time></trkpt><trkpt lat="45.8910233" lon="8.702095"><ele>339.0</ele><time>2026-03-29T07:36:15.141Z</time></trkpt><trkpt lat="45.8910717" lon="8.7022183"><ele>338.5</ele><time>2026-03-29T07:36:16.141Z</time></trkpt><trkpt lat="45.8910967" lon="8.7023283"><ele>338.0</ele><time>2026-03-29T07:36:17.141Z</time></trkpt><trkpt lat="45.8911233" lon="8.7024317"><ele>337.5</ele><time>2026-03-29T07:36:18.14Z</time></trkpt><trkpt lat="45.8911483" lon="8.7025417"><ele>337.0</ele><time>2026-03-29T07:36:19.141Z</time></trkpt><trkpt lat="45.8911633" lon="8.702645"><ele>336.5</ele><time>2026-03-29T07:36:20.14Z</time></trkpt><trkpt lat="45.8911783" lon="8.7027333"><ele>336.0</ele><time>2026-03-29T07:36:21.14Z</time></trkpt><trkpt lat="45.89122" lon="8.702865"><ele>336.0</ele><time>2026-03-29T07:36:23.141Z</time></trkpt><trkpt lat="45.8912633" lon="8.7029767"><ele>336.0</ele><time>2026-03-29T07:36:25.141Z</time></trkpt><trkpt lat="45.8913" lon="8.703065"><ele>336.0</ele><time>2026-03-29T07:36:26.14Z</time></trkpt><trkpt lat="45.8913283" lon="8.7031633"><ele>336.0</ele><time>2026-03-29T07:36:27.141Z</time></trkpt><trkpt lat="45.8913467" lon="8.7032667"><ele>336.0</ele><time>2026-03-29T07:36:28.14Z</time></trkpt><trkpt lat="45.8913483" lon="8.7033917"><ele>336.0</ele><time>2026-03-29T07:36:29.14Z</time></trkpt><trkpt lat="45.891385" lon="8.7035433"><ele>337.4</ele><time>2026-03-29T07:36:30.14Z</time></trkpt><trkpt lat="45.8914217" lon="8.70367"><ele>338.8</ele><time>2026-03-29T07:36:31.14Z</time></trkpt><trkpt lat="45.8914617" lon="8.7038083"><ele>340.2</ele><time>2026-03-29T07:36:32.14Z</time></trkpt><trkpt lat="45.8914933" lon="8.7039467"><ele>341.59999999999997</ele><time>2026-03-29T07:36:33.141Z</time></trkpt><trkpt lat="45.8915233" lon="8.7040583"><ele>343.0</ele><time>2026-03-29T07:36:34.141Z</time></trkpt><trkpt lat="45.8915833" lon="8.704195"><ele>343.0</ele><time>2026-03-29T07:36:35.141Z</time></trkpt><trkpt lat="45.89163" lon="8.7043467"><ele>343.0</ele><time>2026-03-29T07:36:36.14Z</time></trkpt><trkpt lat="45.8916733" lon="8.7045"><ele>343.0</ele><time>2026-03-29T07:36:37.14Z</time></trkpt><trkpt lat="45.8917067" lon="8.70465"><ele>343.0</ele><time>2026-03-29T07:36:38.14Z</time></trkpt><trkpt lat="45.89174" lon="8.70479"><ele>343.0</ele><time>2026-03-29T07:36:39.14Z</time></trkpt><trkpt lat="45.8917667" lon="8.70491"><ele>341.3333333333333</ele><time>2026-03-29T07:36:40.14Z</time></trkpt><trkpt lat="45.8917917" lon="8.70503"><ele>339.66666666666663</ele><time>2026-03-29T07:36:41.14Z</time></trkpt><trkpt lat="45.8918133" lon="8.705165"><ele>338.0</ele><time>2026-03-29T07:36:42.141Z</time></trkpt><trkpt lat="45.89184" lon="8.7052983"><ele>336.3333333333333</ele><time>2026-03-29T07:36:43.14Z</time></trkpt><trkpt lat="45.8918617" lon="8.705415"><ele>334.6666666666667</ele><time>2026-03-29T07:36:44.14Z</time></trkpt><trkpt lat="45.8918967" lon="8.70552"><ele>333.0</ele><time>2026-03-29T07:36:45.14Z</time></trkpt><trkpt lat="45.8919183" lon="8.70561"><ele>333.0</ele><time>2026-03-29T07:36:46.14Z</time></trkpt><trkpt lat="45.8919467" lon="8.7057267"><ele>333.0</ele><time>2026-03-29T07:36:47.14Z</time></trkpt><trkpt lat="45.8919567" lon="8.7058417"><ele>333.0</ele><time>2026-03-29T07:36:48.141Z</time></trkpt><trkpt lat="45.89197" lon="8.70594"><ele>333.0</ele><time>2026-03-29T07:36:49.141Z</time></trkpt><trkpt lat="45.891995" lon="8.706035"><ele>333.0</ele><time>2026-03-29T07:36:50.14Z</time></trkpt><trkpt lat="45.89203" lon="8.7061167"><ele>333.0</ele><time>2026-03-29T07:36:51.14Z</time></trkpt><trkpt lat="45.8920583" lon="8.7062467"><ele>335.75</ele><time>2026-03-29T07:36:53.14Z</time></trkpt><trkpt lat="45.892125" lon="8.7064017"><ele>338.5</ele><time>2026-03-29T07:36:55.14Z</time></trkpt><trkpt lat="45.8922233" lon="8.7065083"><ele>341.25</ele><time>2026-03-29T07:36:57.14Z</time></trkpt><trkpt lat="45.8923417" lon="8.706595"><ele>344.0</ele><time>2026-03-29T07:36:59.14Z</time></trkpt><trkpt lat="45.8924" lon="8.706665"><ele>344.0</ele><time>2026-03-29T07:37:00.14Z</time></trkpt><trkpt lat="45.8924633" lon="8.706765"><ele>344.0</ele><time>2026-03-29T07:37:01.14Z</time></trkpt><trkpt lat="45.8925233" lon="8.7068717"><ele>344.0</ele><time>2026-03-29T07:37:02.14Z</time></trkpt><trkpt lat="45.8925867" lon="8.7069883"><ele>344.0</ele><time>2026-03-29T07:37:03.14Z</time></trkpt><trkpt lat="45.8926517" lon="8.7070683"><ele>344.0</ele><time>2026-03-29T07:37:04.141Z</time></trkpt><trkpt lat="45.8927417" lon="8.7071617"><ele>343.6666666666667</ele><time>2026-03-29T07:37:05.14Z</time></trkpt><trkpt lat="45.8928233" lon="8.7072483"><ele>343.33333333333337</ele><time>2026-03-29T07:37:06.141Z</time></trkpt><trkpt lat="45.89289" lon="8.7073183"><ele>343.0</ele><time>2026-03-29T07:37:07.14Z</time></trkpt><trkpt lat="45.8929517" lon="8.7073767"><ele>342.6666666666667</ele><time>2026-03-29T07:37:08.14Z</time></trkpt><trkpt lat="45.8930433" lon="8.70742"><ele>342.3333333333333</ele><time>2026-03-29T07:37:10.141Z</time></trkpt><trkpt lat="45.893105" lon="8.7074417"><ele>342.0</ele><time>2026-03-29T07:37:14.141Z</time></trkpt><trkpt lat="45.8931717" lon="8.7074783"><ele>342.0</ele><time>2026-03-29T07:37:20.14Z</time></trkpt><trkpt lat="45.8932183" lon="8.707565"><ele>342.0</ele><time>2026-03-29T07:37:25.14Z</time></trkpt><trkpt lat="45.893245" lon="8.7076633"><ele>342.0</ele><time>2026-03-29T07:37:28.14Z</time></trkpt><trkpt lat="45.8933" lon="8.7076133"><ele>342.0</ele><time>2026-03-29T07:37:33.141Z</time></trkpt><trkpt lat="45.89334" lon="8.7074967"><ele>342.0</ele><time>2026-03-29T07:37:37.14Z</time></trkpt><trkpt lat="45.893365" lon="8.7073733"><ele>342.0</ele><time>2026-03-29T07:37:40.14Z</time></trkpt><trkpt lat="45.8933933" lon="8.707285"><ele>337.6666666666667</ele><time>2026-03-29T07:37:43.14Z</time></trkpt><trkpt lat="45.893435" lon="8.7071767"><ele>333.3333333333333</ele><time>2026-03-29T07:37:46.141Z</time></trkpt><trkpt lat="45.893455" lon="8.7070583"><ele>329.0</ele><time>2026-03-29T07:37:49.14Z</time></trkpt><trkpt lat="45.8934767" lon="8.7069433"><ele>324.66666666666663</ele><time>2026-03-29T07:37:52.141Z</time></trkpt><trkpt lat="45.893495" lon="8.7068317"><ele>320.3333333333333</ele><time>2026-03-29T07:37:55.14Z</time></trkpt><trkpt lat="45.893515" lon="8.706725"><ele>316.0</ele><time>2026-03-29T07:37:58.14Z</time></trkpt><trkpt lat="45.893565" lon="8.7066683"><ele>316.00000000000006</ele><time>2026-03-29T07:38:02.141Z</time></trkpt><trkpt lat="45.8936467" lon="8.706705"><ele>316.0</ele><time>2026-03-29T07:38:06.14Z</time></trkpt><trkpt lat="45.8936833" lon="8.7067817"><ele>316.0</ele><time>2026-03-29T07:38:09.14Z</time></trkpt><trkpt lat="45.8937117" lon="8.7068633"><ele>316.0</ele><time>2026-03-29T07:38:12.14Z</time></trkpt><trkpt lat="45.89377" lon="8.7069183"><ele>316.0</ele><time>2026-03-29T07:38:14.14Z</time></trkpt><trkpt lat="45.8938383" lon="8.7069417"><ele>316.00000000000006</ele><time>2026-03-29T07:38:16.141Z</time></trkpt><trkpt lat="45.8939317" lon="8.7069517"><ele>316.0</ele><time>2026-03-29T07:38:18.14Z</time></trkpt><trkpt lat="45.8939967" lon="8.7069983"><ele>315.5</ele><time>2026-03-29T07:38:20.14Z</time></trkpt><trkpt lat="45.8940367" lon="8.7071817"><ele>315.0</ele><time>2026-03-29T07:38:22.14Z</time></trkpt><trkpt lat="45.894055" lon="8.707345"><ele>314.5</ele><time>2026-03-29T07:38:23.141Z</time></trkpt><trkpt lat="45.89405" lon="8.707545"><ele>314.0</ele><time>2026-03-29T07:38:24.14Z</time></trkpt><trkpt lat="45.8940583" lon="8.7077617"><ele>313.5</ele><time>2026-03-29T07:38:25.141Z</time></trkpt><trkpt lat="45.8940567" lon="8.7079683"><ele>313.0</ele><time>2026-03-29T07:38:26.14Z</time></trkpt><trkpt lat="45.89404" lon="8.7081517"><ele>312.5</ele><time>2026-03-29T07:38:27.14Z</time></trkpt><trkpt lat="45.8940217" lon="8.7083217"><ele>312.0</ele><time>2026-03-29T07:38:28.14Z</time></trkpt><trkpt lat="45.8940083" lon="8.7084867"><ele>311.8</ele><time>2026-03-29T07:38:29.14Z</time></trkpt><trkpt lat="45.8939917" lon="8.7086467"><ele>311.6</ele><time>2026-03-29T07:38:30.141Z</time></trkpt><trkpt lat="45.893985" lon="8.7088067"><ele>311.40000000000003</ele><time>2026-03-29T07:38:31.141Z</time></trkpt><trkpt lat="45.89399" lon="8.70895"><ele>311.2</ele><time>2026-03-29T07:38:32.14Z</time></trkpt><trkpt lat="45.893985" lon="8.7090633"><ele>311.0</ele><time>2026-03-29T07:38:33.14Z</time></trkpt><trkpt lat="45.8939667" lon="8.7092433"><ele>311.0</ele><time>2026-03-29T07:38:35.14Z</time></trkpt><trkpt lat="45.8939667" lon="8.7093417"><ele>311.0</ele><time>2026-03-29T07:38:36.14Z</time></trkpt><trkpt lat="45.89396" lon="8.7094467"><ele>311.0</ele><time>2026-03-29T07:38:37.14Z</time></trkpt><trkpt lat="45.8939467" lon="8.7095517"><ele>311.0</ele><time>2026-03-29T07:38:38.14Z</time></trkpt><trkpt lat="45.8939317" lon="8.7097"><ele>311.0</ele><time>2026-03-29T07:38:40.14Z</time></trkpt><trkpt lat="45.8939917" lon="8.7098167"><ele>311.0</ele><time>2026-03-29T07:38:43.14Z</time></trkpt><trkpt lat="45.8940417" lon="8.7098933"><ele>310.6666666666667</ele><time>2026-03-29T07:38:45.14Z</time></trkpt><trkpt lat="45.89409" lon="8.7099617"><ele>310.33333333333337</ele><time>2026-03-29T07:38:48.141Z</time></trkpt><trkpt lat="45.89413" lon="8.7098867"><ele>310.0</ele><time>2026-03-29T07:38:54.14Z</time></trkpt><trkpt lat="45.8941533" lon="8.70977"><ele>309.6666666666667</ele><time>2026-03-29T07:38:57.14Z</time></trkpt><trkpt lat="45.8941733" lon="8.7096733"><ele>309.3333333333333</ele><time>2026-03-29T07:39:00.14Z</time></trkpt><trkpt lat="45.89424" lon="8.7096"><ele>309.0</ele><time>2026-03-29T07:39:03.141Z</time></trkpt><trkpt lat="45.8943183" lon="8.70954"><ele>304.59999999999997</ele><time>2026-03-29T07:39:05.14Z</time></trkpt><trkpt lat="45.894405" lon="8.709525"><ele>300.2</ele><time>2026-03-29T07:39:07.141Z</time></trkpt><trkpt lat="45.89449" lon="8.7095583"><ele>295.79999999999995</ele><time>2026-03-29T07:39:09.14Z</time></trkpt><trkpt lat="45.8945783" lon="8.7095967"><ele>291.4</ele><time>2026-03-29T07:39:12.14Z</time></trkpt><trkpt lat="45.8946183" lon="8.7096967"><ele>287.0</ele><time>2026-03-29T07:39:14.14Z</time></trkpt><trkpt lat="45.8946533" lon="8.7098867"><ele>287.0</ele><time>2026-03-29T07:39:16.141Z</time></trkpt><trkpt lat="45.89467" lon="8.7100033"><ele>287.0</ele><time>2026-03-29T07:39:17.141Z</time></trkpt><trkpt lat="45.8946933" lon="8.7101033"><ele>287.0</ele><time>2026-03-29T07:39:18.14Z</time></trkpt><trkpt lat="45.89472" lon="8.710205"><ele>287.0</ele><time>2026-03-29T07:39:19.14Z</time></trkpt><trkpt lat="45.8947933" lon="8.7103183"><ele>287.0</ele><time>2026-03-29T07:39:20.14Z</time></trkpt><trkpt lat="45.8948617" lon="8.71041"><ele>287.0</ele><time>2026-03-29T07:39:21.141Z</time></trkpt><trkpt lat="45.894925" lon="8.710485"><ele>286.6666666666667</ele><time>2026-03-29T07:39:22.14Z</time></trkpt><trkpt lat="45.89498" lon="8.7105483"><ele>286.33333333333337</ele><time>2026-03-29T07:39:23.141Z</time></trkpt><trkpt lat="45.89503" lon="8.7106283"><ele>286.0</ele><time>2026-03-29T07:39:25.14Z</time></trkpt><trkpt lat="45.895065" lon="8.7107517"><ele>285.6666666666667</ele><time>2026-03-29T07:40:58.14Z</time></trkpt><trkpt lat="45.895115" lon="8.7108117"><ele>285.3333333333333</ele><time>2026-03-29T07:40:59.14Z</time></trkpt><trkpt lat="45.8951683" lon="8.7109067"><ele>285.0</ele><time>2026-03-29T07:41:00.141Z</time></trkpt><trkpt lat="45.8952183" lon="8.7110117"><ele>283.8333333333333</ele><time>2026-03-29T07:41:01.14Z</time></trkpt><trkpt lat="45.8952567" lon="8.7111217"><ele>282.6666666666667</ele><time>2026-03-29T07:41:02.14Z</time></trkpt><trkpt lat="45.895285" lon="8.7112333"><ele>281.5</ele><time>2026-03-29T07:41:03.141Z</time></trkpt><trkpt lat="45.8953067" lon="8.711345"><ele>280.33333333333337</ele><time>2026-03-29T07:41:04.14Z</time></trkpt><trkpt lat="45.89529" lon="8.7115317"><ele>279.1666666666667</ele><time>2026-03-29T07:41:06.14Z</time></trkpt><trkpt lat="45.8952683" lon="8.7116233"><ele>278.0</ele><time>2026-03-29T07:41:07.141Z</time></trkpt><trkpt lat="45.89524" lon="8.711725"><ele>278.0</ele><time>2026-03-29T07:41:08.14Z</time></trkpt><trkpt lat="45.895205" lon="8.71183"><ele>278.0</ele><time>2026-03-29T07:41:09.14Z</time></trkpt><trkpt lat="45.8951617" lon="8.7119467"><ele>278.0</ele><time>2026-03-29T07:41:10.14Z</time></trkpt><trkpt lat="45.895115" lon="8.71207"><ele>278.0</ele><time>2026-03-29T07:41:11.141Z</time></trkpt><trkpt lat="45.895065" lon="8.7121933"><ele>278.0</ele><time>2026-03-29T07:41:12.14Z</time></trkpt><trkpt lat="45.895015" lon="8.7123167"><ele>278.8</ele><time>2026-03-29T07:41:13.14Z</time></trkpt><trkpt lat="45.894955" lon="8.71243"><ele>279.6</ele><time>2026-03-29T07:41:14.14Z</time></trkpt><trkpt lat="45.8949167" lon="8.7125483"><ele>280.4</ele><time>2026-03-29T07:41:15.14Z</time></trkpt><trkpt lat="45.8948733" lon="8.7126833"><ele>281.2</ele><time>2026-03-29T07:41:16.14Z</time></trkpt><trkpt lat="45.8948233" lon="8.71282"><ele>282.0</ele><time>2026-03-29T07:41:17.14Z</time></trkpt><trkpt lat="45.8947783" lon="8.7129383"><ele>282.0</ele><time>2026-03-29T07:41:18.141Z</time></trkpt><trkpt lat="45.8947333" lon="8.7130433"><ele>282.0</ele><time>2026-03-29T07:41:19.14Z</time></trkpt><trkpt lat="45.8946933" lon="8.7131533"><ele>282.0</ele><time>2026-03-29T07:41:20.14Z</time></trkpt><trkpt lat="45.8946617" lon="8.7132767"><ele>282.0</ele><time>2026-03-29T07:41:21.14Z</time></trkpt><trkpt lat="45.8946317" lon="8.7133917"><ele>282.0</ele><time>2026-03-29T07:41:22.14Z</time></trkpt><trkpt lat="45.8946167" lon="8.7135"><ele>282.0</ele><time>2026-03-29T07:41:23.141Z</time></trkpt><trkpt lat="45.8946067" lon="8.7135983"><ele>281.75</ele><time>2026-03-29T07:41:24.14Z</time></trkpt><trkpt lat="45.894575" lon="8.7137583"><ele>281.5</ele><time>2026-03-29T07:41:26.14Z</time></trkpt><trkpt lat="45.8945586" lon="8.7140067"><ele>281.25</ele><time>2026-03-29T07:42:43.152Z</time></trkpt><trkpt lat="45.894522" lon="8.7142144"><ele>281.0</ele><time>2026-03-29T07:42:45.119Z</time></trkpt><trkpt lat="45.8944798" lon="8.7144128"><ele>281.5</ele><time>2026-03-29T07:42:46.14Z</time></trkpt><trkpt lat="45.894438" lon="8.7145533"><ele>282.0</ele><time>2026-03-29T07:42:47.14Z</time></trkpt><trkpt lat="45.8943969" lon="8.7147075"><ele>282.5</ele><time>2026-03-29T07:42:48.14Z</time></trkpt><trkpt lat="45.8943571" lon="8.7148764"><ele>283.0</ele><time>2026-03-29T07:42:49.141Z</time></trkpt><trkpt lat="45.8942799" lon="8.7150398"><ele>283.25</ele><time>2026-03-29T07:42:50.141Z</time></trkpt><trkpt lat="45.8942104" lon="8.7151832"><ele>283.5</ele><time>2026-03-29T07:42:51.14Z</time></trkpt><trkpt lat="45.8941335" lon="8.7152943"><ele>283.75</ele><time>2026-03-29T07:42:52.14Z</time></trkpt><trkpt lat="45.8940428" lon="8.7154068"><ele>284.0</ele><time>2026-03-29T07:42:53.141Z</time></trkpt><trkpt lat="45.8939628" lon="8.7155171"><ele>284.0</ele><time>2026-03-29T07:42:54.14Z</time></trkpt><trkpt lat="45.8938809" lon="8.7156204"><ele>284.0</ele><time>2026-03-29T07:42:55.14Z</time></trkpt><trkpt lat="45.8938223" lon="8.7157283"><ele>284.0</ele><time>2026-03-29T07:42:56.14Z</time></trkpt><trkpt lat="45.89379" lon="8.71586"><ele>284.0</ele><time>2026-03-29T07:42:57.141Z</time></trkpt><trkpt lat="45.8937683" lon="8.7159967"><ele>284.0</ele><time>2026-03-29T07:42:58.141Z</time></trkpt><trkpt lat="45.8937667" lon="8.7161317"><ele>283.1666666666667</ele><time>2026-03-29T07:42:59.14Z</time></trkpt><trkpt lat="45.8937567" lon="8.7162567"><ele>282.33333333333337</ele><time>2026-03-29T07:43:00.14Z</time></trkpt><trkpt lat="45.8937683" lon="8.71636"><ele>281.5</ele><time>2026-03-29T07:43:01.141Z</time></trkpt><trkpt lat="45.89376" lon="8.71651"><ele>280.6666666666667</ele><time>2026-03-29T07:43:03.14Z</time></trkpt><trkpt lat="45.89376" lon="8.7166017"><ele>279.8333333333333</ele><time>2026-03-29T07:43:05.14Z</time></trkpt><trkpt lat="45.89379" lon="8.7167083"><ele>279.0</ele><time>2026-03-29T07:43:07.14Z</time></trkpt><trkpt lat="45.893805" lon="8.71688"><ele>278.6666666666667</ele><time>2026-03-29T07:43:09.14Z</time></trkpt><trkpt lat="45.8938083" lon="8.7169833"><ele>278.3333333333333</ele><time>2026-03-29T07:43:10.14Z</time></trkpt><trkpt lat="45.8938083" lon="8.7170933"><ele>278.0</ele><time>2026-03-29T07:43:11.14Z</time></trkpt><trkpt lat="45.8938" lon="8.717195"><ele>277.66666666666663</ele><time>2026-03-29T07:43:12.14Z</time></trkpt><trkpt lat="45.8937917" lon="8.7172867"><ele>277.3333333333333</ele><time>2026-03-29T07:43:13.14Z</time></trkpt><trkpt lat="45.8937833" lon="8.7174333"><ele>277.0</ele><time>2026-03-29T07:43:15.14Z</time></trkpt><trkpt lat="45.8937983" lon="8.717525"><ele>277.0</ele><time>2026-03-29T07:43:17.14Z</time></trkpt><trkpt lat="45.8938167" lon="8.7176117"><ele>277.0</ele><time>2026-03-29T07:43:20.141Z</time></trkpt><trkpt lat="45.8938083" lon="8.71775"><ele>277.0</ele><time>2026-03-29T07:43:22.14Z</time></trkpt><trkpt lat="45.8938017" lon="8.7178567"><ele>277.0</ele><time>2026-03-29T07:43:23.141Z</time></trkpt><trkpt lat="45.89381" lon="8.7180683"><ele>277.0</ele><time>2026-03-29T07:43:24.14Z</time></trkpt><trkpt lat="45.893815" lon="8.718275"><ele>276.4</ele><time>2026-03-29T07:43:25.14Z</time></trkpt><trkpt lat="45.8938283" lon="8.7184533"><ele>275.79999999999995</ele><time>2026-03-29T07:43:26.14Z</time></trkpt><trkpt lat="45.89384" lon="8.71861"><ele>275.2</ele><time>2026-03-29T07:43:27.141Z</time></trkpt><trkpt lat="45.8938383" lon="8.7187533"><ele>274.59999999999997</ele><time>2026-03-29T07:43:28.141Z</time></trkpt><trkpt lat="45.89384" lon="8.7188917"><ele>274.0</ele><time>2026-03-29T07:43:29.14Z</time></trkpt><trkpt lat="45.893845" lon="8.719045"><ele>274.2</ele><time>2026-03-29T07:43:30.14Z</time></trkpt><trkpt lat="45.893845" lon="8.7192167"><ele>274.4</ele><time>2026-03-29T07:43:31.14Z</time></trkpt><trkpt lat="45.8938333" lon="8.71938"><ele>274.6</ele><time>2026-03-29T07:43:32.14Z</time></trkpt><trkpt lat="45.8938217" lon="8.719525"><ele>274.8</ele><time>2026-03-29T07:43:33.141Z</time></trkpt><trkpt lat="45.8938133" lon="8.7196683"><ele>275.0</ele><time>2026-03-29T07:43:34.14Z</time></trkpt><trkpt lat="45.8938" lon="8.7198167"><ele>275.0</ele><time>2026-03-29T07:43:35.141Z</time></trkpt><trkpt lat="45.8937983" lon="8.7199567"><ele>275.0</ele><time>2026-03-29T07:43:36.14Z</time></trkpt><trkpt lat="45.8937933" lon="8.7200883"><ele>275.0</ele><time>2026-03-29T07:43:37.14Z</time></trkpt><trkpt lat="45.8938033" lon="8.7202383"><ele>275.0</ele><time>2026-03-29T07:43:38.14Z</time></trkpt><trkpt lat="45.8938183" lon="8.7203883"><ele>275.0</ele><time>2026-03-29T07:43:39.14Z</time></trkpt><trkpt lat="45.8938183" lon="8.7205217"><ele>275.8</ele><time>2026-03-29T07:43:40.141Z</time></trkpt><trkpt lat="45.8938167" lon="8.7206567"><ele>276.6</ele><time>2026-03-29T07:43:41.141Z</time></trkpt><trkpt lat="45.8938117" lon="8.7207833"><ele>277.4</ele><time>2026-03-29T07:43:42.141Z</time></trkpt><trkpt lat="45.8938033" lon="8.7209033"><ele>278.2</ele><time>2026-03-29T07:43:43.14Z</time></trkpt><trkpt lat="45.8937933" lon="8.7210417"><ele>279.0</ele><time>2026-03-29T07:43:44.141Z</time></trkpt><trkpt lat="45.8937917" lon="8.7211667"><ele>279.59999999999997</ele><time>2026-03-29T07:43:45.141Z</time></trkpt><trkpt lat="45.8938067" lon="8.721335"><ele>280.2</ele><time>2026-03-29T07:43:46.14Z</time></trkpt><trkpt lat="45.8938283" lon="8.7215067"><ele>280.79999999999995</ele><time>2026-03-29T07:43:47.14Z</time></trkpt><trkpt lat="45.893825" lon="8.7216467"><ele>281.4</ele><time>2026-03-29T07:43:48.14Z</time></trkpt><trkpt lat="45.8938133" lon="8.7217733"><ele>282.0</ele><time>2026-03-29T07:43:49.14Z</time></trkpt><trkpt lat="45.8938083" lon="8.7218933"><ele>283.2</ele><time>2026-03-29T07:43:50.14Z</time></trkpt><trkpt lat="45.8938017" lon="8.7219867"><ele>284.4</ele><time>2026-03-29T07:43:51.14Z</time></trkpt><trkpt lat="45.8938133" lon="8.7221517"><ele>285.6</ele><time>2026-03-29T07:43:53.141Z</time></trkpt><trkpt lat="45.89382" lon="8.7222417"><ele>286.8</ele><time>2026-03-29T07:43:55.14Z</time></trkpt><trkpt lat="45.8938483" lon="8.722445"><ele>288.0</ele><time>2026-03-29T07:44:18.14Z</time></trkpt><trkpt lat="45.8938883" lon="8.7225367"><ele>288.0</ele><time>2026-03-29T07:44:22.14Z</time></trkpt><trkpt lat="45.893885" lon="8.72263"><ele>288.0</ele><time>2026-03-29T07:44:26.14Z</time></trkpt><trkpt lat="45.8938767" lon="8.722735"><ele>288.0</ele><time>2026-03-29T07:44:29.141Z</time></trkpt><trkpt lat="45.8938833" lon="8.7228933"><ele>288.0</ele><time>2026-03-29T07:44:31.14Z</time></trkpt><trkpt lat="45.8938867" lon="8.72299"><ele>288.0</ele><time>2026-03-29T07:44:32.141Z</time></trkpt><trkpt lat="45.8939033" lon="8.7231283"><ele>288.0</ele><time>2026-03-29T07:44:34.14Z</time></trkpt><trkpt lat="45.8939067" lon="8.7232517"><ele>288.0</ele><time>2026-03-29T07:44:36.14Z</time></trkpt><trkpt lat="45.8938933" lon="8.7234317"><ele>288.0</ele><time>2026-03-29T07:44:39.14Z</time></trkpt><trkpt lat="45.8939183" lon="8.7235867"><ele>288.0</ele><time>2026-03-29T07:44:40.14Z</time></trkpt><trkpt lat="45.893965" lon="8.72377"><ele>288.0</ele><time>2026-03-29T07:44:41.141Z</time></trkpt><trkpt lat="45.8940017" lon="8.72393"><ele>288.6666666666667</ele><time>2026-03-29T07:44:42.14Z</time></trkpt><trkpt lat="45.8940217" lon="8.7240733"><ele>289.3333333333333</ele><time>2026-03-29T07:44:43.141Z</time></trkpt><trkpt lat="45.89404" lon="8.72421"><ele>290.0</ele><time>2026-03-29T07:44:44.14Z</time></trkpt><trkpt lat="45.8940683" lon="8.72432"><ele>290.66666666666663</ele><time>2026-03-29T07:44:45.14Z</time></trkpt><trkpt lat="45.89408" lon="8.7244283"><ele>291.3333333333333</ele><time>2026-03-29T07:44:46.14Z</time></trkpt><trkpt lat="45.8940917" lon="8.724535"><ele>292.0</ele><time>2026-03-29T07:44:47.14Z</time></trkpt><trkpt lat="45.894105" lon="8.7246417"><ele>293.6</ele><time>2026-03-29T07:44:48.14Z</time></trkpt><trkpt lat="45.8941067" lon="8.724755"><ele>295.2</ele><time>2026-03-29T07:44:49.14Z</time></trkpt><trkpt lat="45.8941067" lon="8.7248783"><ele>296.8</ele><time>2026-03-29T07:44:50.14Z</time></trkpt><trkpt lat="45.8941017" lon="8.7250083"><ele>298.4</ele><time>2026-03-29T07:44:51.14Z</time></trkpt><trkpt lat="45.894115" lon="8.72515"><ele>300.0</ele><time>2026-03-29T07:44:52.14Z</time></trkpt><trkpt lat="45.8941217" lon="8.7252917"><ele>301.4</ele><time>2026-03-29T07:44:53.14Z</time></trkpt><trkpt lat="45.89413" lon="8.7254317"><ele>302.8</ele><time>2026-03-29T07:44:54.141Z</time></trkpt><trkpt lat="45.8941267" lon="8.725535"><ele>304.2</ele><time>2026-03-29T07:44:55.14Z</time></trkpt><trkpt lat="45.8941117" lon="8.725685"><ele>305.6</ele><time>2026-03-29T07:44:57.14Z</time></trkpt><trkpt lat="45.894085" lon="8.7258017"><ele>307.0</ele><time>2026-03-29T07:45:00.14Z</time></trkpt><trkpt lat="45.8940917" lon="8.72593"><ele>307.0</ele><time>2026-03-29T07:45:02.141Z</time></trkpt><trkpt lat="45.8941167" lon="8.72603"><ele>307.0</ele><time>2026-03-29T07:45:03.14Z</time></trkpt><trkpt lat="45.894155" lon="8.7261633"><ele>307.0</ele><time>2026-03-29T07:45:04.141Z</time></trkpt><trkpt lat="45.8942" lon="8.7263133"><ele>307.0</ele><time>2026-03-29T07:45:05.14Z</time></trkpt><trkpt lat="45.894255" lon="8.7264917"><ele>307.0</ele><time>2026-03-29T07:45:06.141Z</time></trkpt><trkpt lat="45.8943" lon="8.7266817"><ele>303.0</ele><time>2026-03-29T07:45:07.14Z</time></trkpt><trkpt lat="45.894345" lon="8.72686"><ele>299.0</ele><time>2026-03-29T07:45:08.14Z</time></trkpt><trkpt lat="45.89439" lon="8.727035"><ele>295.0</ele><time>2026-03-29T07:45:09.14Z</time></trkpt><trkpt lat="45.8944283" lon="8.7272033"><ele>291.0</ele><time>2026-03-29T07:45:10.14Z</time></trkpt><trkpt lat="45.894455" lon="8.7273817"><ele>291.0</ele><time>2026-03-29T07:45:11.14Z</time></trkpt><trkpt lat="45.8944767" lon="8.727565"><ele>291.0</ele><time>2026-03-29T07:45:12.14Z</time></trkpt><trkpt lat="45.8945033" lon="8.7277433"><ele>291.0</ele><time>2026-03-29T07:45:13.14Z</time></trkpt><trkpt lat="45.8945217" lon="8.727935"><ele>291.0</ele><time>2026-03-29T07:45:14.14Z</time></trkpt><trkpt lat="45.8945417" lon="8.7281183"><ele>291.75</ele><time>2026-03-29T07:45:15.14Z</time></trkpt><trkpt lat="45.8945667" lon="8.7282933"><ele>292.5</ele><time>2026-03-29T07:45:16.141Z</time></trkpt><trkpt lat="45.8945917" lon="8.7284717"><ele>293.25</ele><time>2026-03-29T07:45:17.14Z</time></trkpt><trkpt lat="45.8946183" lon="8.7286467"><ele>294.0</ele><time>2026-03-29T07:45:18.14Z</time></trkpt><trkpt lat="45.894655" lon="8.72883"><ele>294.5</ele><time>2026-03-29T07:45:19.14Z</time></trkpt><trkpt lat="45.8946867" lon="8.7290117"><ele>295.0</ele><time>2026-03-29T07:45:20.14Z</time></trkpt><trkpt lat="45.8947217" lon="8.7292"><ele>295.5</ele><time>2026-03-29T07:45:21.141Z</time></trkpt><trkpt lat="45.89475" lon="8.7293717"><ele>296.0</ele><time>2026-03-29T07:45:22.141Z</time></trkpt><trkpt lat="45.8947733" lon="8.729525"><ele>298.0</ele><time>2026-03-29T07:45:23.14Z</time></trkpt><trkpt lat="45.89479" lon="8.72968"><ele>300.0</ele><time>2026-03-29T07:45:24.14Z</time></trkpt><trkpt lat="45.8948067" lon="8.72984"><ele>302.0</ele><time>2026-03-29T07:45:25.14Z</time></trkpt><trkpt lat="45.8948383" lon="8.7300117"><ele>304.0</ele><time>2026-03-29T07:45:26.14Z</time></trkpt><trkpt lat="45.8948617" lon="8.730185"><ele>304.5</ele><time>2026-03-29T07:45:27.141Z</time></trkpt><trkpt lat="45.8948967" lon="8.7303583"><ele>305.0</ele><time>2026-03-29T07:45:28.14Z</time></trkpt><trkpt lat="45.8949317" lon="8.7305233"><ele>305.5</ele><time>2026-03-29T07:45:29.141Z</time></trkpt><trkpt lat="45.8949583" lon="8.7306817"><ele>306.0</ele><time>2026-03-29T07:45:30.141Z</time></trkpt><trkpt lat="45.895005" lon="8.73083"><ele>306.0</ele><time>2026-03-29T07:45:31.141Z</time></trkpt><trkpt lat="45.8950417" lon="8.730975"><ele>306.0</ele><time>2026-03-29T07:45:32.14Z</time></trkpt><trkpt lat="45.8950633" lon="8.7311083"><ele>306.0</ele><time>2026-03-29T07:45:33.14Z</time></trkpt><trkpt lat="45.8950867" lon="8.731235"><ele>306.0</ele><time>2026-03-29T07:45:34.141Z</time></trkpt><trkpt lat="45.89511" lon="8.731355"><ele>306.0</ele><time>2026-03-29T07:45:35.14Z</time></trkpt><trkpt lat="45.8951267" lon="8.7314683"><ele>305.8</ele><time>2026-03-29T07:45:36.14Z</time></trkpt><trkpt lat="45.8951433" lon="8.7315733"><ele>305.6</ele><time>2026-03-29T07:45:37.141Z</time></trkpt><trkpt lat="45.8951367" lon="8.731735"><ele>305.4</ele><time>2026-03-29T07:45:39.14Z</time></trkpt><trkpt lat="45.8951133" lon="8.7318267"><ele>305.2</ele><time>2026-03-29T07:45:40.141Z</time></trkpt><trkpt lat="45.8950533" lon="8.7320183"><ele>305.0</ele><time>2026-03-29T07:45:42.14Z</time></trkpt><trkpt lat="45.8949967" lon="8.7321567"><ele>305.0</ele><time>2026-03-29T07:45:43.14Z</time></trkpt><trkpt lat="45.89489" lon="8.7323167"><ele>305.0</ele><time>2026-03-29T07:45:44.14Z</time></trkpt><trkpt lat="45.894805" lon="8.7324567"><ele>305.0</ele><time>2026-03-29T07:45:45.141Z</time></trkpt><trkpt lat="45.8947417" lon="8.7325867"><ele>305.0</ele><time>2026-03-29T07:45:46.141Z</time></trkpt><trkpt lat="45.8946667" lon="8.73269"><ele>305.5</ele><time>2026-03-29T07:45:47.141Z</time></trkpt><trkpt lat="45.8946183" lon="8.732775"><ele>306.0</ele><time>2026-03-29T07:45:48.14Z</time></trkpt><trkpt lat="45.894585" lon="8.7329167"><ele>306.5</ele><time>2026-03-29T07:45:50.14Z</time></trkpt><trkpt lat="45.8946267" lon="8.7330333"><ele>307.0</ele><time>2026-03-29T07:45:52.141Z</time></trkpt><trkpt lat="45.894615" lon="8.7331333"><ele>307.5</ele><time>2026-03-29T07:45:54.14Z</time></trkpt><trkpt lat="45.8945533" lon="8.7331767"><ele>308.0</ele><time>2026-03-29T07:45:55.14Z</time></trkpt><trkpt lat="45.89448" lon="8.7332233"><ele>308.0</ele><time>2026-03-29T07:45:56.14Z</time></trkpt><trkpt lat="45.8944067" lon="8.7332767"><ele>308.0</ele><time>2026-03-29T07:45:57.14Z</time></trkpt><trkpt lat="45.8943267" lon="8.73331"><ele>308.0</ele><time>2026-03-29T07:45:58.14Z</time></trkpt><trkpt lat="45.894265" lon="8.733355"><ele>308.0</ele><time>2026-03-29T07:45:59.141Z</time></trkpt><trkpt lat="45.8941783" lon="8.7334467"><ele>308.0</ele><time>2026-03-29T07:46:01.14Z</time></trkpt><trkpt lat="45.8941817" lon="8.7335467"><ele>308.0</ele><time>2026-03-29T07:46:02.141Z</time></trkpt><trkpt lat="45.8941867" lon="8.733685"><ele>309.75</ele><time>2026-03-29T07:46:03.14Z</time></trkpt><trkpt lat="45.89419" lon="8.7338567"><ele>311.5</ele><time>2026-03-29T07:46:04.14Z</time></trkpt><trkpt lat="45.894195" lon="8.73405"><ele>313.25</ele><time>2026-03-29T07:46:05.141Z</time></trkpt><trkpt lat="45.8942017" lon="8.7342483"><ele>315.0</ele><time>2026-03-29T07:46:06.141Z</time></trkpt><trkpt lat="45.8942033" lon="8.7344517"><ele>317.0</ele><time>2026-03-29T07:46:07.14Z</time></trkpt><trkpt lat="45.8942067" lon="8.734635"><ele>319.0</ele><time>2026-03-29T07:46:08.14Z</time></trkpt><trkpt lat="45.8942083" lon="8.7347983"><ele>321.0</ele><time>2026-03-29T07:46:09.141Z</time></trkpt><trkpt lat="45.8942067" lon="8.7349417"><ele>323.0</ele><time>2026-03-29T07:46:10.14Z</time></trkpt><trkpt lat="45.8942067" lon="8.7350733"><ele>325.0</ele><time>2026-03-29T07:46:11.141Z</time></trkpt><trkpt lat="45.8942133" lon="8.73519"><ele>321.8</ele><time>2026-03-29T07:46:12.14Z</time></trkpt><trkpt lat="45.8942567" lon="8.7353183"><ele>318.6</ele><time>2026-03-29T07:46:14.14Z</time></trkpt><trkpt lat="45.894325" lon="8.7353483"><ele>315.4</ele><time>2026-03-29T07:46:16.141Z</time></trkpt><trkpt lat="45.8944033" lon="8.7352767"><ele>312.2</ele><time>2026-03-29T07:46:18.141Z</time></trkpt><trkpt lat="45.894485" lon="8.735235"><ele>309.0</ele><time>2026-03-29T07:46:19.14Z</time></trkpt><trkpt lat="45.8945817" lon="8.7351733"><ele>308.3333333333333</ele><time>2026-03-29T07:46:20.14Z</time></trkpt><trkpt lat="45.8946683" lon="8.73512"><ele>307.6666666666667</ele><time>2026-03-29T07:46:21.14Z</time></trkpt><trkpt lat="45.89476" lon="8.7350767"><ele>307.0</ele><time>2026-03-29T07:46:22.141Z</time></trkpt><trkpt lat="45.8948383" lon="8.7350267"><ele>306.33333333333337</ele><time>2026-03-29T07:46:23.14Z</time></trkpt><trkpt lat="45.8948983" lon="8.7349733"><ele>305.6666666666667</ele><time>2026-03-29T07:46:24.14Z</time></trkpt><trkpt lat="45.8949467" lon="8.7349117"><ele>305.0</ele><time>2026-03-29T07:46:25.14Z</time></trkpt><trkpt lat="45.8950217" lon="8.73475"><ele>305.0</ele><time>2026-03-29T07:46:27.141Z</time></trkpt><trkpt lat="45.8950633" lon="8.73466"><ele>305.0</ele><time>2026-03-29T07:46:28.14Z</time></trkpt><trkpt lat="45.8951417" lon="8.7345483"><ele>305.0</ele><time>2026-03-29T07:46:30.14Z</time></trkpt><trkpt lat="45.8952283" lon="8.73453"><ele>305.0</ele><time>2026-03-29T07:46:32.14Z</time></trkpt><trkpt lat="45.8953467" lon="8.7345517"><ele>305.0</ele><time>2026-03-29T07:46:34.14Z</time></trkpt><trkpt lat="45.8954733" lon="8.7345567"><ele>304.5</ele><time>2026-03-29T07:46:36.14Z</time></trkpt><trkpt lat="45.8955433" lon="8.7345667"><ele>304.0</ele><time>2026-03-29T07:46:37.14Z</time></trkpt><trkpt lat="45.8956167" lon="8.7345333"><ele>303.5</ele><time>2026-03-29T07:46:38.14Z</time></trkpt><trkpt lat="45.8957033" lon="8.7344917"><ele>303.0</ele><time>2026-03-29T07:46:39.141Z</time></trkpt><trkpt lat="45.8957817" lon="8.7344717"><ele>302.5</ele><time>2026-03-29T07:46:40.14Z</time></trkpt><trkpt lat="45.895885" lon="8.73445"><ele>302.0</ele><time>2026-03-29T07:46:41.14Z</time></trkpt><trkpt lat="45.89598" lon="8.7344333"><ele>300.8</ele><time>2026-03-29T07:46:42.14Z</time></trkpt><trkpt lat="45.8960933" lon="8.7344167"><ele>299.6</ele><time>2026-03-29T07:46:44.14Z</time></trkpt><trkpt lat="45.89616" lon="8.7344833"><ele>298.40000000000003</ele><time>2026-03-29T07:46:45.14Z</time></trkpt><trkpt lat="45.8962233" lon="8.7345867"><ele>297.2</ele><time>2026-03-29T07:46:46.14Z</time></trkpt><trkpt lat="45.8962967" lon="8.7347067"><ele>296.0</ele><time>2026-03-29T07:46:47.14Z</time></trkpt><trkpt lat="45.8963767" lon="8.7348267"><ele>296.0</ele><time>2026-03-29T07:46:48.141Z</time></trkpt><trkpt lat="45.8964417" lon="8.7349167"><ele>296.0</ele><time>2026-03-29T07:46:49.14Z</time></trkpt><trkpt lat="45.896515" lon="8.7350217"><ele>296.0</ele><time>2026-03-29T07:46:50.14Z</time></trkpt><trkpt lat="45.8965783" lon="8.7351533"><ele>296.0</ele><time>2026-03-29T07:46:51.14Z</time></trkpt><trkpt lat="45.8966333" lon="8.7352967"><ele>296.0</ele><time>2026-03-29T07:46:52.14Z</time></trkpt><trkpt lat="45.896695" lon="8.7354367"><ele>294.40000000000003</ele><time>2026-03-29T07:46:53.14Z</time></trkpt><trkpt lat="45.896765" lon="8.73557"><ele>292.8</ele><time>2026-03-29T07:46:54.14Z</time></trkpt><trkpt lat="45.8968283" lon="8.7356883"><ele>291.20000000000005</ele><time>2026-03-29T07:46:55.14Z</time></trkpt><trkpt lat="45.8968833" lon="8.73579"><ele>289.6</ele><time>2026-03-29T07:46:56.14Z</time></trkpt><trkpt lat="45.896935" lon="8.7359017"><ele>288.0</ele><time>2026-03-29T07:46:57.14Z</time></trkpt><trkpt lat="45.89697" lon="8.7360167"><ele>288.6</ele><time>2026-03-29T07:46:58.14Z</time></trkpt><trkpt lat="45.8969933" lon="8.7361267"><ele>289.20000000000005</ele><time>2026-03-29T07:46:59.14Z</time></trkpt><trkpt lat="45.8970167" lon="8.7362217"><ele>289.8</ele><time>2026-03-29T07:47:00.14Z</time></trkpt><trkpt lat="45.8970383" lon="8.7363533"><ele>290.40000000000003</ele><time>2026-03-29T07:47:02.14Z</time></trkpt><trkpt lat="45.8970933" lon="8.7364583"><ele>291.0</ele><time>2026-03-29T07:47:04.14Z</time></trkpt><trkpt lat="45.8971783" lon="8.7365717"><ele>291.0</ele><time>2026-03-29T07:47:06.141Z</time></trkpt><trkpt lat="45.8972133" lon="8.7366533"><ele>291.0</ele><time>2026-03-29T07:47:07.14Z</time></trkpt><trkpt lat="45.8972517" lon="8.7367567"><ele>291.0</ele><time>2026-03-29T07:47:08.14Z</time></trkpt><trkpt lat="45.8972817" lon="8.7368767"><ele>291.0</ele><time>2026-03-29T07:47:09.141Z</time></trkpt><trkpt lat="45.89733" lon="8.7370033"><ele>291.0</ele><time>2026-03-29T07:47:10.14Z</time></trkpt><trkpt lat="45.8973883" lon="8.7371317"><ele>291.0</ele><time>2026-03-29T07:47:11.14Z</time></trkpt><trkpt lat="45.8974483" lon="8.7372567"><ele>290.0</ele><time>2026-03-29T07:47:12.14Z</time></trkpt><trkpt lat="45.8975083" lon="8.73738"><ele>289.0</ele><time>2026-03-29T07:47:13.14Z</time></trkpt><trkpt lat="45.8975583" lon="8.7374983"><ele>288.0</ele><time>2026-03-29T07:47:14.141Z</time></trkpt><trkpt lat="45.8976117" lon="8.7376083"><ele>287.0</ele><time>2026-03-29T07:47:15.141Z</time></trkpt><trkpt lat="45.8976583" lon="8.7377117"><ele>286.0</ele><time>2026-03-29T07:47:16.14Z</time></trkpt><trkpt lat="45.897705" lon="8.7378117"><ele>286.0</ele><time>2026-03-29T07:47:17.14Z</time></trkpt><trkpt lat="45.897765" lon="8.7379033"><ele>286.0</ele><time>2026-03-29T07:47:18.14Z</time></trkpt><trkpt lat="45.8978233" lon="8.7380133"><ele>286.0</ele><time>2026-03-29T07:47:19.14Z</time></trkpt><trkpt lat="45.897895" lon="8.7381283"><ele>286.0</ele><time>2026-03-29T07:47:20.141Z</time></trkpt><trkpt lat="45.8979567" lon="8.7382533"><ele>286.0</ele><time>2026-03-29T07:47:21.141Z</time></trkpt><trkpt lat="45.89803" lon="8.7383683"><ele>286.0</ele><time>2026-03-29T07:47:22.14Z</time></trkpt><trkpt lat="45.8980917" lon="8.7384867"><ele>286.0</ele><time>2026-03-29T07:47:23.14Z</time></trkpt><trkpt lat="45.89815" lon="8.7385933"><ele>286.0</ele><time>2026-03-29T07:47:24.14Z</time></trkpt><trkpt lat="45.8982117" lon="8.738705"><ele>286.0</ele><time>2026-03-29T07:47:25.14Z</time></trkpt><trkpt lat="45.8982533" lon="8.7387867"><ele>286.0</ele><time>2026-03-29T07:47:26.141Z</time></trkpt><trkpt lat="45.8983283" lon="8.738885"><ele>285.66666666666663</ele><time>2026-03-29T07:47:28.14Z</time></trkpt><trkpt lat="45.89838" lon="8.738945"><ele>285.3333333333333</ele><time>2026-03-29T07:47:31.14Z</time></trkpt><trkpt lat="45.8984367" lon="8.73902"><ele>285.0</ele><time>2026-03-29T07:47:35.14Z</time></trkpt><trkpt lat="45.8984883" lon="8.739095"><ele>284.6666666666667</ele><time>2026-03-29T07:47:37.14Z</time></trkpt><trkpt lat="45.8985567" lon="8.7392417"><ele>284.33333333333337</ele><time>2026-03-29T07:47:39.141Z</time></trkpt><trkpt lat="45.8985867" lon="8.7393433"><ele>284.0</ele><time>2026-03-29T07:47:40.14Z</time></trkpt><trkpt lat="45.8986233" lon="8.7394433"><ele>284.0</ele><time>2026-03-29T07:47:41.14Z</time></trkpt><trkpt lat="45.8986533" lon="8.7395267"><ele>284.0</ele><time>2026-03-29T07:47:42.14Z</time></trkpt><trkpt lat="45.8986883" lon="8.7396417"><ele>284.0</ele><time>2026-03-29T07:47:44.14Z</time></trkpt><trkpt lat="45.8986617" lon="8.7397383"><ele>284.0</ele><time>2026-03-29T07:47:49.14Z</time></trkpt><trkpt lat="45.8986617" lon="8.73985"><ele>284.0</ele><time>2026-03-29T07:47:52.141Z</time></trkpt><trkpt lat="45.8986983" lon="8.7399667"><ele>284.0</ele><time>2026-03-29T07:47:54.14Z</time></trkpt><trkpt lat="45.8987583" lon="8.740125"><ele>284.5</ele><time>2026-03-29T07:47:56.14Z</time></trkpt><trkpt lat="45.898805" lon="8.7402317"><ele>285.0</ele><time>2026-03-29T07:47:57.141Z</time></trkpt><trkpt lat="45.89885" lon="8.7403417"><ele>285.5</ele><time>2026-03-29T07:47:58.14Z</time></trkpt><trkpt lat="45.898885" lon="8.74045"><ele>286.0</ele><time>2026-03-29T07:47:59.14Z</time></trkpt><trkpt lat="45.89893" lon="8.7405417"><ele>286.5</ele><time>2026-03-29T07:48:00.14Z</time></trkpt><trkpt lat="45.89898" lon="8.7406333"><ele>287.0</ele><time>2026-03-29T07:48:01.14Z</time></trkpt><trkpt lat="45.8990317" lon="8.7407267"><ele>287.0</ele><time>2026-03-29T07:48:02.141Z</time></trkpt><trkpt lat="45.89908" lon="8.7408317"><ele>287.0</ele><time>2026-03-29T07:48:03.14Z</time></trkpt><trkpt lat="45.8991183" lon="8.74092"><ele>287.0</ele><time>2026-03-29T07:48:04.14Z</time></trkpt><trkpt lat="45.899165" lon="8.7410633"><ele>287.0</ele><time>2026-03-29T07:48:06.14Z</time></trkpt><trkpt lat="45.8991833" lon="8.741245"><ele>287.0</ele><time>2026-03-29T07:48:08.14Z</time></trkpt><trkpt lat="45.8991483" lon="8.7413433"><ele>287.1666666666667</ele><time>2026-03-29T07:48:09.141Z</time></trkpt><trkpt lat="45.8991133" lon="8.7414617"><ele>287.33333333333337</ele><time>2026-03-29T07:48:10.14Z</time></trkpt><trkpt lat="45.899085" lon="8.7415833"><ele>287.5</ele><time>2026-03-29T07:48:11.14Z</time></trkpt><trkpt lat="45.8990667" lon="8.7417067"><ele>287.6666666666667</ele><time>2026-03-29T07:48:12.141Z</time></trkpt><trkpt lat="45.8990717" lon="8.7418233"><ele>287.8333333333333</ele><time>2026-03-29T07:48:13.14Z</time></trkpt><trkpt lat="45.899095" lon="8.7419367"><ele>288.0</ele><time>2026-03-29T07:48:14.14Z</time></trkpt><trkpt lat="45.8991267" lon="8.7420483"><ele>289.2</ele><time>2026-03-29T07:48:15.14Z</time></trkpt><trkpt lat="45.8991683" lon="8.74219"><ele>290.4</ele><time>2026-03-29T07:48:16.141Z</time></trkpt><trkpt lat="45.8991967" lon="8.74235"><ele>291.59999999999997</ele><time>2026-03-29T07:48:17.14Z</time></trkpt><trkpt lat="45.8992167" lon="8.7425"><ele>292.8</ele><time>2026-03-29T07:48:18.141Z</time></trkpt><trkpt lat="45.8992383" lon="8.7426517"><ele>294.0</ele><time>2026-03-29T07:48:19.141Z</time></trkpt><trkpt lat="45.8992517" lon="8.74282"><ele>290.5</ele><time>2026-03-29T07:48:20.14Z</time></trkpt><trkpt lat="45.8992583" lon="8.7429933"><ele>287.0</ele><time>2026-03-29T07:48:21.14Z</time></trkpt><trkpt lat="45.8992667" lon="8.7431683"><ele>283.5</ele><time>2026-03-29T07:48:22.14Z</time></trkpt><trkpt lat="45.8992717" lon="8.7433817"><ele>280.0</ele><time>2026-03-29T07:48:23.14Z</time></trkpt><trkpt lat="45.899285" lon="8.7435717"><ele>279.75</ele><time>2026-03-29T07:48:24.14Z</time></trkpt><trkpt lat="45.8992933" lon="8.7437517"><ele>279.5</ele><time>2026-03-29T07:48:25.14Z</time></trkpt><trkpt lat="45.8993017" lon="8.7439217"><ele>279.25</ele><time>2026-03-29T07:48:26.14Z</time></trkpt><trkpt lat="45.8993" lon="8.7440867"><ele>279.0</ele><time>2026-03-29T07:48:27.141Z</time></trkpt><trkpt lat="45.89929" lon="8.7442517"><ele>280.0</ele><time>2026-03-29T07:48:28.14Z</time></trkpt><trkpt lat="45.8992817" lon="8.7444233"><ele>281.0</ele><time>2026-03-29T07:48:29.14Z</time></trkpt><trkpt lat="45.89928" lon="8.744595"><ele>282.0</ele><time>2026-03-29T07:48:30.141Z</time></trkpt><trkpt lat="45.8992767" lon="8.7447617"><ele>283.0</ele><time>2026-03-29T07:48:31.141Z</time></trkpt><trkpt lat="45.89928" lon="8.74491"><ele>283.0</ele><time>2026-03-29T07:48:32.141Z</time></trkpt><trkpt lat="45.8992833" lon="8.7450617"><ele>283.0</ele><time>2026-03-29T07:48:33.14Z</time></trkpt><trkpt lat="45.8992983" lon="8.7452133"><ele>283.0</ele><time>2026-03-29T07:48:34.141Z</time></trkpt><trkpt lat="45.89931" lon="8.7453517"><ele>283.0</ele><time>2026-03-29T07:48:35.14Z</time></trkpt><trkpt lat="45.8993167" lon="8.7454933"><ele>283.0</ele><time>2026-03-29T07:48:36.14Z</time></trkpt><trkpt lat="45.89932" lon="8.7456583"><ele>284.0</ele><time>2026-03-29T07:48:37.14Z</time></trkpt><trkpt lat="45.8993117" lon="8.7458333"><ele>285.0</ele><time>2026-03-29T07:48:38.14Z</time></trkpt><trkpt lat="45.8992983" lon="8.7460283"><ele>286.0</ele><time>2026-03-29T07:48:39.141Z</time></trkpt><trkpt lat="45.899275" lon="8.7462333"><ele>287.0</ele><time>2026-03-29T07:48:40.141Z</time></trkpt><trkpt lat="45.899245" lon="8.74643"><ele>287.0</ele><time>2026-03-29T07:48:41.14Z</time></trkpt><trkpt lat="45.899225" lon="8.7466133"><ele>287.0</ele><time>2026-03-29T07:48:42.141Z</time></trkpt><trkpt lat="45.8992267" lon="8.74678"><ele>287.0</ele><time>2026-03-29T07:48:43.141Z</time></trkpt><trkpt lat="45.8992483" lon="8.74694"><ele>287.0</ele><time>2026-03-29T07:48:44.14Z</time></trkpt><trkpt lat="45.8992733" lon="8.7471033"><ele>287.0</ele><time>2026-03-29T07:48:45.14Z</time></trkpt><trkpt lat="45.899285" lon="8.7472317"><ele>287.0</ele><time>2026-03-29T07:48:46.14Z</time></trkpt><trkpt lat="45.8993" lon="8.747365"><ele>287.0</ele><time>2026-03-29T07:48:47.14Z</time></trkpt><trkpt lat="45.89931" lon="8.74749"><ele>287.0</ele><time>2026-03-29T07:48:48.14Z</time></trkpt><trkpt lat="45.8993133" lon="8.7475917"><ele>287.0</ele><time>2026-03-29T07:48:49.14Z</time></trkpt><trkpt lat="45.8993183" lon="8.747775"><ele>287.0</ele><time>2026-03-29T07:48:51.14Z</time></trkpt><trkpt lat="45.8993183" lon="8.7478883"><ele>287.0</ele><time>2026-03-29T07:48:52.14Z</time></trkpt><trkpt lat="45.8993083" lon="8.7480167"><ele>287.0</ele><time>2026-03-29T07:48:53.141Z</time></trkpt><trkpt lat="45.8992867" lon="8.74815"><ele>287.0</ele><time>2026-03-29T07:48:54.14Z</time></trkpt><trkpt lat="45.8992667" lon="8.7483"><ele>287.0</ele><time>2026-03-29T07:48:55.14Z</time></trkpt><trkpt lat="45.89924" lon="8.7484783"><ele>286.2</ele><time>2026-03-29T07:48:56.141Z</time></trkpt><trkpt lat="45.8992367" lon="8.74867"><ele>285.4</ele><time>2026-03-29T07:48:57.141Z</time></trkpt><trkpt lat="45.8992233" lon="8.7488433"><ele>284.6</ele><time>2026-03-29T07:48:58.14Z</time></trkpt><trkpt lat="45.89924" lon="8.74899"><ele>283.8</ele><time>2026-03-29T07:48:59.14Z</time></trkpt><trkpt lat="45.899255" lon="8.7491133"><ele>283.0</ele><time>2026-03-29T07:49:00.14Z</time></trkpt><trkpt lat="45.8992567" lon="8.74923"><ele>283.0</ele><time>2026-03-29T07:49:01.141Z</time></trkpt><trkpt lat="45.899255" lon="8.749345"><ele>283.0</ele><time>2026-03-29T07:49:02.141Z</time></trkpt><trkpt lat="45.89928" lon="8.7494683"><ele>283.0</ele><time>2026-03-29T07:49:03.141Z</time></trkpt><trkpt lat="45.8993567" lon="8.7495833"><ele>283.0</ele><time>2026-03-29T07:49:04.14Z</time></trkpt><trkpt lat="45.8994033" lon="8.7496983"><ele>283.0</ele><time>2026-03-29T07:49:05.14Z</time></trkpt><trkpt lat="45.89944" lon="8.7497933"><ele>283.0</ele><time>2026-03-29T07:49:06.14Z</time></trkpt><trkpt lat="45.899475" lon="8.7498833"><ele>284.3333333333333</ele><time>2026-03-29T07:49:09.14Z</time></trkpt><trkpt lat="45.8995267" lon="8.7499767"><ele>285.66666666666663</ele><time>2026-03-29T07:49:12.14Z</time></trkpt><trkpt lat="45.8995733" lon="8.7500617"><ele>287.0</ele><time>2026-03-29T07:49:14.141Z</time></trkpt><trkpt lat="45.8996367" lon="8.7501533"><ele>288.3333333333333</ele><time>2026-03-29T07:49:16.14Z</time></trkpt><trkpt lat="45.899705" lon="8.7502567"><ele>289.6666666666667</ele><time>2026-03-29T07:49:18.141Z</time></trkpt><trkpt lat="45.8997517" lon="8.750325"><ele>291.0</ele><time>2026-03-29T07:49:19.141Z</time></trkpt><trkpt lat="45.8998033" lon="8.7504183"><ele>292.0</ele><time>2026-03-29T07:49:20.14Z</time></trkpt><trkpt lat="45.8998567" lon="8.7505267"><ele>293.0</ele><time>2026-03-29T07:49:21.14Z</time></trkpt><trkpt lat="45.8998983" lon="8.75065"><ele>294.0</ele><time>2026-03-29T07:49:22.14Z</time></trkpt><trkpt lat="45.8999417" lon="8.7507617"><ele>295.0</ele><time>2026-03-29T07:49:23.14Z</time></trkpt><trkpt lat="45.89998" lon="8.7508633"><ele>296.0</ele><time>2026-03-29T07:49:24.14Z</time></trkpt><trkpt lat="45.900015" lon="8.750995"><ele>296.8</ele><time>2026-03-29T07:49:25.14Z</time></trkpt><trkpt lat="45.9000483" lon="8.7511567"><ele>297.6</ele><time>2026-03-29T07:49:26.14Z</time></trkpt><trkpt lat="45.9000767" lon="8.7513067"><ele>298.4</ele><time>2026-03-29T07:49:27.14Z</time></trkpt><trkpt lat="45.90012" lon="8.7514533"><ele>299.2</ele><time>2026-03-29T07:49:28.14Z</time></trkpt><trkpt lat="45.9001667" lon="8.7515883"><ele>300.0</ele><time>2026-03-29T07:49:29.14Z</time></trkpt><trkpt lat="45.9002133" lon="8.75171"><ele>298.25</ele><time>2026-03-29T07:49:30.14Z</time></trkpt><trkpt lat="45.9002767" lon="8.751845"><ele>296.5</ele><time>2026-03-29T07:49:31.141Z</time></trkpt><trkpt lat="45.9003567" lon="8.75196"><ele>294.75</ele><time>2026-03-29T07:49:32.141Z</time></trkpt><trkpt lat="45.90043" lon="8.7520833"><ele>293.0</ele><time>2026-03-29T07:49:33.14Z</time></trkpt><trkpt lat="45.9005083" lon="8.752205"><ele>293.0</ele><time>2026-03-29T07:49:34.14Z</time></trkpt><trkpt lat="45.9005667" lon="8.7523283"><ele>293.0</ele><time>2026-03-29T07:49:35.14Z</time></trkpt><trkpt lat="45.9006333" lon="8.7524783"><ele>293.0</ele><time>2026-03-29T07:49:36.141Z</time></trkpt><trkpt lat="45.9007017" lon="8.7526383"><ele>293.0</ele><time>2026-03-29T07:49:37.14Z</time></trkpt><trkpt lat="45.9007733" lon="8.752785"><ele>293.0</ele><time>2026-03-29T07:49:38.141Z</time></trkpt><trkpt lat="45.900845" lon="8.75293"><ele>293.0</ele><time>2026-03-29T07:49:39.141Z</time></trkpt><trkpt lat="45.9009167" lon="8.7530567"><ele>293.0</ele><time>2026-03-29T07:49:40.141Z</time></trkpt><trkpt lat="45.9009833" lon="8.7531683"><ele>293.0</ele><time>2026-03-29T07:49:41.141Z</time></trkpt><trkpt lat="45.9010633" lon="8.7532667"><ele>293.0</ele><time>2026-03-29T07:49:42.141Z</time></trkpt><trkpt lat="45.90115" lon="8.75335"><ele>293.0</ele><time>2026-03-29T07:49:43.14Z</time></trkpt><trkpt lat="45.901255" lon="8.7534133"><ele>293.0</ele><time>2026-03-29T07:49:44.14Z</time></trkpt><trkpt lat="45.901365" lon="8.75344"><ele>293.0</ele><time>2026-03-29T07:49:45.14Z</time></trkpt><trkpt lat="45.9014883" lon="8.75345"><ele>293.0</ele><time>2026-03-29T07:49:46.14Z</time></trkpt><trkpt lat="45.9015983" lon="8.7534583"><ele>293.0</ele><time>2026-03-29T07:49:47.14Z</time></trkpt><trkpt lat="45.9016967" lon="8.7534733"><ele>293.0</ele><time>2026-03-29T07:49:48.14Z</time></trkpt><trkpt lat="45.90179" lon="8.7535133"><ele>293.0</ele><time>2026-03-29T07:49:49.14Z</time></trkpt><trkpt lat="45.9018767" lon="8.7535817"><ele>293.0</ele><time>2026-03-29T07:49:50.14Z</time></trkpt><trkpt lat="45.90197" lon="8.7536717"><ele>293.0</ele><time>2026-03-29T07:49:51.14Z</time></trkpt><trkpt lat="45.9020617" lon="8.75377"><ele>293.6</ele><time>2026-03-29T07:49:52.141Z</time></trkpt><trkpt lat="45.9021283" lon="8.7538617"><ele>294.20000000000005</ele><time>2026-03-29T07:49:53.14Z</time></trkpt><trkpt lat="45.9021767" lon="8.7539483"><ele>294.8</ele><time>2026-03-29T07:49:54.14Z</time></trkpt><trkpt lat="45.9022233" lon="8.7540417"><ele>295.40000000000003</ele><time>2026-03-29T07:49:55.14Z</time></trkpt><trkpt lat="45.9022717" lon="8.7541567"><ele>296.0</ele><time>2026-03-29T07:49:56.14Z</time></trkpt><trkpt lat="45.9023167" lon="8.7543333"><ele>295.75</ele><time>2026-03-29T07:49:57.141Z</time></trkpt><trkpt lat="45.9023483" lon="8.7545217"><ele>295.5</ele><time>2026-03-29T07:49:58.14Z</time></trkpt><trkpt lat="45.902375" lon="8.7546833"><ele>295.25</ele><time>2026-03-29T07:49:59.141Z</time></trkpt><trkpt lat="45.9023917" lon="8.7548333"><ele>295.0</ele><time>2026-03-29T07:50:00.14Z</time></trkpt><trkpt lat="45.902415" lon="8.7549733"><ele>295.0</ele><time>2026-03-29T07:50:01.141Z</time></trkpt><trkpt lat="45.9024533" lon="8.75509"><ele>295.0</ele><time>2026-03-29T07:50:02.141Z</time></trkpt><trkpt lat="45.9025017" lon="8.7551933"><ele>295.0</ele><time>2026-03-29T07:50:03.14Z</time></trkpt><trkpt lat="45.9025767" lon="8.7553117"><ele>295.0</ele><time>2026-03-29T07:50:04.14Z</time></trkpt><trkpt lat="45.9026267" lon="8.7554467"><ele>295.0</ele><time>2026-03-29T07:50:05.14Z</time></trkpt><trkpt lat="45.902655" lon="8.7555717"><ele>294.8333333333333</ele><time>2026-03-29T07:50:06.14Z</time></trkpt><trkpt lat="45.9026783" lon="8.7557117"><ele>294.66666666666663</ele><time>2026-03-29T07:50:07.141Z</time></trkpt><trkpt lat="45.9027233" lon="8.7558233"><ele>294.5</ele><time>2026-03-29T07:50:08.14Z</time></trkpt><trkpt lat="45.9027817" lon="8.7559183"><ele>294.3333333333333</ele><time>2026-03-29T07:50:09.141Z</time></trkpt><trkpt lat="45.902835" lon="8.7559983"><ele>294.1666666666667</ele><time>2026-03-29T07:50:10.14Z</time></trkpt><trkpt lat="45.9028883" lon="8.7560733"><ele>294.0</ele><time>2026-03-29T07:50:11.14Z</time></trkpt><trkpt lat="45.9029417" lon="8.7561533"><ele>294.0</ele><time>2026-03-29T07:50:12.14Z</time></trkpt><trkpt lat="45.9029967" lon="8.7562317"><ele>294.0</ele><time>2026-03-29T07:50:13.141Z</time></trkpt><trkpt lat="45.9030533" lon="8.7563167"><ele>294.0</ele><time>2026-03-29T07:50:14.14Z</time></trkpt><trkpt lat="45.9031033" lon="8.7564083"><ele>294.0</ele><time>2026-03-29T07:50:15.14Z</time></trkpt><trkpt lat="45.9031567" lon="8.756515"><ele>294.0</ele><time>2026-03-29T07:50:16.141Z</time></trkpt><trkpt lat="45.9032117" lon="8.7566233"><ele>294.0</ele><time>2026-03-29T07:50:17.141Z</time></trkpt><trkpt lat="45.9032667" lon="8.7567267"><ele>294.0</ele><time>2026-03-29T07:50:18.141Z</time></trkpt><trkpt lat="45.9033217" lon="8.7568083"><ele>294.0</ele><time>2026-03-29T07:50:19.141Z</time></trkpt><trkpt lat="45.9033783" lon="8.75689"><ele>294.0</ele><time>2026-03-29T07:50:20.141Z</time></trkpt><trkpt lat="45.9034383" lon="8.7569683"><ele>294.0</ele><time>2026-03-29T07:50:21.14Z</time></trkpt><trkpt lat="45.903505" lon="8.757045"><ele>294.0</ele><time>2026-03-29T07:50:22.141Z</time></trkpt><trkpt lat="45.903565" lon="8.7571133"><ele>294.0</ele><time>2026-03-29T07:50:23.14Z</time></trkpt><trkpt lat="45.9036267" lon="8.7571733"><ele>294.5</ele><time>2026-03-29T07:50:24.14Z</time></trkpt><trkpt lat="45.9036867" lon="8.7572283"><ele>295.0</ele><time>2026-03-29T07:50:25.14Z</time></trkpt><trkpt lat="45.9037417" lon="8.7572883"><ele>295.5</ele><time>2026-03-29T07:50:26.141Z</time></trkpt><trkpt lat="45.9037983" lon="8.757355"><ele>296.0</ele><time>2026-03-29T07:50:27.14Z</time></trkpt><trkpt lat="45.90384" lon="8.7574317"><ele>296.5</ele><time>2026-03-29T07:50:28.14Z</time></trkpt><trkpt lat="45.9038867" lon="8.7575317"><ele>297.0</ele><time>2026-03-29T07:50:29.141Z</time></trkpt><trkpt lat="45.903945" lon="8.7576483"><ele>296.75</ele><time>2026-03-29T07:50:30.14Z</time></trkpt><trkpt lat="45.9040083" lon="8.7577867"><ele>296.5</ele><time>2026-03-29T07:50:31.14Z</time></trkpt><trkpt lat="45.9040933" lon="8.75792"><ele>296.25</ele><time>2026-03-29T07:50:32.141Z</time></trkpt><trkpt lat="45.9041867" lon="8.75804"><ele>296.0</ele><time>2026-03-29T07:50:33.14Z</time></trkpt><trkpt lat="45.9042967" lon="8.7581567"><ele>296.0</ele><time>2026-03-29T07:50:34.14Z</time></trkpt><trkpt lat="45.9044" lon="8.7582783"><ele>296.0</ele><time>2026-03-29T07:50:35.14Z</time></trkpt><trkpt lat="45.9045" lon="8.7583867"><ele>296.0</ele><time>2026-03-29T07:50:36.14Z</time></trkpt><trkpt lat="45.9045867" lon="8.758495"><ele>296.0</ele><time>2026-03-29T07:50:37.14Z</time></trkpt><trkpt lat="45.9046667" lon="8.7586067"><ele>296.2</ele><time>2026-03-29T07:50:38.141Z</time></trkpt><trkpt lat="45.9047383" lon="8.75872"><ele>296.40000000000003</ele><time>2026-03-29T07:50:39.14Z</time></trkpt><trkpt lat="45.9048067" lon="8.7588383"><ele>296.6</ele><time>2026-03-29T07:50:40.141Z</time></trkpt><trkpt lat="45.90487" lon="8.7589717"><ele>296.8</ele><time>2026-03-29T07:50:41.141Z</time></trkpt><trkpt lat="45.9049367" lon="8.7591133"><ele>297.0</ele><time>2026-03-29T07:50:42.141Z</time></trkpt><trkpt lat="45.904995" lon="8.7592367"><ele>297.0</ele><time>2026-03-29T07:50:43.14Z</time></trkpt><trkpt lat="45.9050433" lon="8.7593517"><ele>297.0</ele><time>2026-03-29T07:50:44.141Z</time></trkpt><trkpt lat="45.905085" lon="8.75946"><ele>297.0</ele><time>2026-03-29T07:50:45.14Z</time></trkpt><trkpt lat="45.905125" lon="8.7595617"><ele>297.0</ele><time>2026-03-29T07:50:46.14Z</time></trkpt><trkpt lat="45.9051567" lon="8.7596533"><ele>297.0</ele><time>2026-03-29T07:50:47.14Z</time></trkpt><trkpt lat="45.905195" lon="8.759795"><ele>297.0</ele><time>2026-03-29T07:50:49.14Z</time></trkpt><trkpt lat="45.9052533" lon="8.7598917"><ele>297.6666666666667</ele><time>2026-03-29T07:50:51.141Z</time></trkpt><trkpt lat="45.90528" lon="8.7599983"><ele>298.3333333333333</ele><time>2026-03-29T07:51:07.14Z</time></trkpt><trkpt lat="45.9052117" lon="8.76007"><ele>299.0</ele><time>2026-03-29T07:51:09.14Z</time></trkpt><trkpt lat="45.9051533" lon="8.7601133"><ele>299.66666666666663</ele><time>2026-03-29T07:51:10.14Z</time></trkpt><trkpt lat="45.9050817" lon="8.7601617"><ele>300.3333333333333</ele><time>2026-03-29T07:51:11.14Z</time></trkpt><trkpt lat="45.9050133" lon="8.7602133"><ele>301.0</ele><time>2026-03-29T07:51:12.14Z</time></trkpt><trkpt lat="45.90494" lon="8.7602867"><ele>301.0</ele><time>2026-03-29T07:51:13.14Z</time></trkpt><trkpt lat="45.904875" lon="8.760355"><ele>301.0</ele><time>2026-03-29T07:51:14.14Z</time></trkpt><trkpt lat="45.904815" lon="8.76043"><ele>301.0</ele><time>2026-03-29T07:51:15.14Z</time></trkpt><trkpt lat="45.9047617" lon="8.7604967"><ele>301.0</ele><time>2026-03-29T07:51:16.14Z</time></trkpt><trkpt lat="45.904715" lon="8.7605583"><ele>301.0</ele><time>2026-03-29T07:51:17.141Z</time></trkpt><trkpt lat="45.90463" lon="8.7606667"><ele>301.0</ele><time>2026-03-29T07:51:19.14Z</time></trkpt><trkpt lat="45.9045767" lon="8.7607567"><ele>301.0</ele><time>2026-03-29T07:51:21.141Z</time></trkpt><trkpt lat="45.9046383" lon="8.760725"><ele>301.0</ele><time>2026-03-29T07:51:55.141Z</time></trkpt><trkpt lat="45.904685" lon="8.7607967"><ele>301.0</ele><time>2026-03-29T07:51:58.14Z</time></trkpt><trkpt lat="45.904725" lon="8.7609017"><ele>301.0</ele><time>2026-03-29T07:52:03.14Z</time></trkpt><trkpt lat="45.9048133" lon="8.7609633"><ele>301.0</ele><time>2026-03-29T07:52:07.141Z</time></trkpt><trkpt lat="45.9048533" lon="8.761065"><ele>301.0</ele><time>2026-03-29T07:52:10.141Z</time></trkpt><trkpt lat="45.904785" lon="8.7611417"><ele>302.5</ele><time>2026-03-29T07:52:16.14Z</time></trkpt><trkpt lat="45.9047217" lon="8.7611833"><ele>304.0</ele><time>2026-03-29T07:52:19.14Z</time></trkpt><trkpt lat="45.9046717" lon="8.7612733"><ele>305.5</ele><time>2026-03-29T07:52:22.14Z</time></trkpt><trkpt lat="45.9047267" lon="8.7613933"><ele>307.0</ele><time>2026-03-29T07:52:25.14Z</time></trkpt><trkpt lat="45.9047667" lon="8.7614667"><ele>308.5</ele><time>2026-03-29T07:52:26.14Z</time></trkpt><trkpt lat="45.9048267" lon="8.7615633"><ele>310.0</ele><time>2026-03-29T07:52:28.14Z</time></trkpt><trkpt lat="45.90489" lon="8.76168"><ele>310.0</ele><time>2026-03-29T07:52:30.14Z</time></trkpt><trkpt lat="45.9049567" lon="8.761775"><ele>310.0</ele><time>2026-03-29T07:52:32.141Z</time></trkpt><trkpt lat="45.90502" lon="8.761835"><ele>310.0</ele><time>2026-03-29T07:52:34.14Z</time></trkpt><trkpt lat="45.905065" lon="8.76192"><ele>310.0</ele><time>2026-03-29T07:52:37.14Z</time></trkpt><trkpt lat="45.9050717" lon="8.7620167"><ele>310.0</ele><time>2026-03-29T07:52:41.14Z</time></trkpt><trkpt lat="45.9050583" lon="8.7621117"><ele>310.0</ele><time>2026-03-29T07:53:01.141Z</time></trkpt><trkpt lat="45.9050683" lon="8.7622167"><ele>309.3333333333333</ele><time>2026-03-29T07:53:12.14Z</time></trkpt><trkpt lat="45.9051133" lon="8.7622983"><ele>308.66666666666663</ele><time>2026-03-29T07:53:17.141Z</time></trkpt><trkpt lat="45.9050833" lon="8.762415"><ele>308.0</ele><time>2026-03-29T07:54:49.141Z</time></trkpt><trkpt lat="45.9050983" lon="8.7625317"><ele>307.3333333333333</ele><time>2026-03-29T07:55:56.141Z</time></trkpt><trkpt lat="45.9051533" lon="8.7626067"><ele>306.6666666666667</ele><time>2026-03-29T07:56:04.141Z</time></trkpt><trkpt lat="45.9052367" lon="8.7626483"><ele>306.0</ele><time>2026-03-29T07:56:13.141Z</time></trkpt><trkpt lat="45.9051117" lon="8.7626667"><ele>310.0</ele><time>2026-03-29T07:57:30.141Z</time></trkpt><trkpt lat="45.9049833" lon="8.762615"><ele>314.0</ele><time>2026-03-29T07:57:32.142Z</time></trkpt><trkpt lat="45.904885" lon="8.7625967"><ele>318.0</ele><time>2026-03-29T07:57:33.141Z</time></trkpt><trkpt lat="45.9047917" lon="8.7625717"><ele>322.0</ele><time>2026-03-29T07:57:34.142Z</time></trkpt><trkpt lat="45.904715" lon="8.762555"><ele>326.0</ele><time>2026-03-29T07:57:35.141Z</time></trkpt><trkpt lat="45.90465" lon="8.7625467"><ele>326.0</ele><time>2026-03-29T07:57:36.141Z</time></trkpt><trkpt lat="45.9045633" lon="8.7625467"><ele>326.0</ele><time>2026-03-29T07:57:38.141Z</time></trkpt><trkpt lat="45.9045133" lon="8.76262"><ele>326.0</ele><time>2026-03-29T07:57:41.142Z</time></trkpt><trkpt lat="45.90455" lon="8.7627533"><ele>326.0</ele><time>2026-03-29T07:57:45.141Z</time></trkpt><trkpt lat="45.90456" lon="8.762885"><ele>326.0</ele><time>2026-03-29T07:57:47.142Z</time></trkpt><trkpt lat="45.90462" lon="8.7630483"><ele>328.14285714285717</ele><time>2026-03-29T07:57:49.141Z</time></trkpt><trkpt lat="45.9046283" lon="8.763155"><ele>330.2857142857143</ele><time>2026-03-29T07:57:50.141Z</time></trkpt><trkpt lat="45.9046433" lon="8.7632483"><ele>332.42857142857144</ele><time>2026-03-29T07:57:51.141Z</time></trkpt><trkpt lat="45.90466" lon="8.7633517"><ele>334.57142857142856</ele><time>2026-03-29T07:57:52.141Z</time></trkpt><trkpt lat="45.9046617" lon="8.76346"><ele>336.7142857142857</ele><time>2026-03-29T07:57:53.141Z</time></trkpt><trkpt lat="45.9046633" lon="8.7635767"><ele>338.85714285714283</ele><time>2026-03-29T07:57:54.141Z</time></trkpt><trkpt lat="45.90467" lon="8.7636733"><ele>341.0</ele><time>2026-03-29T07:57:55.141Z</time></trkpt><trkpt lat="45.9047" lon="8.7638"><ele>343.5</ele><time>2026-03-29T07:57:57.141Z</time></trkpt><trkpt lat="45.904725" lon="8.7639183"><ele>346.0</ele><time>2026-03-29T07:58:00.141Z</time></trkpt><trkpt lat="45.90475" lon="8.76402"><ele>348.5</ele><time>2026-03-29T07:58:03.141Z</time></trkpt><trkpt lat="45.9047817" lon="8.76415"><ele>351.0</ele><time>2026-03-29T07:58:05.141Z</time></trkpt><trkpt lat="45.9048267" lon="8.7642867"><ele>353.5</ele><time>2026-03-29T07:58:07.142Z</time></trkpt><trkpt lat="45.9048517" lon="8.7643717"><ele>356.0</ele><time>2026-03-29T07:58:08.142Z</time></trkpt><trkpt lat="45.904905" lon="8.7645267"><ele>355.4</ele><time>2026-03-29T07:58:10.141Z</time></trkpt><trkpt lat="45.9049683" lon="8.7646733"><ele>354.8</ele><time>2026-03-29T07:58:12.141Z</time></trkpt><trkpt lat="45.90505" lon="8.7648"><ele>354.2</ele><time>2026-03-29T07:58:14.141Z</time></trkpt><trkpt lat="45.905105" lon="8.764855"><ele>353.59999999999997</ele><time>2026-03-29T07:58:15.141Z</time></trkpt><trkpt lat="45.90518" lon="8.7649167"><ele>353.0</ele><time>2026-03-29T07:58:17.141Z</time></trkpt><trkpt lat="45.9052633" lon="8.7649883"><ele>353.0</ele><time>2026-03-29T07:58:20.141Z</time></trkpt><trkpt lat="45.9053117" lon="8.765065"><ele>353.0</ele><time>2026-03-29T07:58:21.141Z</time></trkpt><trkpt lat="45.9053717" lon="8.7651917"><ele>353.0</ele><time>2026-03-29T07:58:23.141Z</time></trkpt><trkpt lat="45.9054133" lon="8.765265"><ele>353.0</ele><time>2026-03-29T07:58:24.142Z</time></trkpt><trkpt lat="45.90545" lon="8.76541"><ele>353.0</ele><time>2026-03-29T07:58:26.141Z</time></trkpt><trkpt lat="45.905485" lon="8.7655117"><ele>353.0</ele><time>2026-03-29T07:58:27.141Z</time></trkpt><trkpt lat="45.9055617" lon="8.7656517"><ele>356.5</ele><time>2026-03-29T07:58:29.142Z</time></trkpt><trkpt lat="45.905625" lon="8.76574"><ele>360.0</ele><time>2026-03-29T07:58:30.141Z</time></trkpt><trkpt lat="45.9056717" lon="8.7658183"><ele>363.5</ele><time>2026-03-29T07:58:31.141Z</time></trkpt><trkpt lat="45.905705" lon="8.76593"><ele>367.0</ele><time>2026-03-29T07:58:33.141Z</time></trkpt><trkpt lat="45.90572" lon="8.76602"><ele>370.5</ele><time>2026-03-29T07:58:34.141Z</time></trkpt><trkpt lat="45.9057367" lon="8.7661317"><ele>374.0</ele><time>2026-03-29T07:58:36.141Z</time></trkpt><trkpt lat="45.9057667" lon="8.766235"><ele>377.79999999999995</ele><time>2026-03-29T07:58:39.141Z</time></trkpt><trkpt lat="45.9057467" lon="8.766335"><ele>381.59999999999997</ele><time>2026-03-29T07:58:41.141Z</time></trkpt><trkpt lat="45.905755" lon="8.7664617"><ele>385.4</ele><time>2026-03-29T07:58:43.142Z</time></trkpt><trkpt lat="45.9057767" lon="8.766615"><ele>389.2</ele><time>2026-03-29T07:58:45.141Z</time></trkpt><trkpt lat="45.9058333" lon="8.766725"><ele>393.0</ele><time>2026-03-29T07:58:47.141Z</time></trkpt><trkpt lat="45.9058917" lon="8.76683"><ele>391.6666666666667</ele><time>2026-03-29T07:58:49.141Z</time></trkpt><trkpt lat="45.9059317" lon="8.76691"><ele>390.33333333333337</ele><time>2026-03-29T07:58:50.142Z</time></trkpt><trkpt lat="45.9059733" lon="8.7669933"><ele>389.0</ele><time>2026-03-29T07:58:51.141Z</time></trkpt><trkpt lat="45.9060433" lon="8.7671567"><ele>387.6666666666667</ele><time>2026-03-29T07:58:53.142Z</time></trkpt><trkpt lat="45.9060783" lon="8.76724"><ele>386.33333333333337</ele><time>2026-03-29T07:58:54.141Z</time></trkpt><trkpt lat="45.9061133" lon="8.7673217"><ele>385.0</ele><time>2026-03-29T07:58:55.141Z</time></trkpt><trkpt lat="45.90616" lon="8.76746"><ele>385.00000000000006</ele><time>2026-03-29T07:58:57.141Z</time></trkpt><trkpt lat="45.9062" lon="8.76757"><ele>385.0</ele><time>2026-03-29T07:58:59.142Z</time></trkpt><trkpt lat="45.90624" lon="8.7676467"><ele>385.0</ele><time>2026-03-29T07:59:01.142Z</time></trkpt><trkpt lat="45.9062867" lon="8.767725"><ele>385.0</ele><time>2026-03-29T07:59:03.141Z</time></trkpt><trkpt lat="45.90633" lon="8.7678467"><ele>385.00000000000006</ele><time>2026-03-29T07:59:05.142Z</time></trkpt><trkpt lat="45.9063717" lon="8.7679567"><ele>385.0</ele><time>2026-03-29T07:59:07.141Z</time></trkpt><trkpt lat="45.906415" lon="8.7680733"><ele>389.8</ele><time>2026-03-29T07:59:09.141Z</time></trkpt><trkpt lat="45.9064583" lon="8.768185"><ele>394.6</ele><time>2026-03-29T07:59:11.141Z</time></trkpt><trkpt lat="45.9064517" lon="8.7683683"><ele>399.4</ele><time>2026-03-29T07:59:13.141Z</time></trkpt><trkpt lat="45.90646" lon="8.76848"><ele>404.2</ele><time>2026-03-29T07:59:15.142Z</time></trkpt><trkpt lat="45.906485" lon="8.7685633"><ele>409.0</ele><time>2026-03-29T07:59:17.142Z</time></trkpt><trkpt lat="45.9065133" lon="8.7687633"><ele>406.33333333333337</ele><time>2026-03-29T07:59:46.142Z</time></trkpt><trkpt lat="45.9065367" lon="8.7688783"><ele>403.6666666666667</ele><time>2026-03-29T07:59:49.141Z</time></trkpt><trkpt lat="45.9065767" lon="8.7689667"><ele>401.0</ele><time>2026-03-29T07:59:52.141Z</time></trkpt><trkpt lat="45.9066367" lon="8.7690033"><ele>398.33333333333337</ele><time>2026-03-29T07:59:54.141Z</time></trkpt><trkpt lat="45.90671" lon="8.76903"><ele>395.6666666666667</ele><time>2026-03-29T07:59:57.141Z</time></trkpt><trkpt lat="45.9067967" lon="8.76909"><ele>393.0</ele><time>2026-03-29T08:00:00.141Z</time></trkpt><trkpt lat="45.9068483" lon="8.7691483"><ele>393.0</ele><time>2026-03-29T08:00:02.141Z</time></trkpt><trkpt lat="45.9069233" lon="8.769205"><ele>393.0</ele><time>2026-03-29T08:00:05.141Z</time></trkpt><trkpt lat="45.90699" lon="8.76928"><ele>393.0</ele><time>2026-03-29T08:00:07.141Z</time></trkpt><trkpt lat="45.9070817" lon="8.7693833"><ele>393.0</ele><time>2026-03-29T08:00:09.142Z</time></trkpt><trkpt lat="45.907135" lon="8.7694717"><ele>393.0</ele><time>2026-03-29T08:00:11.142Z</time></trkpt><trkpt lat="45.9071867" lon="8.7695733"><ele>397.3333333333333</ele><time>2026-03-29T08:00:13.141Z</time></trkpt><trkpt lat="45.9072283" lon="8.7697"><ele>401.66666666666663</ele><time>2026-03-29T08:00:15.141Z</time></trkpt><trkpt lat="45.907275" lon="8.7698317"><ele>406.0</ele><time>2026-03-29T08:00:17.141Z</time></trkpt><trkpt lat="45.9072833" lon="8.7699283"><ele>410.3333333333333</ele><time>2026-03-29T08:00:18.141Z</time></trkpt><trkpt lat="45.9073" lon="8.7700567"><ele>414.66666666666663</ele><time>2026-03-29T08:00:20.142Z</time></trkpt><trkpt lat="45.9073433" lon="8.7701683"><ele>419.0</ele><time>2026-03-29T08:00:21.141Z</time></trkpt><trkpt lat="45.90738" lon="8.7702633"><ele>423.6</ele><time>2026-03-29T08:00:22.141Z</time></trkpt><trkpt lat="45.9074117" lon="8.7703567"><ele>428.2</ele><time>2026-03-29T08:00:23.142Z</time></trkpt><trkpt lat="45.907435" lon="8.7704417"><ele>432.80000000000007</ele><time>2026-03-29T08:00:24.141Z</time></trkpt><trkpt lat="45.9074383" lon="8.7705667"><ele>437.40000000000003</ele><time>2026-03-29T08:00:26.141Z</time></trkpt><trkpt lat="45.9074433" lon="8.770785"><ele>442.0</ele><time>2026-03-29T08:00:28.142Z</time></trkpt><trkpt lat="45.9074633" lon="8.77092"><ele>444.6</ele><time>2026-03-29T08:00:29.141Z</time></trkpt><trkpt lat="45.9074783" lon="8.7710733"><ele>447.20000000000005</ele><time>2026-03-29T08:00:31.141Z</time></trkpt><trkpt lat="45.907485" lon="8.7712483"><ele>449.8</ele><time>2026-03-29T08:00:33.142Z</time></trkpt><trkpt lat="45.9074933" lon="8.7714133"><ele>452.4</ele><time>2026-03-29T08:00:35.141Z</time></trkpt><trkpt lat="45.907485" lon="8.7715517"><ele>455.0</ele><time>2026-03-29T08:00:37.142Z</time></trkpt><trkpt lat="45.9074933" lon="8.77165"><ele>454.99999999999994</ele><time>2026-03-29T08:00:39.141Z</time></trkpt><trkpt lat="45.9075233" lon="8.7717817"><ele>455.0</ele><time>2026-03-29T08:00:41.141Z</time></trkpt><trkpt lat="45.907555" lon="8.7719117"><ele>455.0</ele><time>2026-03-29T08:00:43.142Z</time></trkpt><trkpt lat="45.90759" lon="8.7719967"><ele>455.0</ele><time>2026-03-29T08:00:45.142Z</time></trkpt><trkpt lat="45.9076217" lon="8.7720783"><ele>454.99999999999994</ele><time>2026-03-29T08:00:47.141Z</time></trkpt><trkpt lat="45.907645" lon="8.7721733"><ele>455.0</ele><time>2026-03-29T08:00:49.141Z</time></trkpt><trkpt lat="45.9076367" lon="8.7722717"><ele>455.8571428571429</ele><time>2026-03-29T08:00:51.141Z</time></trkpt><trkpt lat="45.9075983" lon="8.7723517"><ele>456.7142857142857</ele><time>2026-03-29T08:00:54.141Z</time></trkpt><trkpt lat="45.907565" lon="8.77243"><ele>457.57142857142856</ele><time>2026-03-29T08:01:03.141Z</time></trkpt><trkpt lat="45.9074717" lon="8.7724183"><ele>458.42857142857144</ele><time>2026-03-29T08:01:21.142Z</time></trkpt><trkpt lat="45.9074867" lon="8.7725083"><ele>459.28571428571433</ele><time>2026-03-29T08:01:59.141Z</time></trkpt><trkpt lat="45.9074567" lon="8.7726067"><ele>460.14285714285717</ele><time>2026-03-29T08:02:02.142Z</time></trkpt><trkpt lat="45.9074067" lon="8.7726867"><ele>461.0</ele><time>2026-03-29T08:02:05.142Z</time></trkpt><trkpt lat="45.9073167" lon="8.7727383"><ele>462.16666666666663</ele><time>2026-03-29T08:02:09.141Z</time></trkpt><trkpt lat="45.9072517" lon="8.77277"><ele>463.3333333333333</ele><time>2026-03-29T08:02:11.142Z</time></trkpt><trkpt lat="45.9071817" lon="8.772805"><ele>464.5</ele><time>2026-03-29T08:02:13.141Z</time></trkpt><trkpt lat="45.9071033" lon="8.7728833"><ele>465.66666666666663</ele><time>2026-03-29T08:02:15.141Z</time></trkpt><trkpt lat="45.9070383" lon="8.7729167"><ele>466.8333333333333</ele><time>2026-03-29T08:02:17.141Z</time></trkpt><trkpt lat="45.9069383" lon="8.7729667"><ele>468.0</ele><time>2026-03-29T08:02:19.141Z</time></trkpt><trkpt lat="45.906855" lon="8.77299"><ele>468.0</ele><time>2026-03-29T08:02:21.142Z</time></trkpt><trkpt lat="45.9067683" lon="8.7729933"><ele>468.0</ele><time>2026-03-29T08:02:24.141Z</time></trkpt><trkpt lat="45.9066917" lon="8.77302"><ele>468.0</ele><time>2026-03-29T08:02:27.141Z</time></trkpt><trkpt lat="45.9066283" lon="8.7730483"><ele>468.0</ele><time>2026-03-29T08:02:29.141Z</time></trkpt><trkpt lat="45.9065567" lon="8.7730933"><ele>468.0</ele><time>2026-03-29T08:02:33.141Z</time></trkpt><trkpt lat="45.9064967" lon="8.7731683"><ele>468.0</ele><time>2026-03-29T08:02:37.142Z</time></trkpt><trkpt lat="45.9064283" lon="8.7731883"><ele>471.5</ele><time>2026-03-29T08:02:42.142Z</time></trkpt><trkpt lat="45.9063683" lon="8.7731433"><ele>475.0</ele><time>2026-03-29T08:03:07.141Z</time></trkpt><trkpt lat="45.9063283" lon="8.7730717"><ele>478.5</ele><time>2026-03-29T08:03:31.142Z</time></trkpt><trkpt lat="45.90631" lon="8.773175"><ele>482.0</ele><time>2026-03-29T08:03:44.142Z</time></trkpt><trkpt lat="45.9062283" lon="8.7731217"><ele>485.5</ele><time>2026-03-29T08:04:11.141Z</time></trkpt><trkpt lat="45.906125" lon="8.7730433"><ele>489.0</ele><time>2026-03-29T08:04:13.141Z</time></trkpt><trkpt lat="45.9060167" lon="8.772995"><ele>489.4</ele><time>2026-03-29T08:04:15.141Z</time></trkpt><trkpt lat="45.9059067" lon="8.7729417"><ele>489.79999999999995</ele><time>2026-03-29T08:04:17.142Z</time></trkpt><trkpt lat="45.90581" lon="8.7728717"><ele>490.20000000000005</ele><time>2026-03-29T08:04:19.142Z</time></trkpt><trkpt lat="45.9057567" lon="8.7728217"><ele>490.6</ele><time>2026-03-29T08:04:20.142Z</time></trkpt><trkpt lat="45.9056983" lon="8.7727633"><ele>491.0</ele><time>2026-03-29T08:04:21.141Z</time></trkpt><trkpt lat="45.9056083" lon="8.77266"><ele>492.20000000000005</ele><time>2026-03-29T08:04:23.141Z</time></trkpt><trkpt lat="45.9055217" lon="8.7725867"><ele>493.40000000000003</ele><time>2026-03-29T08:04:25.142Z</time></trkpt><trkpt lat="45.90542" lon="8.772475"><ele>494.6</ele><time>2026-03-29T08:04:27.141Z</time></trkpt><trkpt lat="45.9053233" lon="8.7723667"><ele>495.8</ele><time>2026-03-29T08:04:29.141Z</time></trkpt><trkpt lat="45.9052683" lon="8.77232"><ele>497.0</ele><time>2026-03-29T08:04:30.142Z</time></trkpt><trkpt lat="45.9051583" lon="8.772225"><ele>497.0</ele><time>2026-03-29T08:04:32.141Z</time></trkpt><trkpt lat="45.9050867" lon="8.7721617"><ele>497.00000000000006</ele><time>2026-03-29T08:04:34.141Z</time></trkpt><trkpt lat="45.90501" lon="8.77208"><ele>497.00000000000006</ele><time>2026-03-29T08:04:36.141Z</time></trkpt><trkpt lat="45.9049317" lon="8.7719817"><ele>497.0</ele><time>2026-03-29T08:04:38.142Z</time></trkpt><trkpt lat="45.904865" lon="8.7718533"><ele>497.0</ele><time>2026-03-29T08:04:40.142Z</time></trkpt><trkpt lat="45.90481" lon="8.7717433"><ele>499.40000000000003</ele><time>2026-03-29T08:04:42.141Z</time></trkpt><trkpt lat="45.904715" lon="8.7716583"><ele>501.80000000000007</ele><time>2026-03-29T08:04:44.141Z</time></trkpt><trkpt lat="45.9046567" lon="8.771615"><ele>504.2</ele><time>2026-03-29T08:04:45.141Z</time></trkpt><trkpt lat="45.9046" lon="8.7715733"><ele>506.6</ele><time>2026-03-29T08:04:46.142Z</time></trkpt><trkpt lat="45.9044867" lon="8.771505"><ele>509.0</ele><time>2026-03-29T08:04:48.141Z</time></trkpt><trkpt lat="45.90439" lon="8.771445"><ele>509.0</ele><time>2026-03-29T08:04:50.142Z</time></trkpt><trkpt lat="45.9043017" lon="8.7713967"><ele>509.0</ele><time>2026-03-29T08:04:52.141Z</time></trkpt><trkpt lat="45.9042467" lon="8.7713367"><ele>509.0</ele><time>2026-03-29T08:04:54.141Z</time></trkpt><trkpt lat="45.9041333" lon="8.77128"><ele>509.0</ele><time>2026-03-29T08:04:57.141Z</time></trkpt><trkpt lat="45.90405" lon="8.7712117"><ele>509.0</ele><time>2026-03-29T08:04:59.141Z</time></trkpt><trkpt lat="45.90397" lon="8.7711033"><ele>510.66666666666663</ele><time>2026-03-29T08:05:01.141Z</time></trkpt><trkpt lat="45.903925" lon="8.77097"><ele>512.3333333333333</ele><time>2026-03-29T08:05:03.141Z</time></trkpt><trkpt lat="45.903855" lon="8.7708533"><ele>514.0</ele><time>2026-03-29T08:05:05.141Z</time></trkpt><trkpt lat="45.9038" lon="8.7707983"><ele>515.6666666666666</ele><time>2026-03-29T08:05:06.141Z</time></trkpt><trkpt lat="45.9037417" lon="8.77072"><ele>517.3333333333334</ele><time>2026-03-29T08:05:07.142Z</time></trkpt><trkpt lat="45.9036817" lon="8.7706667"><ele>519.0</ele><time>2026-03-29T08:05:08.141Z</time></trkpt><trkpt lat="45.9036333" lon="8.77059"><ele>519.0</ele><time>2026-03-29T08:05:09.142Z</time></trkpt><trkpt lat="45.903595" lon="8.7705"><ele>519.0</ele><time>2026-03-29T08:05:10.141Z</time></trkpt><trkpt lat="45.903495" lon="8.7703633"><ele>519.0</ele><time>2026-03-29T08:05:12.141Z</time></trkpt><trkpt lat="45.9034267" lon="8.77027"><ele>519.0</ele><time>2026-03-29T08:05:13.141Z</time></trkpt><trkpt lat="45.903355" lon="8.7701733"><ele>519.0</ele><time>2026-03-29T08:05:14.142Z</time></trkpt><trkpt lat="45.9032917" lon="8.770075"><ele>518.6666666666666</ele><time>2026-03-29T08:05:15.141Z</time></trkpt><trkpt lat="45.9032383" lon="8.770005"><ele>518.3333333333334</ele><time>2026-03-29T08:05:16.141Z</time></trkpt><trkpt lat="45.9031517" lon="8.7698933"><ele>518.0</ele><time>2026-03-29T08:05:18.141Z</time></trkpt><trkpt lat="45.903055" lon="8.76979"><ele>517.6666666666667</ele><time>2026-03-29T08:05:20.142Z</time></trkpt><trkpt lat="45.9030017" lon="8.769735"><ele>517.3333333333334</ele><time>2026-03-29T08:05:21.141Z</time></trkpt><trkpt lat="45.90295" lon="8.7696817"><ele>517.0</ele><time>2026-03-29T08:05:22.141Z</time></trkpt><trkpt lat="45.9029017" lon="8.769615"><ele>517.0</ele><time>2026-03-29T08:05:23.141Z</time></trkpt><trkpt lat="45.9028167" lon="8.7695017"><ele>517.0</ele><time>2026-03-29T08:05:25.141Z</time></trkpt><trkpt lat="45.9027833" lon="8.7693767"><ele>517.0</ele><time>2026-03-29T08:05:27.142Z</time></trkpt><trkpt lat="45.90273" lon="8.7692333"><ele>517.0</ele><time>2026-03-29T08:05:29.141Z</time></trkpt><trkpt lat="45.9026717" lon="8.7690967"><ele>517.0</ele><time>2026-03-29T08:05:31.141Z</time></trkpt><trkpt lat="45.902625" lon="8.76895"><ele>516.6666666666667</ele><time>2026-03-29T08:05:33.141Z</time></trkpt><trkpt lat="45.9026017" lon="8.7688633"><ele>516.3333333333334</ele><time>2026-03-29T08:05:34.141Z</time></trkpt><trkpt lat="45.9025583" lon="8.768715"><ele>516.0</ele><time>2026-03-29T08:05:36.141Z</time></trkpt><trkpt lat="45.9024983" lon="8.76859"><ele>515.6666666666666</ele><time>2026-03-29T08:05:38.141Z</time></trkpt><trkpt lat="45.9024633" lon="8.7685083"><ele>515.3333333333333</ele><time>2026-03-29T08:05:39.141Z</time></trkpt><trkpt lat="45.90243" lon="8.7684283"><ele>515.0</ele><time>2026-03-29T08:05:40.141Z</time></trkpt><trkpt lat="45.9023417" lon="8.76829"><ele>518.8333333333333</ele><time>2026-03-29T08:05:42.141Z</time></trkpt><trkpt lat="45.9022783" lon="8.768235"><ele>522.6666666666666</ele><time>2026-03-29T08:05:43.141Z</time></trkpt><trkpt lat="45.90222" lon="8.76818"><ele>526.5</ele><time>2026-03-29T08:05:44.141Z</time></trkpt><trkpt lat="45.9021467" lon="8.768085"><ele>530.3333333333334</ele><time>2026-03-29T08:05:46.142Z</time></trkpt><trkpt lat="45.902105" lon="8.768005"><ele>534.1666666666667</ele><time>2026-03-29T08:05:48.142Z</time></trkpt><trkpt lat="45.9020683" lon="8.7679133"><ele>538.0</ele><time>2026-03-29T08:05:50.141Z</time></trkpt><trkpt lat="45.9020083" lon="8.7677833"><ele>538.0</ele><time>2026-03-29T08:05:52.141Z</time></trkpt><trkpt lat="45.901975" lon="8.7677033"><ele>538.0</ele><time>2026-03-29T08:05:53.141Z</time></trkpt><trkpt lat="45.9019267" lon="8.7676367"><ele>538.0</ele><time>2026-03-29T08:05:54.142Z</time></trkpt><trkpt lat="45.9018567" lon="8.7675067"><ele>538.0</ele><time>2026-03-29T08:05:56.141Z</time></trkpt><trkpt lat="45.9017933" lon="8.7674033"><ele>538.0</ele><time>2026-03-29T08:05:58.141Z</time></trkpt><trkpt lat="45.901765" lon="8.767315"><ele>538.0</ele><time>2026-03-29T08:06:02.141Z</time></trkpt><trkpt lat="45.901845" lon="8.76727"><ele>540.1666666666667</ele><time>2026-03-29T08:06:06.141Z</time></trkpt><trkpt lat="45.9019183" lon="8.76723"><ele>542.3333333333334</ele><time>2026-03-29T08:06:09.141Z</time></trkpt><trkpt lat="45.9019733" lon="8.7671583"><ele>544.5</ele><time>2026-03-29T08:06:11.141Z</time></trkpt><trkpt lat="45.9020433" lon="8.7670733"><ele>546.6666666666666</ele><time>2026-03-29T08:06:14.141Z</time></trkpt><trkpt lat="45.9020883" lon="8.7669617"><ele>548.8333333333333</ele><time>2026-03-29T08:06:17.141Z</time></trkpt><trkpt lat="45.9021333" lon="8.7668967"><ele>551.0</ele><time>2026-03-29T08:06:20.141Z</time></trkpt><trkpt lat="45.9021333" lon="8.7667917"><ele>552.0</ele><time>2026-03-29T08:06:24.142Z</time></trkpt><trkpt lat="45.9021017" lon="8.76668"><ele>553.0</ele><time>2026-03-29T08:06:30.141Z</time></trkpt><trkpt lat="45.902115" lon="8.7665583"><ele>554.0</ele><time>2026-03-29T08:06:46.141Z</time></trkpt><trkpt lat="45.902085" lon="8.76647"><ele>555.0</ele><time>2026-03-29T08:06:50.141Z</time></trkpt><trkpt lat="45.90206" lon="8.7663083"><ele>556.0</ele><time>2026-03-29T08:07:26.141Z</time></trkpt><trkpt lat="45.9021012" lon="8.7662357"><ele>557.0</ele><time>2026-03-29T08:10:59.197Z</time></trkpt><trkpt lat="45.9021244" lon="8.7661516"><ele>557.0</ele><time>2026-03-29T08:11:19.238Z</time></trkpt><trkpt lat="45.9020435" lon="8.7661142"><ele>557.0</ele><time>2026-03-29T08:14:09.214Z</time></trkpt><trkpt lat="45.901997" lon="8.76603"><ele>557.0</ele><time>2026-03-29T08:14:13.2Z</time></trkpt><trkpt lat="45.9018917" lon="8.7659405"><ele>557.0</ele><time>2026-03-29T08:14:14.145Z</time></trkpt><trkpt lat="45.9018406" lon="8.7658559"><ele>557.0</ele><time>2026-03-29T08:14:17.098Z</time></trkpt><trkpt lat="45.9017731" lon="8.7657916"><ele>557.0</ele><time>2026-03-29T08:14:22.12Z</time></trkpt><trkpt lat="45.90172" lon="8.7657217"><ele>558.6666666666666</ele><time>2026-03-29T08:14:27.141Z</time></trkpt><trkpt lat="45.9016617" lon="8.7656583"><ele>560.3333333333333</ele><time>2026-03-29T08:14:43.141Z</time></trkpt><trkpt lat="45.9016167" lon="8.76558"><ele>562.0</ele><time>2026-03-29T08:14:47.141Z</time></trkpt><trkpt lat="45.901595" lon="8.765495"><ele>563.6666666666666</ele><time>2026-03-29T08:14:58.141Z</time></trkpt><trkpt lat="45.90151" lon="8.7654317"><ele>565.3333333333334</ele><time>2026-03-29T08:15:26.141Z</time></trkpt><trkpt lat="45.90145" lon="8.7653467"><ele>567.0</ele><time>2026-03-29T08:15:48.142Z</time></trkpt><trkpt lat="45.9014283" lon="8.76525"><ele>566.8333333333334</ele><time>2026-03-29T08:15:51.141Z</time></trkpt><trkpt lat="45.90139" lon="8.76515"><ele>566.6666666666666</ele><time>2026-03-29T08:15:55.141Z</time></trkpt><trkpt lat="45.901345" lon="8.76505"><ele>566.5</ele><time>2026-03-29T08:15:59.141Z</time></trkpt><trkpt lat="45.901325" lon="8.7649533"><ele>566.3333333333333</ele><time>2026-03-29T08:16:02.141Z</time></trkpt><trkpt lat="45.901305" lon="8.764845"><ele>566.1666666666666</ele><time>2026-03-29T08:16:05.141Z</time></trkpt><trkpt lat="45.901265" lon="8.7647183"><ele>566.0</ele><time>2026-03-29T08:16:08.141Z</time></trkpt><trkpt lat="45.9012433" lon="8.76462"><ele>566.0</ele><time>2026-03-29T08:16:10.141Z</time></trkpt><trkpt lat="45.9012133" lon="8.7645267"><ele>566.0</ele><time>2026-03-29T08:16:12.141Z</time></trkpt><trkpt lat="45.90116" lon="8.764465"><ele>566.0</ele><time>2026-03-29T08:16:14.141Z</time></trkpt><trkpt lat="45.9010933" lon="8.7644133"><ele>566.0</ele><time>2026-03-29T08:16:16.142Z</time></trkpt><trkpt lat="45.90104" lon="8.764335"><ele>566.0</ele><time>2026-03-29T08:16:18.142Z</time></trkpt><trkpt lat="45.9009817" lon="8.7642333"><ele>566.0</ele><time>2026-03-29T08:16:20.141Z</time></trkpt><trkpt lat="45.9009117" lon="8.7641233"><ele>568.8</ele><time>2026-03-29T08:16:22.141Z</time></trkpt><trkpt lat="45.9008567" lon="8.76401"><ele>571.6</ele><time>2026-03-29T08:16:24.142Z</time></trkpt><trkpt lat="45.9007667" lon="8.7638883"><ele>574.4</ele><time>2026-03-29T08:16:26.141Z</time></trkpt><trkpt lat="45.900715" lon="8.7638317"><ele>577.2</ele><time>2026-03-29T08:16:27.142Z</time></trkpt><trkpt lat="45.9006267" lon="8.763725"><ele>580.0</ele><time>2026-03-29T08:16:29.142Z</time></trkpt><trkpt lat="45.9005517" lon="8.7636667"><ele>580.0</ele><time>2026-03-29T08:16:31.141Z</time></trkpt><trkpt lat="45.9004733" lon="8.7635717"><ele>580.0</ele><time>2026-03-29T08:16:33.141Z</time></trkpt><trkpt lat="45.9003983" lon="8.7634367"><ele>580.0</ele><time>2026-03-29T08:16:35.141Z</time></trkpt><trkpt lat="45.90032" lon="8.7633217"><ele>580.0</ele><time>2026-03-29T08:16:37.142Z</time></trkpt><trkpt lat="45.9002533" lon="8.7631983"><ele>580.0</ele><time>2026-03-29T08:16:39.141Z</time></trkpt><trkpt lat="45.90021" lon="8.7631133"><ele>580.6</ele><time>2026-03-29T08:16:40.141Z</time></trkpt><trkpt lat="45.900145" lon="8.763"><ele>581.2</ele><time>2026-03-29T08:16:42.141Z</time></trkpt><trkpt lat="45.9000783" lon="8.7629633"><ele>581.8</ele><time>2026-03-29T08:16:44.141Z</time></trkpt><trkpt lat="45.900015" lon="8.762935"><ele>582.4</ele><time>2026-03-29T08:16:46.141Z</time></trkpt><trkpt lat="45.8998983" lon="8.7628333"><ele>583.0</ele><time>2026-03-29T08:16:48.141Z</time></trkpt><trkpt lat="45.899825" lon="8.7627733"><ele>582.8</ele><time>2026-03-29T08:16:49.141Z</time></trkpt><trkpt lat="45.8997567" lon="8.7626767"><ele>582.5999999999999</ele><time>2026-03-29T08:16:50.141Z</time></trkpt><trkpt lat="45.8996917" lon="8.7626033"><ele>582.4000000000001</ele><time>2026-03-29T08:16:51.141Z</time></trkpt><trkpt lat="45.8996167" lon="8.7625417"><ele>582.2</ele><time>2026-03-29T08:16:52.142Z</time></trkpt><trkpt lat="45.89953" lon="8.7624633"><ele>582.0</ele><time>2026-03-29T08:16:54.141Z</time></trkpt><trkpt lat="45.899455" lon="8.76239"><ele>582.0</ele><time>2026-03-29T08:16:56.141Z</time></trkpt><trkpt lat="45.8994017" lon="8.762335"><ele>582.0</ele><time>2026-03-29T08:16:59.142Z</time></trkpt><trkpt lat="45.8993467" lon="8.7622883"><ele>582.0</ele><time>2026-03-29T08:17:05.141Z</time></trkpt><trkpt lat="45.8992567" lon="8.7622433"><ele>582.0</ele><time>2026-03-29T08:17:12.141Z</time></trkpt><trkpt lat="45.8991917" lon="8.7621733"><ele>582.0</ele><time>2026-03-29T08:17:14.141Z</time></trkpt><trkpt lat="45.89911" lon="8.7620917"><ele>582.0</ele><time>2026-03-29T08:17:16.142Z</time></trkpt><trkpt lat="45.899055" lon="8.762035"><ele>582.5</ele><time>2026-03-29T08:17:17.141Z</time></trkpt><trkpt lat="45.8989917" lon="8.7619667"><ele>583.0</ele><time>2026-03-29T08:17:18.141Z</time></trkpt><trkpt lat="45.898925" lon="8.7618883"><ele>583.5</ele><time>2026-03-29T08:17:19.141Z</time></trkpt><trkpt lat="45.8988617" lon="8.7618283"><ele>584.0</ele><time>2026-03-29T08:17:20.142Z</time></trkpt><trkpt lat="45.898805" lon="8.76174"><ele>584.5</ele><time>2026-03-29T08:17:21.141Z</time></trkpt><trkpt lat="45.8987533" lon="8.7616483"><ele>585.0</ele><time>2026-03-29T08:17:22.141Z</time></trkpt><trkpt lat="45.898695" lon="8.7615667"><ele>585.0</ele><time>2026-03-29T08:17:23.141Z</time></trkpt><trkpt lat="45.8986383" lon="8.7614883"><ele>585.0</ele><time>2026-03-29T08:17:24.141Z</time></trkpt><trkpt lat="45.8985917" lon="8.761425"><ele>585.0</ele><time>2026-03-29T08:17:25.142Z</time></trkpt><trkpt lat="45.8985283" lon="8.7613467"><ele>585.0</ele><time>2026-03-29T08:17:27.142Z</time></trkpt><trkpt lat="45.898435" lon="8.7612133"><ele>585.0</ele><time>2026-03-29T08:17:50.141Z</time></trkpt><trkpt lat="45.8984167" lon="8.7610967"><ele>585.0</ele><time>2026-03-29T08:17:53.142Z</time></trkpt><trkpt lat="45.898405" lon="8.7609983"><ele>587.0</ele><time>2026-03-29T08:17:56.141Z</time></trkpt><trkpt lat="45.8983933" lon="8.7608883"><ele>589.0</ele><time>2026-03-29T08:18:06.142Z</time></trkpt><trkpt lat="45.8984083" lon="8.7607733"><ele>591.0</ele><time>2026-03-29T08:18:19.141Z</time></trkpt><trkpt lat="45.8984517" lon="8.7606983"><ele>593.0</ele><time>2026-03-29T08:18:26.141Z</time></trkpt><trkpt lat="45.8984283" lon="8.7608067"><ele>595.0</ele><time>2026-03-29T08:18:50.141Z</time></trkpt><trkpt lat="45.89837" lon="8.7608667"><ele>597.0</ele><time>2026-03-29T08:18:53.141Z</time></trkpt><trkpt lat="45.8982983" lon="8.7608817"><ele>597.0</ele><time>2026-03-29T08:18:59.141Z</time></trkpt><trkpt lat="45.8982217" lon="8.7608917"><ele>597.0</ele><time>2026-03-29T08:19:07.141Z</time></trkpt><trkpt lat="45.8981567" lon="8.7608733"><ele>597.0</ele><time>2026-03-29T08:19:18.141Z</time></trkpt><trkpt lat="45.89812" lon="8.76079"><ele>597.0</ele><time>2026-03-29T08:19:23.141Z</time></trkpt><trkpt lat="45.898075" lon="8.7606683"><ele>597.0</ele><time>2026-03-29T08:19:44.141Z</time></trkpt><trkpt lat="45.89805" lon="8.7605567"><ele>597.0</ele><time>2026-03-29T08:28:02.142Z</time></trkpt><trkpt lat="45.89799" lon="8.7604067"><ele>597.0</ele><time>2026-03-29T08:28:05.143Z</time></trkpt><trkpt lat="45.897935" lon="8.76026"><ele>597.0</ele><time>2026-03-29T08:28:07.142Z</time></trkpt><trkpt lat="45.897875" lon="8.7601083"><ele>597.0</ele><time>2026-03-29T08:28:09.143Z</time></trkpt><trkpt lat="45.8978" lon="8.7599733"><ele>597.0</ele><time>2026-03-29T08:28:11.142Z</time></trkpt><trkpt lat="45.8977583" lon="8.7598967"><ele>597.0</ele><time>2026-03-29T08:28:12.142Z</time></trkpt><trkpt lat="45.8977083" lon="8.7598117"><ele>596.0</ele><time>2026-03-29T08:28:13.142Z</time></trkpt><trkpt lat="45.897615" lon="8.7596883"><ele>595.0</ele><time>2026-03-29T08:28:14.142Z</time></trkpt><trkpt lat="45.8975467" lon="8.759585"><ele>594.0</ele><time>2026-03-29T08:28:15.142Z</time></trkpt><trkpt lat="45.8974967" lon="8.759485"><ele>593.0</ele><time>2026-03-29T08:28:16.142Z</time></trkpt><trkpt lat="45.89745" lon="8.759385"><ele>592.0</ele><time>2026-03-29T08:28:17.143Z</time></trkpt><trkpt lat="45.897405" lon="8.7592867"><ele>595.0</ele><time>2026-03-29T08:28:18.142Z</time></trkpt><trkpt lat="45.8973667" lon="8.7592"><ele>598.0</ele><time>2026-03-29T08:28:19.143Z</time></trkpt><trkpt lat="45.897335" lon="8.7591183"><ele>601.0</ele><time>2026-03-29T08:28:20.142Z</time></trkpt><trkpt lat="45.8972967" lon="8.7590367"><ele>604.0</ele><time>2026-03-29T08:28:21.142Z</time></trkpt><trkpt lat="45.8972483" lon="8.7589467"><ele>607.0</ele><time>2026-03-29T08:28:22.143Z</time></trkpt><trkpt lat="45.8971883" lon="8.75886"><ele>610.0</ele><time>2026-03-29T08:28:23.143Z</time></trkpt><trkpt lat="45.897135" lon="8.7587683"><ele>610.0</ele><time>2026-03-29T08:28:24.142Z</time></trkpt><trkpt lat="45.89708" lon="8.75868"><ele>610.0</ele><time>2026-03-29T08:28:25.142Z</time></trkpt><trkpt lat="45.89703" lon="8.7586033"><ele>610.0</ele><time>2026-03-29T08:28:26.142Z</time></trkpt><trkpt lat="45.8969783" lon="8.7585317"><ele>610.0</ele><time>2026-03-29T08:28:27.143Z</time></trkpt><trkpt lat="45.896935" lon="8.7584583"><ele>610.0</ele><time>2026-03-29T08:28:28.142Z</time></trkpt><trkpt lat="45.896885" lon="8.75838"><ele>610.0</ele><time>2026-03-29T08:28:29.142Z</time></trkpt><trkpt lat="45.89683" lon="8.7582883"><ele>610.3333333333334</ele><time>2026-03-29T08:28:30.143Z</time></trkpt><trkpt lat="45.896775" lon="8.7582083"><ele>610.6666666666667</ele><time>2026-03-29T08:28:31.143Z</time></trkpt><trkpt lat="45.8967117" lon="8.7581333"><ele>611.0</ele><time>2026-03-29T08:28:32.142Z</time></trkpt><trkpt lat="45.8966483" lon="8.75805"><ele>611.3333333333334</ele><time>2026-03-29T08:28:33.143Z</time></trkpt><trkpt lat="45.8965883" lon="8.75796"><ele>611.6666666666666</ele><time>2026-03-29T08:28:34.142Z</time></trkpt><trkpt lat="45.896535" lon="8.75789"><ele>612.0</ele><time>2026-03-29T08:28:35.142Z</time></trkpt><trkpt lat="45.8964617" lon="8.7577483"><ele>612.5</ele><time>2026-03-29T08:28:37.142Z</time></trkpt><trkpt lat="45.8964083" lon="8.7576033"><ele>613.0</ele><time>2026-03-29T08:28:39.142Z</time></trkpt><trkpt lat="45.8963467" lon="8.7574567"><ele>613.5</ele><time>2026-03-29T08:28:41.142Z</time></trkpt><trkpt lat="45.8962767" lon="8.7573417"><ele>614.0</ele><time>2026-03-29T08:28:43.142Z</time></trkpt><trkpt lat="45.8962017" lon="8.7572133"><ele>614.0</ele><time>2026-03-29T08:28:45.142Z</time></trkpt><trkpt lat="45.89613" lon="8.75707"><ele>614.0</ele><time>2026-03-29T08:28:47.142Z</time></trkpt><trkpt lat="45.8960883" lon="8.7569183"><ele>614.0</ele><time>2026-03-29T08:28:49.142Z</time></trkpt><trkpt lat="45.896065" lon="8.756825"><ele>614.0</ele><time>2026-03-29T08:28:51.142Z</time></trkpt><trkpt lat="45.8960733" lon="8.756705"><ele>614.0</ele><time>2026-03-29T08:28:53.143Z</time></trkpt><trkpt lat="45.8960783" lon="8.7566067"><ele>613.3333333333333</ele><time>2026-03-29T08:28:55.142Z</time></trkpt><trkpt lat="45.896085" lon="8.7564567"><ele>612.6666666666666</ele><time>2026-03-29T08:28:58.142Z</time></trkpt><trkpt lat="45.896065" lon="8.7563533"><ele>612.0</ele><time>2026-03-29T08:29:00.142Z</time></trkpt><trkpt lat="45.8960267" lon="8.7562633"><ele>611.3333333333334</ele><time>2026-03-29T08:29:02.143Z</time></trkpt><trkpt lat="45.8959883" lon="8.7561883"><ele>610.6666666666667</ele><time>2026-03-29T08:29:04.142Z</time></trkpt><trkpt lat="45.8959017" lon="8.756065"><ele>610.0</ele><time>2026-03-29T08:29:06.142Z</time></trkpt><trkpt lat="45.89582" lon="8.7559817"><ele>606.1666666666667</ele><time>2026-03-29T08:29:08.142Z</time></trkpt><trkpt lat="45.89574" lon="8.7559017"><ele>602.3333333333334</ele><time>2026-03-29T08:29:10.142Z</time></trkpt><trkpt lat="45.89568" lon="8.755845"><ele>598.5</ele><time>2026-03-29T08:29:14.143Z</time></trkpt><trkpt lat="45.8956317" lon="8.75578"><ele>594.6666666666666</ele><time>2026-03-29T08:29:20.142Z</time></trkpt><trkpt lat="45.895585" lon="8.7556683"><ele>590.8333333333333</ele><time>2026-03-29T08:29:32.142Z</time></trkpt><trkpt lat="45.8955833" lon="8.7555183"><ele>587.0</ele><time>2026-03-29T08:29:34.142Z</time></trkpt><trkpt lat="45.8955833" lon="8.7553817"><ele>587.0</ele><time>2026-03-29T08:29:36.142Z</time></trkpt><trkpt lat="45.895575" lon="8.755255"><ele>587.0</ele><time>2026-03-29T08:29:38.142Z</time></trkpt><trkpt lat="45.8955133" lon="8.7551333"><ele>587.0</ele><time>2026-03-29T08:29:40.142Z</time></trkpt><trkpt lat="45.8954867" lon="8.755045"><ele>587.0</ele><time>2026-03-29T08:29:41.142Z</time></trkpt><trkpt lat="45.8954517" lon="8.7549583"><ele>587.0</ele><time>2026-03-29T08:29:42.142Z</time></trkpt><trkpt lat="45.89539" lon="8.7548483"><ele>587.0</ele><time>2026-03-29T08:29:43.143Z</time></trkpt><trkpt lat="45.89532" lon="8.7547033"><ele>587.0</ele><time>2026-03-29T08:29:44.142Z</time></trkpt><trkpt lat="45.895265" lon="8.7545833"><ele>587.0</ele><time>2026-03-29T08:29:45.143Z</time></trkpt><trkpt lat="45.89522" lon="8.7544767"><ele>587.0</ele><time>2026-03-29T08:29:46.142Z</time></trkpt><trkpt lat="45.8951767" lon="8.7543633"><ele>587.0</ele><time>2026-03-29T08:29:47.142Z</time></trkpt><trkpt lat="45.8951283" lon="8.7542683"><ele>587.0</ele><time>2026-03-29T08:29:48.142Z</time></trkpt><trkpt lat="45.895085" lon="8.7541867"><ele>587.0</ele><time>2026-03-29T08:29:49.142Z</time></trkpt><trkpt lat="45.89504" lon="8.7541067"><ele>587.0</ele><time>2026-03-29T08:29:50.142Z</time></trkpt><trkpt lat="45.894995" lon="8.7540333"><ele>587.0</ele><time>2026-03-29T08:29:51.143Z</time></trkpt><trkpt lat="45.8949167" lon="8.75392"><ele>587.0</ele><time>2026-03-29T08:29:53.142Z</time></trkpt><trkpt lat="45.8948567" lon="8.75381"><ele>587.0</ele><time>2026-03-29T08:29:55.142Z</time></trkpt><trkpt lat="45.8948067" lon="8.7537167"><ele>587.0</ele><time>2026-03-29T08:29:57.142Z</time></trkpt><trkpt lat="45.894805" lon="8.7536017"><ele>587.0</ele><time>2026-03-29T08:29:59.142Z</time></trkpt><trkpt lat="45.8948217" lon="8.753465"><ele>586.4</ele><time>2026-03-29T08:30:01.142Z</time></trkpt><trkpt lat="45.89483" lon="8.7533117"><ele>585.8000000000001</ele><time>2026-03-29T08:30:03.143Z</time></trkpt><trkpt lat="45.894855" lon="8.753135"><ele>585.2</ele><time>2026-03-29T08:30:05.142Z</time></trkpt><trkpt lat="45.8948583" lon="8.753035"><ele>584.6</ele><time>2026-03-29T08:30:06.142Z</time></trkpt><trkpt lat="45.8948667" lon="8.7528533"><ele>584.0</ele><time>2026-03-29T08:30:08.142Z</time></trkpt><trkpt lat="45.8948667" lon="8.7526983"><ele>583.8</ele><time>2026-03-29T08:30:10.142Z</time></trkpt><trkpt lat="45.8948567" lon="8.7525967"><ele>583.5999999999999</ele><time>2026-03-29T08:30:12.142Z</time></trkpt><trkpt lat="45.894865" lon="8.75236"><ele>583.4</ele><time>2026-03-29T08:30:18.142Z</time></trkpt><trkpt lat="45.8948433" lon="8.75225"><ele>583.1999999999999</ele><time>2026-03-29T08:30:21.142Z</time></trkpt><trkpt lat="45.8948067" lon="8.75217"><ele>583.0</ele><time>2026-03-29T08:30:23.142Z</time></trkpt><trkpt lat="45.8947667" lon="8.7520917"><ele>583.0000000000001</ele><time>2026-03-29T08:30:25.142Z</time></trkpt><trkpt lat="45.8947233" lon="8.752"><ele>583.0</ele><time>2026-03-29T08:30:27.142Z</time></trkpt><trkpt lat="45.8946867" lon="8.7519133"><ele>583.0</ele><time>2026-03-29T08:30:31.142Z</time></trkpt><trkpt lat="45.894665" lon="8.75182"><ele>583.0</ele><time>2026-03-29T08:30:33.142Z</time></trkpt><trkpt lat="45.8946433" lon="8.75172"><ele>583.0</ele><time>2026-03-29T08:30:35.142Z</time></trkpt><trkpt lat="45.89461" lon="8.7516233"><ele>583.0000000000001</ele><time>2026-03-29T08:30:38.142Z</time></trkpt><trkpt lat="45.8946083" lon="8.751525"><ele>583.0</ele><time>2026-03-29T08:30:43.142Z</time></trkpt><trkpt lat="45.89457" lon="8.75144"><ele>582.8</ele><time>2026-03-29T08:30:49.143Z</time></trkpt><trkpt lat="45.8945217" lon="8.7513483"><ele>582.5999999999999</ele><time>2026-03-29T08:30:53.142Z</time></trkpt><trkpt lat="45.894445" lon="8.7511817"><ele>582.4000000000001</ele><time>2026-03-29T08:31:05.142Z</time></trkpt><trkpt lat="45.8943967" lon="8.751085"><ele>582.2</ele><time>2026-03-29T08:31:11.142Z</time></trkpt><trkpt lat="45.894335" lon="8.750985"><ele>582.0</ele><time>2026-03-29T08:31:16.142Z</time></trkpt><trkpt lat="45.8942683" lon="8.75087"><ele>583.0</ele><time>2026-03-29T08:31:19.142Z</time></trkpt><trkpt lat="45.8942333" lon="8.75074"><ele>584.0</ele><time>2026-03-29T08:31:21.142Z</time></trkpt><trkpt lat="45.8942067" lon="8.750625"><ele>585.0</ele><time>2026-03-29T08:31:23.142Z</time></trkpt><trkpt lat="45.894175" lon="8.750515"><ele>586.0</ele><time>2026-03-29T08:31:25.143Z</time></trkpt><trkpt lat="45.89414" lon="8.7503967"><ele>587.0</ele><time>2026-03-29T08:31:27.143Z</time></trkpt><trkpt lat="45.894115" lon="8.7502933"><ele>588.0</ele><time>2026-03-29T08:31:29.142Z</time></trkpt><trkpt lat="45.89409" lon="8.7501933"><ele>588.0</ele><time>2026-03-29T08:31:31.143Z</time></trkpt><trkpt lat="45.89406" lon="8.7500967"><ele>588.0</ele><time>2026-03-29T08:31:33.142Z</time></trkpt><trkpt lat="45.8939967" lon="8.7499733"><ele>588.0</ele><time>2026-03-29T08:31:35.142Z</time></trkpt><trkpt lat="45.8939367" lon="8.7498517"><ele>588.0</ele><time>2026-03-29T08:31:37.143Z</time></trkpt><trkpt lat="45.8938917" lon="8.74974"><ele>588.0</ele><time>2026-03-29T08:31:39.142Z</time></trkpt><trkpt lat="45.8938483" lon="8.7496067"><ele>588.0</ele><time>2026-03-29T08:31:41.143Z</time></trkpt><trkpt lat="45.893805" lon="8.7494567"><ele>588.0</ele><time>2026-03-29T08:31:43.142Z</time></trkpt><trkpt lat="45.89375" lon="8.749305"><ele>588.0</ele><time>2026-03-29T08:31:45.142Z</time></trkpt><trkpt lat="45.893715" lon="8.7492283"><ele>588.0</ele><time>2026-03-29T08:31:46.142Z</time></trkpt><trkpt lat="45.893675" lon="8.749155"><ele>588.0</ele><time>2026-03-29T08:31:47.142Z</time></trkpt><trkpt lat="45.8936333" lon="8.7490783"><ele>588.0</ele><time>2026-03-29T08:31:48.142Z</time></trkpt><trkpt lat="45.8935967" lon="8.7490033"><ele>587.8</ele><time>2026-03-29T08:31:49.143Z</time></trkpt><trkpt lat="45.8935233" lon="8.7488817"><ele>587.5999999999999</ele><time>2026-03-29T08:31:51.142Z</time></trkpt><trkpt lat="45.8934633" lon="8.74876"><ele>587.4000000000001</ele><time>2026-03-29T08:31:53.142Z</time></trkpt><trkpt lat="45.89342" lon="8.748655"><ele>587.2</ele><time>2026-03-29T08:31:55.142Z</time></trkpt><trkpt lat="45.8933817" lon="8.7485517"><ele>587.0</ele><time>2026-03-29T08:31:57.142Z</time></trkpt><trkpt lat="45.89335" lon="8.7484467"><ele>587.0</ele><time>2026-03-29T08:31:59.142Z</time></trkpt><trkpt lat="45.893325" lon="8.7483217"><ele>587.0</ele><time>2026-03-29T08:32:02.142Z</time></trkpt><trkpt lat="45.8933017" lon="8.7482333"><ele>587.0</ele><time>2026-03-29T08:32:05.142Z</time></trkpt><trkpt lat="45.893245" lon="8.7481033"><ele>587.0</ele><time>2026-03-29T08:32:10.142Z</time></trkpt><trkpt lat="45.8932233" lon="8.74799"><ele>587.0</ele><time>2026-03-29T08:32:13.143Z</time></trkpt><trkpt lat="45.8932083" lon="8.747895"><ele>587.0</ele><time>2026-03-29T08:32:16.142Z</time></trkpt><trkpt lat="45.89318" lon="8.747785"><ele>586.1428571428571</ele><time>2026-03-29T08:32:20.143Z</time></trkpt><trkpt lat="45.8931467" lon="8.7476517"><ele>585.2857142857143</ele><time>2026-03-29T08:32:23.142Z</time></trkpt><trkpt lat="45.8931167" lon="8.7475417"><ele>584.4285714285714</ele><time>2026-03-29T08:32:25.142Z</time></trkpt><trkpt lat="45.8930917" lon="8.7474533"><ele>583.5714285714286</ele><time>2026-03-29T08:32:27.142Z</time></trkpt><trkpt lat="45.8930683" lon="8.7473617"><ele>582.7142857142858</ele><time>2026-03-29T08:32:30.142Z</time></trkpt><trkpt lat="45.8930383" lon="8.74728"><ele>581.8571428571429</ele><time>2026-03-29T08:32:33.142Z</time></trkpt><trkpt lat="45.893005" lon="8.7471967"><ele>581.0</ele><time>2026-03-29T08:32:52.142Z</time></trkpt><trkpt lat="45.89303" lon="8.7471133"><ele>581.0</ele><time>2026-03-29T08:32:58.142Z</time></trkpt><trkpt lat="45.8930183" lon="8.7470017"><ele>581.0</ele><time>2026-03-29T08:33:12.142Z</time></trkpt><trkpt lat="45.8930117" lon="8.7469117"><ele>581.0</ele><time>2026-03-29T08:33:23.142Z</time></trkpt><trkpt lat="45.89306" lon="8.7469933"><ele>581.0</ele><time>2026-03-29T08:34:04.143Z</time></trkpt><trkpt lat="45.8930467" lon="8.7470917"><ele>581.0</ele><time>2026-03-29T08:34:15.142Z</time></trkpt><trkpt lat="45.892995" lon="8.7470183"><ele>581.0</ele><time>2026-03-29T08:34:32.142Z</time></trkpt><trkpt lat="45.8930067" lon="8.7469217"><ele>581.0</ele><time>2026-03-29T08:34:44.142Z</time></trkpt><trkpt lat="45.892945" lon="8.7468733"><ele>579.0</ele><time>2026-03-29T08:35:07.143Z</time></trkpt><trkpt lat="45.8929367" lon="8.7467717"><ele>577.0</ele><time>2026-03-29T08:35:20.143Z</time></trkpt><trkpt lat="45.8929067" lon="8.746675"><ele>575.0</ele><time>2026-03-29T08:35:25.142Z</time></trkpt><trkpt lat="45.8928717" lon="8.7465767"><ele>573.0</ele><time>2026-03-29T08:35:28.142Z</time></trkpt><trkpt lat="45.8928367" lon="8.74647"><ele>571.0</ele><time>2026-03-29T08:35:30.143Z</time></trkpt><trkpt lat="45.8927883" lon="8.7463683"><ele>569.0</ele><time>2026-03-29T08:35:33.143Z</time></trkpt><trkpt lat="45.892745" lon="8.746275"><ele>569.0000000000001</ele><time>2026-03-29T08:35:35.142Z</time></trkpt><trkpt lat="45.892685" lon="8.7462367"><ele>569.0</ele><time>2026-03-29T08:35:37.142Z</time></trkpt><trkpt lat="45.8926083" lon="8.7461517"><ele>569.0</ele><time>2026-03-29T08:35:40.142Z</time></trkpt><trkpt lat="45.8925517" lon="8.7460867"><ele>569.0</ele><time>2026-03-29T08:35:43.142Z</time></trkpt><trkpt lat="45.8925" lon="8.74603"><ele>569.0</ele><time>2026-03-29T08:35:45.143Z</time></trkpt><trkpt lat="45.89244" lon="8.745955"><ele>569.0000000000001</ele><time>2026-03-29T08:35:47.142Z</time></trkpt><trkpt lat="45.8923917" lon="8.7458967"><ele>569.0</ele><time>2026-03-29T08:35:49.142Z</time></trkpt><trkpt lat="45.8923417" lon="8.7458333"><ele>569.3333333333333</ele><time>2026-03-29T08:35:52.142Z</time></trkpt><trkpt lat="45.892275" lon="8.7457883"><ele>569.6666666666666</ele><time>2026-03-29T08:35:55.142Z</time></trkpt><trkpt lat="45.89221" lon="8.745725"><ele>570.0</ele><time>2026-03-29T08:35:58.142Z</time></trkpt><trkpt lat="45.89214" lon="8.74565"><ele>570.3333333333334</ele><time>2026-03-29T08:36:01.142Z</time></trkpt><trkpt lat="45.89207" lon="8.74561"><ele>570.6666666666667</ele><time>2026-03-29T08:36:03.143Z</time></trkpt><trkpt lat="45.891985" lon="8.745485"><ele>571.0</ele><time>2026-03-29T08:36:09.142Z</time></trkpt><trkpt lat="45.8919067" lon="8.7453733"><ele>571.0</ele><time>2026-03-29T08:36:13.142Z</time></trkpt><trkpt lat="45.8918617" lon="8.7453017"><ele>571.0</ele><time>2026-03-29T08:36:15.142Z</time></trkpt><trkpt lat="45.8918367" lon="8.7452117"><ele>571.0</ele><time>2026-03-29T08:36:18.143Z</time></trkpt><trkpt lat="45.8918117" lon="8.7451183"><ele>571.0</ele><time>2026-03-29T08:36:22.142Z</time></trkpt><trkpt lat="45.8917783" lon="8.74504"><ele>571.0</ele><time>2026-03-29T08:36:28.142Z</time></trkpt><trkpt lat="45.8917617" lon="8.7449367"><ele>571.0</ele><time>2026-03-29T08:37:01.142Z</time></trkpt><trkpt lat="45.8917783" lon="8.74482"><ele>571.0</ele><time>2026-03-29T08:37:07.142Z</time></trkpt><trkpt lat="45.8917867" lon="8.744685"><ele>570.5714285714286</ele><time>2026-03-29T08:37:12.142Z</time></trkpt><trkpt lat="45.8917783" lon="8.7445867"><ele>570.1428571428571</ele><time>2026-03-29T08:37:15.142Z</time></trkpt><trkpt lat="45.8917667" lon="8.744485"><ele>569.7142857142857</ele><time>2026-03-29T08:37:18.142Z</time></trkpt><trkpt lat="45.89174" lon="8.7444017"><ele>569.2857142857142</ele><time>2026-03-29T08:37:22.143Z</time></trkpt><trkpt lat="45.891725" lon="8.7443133"><ele>568.8571428571428</ele><time>2026-03-29T08:37:25.143Z</time></trkpt><trkpt lat="45.891705" lon="8.7442183"><ele>568.4285714285714</ele><time>2026-03-29T08:37:29.142Z</time></trkpt><trkpt lat="45.8916917" lon="8.744115"><ele>568.0</ele><time>2026-03-29T08:37:34.142Z</time></trkpt><trkpt lat="45.891695" lon="8.7440233"><ele>566.3333333333334</ele><time>2026-03-29T08:37:38.142Z</time></trkpt><trkpt lat="45.8916983" lon="8.7439183"><ele>564.6666666666667</ele><time>2026-03-29T08:37:43.142Z</time></trkpt><trkpt lat="45.8916867" lon="8.7438067"><ele>563.0</ele><time>2026-03-29T08:37:47.142Z</time></trkpt><trkpt lat="45.8916367" lon="8.74373"><ele>561.3333333333334</ele><time>2026-03-29T08:37:52.142Z</time></trkpt><trkpt lat="45.8915967" lon="8.7436483"><ele>559.6666666666666</ele><time>2026-03-29T08:37:58.143Z</time></trkpt><trkpt lat="45.891545" lon="8.7435867"><ele>558.0</ele><time>2026-03-29T08:38:01.142Z</time></trkpt><trkpt lat="45.8914617" lon="8.7435133"><ele>555.0</ele><time>2026-03-29T08:38:04.142Z</time></trkpt><trkpt lat="45.8914" lon="8.7434583"><ele>552.0</ele><time>2026-03-29T08:38:06.142Z</time></trkpt><trkpt lat="45.891345" lon="8.7433767"><ele>549.0</ele><time>2026-03-29T08:38:08.143Z</time></trkpt><trkpt lat="45.89131" lon="8.743265"><ele>546.0</ele><time>2026-03-29T08:38:11.142Z</time></trkpt><trkpt lat="45.8912883" lon="8.7431517"><ele>543.0</ele><time>2026-03-29T08:38:14.143Z</time></trkpt><trkpt lat="45.8912633" lon="8.7430367"><ele>540.0</ele><time>2026-03-29T08:38:18.143Z</time></trkpt><trkpt lat="45.891225" lon="8.742945"><ele>540.0</ele><time>2026-03-29T08:38:21.142Z</time></trkpt><trkpt lat="45.8911983" lon="8.74284"><ele>540.0</ele><time>2026-03-29T08:38:24.142Z</time></trkpt><trkpt lat="45.8912" lon="8.74272"><ele>540.0</ele><time>2026-03-29T08:38:28.142Z</time></trkpt><trkpt lat="45.8912033" lon="8.742615"><ele>540.0</ele><time>2026-03-29T08:38:31.143Z</time></trkpt><trkpt lat="45.8911917" lon="8.742505"><ele>540.0</ele><time>2026-03-29T08:38:35.142Z</time></trkpt><trkpt lat="45.8911683" lon="8.742395"><ele>540.0</ele><time>2026-03-29T08:38:38.142Z</time></trkpt><trkpt lat="45.8911533" lon="8.7422933"><ele>537.0</ele><time>2026-03-29T08:38:40.142Z</time></trkpt><trkpt lat="45.8911367" lon="8.74218"><ele>534.0</ele><time>2026-03-29T08:38:42.142Z</time></trkpt><trkpt lat="45.8911" lon="8.742045"><ele>531.0</ele><time>2026-03-29T08:38:44.142Z</time></trkpt><trkpt lat="45.8910717" lon="8.74195"><ele>528.0</ele><time>2026-03-29T08:38:45.142Z</time></trkpt><trkpt lat="45.8910533" lon="8.7418267"><ele>525.0</ele><time>2026-03-29T08:38:47.142Z</time></trkpt><trkpt lat="45.8910533" lon="8.7417233"><ele>522.0</ele><time>2026-03-29T08:38:49.143Z</time></trkpt><trkpt lat="45.891015" lon="8.7416083"><ele>522.4</ele><time>2026-03-29T08:38:51.142Z</time></trkpt><trkpt lat="45.89096" lon="8.7414917"><ele>522.8000000000001</ele><time>2026-03-29T08:38:53.142Z</time></trkpt><trkpt lat="45.8909017" lon="8.741375"><ele>523.2</ele><time>2026-03-29T08:38:55.143Z</time></trkpt><trkpt lat="45.89086" lon="8.7412567"><ele>523.6</ele><time>2026-03-29T08:38:57.143Z</time></trkpt><trkpt lat="45.8908233" lon="8.7411"><ele>524.0</ele><time>2026-03-29T08:38:59.142Z</time></trkpt><trkpt lat="45.8907617" lon="8.7409517"><ele>524.0</ele><time>2026-03-29T08:39:01.142Z</time></trkpt><trkpt lat="45.8907517" lon="8.7408517"><ele>524.0</ele><time>2026-03-29T08:39:02.142Z</time></trkpt><trkpt lat="45.890685" lon="8.740725"><ele>524.0</ele><time>2026-03-29T08:39:04.142Z</time></trkpt><trkpt lat="45.8906067" lon="8.7406033"><ele>524.0</ele><time>2026-03-29T08:39:06.143Z</time></trkpt><trkpt lat="45.89053" lon="8.7404867"><ele>524.0</ele><time>2026-03-29T08:39:08.142Z</time></trkpt><trkpt lat="45.89046" lon="8.7403817"><ele>524.0</ele><time>2026-03-29T08:39:10.142Z</time></trkpt><trkpt lat="45.8904133" lon="8.74032"><ele>524.0</ele><time>2026-03-29T08:39:11.142Z</time></trkpt><trkpt lat="45.8903217" lon="8.7401917"><ele>524.0</ele><time>2026-03-29T08:39:13.143Z</time></trkpt><trkpt lat="45.890265" lon="8.7401283"><ele>524.0</ele><time>2026-03-29T08:39:15.142Z</time></trkpt><trkpt lat="45.8901883" lon="8.7401133"><ele>524.0</ele><time>2026-03-29T08:39:18.142Z</time></trkpt><trkpt lat="45.89012" lon="8.7400883"><ele>524.0</ele><time>2026-03-29T08:39:20.142Z</time></trkpt><trkpt lat="45.89003" lon="8.7400467"><ele>526.1666666666666</ele><time>2026-03-29T08:39:23.142Z</time></trkpt><trkpt lat="45.8899517" lon="8.740015"><ele>528.3333333333333</ele><time>2026-03-29T08:39:26.142Z</time></trkpt><trkpt lat="45.889885" lon="8.7399917"><ele>530.5</ele><time>2026-03-29T08:39:31.143Z</time></trkpt><trkpt lat="45.8898267" lon="8.7399467"><ele>532.6666666666666</ele><time>2026-03-29T08:39:39.142Z</time></trkpt><trkpt lat="45.8897667" lon="8.7399017"><ele>534.8333333333334</ele><time>2026-03-29T08:39:48.142Z</time></trkpt><trkpt lat="45.889705" lon="8.739855"><ele>537.0</ele><time>2026-03-29T08:40:29.142Z</time></trkpt><trkpt lat="45.88961" lon="8.739815"><ele>537.0</ele><time>2026-03-29T08:40:43.142Z</time></trkpt><trkpt lat="45.8896817" lon="8.7397933"><ele>537.0</ele><time>2026-03-29T08:41:25.143Z</time></trkpt><trkpt lat="45.889775" lon="8.7398167"><ele>537.0</ele><time>2026-03-29T08:41:30.143Z</time></trkpt><trkpt lat="45.889835" lon="8.7398583"><ele>537.0</ele><time>2026-03-29T08:41:37.142Z</time></trkpt><trkpt lat="45.8899317" lon="8.7398517"><ele>537.0</ele><time>2026-03-29T08:41:54.142Z</time></trkpt><trkpt lat="45.8898933" lon="8.73993"><ele>537.0</ele><time>2026-03-29T08:42:08.142Z</time></trkpt><trkpt lat="45.8898183" lon="8.7399283"><ele>536.9999999999999</ele><time>2026-03-29T08:42:24.142Z</time></trkpt><trkpt lat="45.8897633" lon="8.739875"><ele>537.0</ele><time>2026-03-29T08:42:56.143Z</time></trkpt><trkpt lat="45.889705" lon="8.7398117"><ele>537.0</ele><time>2026-03-29T08:43:00.142Z</time></trkpt><trkpt lat="45.8896317" lon="8.7397067"><ele>537.0</ele><time>2026-03-29T08:43:15.142Z</time></trkpt><trkpt lat="45.8896383" lon="8.7398"><ele>537.0</ele><time>2026-03-29T08:44:09.143Z</time></trkpt><trkpt lat="45.88963" lon="8.7398917"><ele>536.9999999999999</ele><time>2026-03-29T08:44:50.142Z</time></trkpt><trkpt lat="45.8896983" lon="8.73992"><ele>537.0</ele><time>2026-03-29T08:45:19.142Z</time></trkpt><trkpt lat="45.8896317" lon="8.7399783"><ele>536.9999999999999</ele><time>2026-03-29T08:46:35.142Z</time></trkpt><trkpt lat="45.889635" lon="8.7398867"><ele>537.0</ele><time>2026-03-29T08:47:53.142Z</time></trkpt><trkpt lat="45.8896" lon="8.7397917"><ele>537.0</ele><time>2026-03-29T08:51:41.143Z</time></trkpt><trkpt lat="45.889665" lon="8.7397983"><ele>537.0</ele><time>2026-03-29T08:52:29.144Z</time></trkpt><trkpt lat="45.8897117" lon="8.7398917"><ele>537.0</ele><time>2026-03-29T08:52:50.143Z</time></trkpt><trkpt lat="45.88965" lon="8.7399183"><ele>536.9999999999999</ele><time>2026-03-29T08:53:06.143Z</time></trkpt><trkpt lat="45.8896117" lon="8.739835"><ele>537.0</ele><time>2026-03-29T08:54:03.143Z</time></trkpt><trkpt lat="45.8896733" lon="8.7398617"><ele>537.0</ele><time>2026-03-29T08:56:04.143Z</time></trkpt><trkpt lat="45.88976" lon="8.7399167"><ele>537.0</ele><time>2026-03-29T08:56:49.143Z</time></trkpt><trkpt lat="45.889675" lon="8.7398517"><ele>537.0</ele><time>2026-03-29T08:58:13.143Z</time></trkpt><trkpt lat="45.8896717" lon="8.7399483"><ele>537.0</ele><time>2026-03-29T08:58:35.143Z</time></trkpt><trkpt lat="45.8896483" lon="8.7398567"><ele>537.0</ele><time>2026-03-29T08:59:43.143Z</time></trkpt><trkpt lat="45.8897283" lon="8.73981"><ele>537.0</ele><time>2026-03-29T09:02:04.143Z</time></trkpt><trkpt lat="45.8896783" lon="8.7398667"><ele>536.9999999999999</ele><time>2026-03-29T09:02:29.143Z</time></trkpt><trkpt lat="45.8896067" lon="8.73977"><ele>537.0</ele><time>2026-03-29T09:03:14.143Z</time></trkpt><trkpt lat="45.88967" lon="8.7398083"><ele>537.0</ele><time>2026-03-29T09:03:51.143Z</time></trkpt><trkpt lat="45.8896233" lon="8.7398733"><ele>537.0</ele><time>2026-03-29T09:04:10.143Z</time></trkpt><trkpt lat="45.889555" lon="8.739825"><ele>537.0</ele><time>2026-03-29T09:04:41.144Z</time></trkpt><trkpt lat="45.8896217" lon="8.7398233"><ele>536.9999999999999</ele><time>2026-03-29T09:06:05.144Z</time></trkpt><trkpt lat="45.8896567" lon="8.73974"><ele>537.0</ele><time>2026-03-29T09:06:49.143Z</time></trkpt><trkpt lat="45.88967" lon="8.739635"><ele>536.9999999999999</ele><time>2026-03-29T09:07:04.143Z</time></trkpt><trkpt lat="45.8896017" lon="8.73961"><ele>537.0</ele><time>2026-03-29T09:07:32.144Z</time></trkpt><trkpt lat="45.8895333" lon="8.7395917"><ele>537.0</ele><time>2026-03-29T09:07:48.143Z</time></trkpt><trkpt lat="45.889475" lon="8.7395417"><ele>537.0</ele><time>2026-03-29T09:07:59.143Z</time></trkpt><trkpt lat="45.889405" lon="8.7395833"><ele>537.0</ele><time>2026-03-29T09:08:20.143Z</time></trkpt><trkpt lat="45.889455" lon="8.7395217"><ele>536.9999999999999</ele><time>2026-03-29T09:08:53.143Z</time></trkpt><trkpt lat="45.8893917" lon="8.7394717"><ele>537.0</ele><time>2026-03-29T09:08:58.143Z</time></trkpt><trkpt lat="45.8893417" lon="8.7395317"><ele>536.9999999999999</ele><time>2026-03-29T09:09:23.143Z</time></trkpt><trkpt lat="45.8894067" lon="8.7395367"><ele>537.0</ele><time>2026-03-29T09:09:41.143Z</time></trkpt><trkpt lat="45.8893483" lon="8.739495"><ele>537.0</ele><time>2026-03-29T09:10:13.144Z</time></trkpt><trkpt lat="45.8893083" lon="8.739415"><ele>537.0</ele><time>2026-03-29T09:10:47.143Z</time></trkpt><trkpt lat="45.88927" lon="8.7392933"><ele>537.0</ele><time>2026-03-29T09:11:01.143Z</time></trkpt><trkpt lat="45.8893233" lon="8.7393633"><ele>536.9999999999999</ele><time>2026-03-29T09:19:27.144Z</time></trkpt><trkpt lat="45.8892533" lon="8.7393467"><ele>537.0</ele><time>2026-03-29T09:19:44.144Z</time></trkpt><trkpt lat="45.8893" lon="8.7394117"><ele>535.6666666666666</ele><time>2026-03-29T09:20:07.144Z</time></trkpt><trkpt lat="45.8892517" lon="8.73935"><ele>534.3333333333334</ele><time>2026-03-29T09:21:21.144Z</time></trkpt><trkpt lat="45.8891917" lon="8.7392767"><ele>533.0</ele><time>2026-03-29T09:21:35.144Z</time></trkpt><trkpt lat="45.8891067" lon="8.7392367"><ele>531.6666666666667</ele><time>2026-03-29T09:21:39.144Z</time></trkpt><trkpt lat="45.8890533" lon="8.7391683"><ele>530.3333333333334</ele><time>2026-03-29T09:21:42.145Z</time></trkpt><trkpt lat="45.88901" lon="8.739075"><ele>529.0</ele><time>2026-03-29T09:21:45.144Z</time></trkpt><trkpt lat="45.8889617" lon="8.73899"><ele>529.0</ele><time>2026-03-29T09:21:48.145Z</time></trkpt><trkpt lat="45.8889217" lon="8.7389183"><ele>529.0</ele><time>2026-03-29T09:21:51.144Z</time></trkpt><trkpt lat="45.8888433" lon="8.7388967"><ele>529.0</ele><time>2026-03-29T09:21:54.145Z</time></trkpt><trkpt lat="45.8887867" lon="8.7388533"><ele>529.0</ele><time>2026-03-29T09:21:56.144Z</time></trkpt><trkpt lat="45.8887183" lon="8.7387717"><ele>529.0</ele><time>2026-03-29T09:21:59.144Z</time></trkpt><trkpt lat="45.8886517" lon="8.7386883"><ele>529.0</ele><time>2026-03-29T09:22:02.144Z</time></trkpt><trkpt lat="45.8886033" lon="8.7385917"><ele>526.5</ele><time>2026-03-29T09:22:05.144Z</time></trkpt><trkpt lat="45.8885783" lon="8.7384717"><ele>524.0</ele><time>2026-03-29T09:22:08.145Z</time></trkpt><trkpt lat="45.8886017" lon="8.7383667"><ele>521.5</ele><time>2026-03-29T09:22:11.145Z</time></trkpt><trkpt lat="45.8886317" lon="8.7382517"><ele>519.0</ele><time>2026-03-29T09:22:14.144Z</time></trkpt><trkpt lat="45.888655" lon="8.7381417"><ele>516.5</ele><time>2026-03-29T09:22:18.145Z</time></trkpt><trkpt lat="45.8886717" lon="8.7380417"><ele>514.0</ele><time>2026-03-29T09:22:21.144Z</time></trkpt><trkpt lat="45.88867" lon="8.7379233"><ele>514.0</ele><time>2026-03-29T09:22:24.144Z</time></trkpt><trkpt lat="45.8886833" lon="8.73783"><ele>514.0</ele><time>2026-03-29T09:22:26.144Z</time></trkpt><trkpt lat="45.8887167" lon="8.7377417"><ele>514.0</ele><time>2026-03-29T09:22:29.145Z</time></trkpt><trkpt lat="45.8887433" lon="8.73765"><ele>514.0</ele><time>2026-03-29T09:22:33.144Z</time></trkpt><trkpt lat="45.8887783" lon="8.73756"><ele>514.0</ele><time>2026-03-29T09:22:37.144Z</time></trkpt><trkpt lat="45.888815" lon="8.7374767"><ele>514.0</ele><time>2026-03-29T09:22:41.144Z</time></trkpt><trkpt lat="45.8888633" lon="8.7374017"><ele>514.0</ele><time>2026-03-29T09:22:51.144Z</time></trkpt><trkpt lat="45.8888967" lon="8.7373229"><ele>511.33333333333337</ele><time>2026-03-29T09:23:01.206Z</time></trkpt><trkpt lat="45.8889131" lon="8.7372353"><ele>508.6666666666667</ele><time>2026-03-29T09:23:09.181Z</time></trkpt><trkpt lat="45.8889971" lon="8.7370979"><ele>506.0</ele><time>2026-03-29T09:23:21.144Z</time></trkpt><trkpt lat="45.8890462" lon="8.7370313"><ele>503.33333333333337</ele><time>2026-03-29T09:23:25.144Z</time></trkpt><trkpt lat="45.8890717" lon="8.7369329"><ele>500.6666666666667</ele><time>2026-03-29T09:23:37.195Z</time></trkpt><trkpt lat="45.8890988" lon="8.7368313"><ele>498.0</ele><time>2026-03-29T09:23:47.132Z</time></trkpt><trkpt lat="45.8891277" lon="8.7366109"><ele>495.5</ele><time>2026-03-29T09:23:55.144Z</time></trkpt><trkpt lat="45.88915" lon="8.736505"><ele>493.0</ele><time>2026-03-29T09:24:26.144Z</time></trkpt><trkpt lat="45.8892583" lon="8.7364733"><ele>490.5</ele><time>2026-03-29T09:27:06.144Z</time></trkpt><trkpt lat="45.8891767" lon="8.7365067"><ele>488.0</ele><time>2026-03-29T09:28:06.144Z</time></trkpt><trkpt lat="45.889135" lon="8.7364267"><ele>485.5</ele><time>2026-03-29T09:28:10.144Z</time></trkpt><trkpt lat="45.8890667" lon="8.7363583"><ele>483.0</ele><time>2026-03-29T09:28:30.144Z</time></trkpt><trkpt lat="45.889125" lon="8.7362833"><ele>483.0</ele><time>2026-03-29T09:28:43.144Z</time></trkpt><trkpt lat="45.8890867" lon="8.7361967"><ele>482.99999999999994</ele><time>2026-03-29T09:28:57.144Z</time></trkpt><trkpt lat="45.889115" lon="8.7361"><ele>482.99999999999994</ele><time>2026-03-29T09:29:05.144Z</time></trkpt><trkpt lat="45.889155" lon="8.736025"><ele>483.0</ele><time>2026-03-29T09:29:15.145Z</time></trkpt><trkpt lat="45.8892917" lon="8.7359417"><ele>483.0</ele><time>2026-03-29T09:29:30.144Z</time></trkpt><trkpt lat="45.889405" lon="8.73592"><ele>478.57142857142856</ele><time>2026-03-29T09:29:36.145Z</time></trkpt><trkpt lat="45.8894667" lon="8.7359717"><ele>474.1428571428571</ele><time>2026-03-29T09:29:42.145Z</time></trkpt><trkpt lat="45.88955" lon="8.7359833"><ele>469.7142857142857</ele><time>2026-03-29T09:29:57.145Z</time></trkpt><trkpt lat="45.88963" lon="8.735965"><ele>465.2857142857143</ele><time>2026-03-29T09:30:11.145Z</time></trkpt><trkpt lat="45.8897033" lon="8.7359083"><ele>460.85714285714283</ele><time>2026-03-29T09:30:20.144Z</time></trkpt><trkpt lat="45.8897667" lon="8.7358883"><ele>456.42857142857144</ele><time>2026-03-29T09:30:26.144Z</time></trkpt><trkpt lat="45.8897983" lon="8.7359667"><ele>452.0</ele><time>2026-03-29T09:30:30.144Z</time></trkpt><trkpt lat="45.88985" lon="8.736025"><ele>453.49999999999994</ele><time>2026-03-29T09:30:36.144Z</time></trkpt><trkpt lat="45.8898933" lon="8.7360967"><ele>455.0</ele><time>2026-03-29T09:30:43.145Z</time></trkpt><trkpt lat="45.8899783" lon="8.7361833"><ele>456.5</ele><time>2026-03-29T09:30:47.144Z</time></trkpt><trkpt lat="45.8900533" lon="8.7362167"><ele>458.0</ele><time>2026-03-29T09:30:50.144Z</time></trkpt><trkpt lat="45.8901283" lon="8.7362567"><ele>459.49999999999994</ele><time>2026-03-29T09:30:54.144Z</time></trkpt><trkpt lat="45.8901917" lon="8.7362933"><ele>461.0</ele><time>2026-03-29T09:30:57.144Z</time></trkpt><trkpt lat="45.89027" lon="8.7363117"><ele>456.8333333333333</ele><time>2026-03-29T09:31:01.144Z</time></trkpt><trkpt lat="45.8903317" lon="8.7363483"><ele>452.66666666666663</ele><time>2026-03-29T09:31:04.145Z</time></trkpt><trkpt lat="45.8903933" lon="8.7364117"><ele>448.5</ele><time>2026-03-29T09:31:07.144Z</time></trkpt><trkpt lat="45.890465" lon="8.7364733"><ele>444.33333333333337</ele><time>2026-03-29T09:31:10.144Z</time></trkpt><trkpt lat="45.8905183" lon="8.7365517"><ele>440.1666666666667</ele><time>2026-03-29T09:31:14.145Z</time></trkpt><trkpt lat="45.8905917" lon="8.736595"><ele>436.0</ele><time>2026-03-29T09:31:18.145Z</time></trkpt><trkpt lat="45.890675" lon="8.736655"><ele>436.0</ele><time>2026-03-29T09:31:21.144Z</time></trkpt><trkpt lat="45.8907467" lon="8.7366883"><ele>436.0</ele><time>2026-03-29T09:31:24.144Z</time></trkpt><trkpt lat="45.8908067" lon="8.7367617"><ele>436.0</ele><time>2026-03-29T09:31:26.144Z</time></trkpt><trkpt lat="45.8908667" lon="8.73683"><ele>436.0</ele><time>2026-03-29T09:31:28.145Z</time></trkpt><trkpt lat="45.8909233" lon="8.7368783"><ele>436.0</ele><time>2026-03-29T09:31:30.145Z</time></trkpt><trkpt lat="45.8909933" lon="8.7369433"><ele>436.0</ele><time>2026-03-29T09:31:32.145Z</time></trkpt><trkpt lat="45.891055" lon="8.7369233"><ele>436.0</ele><time>2026-03-29T09:31:38.144Z</time></trkpt><trkpt lat="45.8910733" lon="8.7368083"><ele>433.6666666666667</ele><time>2026-03-29T09:31:42.144Z</time></trkpt><trkpt lat="45.8910983" lon="8.7367217"><ele>431.33333333333337</ele><time>2026-03-29T09:31:45.145Z</time></trkpt><trkpt lat="45.891145" lon="8.7366117"><ele>429.0</ele><time>2026-03-29T09:31:49.144Z</time></trkpt><trkpt lat="45.8911967" lon="8.7365567"><ele>426.66666666666663</ele><time>2026-03-29T09:31:51.144Z</time></trkpt><trkpt lat="45.89127" lon="8.736475"><ele>424.3333333333333</ele><time>2026-03-29T09:31:54.144Z</time></trkpt><trkpt lat="45.8913567" lon="8.7364033"><ele>422.0</ele><time>2026-03-29T09:31:57.144Z</time></trkpt><trkpt lat="45.891425" lon="8.7363767"><ele>422.0</ele><time>2026-03-29T09:31:59.144Z</time></trkpt><trkpt lat="45.8914967" lon="8.73637"><ele>422.0</ele><time>2026-03-29T09:32:01.144Z</time></trkpt><trkpt lat="45.891575" lon="8.7363867"><ele>422.0</ele><time>2026-03-29T09:32:03.144Z</time></trkpt><trkpt lat="45.89165" lon="8.7363817"><ele>422.0</ele><time>2026-03-29T09:32:05.144Z</time></trkpt><trkpt lat="45.8917267" lon="8.7363833"><ele>422.0</ele><time>2026-03-29T09:32:08.145Z</time></trkpt><trkpt lat="45.8918" lon="8.73639"><ele>422.0</ele><time>2026-03-29T09:32:11.144Z</time></trkpt><trkpt lat="45.8918583" lon="8.7364333"><ele>422.0</ele><time>2026-03-29T09:32:13.144Z</time></trkpt><trkpt lat="45.8918983" lon="8.7363483"><ele>419.16666666666663</ele><time>2026-03-29T09:32:18.145Z</time></trkpt><trkpt lat="45.8919517" lon="8.7362533"><ele>416.3333333333333</ele><time>2026-03-29T09:32:20.144Z</time></trkpt><trkpt lat="45.8919617" lon="8.7361517"><ele>413.5</ele><time>2026-03-29T09:32:22.144Z</time></trkpt><trkpt lat="45.8919833" lon="8.73602"><ele>410.66666666666663</ele><time>2026-03-29T09:32:25.144Z</time></trkpt><trkpt lat="45.8919933" lon="8.7359083"><ele>407.8333333333333</ele><time>2026-03-29T09:32:28.144Z</time></trkpt><trkpt lat="45.8919833" lon="8.7358"><ele>405.0</ele><time>2026-03-29T09:32:31.145Z</time></trkpt><trkpt lat="45.8919817" lon="8.7356933"><ele>404.0</ele><time>2026-03-29T09:32:34.144Z</time></trkpt><trkpt lat="45.8919983" lon="8.7355817"><ele>403.0</ele><time>2026-03-29T09:32:37.144Z</time></trkpt><trkpt lat="45.8919933" lon="8.7354883"><ele>402.0</ele><time>2026-03-29T09:32:40.144Z</time></trkpt><trkpt lat="45.8919633" lon="8.7354"><ele>401.0</ele><time>2026-03-29T09:32:46.145Z</time></trkpt><trkpt lat="45.89193" lon="8.7352517"><ele>400.0</ele><time>2026-03-29T09:32:54.144Z</time></trkpt><trkpt lat="45.8919417" lon="8.7351583"><ele>399.0</ele><time>2026-03-29T09:32:56.144Z</time></trkpt><trkpt lat="45.8919533" lon="8.73506"><ele>397.0</ele><time>2026-03-29T09:32:59.144Z</time></trkpt><trkpt lat="45.8920067" lon="8.7349383"><ele>395.0</ele><time>2026-03-29T09:33:55.144Z</time></trkpt><trkpt lat="45.8920667" lon="8.734835"><ele>393.0</ele><time>2026-03-29T09:33:57.144Z</time></trkpt><trkpt lat="45.8921433" lon="8.734765"><ele>391.0</ele><time>2026-03-29T09:33:59.145Z</time></trkpt><trkpt lat="45.8922567" lon="8.734715"><ele>389.0</ele><time>2026-03-29T09:34:01.144Z</time></trkpt><trkpt lat="45.89233" lon="8.7347033"><ele>389.0</ele><time>2026-03-29T09:34:02.144Z</time></trkpt><trkpt lat="45.89243" lon="8.734715"><ele>389.0</ele><time>2026-03-29T09:34:04.144Z</time></trkpt><trkpt lat="45.8925033" lon="8.7347283"><ele>389.0</ele><time>2026-03-29T09:34:06.144Z</time></trkpt><trkpt lat="45.892605" lon="8.73479"><ele>389.0</ele><time>2026-03-29T09:34:09.145Z</time></trkpt><trkpt lat="45.8926683" lon="8.7348517"><ele>389.0</ele><time>2026-03-29T09:34:11.144Z</time></trkpt><trkpt lat="45.892735" lon="8.7349367"><ele>386.49999999999994</ele><time>2026-03-29T09:34:14.144Z</time></trkpt><trkpt lat="45.8928017" lon="8.735005"><ele>384.0</ele><time>2026-03-29T09:34:17.145Z</time></trkpt><trkpt lat="45.8928783" lon="8.7350583"><ele>381.5</ele><time>2026-03-29T09:34:20.144Z</time></trkpt><trkpt lat="45.8929567" lon="8.7350483"><ele>379.0</ele><time>2026-03-29T09:34:23.144Z</time></trkpt><trkpt lat="45.89301" lon="8.7351433"><ele>376.5</ele><time>2026-03-29T09:34:26.145Z</time></trkpt><trkpt lat="45.8930367" lon="8.7352417"><ele>374.0</ele><time>2026-03-29T09:34:28.144Z</time></trkpt><trkpt lat="45.8930417" lon="8.7353617"><ele>374.0</ele><time>2026-03-29T09:34:30.144Z</time></trkpt><trkpt lat="45.8930567" lon="8.7354583"><ele>374.0</ele><time>2026-03-29T09:34:32.144Z</time></trkpt><trkpt lat="45.89309" lon="8.73555"><ele>374.0</ele><time>2026-03-29T09:34:35.144Z</time></trkpt><trkpt lat="45.893155" lon="8.7355983"><ele>374.0</ele><time>2026-03-29T09:34:40.144Z</time></trkpt><trkpt lat="45.8931517" lon="8.7355067"><ele>374.0</ele><time>2026-03-29T09:34:49.144Z</time></trkpt><trkpt lat="45.89323" lon="8.7355833"><ele>374.0</ele><time>2026-03-29T09:34:58.144Z</time></trkpt><trkpt lat="45.8932767" lon="8.73565"><ele>374.0</ele><time>2026-03-29T09:35:00.144Z</time></trkpt><trkpt lat="45.8933017" lon="8.7357333"><ele>374.0</ele><time>2026-03-29T09:35:02.144Z</time></trkpt><trkpt lat="45.8933967" lon="8.73586"><ele>374.0</ele><time>2026-03-29T09:35:06.144Z</time></trkpt><trkpt lat="45.8934733" lon="8.735935"><ele>374.0</ele><time>2026-03-29T09:35:08.144Z</time></trkpt><trkpt lat="45.8935433" lon="8.73601"><ele>374.0</ele><time>2026-03-29T09:35:10.144Z</time></trkpt><trkpt lat="45.893615" lon="8.7360333"><ele>374.0</ele><time>2026-03-29T09:35:13.144Z</time></trkpt><trkpt lat="45.8936817" lon="8.7359917"><ele>368.33333333333337</ele><time>2026-03-29T09:35:17.144Z</time></trkpt><trkpt lat="45.8936733" lon="8.7358783"><ele>362.6666666666667</ele><time>2026-03-29T09:35:19.145Z</time></trkpt><trkpt lat="45.893655" lon="8.735755"><ele>357.0</ele><time>2026-03-29T09:35:21.144Z</time></trkpt><trkpt lat="45.8936283" lon="8.735615"><ele>351.3333333333333</ele><time>2026-03-29T09:35:23.144Z</time></trkpt><trkpt lat="45.893615" lon="8.7355017"><ele>345.66666666666663</ele><time>2026-03-29T09:35:25.144Z</time></trkpt><trkpt lat="45.8936133" lon="8.7353983"><ele>340.0</ele><time>2026-03-29T09:35:27.144Z</time></trkpt><trkpt lat="45.8936717" lon="8.735355"><ele>340.0</ele><time>2026-03-29T09:35:31.144Z</time></trkpt><trkpt lat="45.89373" lon="8.7353967"><ele>340.0</ele><time>2026-03-29T09:35:35.144Z</time></trkpt><trkpt lat="45.8937883" lon="8.7354583"><ele>340.0</ele><time>2026-03-29T09:35:39.144Z</time></trkpt><trkpt lat="45.893855" lon="8.735535"><ele>340.0</ele><time>2026-03-29T09:35:53.144Z</time></trkpt><trkpt lat="45.8939083" lon="8.735605"><ele>340.0</ele><time>2026-03-29T09:36:36.144Z</time></trkpt><trkpt lat="45.89385" lon="8.73565"><ele>340.0</ele><time>2026-03-29T09:36:52.144Z</time></trkpt><trkpt lat="45.893885" lon="8.7357283"><ele>340.0</ele><time>2026-03-29T09:37:05.144Z</time></trkpt><trkpt lat="45.8939233" lon="8.7358183"><ele>340.0</ele><time>2026-03-29T09:37:09.144Z</time></trkpt><trkpt lat="45.8939383" lon="8.7359083"><ele>340.0</ele><time>2026-03-29T09:37:12.144Z</time></trkpt><trkpt lat="45.893945" lon="8.7360017"><ele>340.0</ele><time>2026-03-29T09:37:15.144Z</time></trkpt><trkpt lat="45.894" lon="8.7360717"><ele>340.0</ele><time>2026-03-29T09:37:20.144Z</time></trkpt><trkpt lat="45.8940417" lon="8.73614"><ele>340.0</ele><time>2026-03-29T09:37:23.144Z</time></trkpt><trkpt lat="45.8940933" lon="8.7362117"><ele>340.0</ele><time>2026-03-29T09:37:26.144Z</time></trkpt><trkpt lat="45.8941383" lon="8.736275"><ele>340.0</ele><time>2026-03-29T09:37:29.144Z</time></trkpt><trkpt lat="45.8941967" lon="8.7363667"><ele>335.2</ele><time>2026-03-29T09:37:32.144Z</time></trkpt><trkpt lat="45.894295" lon="8.736475"><ele>330.4</ele><time>2026-03-29T09:37:34.144Z</time></trkpt><trkpt lat="45.8943617" lon="8.7365317"><ele>325.6</ele><time>2026-03-29T09:37:36.144Z</time></trkpt><trkpt lat="45.8943517" lon="8.73639"><ele>320.8</ele><time>2026-03-29T09:37:42.145Z</time></trkpt><trkpt lat="45.894335" lon="8.7362533"><ele>316.0</ele><time>2026-03-29T09:37:44.145Z</time></trkpt><trkpt lat="45.8943033" lon="8.736175"><ele>316.00000000000006</ele><time>2026-03-29T09:37:45.144Z</time></trkpt><trkpt lat="45.8942917" lon="8.7360817"><ele>316.0</ele><time>2026-03-29T09:37:46.145Z</time></trkpt><trkpt lat="45.89427" lon="8.7359933"><ele>316.0</ele><time>2026-03-29T09:37:47.144Z</time></trkpt><trkpt lat="45.8942483" lon="8.7358817"><ele>316.0</ele><time>2026-03-29T09:37:48.144Z</time></trkpt><trkpt lat="45.8942367" lon="8.7357867"><ele>316.0</ele><time>2026-03-29T09:37:49.144Z</time></trkpt><trkpt lat="45.8942167" lon="8.7356667"><ele>316.00000000000006</ele><time>2026-03-29T09:37:50.144Z</time></trkpt><trkpt lat="45.8942067" lon="8.7355767"><ele>316.0</ele><time>2026-03-29T09:37:51.145Z</time></trkpt><trkpt lat="45.8941883" lon="8.73549"><ele>317.8</ele><time>2026-03-29T09:37:52.144Z</time></trkpt><trkpt lat="45.8941883" lon="8.73535"><ele>319.6</ele><time>2026-03-29T09:37:54.145Z</time></trkpt><trkpt lat="45.89423" lon="8.7352433"><ele>321.4</ele><time>2026-03-29T09:37:56.145Z</time></trkpt><trkpt lat="45.8942267" lon="8.7350117"><ele>323.2</ele><time>2026-03-29T09:37:58.144Z</time></trkpt><trkpt lat="45.8942217" lon="8.7348667"><ele>325.0</ele><time>2026-03-29T09:37:59.144Z</time></trkpt><trkpt lat="45.8942167" lon="8.7347267"><ele>325.0</ele><time>2026-03-29T09:38:00.145Z</time></trkpt><trkpt lat="45.894215" lon="8.734585"><ele>325.0</ele><time>2026-03-29T09:38:01.144Z</time></trkpt><trkpt lat="45.8942133" lon="8.734435"><ele>325.0</ele><time>2026-03-29T09:38:02.144Z</time></trkpt><trkpt lat="45.89421" lon="8.7342867"><ele>325.0</ele><time>2026-03-29T09:38:03.144Z</time></trkpt><trkpt lat="45.894205" lon="8.7341483"><ele>325.0</ele><time>2026-03-29T09:38:04.144Z</time></trkpt><trkpt lat="45.8941967" lon="8.7340267"><ele>323.0</ele><time>2026-03-29T09:38:05.144Z</time></trkpt><trkpt lat="45.8941883" lon="8.7338983"><ele>321.0</ele><time>2026-03-29T09:38:06.144Z</time></trkpt><trkpt lat="45.8941817" lon="8.7337567"><ele>319.0</ele><time>2026-03-29T09:38:07.144Z</time></trkpt><trkpt lat="45.8941767" lon="8.7336383"><ele>317.0</ele><time>2026-03-29T09:38:08.145Z</time></trkpt><trkpt lat="45.894165" lon="8.7335267"><ele>315.0</ele><time>2026-03-29T09:38:09.145Z</time></trkpt><trkpt lat="45.8941783" lon="8.7333667"><ele>315.0</ele><time>2026-03-29T09:38:11.144Z</time></trkpt><trkpt lat="45.8942417" lon="8.7332967"><ele>315.0</ele><time>2026-03-29T09:38:13.145Z</time></trkpt><trkpt lat="45.894365" lon="8.7332433"><ele>315.0</ele><time>2026-03-29T09:38:15.145Z</time></trkpt><trkpt lat="45.8944367" lon="8.733205"><ele>315.0</ele><time>2026-03-29T09:38:16.144Z</time></trkpt><trkpt lat="45.8945083" lon="8.7331617"><ele>315.0</ele><time>2026-03-29T09:38:17.145Z</time></trkpt><trkpt lat="45.8945717" lon="8.733135"><ele>315.0</ele><time>2026-03-29T09:38:18.145Z</time></trkpt><trkpt lat="45.894655" lon="8.7330683"><ele>313.8333333333333</ele><time>2026-03-29T09:38:20.144Z</time></trkpt><trkpt lat="45.8946933" lon="8.7329767"><ele>312.6666666666667</ele><time>2026-03-29T09:38:22.144Z</time></trkpt><trkpt lat="45.8946483" lon="8.7328733"><ele>311.5</ele><time>2026-03-29T09:38:24.144Z</time></trkpt><trkpt lat="45.8946533" lon="8.7327083"><ele>310.33333333333337</ele><time>2026-03-29T09:38:26.145Z</time></trkpt><trkpt lat="45.89469" lon="8.7326217"><ele>309.1666666666667</ele><time>2026-03-29T09:38:27.144Z</time></trkpt><trkpt lat="45.8947317" lon="8.732525"><ele>308.0</ele><time>2026-03-29T09:38:28.145Z</time></trkpt><trkpt lat="45.8947817" lon="8.73242"><ele>307.4</ele><time>2026-03-29T09:38:29.144Z</time></trkpt><trkpt lat="45.89483" lon="8.7323067"><ele>306.8</ele><time>2026-03-29T09:38:30.144Z</time></trkpt><trkpt lat="45.8948717" lon="8.7321867"><ele>306.2</ele><time>2026-03-29T09:38:31.144Z</time></trkpt><trkpt lat="45.8949233" lon="8.7320633"><ele>305.6</ele><time>2026-03-29T09:38:32.145Z</time></trkpt><trkpt lat="45.8949817" lon="8.73196"><ele>305.0</ele><time>2026-03-29T09:38:33.144Z</time></trkpt><trkpt lat="45.8950367" lon="8.731865"><ele>304.0</ele><time>2026-03-29T09:38:34.145Z</time></trkpt><trkpt lat="45.895115" lon="8.731785"><ele>303.0</ele><time>2026-03-29T09:38:35.144Z</time></trkpt><trkpt lat="45.8951583" lon="8.7317067"><ele>302.0</ele><time>2026-03-29T09:38:36.144Z</time></trkpt><trkpt lat="45.8951933" lon="8.731625"><ele>301.0</ele><time>2026-03-29T09:38:37.145Z</time></trkpt><trkpt lat="45.8952117" lon="8.73144"><ele>300.0</ele><time>2026-03-29T09:38:39.145Z</time></trkpt><trkpt lat="45.8951567" lon="8.73128"><ele>300.0</ele><time>2026-03-29T09:38:40.144Z</time></trkpt><trkpt lat="45.89512" lon="8.7311367"><ele>300.0</ele><time>2026-03-29T09:38:41.144Z</time></trkpt><trkpt lat="45.8950833" lon="8.73098"><ele>300.0</ele><time>2026-03-29T09:38:42.144Z</time></trkpt><trkpt lat="45.895045" lon="8.7308233"><ele>300.0</ele><time>2026-03-29T09:38:43.144Z</time></trkpt><trkpt lat="45.8950117" lon="8.7306583"><ele>301.0</ele><time>2026-03-29T09:38:44.144Z</time></trkpt><trkpt lat="45.89497" lon="8.7304767"><ele>302.0</ele><time>2026-03-29T09:38:45.145Z</time></trkpt><trkpt lat="45.8949267" lon="8.7303067"><ele>303.0</ele><time>2026-03-29T09:38:46.145Z</time></trkpt><trkpt lat="45.8948917" lon="8.7301433"><ele>304.0</ele><time>2026-03-29T09:38:47.145Z</time></trkpt><trkpt lat="45.89486" lon="8.729985"><ele>304.0</ele><time>2026-03-29T09:38:48.144Z</time></trkpt><trkpt lat="45.8948283" lon="8.72983"><ele>304.0</ele><time>2026-03-29T09:38:49.144Z</time></trkpt><trkpt lat="45.894805" lon="8.7296617"><ele>304.0</ele><time>2026-03-29T09:38:50.144Z</time></trkpt><trkpt lat="45.8947767" lon="8.7294883"><ele>304.0</ele><time>2026-03-29T09:38:51.144Z</time></trkpt><trkpt lat="45.8947367" lon="8.72931"><ele>302.0</ele><time>2026-03-29T09:38:52.144Z</time></trkpt><trkpt lat="45.8946933" lon="8.7291283"><ele>300.0</ele><time>2026-03-29T09:38:53.145Z</time></trkpt><trkpt lat="45.894645" lon="8.728935"><ele>298.0</ele><time>2026-03-29T09:38:54.144Z</time></trkpt><trkpt lat="45.8946133" lon="8.7287483"><ele>296.0</ele><time>2026-03-29T09:38:55.144Z</time></trkpt><trkpt lat="45.8945983" lon="8.7285533"><ele>295.6</ele><time>2026-03-29T09:38:56.144Z</time></trkpt><trkpt lat="45.8945817" lon="8.7283867"><ele>295.20000000000005</ele><time>2026-03-29T09:38:57.145Z</time></trkpt><trkpt lat="45.8945567" lon="8.7282317"><ele>294.79999999999995</ele><time>2026-03-29T09:38:58.144Z</time></trkpt><trkpt lat="45.8945367" lon="8.7280833"><ele>294.4</ele><time>2026-03-29T09:38:59.144Z</time></trkpt><trkpt lat="45.8945117" lon="8.72793"><ele>294.0</ele><time>2026-03-29T09:39:00.144Z</time></trkpt><trkpt lat="45.89449" lon="8.7277833"><ele>293.5</ele><time>2026-03-29T09:39:01.144Z</time></trkpt><trkpt lat="45.89447" lon="8.7276483"><ele>293.0</ele><time>2026-03-29T09:39:02.144Z</time></trkpt><trkpt lat="45.8944533" lon="8.7275317"><ele>292.5</ele><time>2026-03-29T09:39:03.145Z</time></trkpt><trkpt lat="45.8944433" lon="8.7274417"><ele>292.0</ele><time>2026-03-29T09:39:04.144Z</time></trkpt><trkpt lat="45.89444" lon="8.72732"><ele>291.5</ele><time>2026-03-29T09:39:06.144Z</time></trkpt><trkpt lat="45.8944367" lon="8.7271917"><ele>291.0</ele><time>2026-03-29T09:39:08.145Z</time></trkpt><trkpt lat="45.8944117" lon="8.7270633"><ele>291.0</ele><time>2026-03-29T09:39:09.144Z</time></trkpt><trkpt lat="45.89437" lon="8.72691"><ele>291.0</ele><time>2026-03-29T09:39:10.144Z</time></trkpt><trkpt lat="45.8943333" lon="8.726745"><ele>291.0</ele><time>2026-03-29T09:39:11.144Z</time></trkpt><trkpt lat="45.8942867" lon="8.7265767"><ele>291.0</ele><time>2026-03-29T09:39:12.144Z</time></trkpt><trkpt lat="45.894245" lon="8.7264117"><ele>293.6666666666667</ele><time>2026-03-29T09:39:13.145Z</time></trkpt><trkpt lat="45.8941983" lon="8.7262617"><ele>296.3333333333333</ele><time>2026-03-29T09:39:14.145Z</time></trkpt><trkpt lat="45.894155" lon="8.7261383"><ele>299.0</ele><time>2026-03-29T09:39:15.144Z</time></trkpt><trkpt lat="45.89412" lon="8.726025"><ele>301.66666666666663</ele><time>2026-03-29T09:39:16.144Z</time></trkpt><trkpt lat="45.8941" lon="8.7259267"><ele>304.3333333333333</ele><time>2026-03-29T09:39:17.145Z</time></trkpt><trkpt lat="45.894095" lon="8.7258333"><ele>307.0</ele><time>2026-03-29T09:39:18.145Z</time></trkpt><trkpt lat="45.8940867" lon="8.7256667"><ele>307.0</ele><time>2026-03-29T09:39:20.144Z</time></trkpt><trkpt lat="45.89409" lon="8.7255217"><ele>307.0</ele><time>2026-03-29T09:39:22.144Z</time></trkpt><trkpt lat="45.894085" lon="8.7254267"><ele>307.0</ele><time>2026-03-29T09:39:23.145Z</time></trkpt><trkpt lat="45.8940833" lon="8.7253333"><ele>307.0</ele><time>2026-03-29T09:39:24.145Z</time></trkpt><trkpt lat="45.8940783" lon="8.72522"><ele>307.0</ele><time>2026-03-29T09:39:25.144Z</time></trkpt><trkpt lat="45.89407" lon="8.7251133"><ele>307.0</ele><time>2026-03-29T09:39:26.144Z</time></trkpt><trkpt lat="45.8940667" lon="8.72499"><ele>305.8333333333333</ele><time>2026-03-29T09:39:27.144Z</time></trkpt><trkpt lat="45.8940567" lon="8.724875"><ele>304.66666666666663</ele><time>2026-03-29T09:39:28.144Z</time></trkpt><trkpt lat="45.894055" lon="8.7247667"><ele>303.5</ele><time>2026-03-29T09:39:29.144Z</time></trkpt><trkpt lat="45.8940433" lon="8.72465"><ele>302.3333333333333</ele><time>2026-03-29T09:39:30.145Z</time></trkpt><trkpt lat="45.8940383" lon="8.724515"><ele>301.1666666666667</ele><time>2026-03-29T09:39:31.144Z</time></trkpt><trkpt lat="45.8940167" lon="8.72437"><ele>300.0</ele><time>2026-03-29T09:39:32.144Z</time></trkpt><trkpt lat="45.894" lon="8.724225"><ele>298.4</ele><time>2026-03-29T09:39:33.145Z</time></trkpt><trkpt lat="45.89398" lon="8.7240733"><ele>296.8</ele><time>2026-03-29T09:39:34.144Z</time></trkpt><trkpt lat="45.89395" lon="8.723905"><ele>295.2</ele><time>2026-03-29T09:39:35.144Z</time></trkpt><trkpt lat="45.893925" lon="8.7237667"><ele>293.6</ele><time>2026-03-29T09:39:36.144Z</time></trkpt><trkpt lat="45.89391" lon="8.72365"><ele>292.0</ele><time>2026-03-29T09:39:37.144Z</time></trkpt><trkpt lat="45.8939" lon="8.7235517"><ele>291.2</ele><time>2026-03-29T09:39:38.144Z</time></trkpt><trkpt lat="45.8938833" lon="8.7233667"><ele>290.4</ele><time>2026-03-29T09:39:40.144Z</time></trkpt><trkpt lat="45.8938733" lon="8.7232617"><ele>289.6</ele><time>2026-03-29T09:39:41.144Z</time></trkpt><trkpt lat="45.8938583" lon="8.723165"><ele>288.8</ele><time>2026-03-29T09:39:42.144Z</time></trkpt><trkpt lat="45.8938383" lon="8.7230217"><ele>288.0</ele><time>2026-03-29T09:39:44.144Z</time></trkpt><trkpt lat="45.8938267" lon="8.722905"><ele>288.00000000000006</ele><time>2026-03-29T09:39:46.145Z</time></trkpt><trkpt lat="45.8938467" lon="8.7228117"><ele>288.0</ele><time>2026-03-29T09:39:50.145Z</time></trkpt><trkpt lat="45.8938867" lon="8.7227317"><ele>288.0</ele><time>2026-03-29T09:39:53.145Z</time></trkpt><trkpt lat="45.89389" lon="8.72264"><ele>288.0</ele><time>2026-03-29T09:39:56.144Z</time></trkpt><trkpt lat="45.8938767" lon="8.722535"><ele>288.0</ele><time>2026-03-29T09:39:59.144Z</time></trkpt><trkpt lat="45.89384" lon="8.7224567"><ele>288.00000000000006</ele><time>2026-03-29T09:40:02.145Z</time></trkpt><trkpt lat="45.893825" lon="8.722345"><ele>288.0</ele><time>2026-03-29T09:40:04.145Z</time></trkpt><trkpt lat="45.893815" lon="8.7222517"><ele>288.0</ele><time>2026-03-29T09:40:05.144Z</time></trkpt><trkpt lat="45.8938067" lon="8.7221333"><ele>288.0</ele><time>2026-03-29T09:40:06.145Z</time></trkpt><trkpt lat="45.89379" lon="8.72201"><ele>288.0</ele><time>2026-03-29T09:40:07.144Z</time></trkpt><trkpt lat="45.8937767" lon="8.721865"><ele>288.0</ele><time>2026-03-29T09:40:08.144Z</time></trkpt><trkpt lat="45.8937667" lon="8.72169"><ele>288.0</ele><time>2026-03-29T09:40:09.144Z</time></trkpt><trkpt lat="45.8937483" lon="8.7215033"><ele>286.5</ele><time>2026-03-29T09:40:10.144Z</time></trkpt><trkpt lat="45.89373" lon="8.7213383"><ele>285.0</ele><time>2026-03-29T09:40:11.144Z</time></trkpt><trkpt lat="45.89373" lon="8.72116"><ele>283.5</ele><time>2026-03-29T09:40:12.144Z</time></trkpt><trkpt lat="45.8937267" lon="8.7209617"><ele>282.0</ele><time>2026-03-29T09:40:13.144Z</time></trkpt><trkpt lat="45.893735" lon="8.720755"><ele>281.25</ele><time>2026-03-29T09:40:14.144Z</time></trkpt><trkpt lat="45.8937433" lon="8.7205517"><ele>280.5</ele><time>2026-03-29T09:40:15.144Z</time></trkpt><trkpt lat="45.893735" lon="8.720345"><ele>279.75</ele><time>2026-03-29T09:40:16.144Z</time></trkpt><trkpt lat="45.89373" lon="8.7201267"><ele>279.0</ele><time>2026-03-29T09:40:17.144Z</time></trkpt><trkpt lat="45.89374" lon="8.7199233"><ele>278.0</ele><time>2026-03-29T09:40:18.144Z</time></trkpt><trkpt lat="45.89376" lon="8.7197333"><ele>277.0</ele><time>2026-03-29T09:40:19.144Z</time></trkpt><trkpt lat="45.8937783" lon="8.719555"><ele>276.0</ele><time>2026-03-29T09:40:20.144Z</time></trkpt><trkpt lat="45.8937983" lon="8.7193933"><ele>275.0</ele><time>2026-03-29T09:40:21.144Z</time></trkpt><trkpt lat="45.8938133" lon="8.7192683"><ele>274.8</ele><time>2026-03-29T09:40:22.144Z</time></trkpt><trkpt lat="45.8938117" lon="8.719135"><ele>274.6</ele><time>2026-03-29T09:40:23.144Z</time></trkpt><trkpt lat="45.8938017" lon="8.7189817"><ele>274.4</ele><time>2026-03-29T09:40:24.144Z</time></trkpt><trkpt lat="45.8937967" lon="8.7188217"><ele>274.2</ele><time>2026-03-29T09:40:25.144Z</time></trkpt><trkpt lat="45.8937817" lon="8.718665"><ele>274.0</ele><time>2026-03-29T09:40:26.145Z</time></trkpt><trkpt lat="45.8937767" lon="8.7185083"><ele>274.0</ele><time>2026-03-29T09:40:27.144Z</time></trkpt><trkpt lat="45.89378" lon="8.7183217"><ele>274.0</ele><time>2026-03-29T09:40:28.144Z</time></trkpt><trkpt lat="45.8937783" lon="8.7181583"><ele>274.0</ele><time>2026-03-29T09:40:29.144Z</time></trkpt><trkpt lat="45.8937817" lon="8.71803"><ele>274.0</ele><time>2026-03-29T09:40:30.145Z</time></trkpt><trkpt lat="45.8937933" lon="8.7179233"><ele>274.0</ele><time>2026-03-29T09:40:31.145Z</time></trkpt><trkpt lat="45.8938017" lon="8.7178333"><ele>274.75</ele><time>2026-03-29T09:40:32.144Z</time></trkpt><trkpt lat="45.89379" lon="8.7176833"><ele>275.5</ele><time>2026-03-29T09:40:34.144Z</time></trkpt><trkpt lat="45.8937483" lon="8.7175483"><ele>276.25</ele><time>2026-03-29T09:40:42.144Z</time></trkpt><trkpt lat="45.8937433" lon="8.7173033"><ele>277.0</ele><time>2026-03-29T09:40:44.144Z</time></trkpt><trkpt lat="45.893755" lon="8.717145"><ele>277.0</ele><time>2026-03-29T09:40:45.144Z</time></trkpt><trkpt lat="45.8937467" lon="8.7169983"><ele>277.0</ele><time>2026-03-29T09:40:46.144Z</time></trkpt><trkpt lat="45.8937367" lon="8.7168667"><ele>277.0</ele><time>2026-03-29T09:40:47.145Z</time></trkpt><trkpt lat="45.8937217" lon="8.7167517"><ele>277.0</ele><time>2026-03-29T09:40:48.145Z</time></trkpt><trkpt lat="45.89372" lon="8.7166583"><ele>277.0</ele><time>2026-03-29T09:40:49.144Z</time></trkpt><trkpt lat="45.8937367" lon="8.71657"><ele>277.0</ele><time>2026-03-29T09:40:50.144Z</time></trkpt><trkpt lat="45.893765" lon="8.7164883"><ele>277.4</ele><time>2026-03-29T09:40:51.145Z</time></trkpt><trkpt lat="45.8937867" lon="8.7163933"><ele>277.79999999999995</ele><time>2026-03-29T09:40:52.145Z</time></trkpt><trkpt lat="45.8938117" lon="8.7161917"><ele>278.2</ele><time>2026-03-29T09:40:54.144Z</time></trkpt><trkpt lat="45.8938267" lon="8.7160683"><ele>278.59999999999997</ele><time>2026-03-29T09:40:55.144Z</time></trkpt><trkpt lat="45.893845" lon="8.7159383"><ele>279.0</ele><time>2026-03-29T09:40:56.144Z</time></trkpt><trkpt lat="45.893865" lon="8.7158117"><ele>280.0</ele><time>2026-03-29T09:40:57.144Z</time></trkpt><trkpt lat="45.89391" lon="8.715695"><ele>281.0</ele><time>2026-03-29T09:40:58.144Z</time></trkpt><trkpt lat="45.89398" lon="8.7155583"><ele>282.0</ele><time>2026-03-29T09:40:59.144Z</time></trkpt><trkpt lat="45.894065" lon="8.715435"><ele>283.0</ele><time>2026-03-29T09:41:00.144Z</time></trkpt><trkpt lat="45.89414" lon="8.715335"><ele>284.0</ele><time>2026-03-29T09:41:01.145Z</time></trkpt><trkpt lat="45.894205" lon="8.715225"><ele>283.8</ele><time>2026-03-29T09:41:02.145Z</time></trkpt><trkpt lat="45.8942633" lon="8.7151"><ele>283.59999999999997</ele><time>2026-03-29T09:41:03.144Z</time></trkpt><trkpt lat="45.894325" lon="8.714985"><ele>283.4</ele><time>2026-03-29T09:41:04.144Z</time></trkpt><trkpt lat="45.894375" lon="8.71487"><ele>283.2</ele><time>2026-03-29T09:41:05.145Z</time></trkpt><trkpt lat="45.8944217" lon="8.7147717"><ele>283.0</ele><time>2026-03-29T09:41:06.145Z</time></trkpt><trkpt lat="45.8944633" lon="8.714665"><ele>283.0</ele><time>2026-03-29T09:41:07.144Z</time></trkpt><trkpt lat="45.8944967" lon="8.7145617"><ele>283.0</ele><time>2026-03-29T09:41:08.144Z</time></trkpt><trkpt lat="45.894525" lon="8.7144567"><ele>283.0</ele><time>2026-03-29T09:41:09.144Z</time></trkpt><trkpt lat="45.8945583" lon="8.714325"><ele>283.0</ele><time>2026-03-29T09:41:11.144Z</time></trkpt><trkpt lat="45.894575" lon="8.71421"><ele>283.0</ele><time>2026-03-29T09:41:25.144Z</time></trkpt><trkpt lat="45.8945633" lon="8.7140883"><ele>283.0</ele><time>2026-03-29T09:41:31.144Z</time></trkpt><trkpt lat="45.8945483" lon="8.71399"><ele>282.8</ele><time>2026-03-29T09:41:34.144Z</time></trkpt><trkpt lat="45.8945167" lon="8.7138667"><ele>282.6</ele><time>2026-03-29T09:41:37.144Z</time></trkpt><trkpt lat="45.8945367" lon="8.7137"><ele>282.4</ele><time>2026-03-29T09:41:39.144Z</time></trkpt><trkpt lat="45.894565" lon="8.713555"><ele>282.2</ele><time>2026-03-29T09:41:40.144Z</time></trkpt><trkpt lat="45.8945967" lon="8.7134333"><ele>282.0</ele><time>2026-03-29T09:41:41.144Z</time></trkpt><trkpt lat="45.894635" lon="8.713305"><ele>282.0</ele><time>2026-03-29T09:41:42.145Z</time></trkpt><trkpt lat="45.8946883" lon="8.7131517"><ele>282.0</ele><time>2026-03-29T09:41:43.144Z</time></trkpt><trkpt lat="45.89475" lon="8.7129883"><ele>282.0</ele><time>2026-03-29T09:41:44.144Z</time></trkpt><trkpt lat="45.89481" lon="8.7128133"><ele>282.0</ele><time>2026-03-29T09:41:45.144Z</time></trkpt><trkpt lat="45.8948817" lon="8.7126517"><ele>283.25</ele><time>2026-03-29T09:41:46.144Z</time></trkpt><trkpt lat="45.8949467" lon="8.7125083"><ele>284.5</ele><time>2026-03-29T09:41:47.144Z</time></trkpt><trkpt lat="45.8950183" lon="8.7123633"><ele>285.75</ele><time>2026-03-29T09:41:48.145Z</time></trkpt><trkpt lat="45.895085" lon="8.71221"><ele>287.0</ele><time>2026-03-29T09:41:49.144Z</time></trkpt><trkpt lat="45.8951617" lon="8.7120633"><ele>285.2</ele><time>2026-03-29T09:41:50.144Z</time></trkpt><trkpt lat="45.8952183" lon="8.711925"><ele>283.4</ele><time>2026-03-29T09:41:51.145Z</time></trkpt><trkpt lat="45.8952567" lon="8.7117767"><ele>281.6</ele><time>2026-03-29T09:41:52.144Z</time></trkpt><trkpt lat="45.8953033" lon="8.7116317"><ele>279.8</ele><time>2026-03-29T09:41:53.144Z</time></trkpt><trkpt lat="45.8953233" lon="8.711485"><ele>278.0</ele><time>2026-03-29T09:41:54.146Z</time></trkpt><trkpt lat="45.8953283" lon="8.7113567"><ele>278.0</ele><time>2026-03-29T09:41:55.146Z</time></trkpt><trkpt lat="45.895305" lon="8.71123"><ele>278.0</ele><time>2026-03-29T09:41:56.145Z</time></trkpt><trkpt lat="45.8952733" lon="8.7111117"><ele>278.0</ele><time>2026-03-29T09:41:57.145Z</time></trkpt><trkpt lat="45.89524" lon="8.7110067"><ele>278.0</ele><time>2026-03-29T09:41:58.145Z</time></trkpt><trkpt lat="45.8951917" lon="8.7109133"><ele>278.0</ele><time>2026-03-29T09:41:59.145Z</time></trkpt><trkpt lat="45.8951483" lon="8.7108267"><ele>278.0</ele><time>2026-03-29T09:42:00.145Z</time></trkpt><trkpt lat="45.8951017" lon="8.71075"><ele>279.1666666666667</ele><time>2026-03-29T09:42:01.146Z</time></trkpt><trkpt lat="45.8950367" lon="8.71067"><ele>280.33333333333337</ele><time>2026-03-29T09:42:03.145Z</time></trkpt><trkpt lat="45.8949967" lon="8.7105867"><ele>281.5</ele><time>2026-03-29T09:42:07.146Z</time></trkpt><trkpt lat="45.89494" lon="8.7105283"><ele>282.6666666666667</ele><time>2026-03-29T09:42:10.145Z</time></trkpt><trkpt lat="45.89485" lon="8.71043"><ele>283.8333333333333</ele><time>2026-03-29T09:42:12.145Z</time></trkpt><trkpt lat="45.8947733" lon="8.7103183"><ele>285.0</ele><time>2026-03-29T09:42:14.145Z</time></trkpt><trkpt lat="45.8947367" lon="8.7101917"><ele>285.4</ele><time>2026-03-29T09:42:16.145Z</time></trkpt><trkpt lat="45.8947083" lon="8.7100167"><ele>285.8</ele><time>2026-03-29T09:42:18.145Z</time></trkpt><trkpt lat="45.8946983" lon="8.7099117"><ele>286.2</ele><time>2026-03-29T09:42:19.146Z</time></trkpt><trkpt lat="45.8946983" lon="8.70979"><ele>286.6</ele><time>2026-03-29T09:42:20.145Z</time></trkpt><trkpt lat="45.894695" lon="8.7096683"><ele>287.0</ele><time>2026-03-29T09:42:21.145Z</time></trkpt><trkpt lat="45.8946917" lon="8.7095367"><ele>287.0</ele><time>2026-03-29T09:42:22.145Z</time></trkpt><trkpt lat="45.8946783" lon="8.7094267"><ele>287.0</ele><time>2026-03-29T09:42:23.145Z</time></trkpt><trkpt lat="45.8946517" lon="8.7093333"><ele>287.0</ele><time>2026-03-29T09:42:24.145Z</time></trkpt><trkpt lat="45.8946167" lon="8.7092483"><ele>287.0</ele><time>2026-03-29T09:42:25.146Z</time></trkpt><trkpt lat="45.8945433" lon="8.7092133"><ele>287.0</ele><time>2026-03-29T09:42:27.145Z</time></trkpt><trkpt lat="45.8944767" lon="8.7093"><ele>287.0</ele><time>2026-03-29T09:42:29.145Z</time></trkpt><trkpt lat="45.8944433" lon="8.7093833"><ele>287.0</ele><time>2026-03-29T09:42:30.145Z</time></trkpt><trkpt lat="45.8944133" lon="8.7094967"><ele>287.0</ele><time>2026-03-29T09:42:31.146Z</time></trkpt><trkpt lat="45.8943783" lon="8.70963"><ele>287.0</ele><time>2026-03-29T09:42:32.145Z</time></trkpt><trkpt lat="45.8943567" lon="8.709755"><ele>287.0</ele><time>2026-03-29T09:42:33.146Z</time></trkpt><trkpt lat="45.8943267" lon="8.70986"><ele>287.0</ele><time>2026-03-29T09:42:34.145Z</time></trkpt><trkpt lat="45.8942867" lon="8.7099367"><ele>287.0</ele><time>2026-03-29T09:42:35.145Z</time></trkpt><trkpt lat="45.894245" lon="8.710035"><ele>290.6666666666667</ele><time>2026-03-29T09:42:36.145Z</time></trkpt><trkpt lat="45.8941967" lon="8.7101317"><ele>294.33333333333337</ele><time>2026-03-29T09:42:38.146Z</time></trkpt><trkpt lat="45.89411" lon="8.7101183"><ele>298.0</ele><time>2026-03-29T09:42:41.145Z</time></trkpt><trkpt lat="45.8940333" lon="8.7100283"><ele>301.6666666666667</ele><time>2026-03-29T09:42:43.145Z</time></trkpt><trkpt lat="45.8939883" lon="8.709955"><ele>305.3333333333333</ele><time>2026-03-29T09:42:44.145Z</time></trkpt><trkpt lat="45.8939317" lon="8.709825"><ele>309.0</ele><time>2026-03-29T09:42:46.145Z</time></trkpt><trkpt lat="45.893925" lon="8.7096717"><ele>309.0</ele><time>2026-03-29T09:42:48.146Z</time></trkpt><trkpt lat="45.89394" lon="8.7094733"><ele>309.0</ele><time>2026-03-29T09:42:50.146Z</time></trkpt><trkpt lat="45.8939517" lon="8.7093483"><ele>309.0</ele><time>2026-03-29T09:42:51.145Z</time></trkpt><trkpt lat="45.8939633" lon="8.7091917"><ele>309.0</ele><time>2026-03-29T09:42:52.145Z</time></trkpt><trkpt lat="45.8939733" lon="8.7090333"><ele>309.0</ele><time>2026-03-29T09:42:53.145Z</time></trkpt><trkpt lat="45.8939933" lon="8.7088633"><ele>309.5</ele><time>2026-03-29T09:42:54.145Z</time></trkpt><trkpt lat="45.8940117" lon="8.7087067"><ele>310.0</ele><time>2026-03-29T09:42:55.145Z</time></trkpt><trkpt lat="45.89403" lon="8.7084983"><ele>310.5</ele><time>2026-03-29T09:42:56.145Z</time></trkpt><trkpt lat="45.894045" lon="8.7083083"><ele>311.0</ele><time>2026-03-29T09:42:57.145Z</time></trkpt><trkpt lat="45.89406" lon="8.7081283"><ele>311.2</ele><time>2026-03-29T09:42:58.145Z</time></trkpt><trkpt lat="45.8940783" lon="8.70796"><ele>311.40000000000003</ele><time>2026-03-29T09:42:59.146Z</time></trkpt><trkpt lat="45.8941017" lon="8.70781"><ele>311.6</ele><time>2026-03-29T09:43:00.145Z</time></trkpt><trkpt lat="45.8941183" lon="8.7076667"><ele>311.8</ele><time>2026-03-29T09:43:01.146Z</time></trkpt><trkpt lat="45.89413" lon="8.7075183"><ele>312.0</ele><time>2026-03-29T09:43:02.146Z</time></trkpt><trkpt lat="45.894135" lon="8.70741"><ele>312.4</ele><time>2026-03-29T09:43:03.145Z</time></trkpt><trkpt lat="45.8941283" lon="8.707215"><ele>312.79999999999995</ele><time>2026-03-29T09:43:05.145Z</time></trkpt><trkpt lat="45.8940983" lon="8.70713"><ele>313.2</ele><time>2026-03-29T09:43:06.146Z</time></trkpt><trkpt lat="45.8940017" lon="8.7070567"><ele>313.59999999999997</ele><time>2026-03-29T09:43:08.146Z</time></trkpt><trkpt lat="45.8938717" lon="8.7070883"><ele>314.0</ele><time>2026-03-29T09:43:10.145Z</time></trkpt><trkpt lat="45.8937667" lon="8.707065"><ele>314.0</ele><time>2026-03-29T09:43:12.145Z</time></trkpt><trkpt lat="45.8937067" lon="8.70696"><ele>314.0</ele><time>2026-03-29T09:43:14.146Z</time></trkpt><trkpt lat="45.893705" lon="8.7068683"><ele>314.0</ele><time>2026-03-29T09:43:15.145Z</time></trkpt><trkpt lat="45.8936967" lon="8.7067517"><ele>314.0</ele><time>2026-03-29T09:43:16.145Z</time></trkpt><trkpt lat="45.8936817" lon="8.70665"><ele>314.0</ele><time>2026-03-29T09:43:17.145Z</time></trkpt><trkpt lat="45.8936717" lon="8.706545"><ele>314.0</ele><time>2026-03-29T09:43:18.145Z</time></trkpt><trkpt lat="45.8936467" lon="8.7064117"><ele>314.0</ele><time>2026-03-29T09:43:20.145Z</time></trkpt><trkpt lat="45.8936183" lon="8.70654"><ele>314.0</ele><time>2026-03-29T09:43:22.145Z</time></trkpt><trkpt lat="45.8936" lon="8.7066617"><ele>314.0</ele><time>2026-03-29T09:43:24.145Z</time></trkpt><trkpt lat="45.893565" lon="8.7067717"><ele>314.0</ele><time>2026-03-29T09:43:26.146Z</time></trkpt><trkpt lat="45.893535" lon="8.706935"><ele>314.0</ele><time>2026-03-29T09:43:28.145Z</time></trkpt><trkpt lat="45.89351" lon="8.707045"><ele>314.0</ele><time>2026-03-29T09:43:29.146Z</time></trkpt><trkpt lat="45.8935" lon="8.70715"><ele>314.0</ele><time>2026-03-29T09:43:30.145Z</time></trkpt><trkpt lat="45.8934883" lon="8.7072617"><ele>314.0</ele><time>2026-03-29T09:43:31.145Z</time></trkpt><trkpt lat="45.8934633" lon="8.70739"><ele>314.0</ele><time>2026-03-29T09:43:32.145Z</time></trkpt><trkpt lat="45.8934367" lon="8.707505"><ele>314.0</ele><time>2026-03-29T09:43:33.145Z</time></trkpt><trkpt lat="45.89341" lon="8.7076033"><ele>314.0</ele><time>2026-03-29T09:43:34.145Z</time></trkpt><trkpt lat="45.893385" lon="8.70769"><ele>317.99999999999994</ele><time>2026-03-29T09:43:35.145Z</time></trkpt><trkpt lat="45.893315" lon="8.7077233"><ele>322.0</ele><time>2026-03-29T09:43:38.145Z</time></trkpt><trkpt lat="45.8932783" lon="8.707645"><ele>326.0</ele><time>2026-03-29T09:43:40.145Z</time></trkpt><trkpt lat="45.8932283" lon="8.707575"><ele>330.0</ele><time>2026-03-29T09:43:42.145Z</time></trkpt><trkpt lat="45.8931617" lon="8.70757"><ele>334.0</ele><time>2026-03-29T09:43:46.146Z</time></trkpt><trkpt lat="45.8930617" lon="8.707575"><ele>337.99999999999994</ele><time>2026-03-29T09:43:49.145Z</time></trkpt><trkpt lat="45.892995" lon="8.707555"><ele>342.0</ele><time>2026-03-29T09:43:50.146Z</time></trkpt><trkpt lat="45.8929183" lon="8.7074883"><ele>342.0</ele><time>2026-03-29T09:43:51.145Z</time></trkpt><trkpt lat="45.8928567" lon="8.7074217"><ele>342.0</ele><time>2026-03-29T09:43:52.145Z</time></trkpt><trkpt lat="45.8927833" lon="8.7073533"><ele>342.0</ele><time>2026-03-29T09:43:53.145Z</time></trkpt><trkpt lat="45.8927083" lon="8.707295"><ele>342.0</ele><time>2026-03-29T09:43:54.146Z</time></trkpt><trkpt lat="45.8926433" lon="8.7072333"><ele>342.0</ele><time>2026-03-29T09:43:55.145Z</time></trkpt><trkpt lat="45.8925917" lon="8.7071517"><ele>342.0</ele><time>2026-03-29T09:43:56.145Z</time></trkpt><trkpt lat="45.8925533" lon="8.70708"><ele>342.2857142857143</ele><time>2026-03-29T09:43:57.145Z</time></trkpt><trkpt lat="45.8924967" lon="8.7069933"><ele>342.57142857142856</ele><time>2026-03-29T09:43:58.145Z</time></trkpt><trkpt lat="45.89245" lon="8.7069017"><ele>342.8571428571429</ele><time>2026-03-29T09:43:59.145Z</time></trkpt><trkpt lat="45.892405" lon="8.70682"><ele>343.1428571428571</ele><time>2026-03-29T09:44:00.146Z</time></trkpt><trkpt lat="45.8923567" lon="8.706755"><ele>343.42857142857144</ele><time>2026-03-29T09:44:01.146Z</time></trkpt><trkpt lat="45.892305" lon="8.7066917"><ele>343.7142857142857</ele><time>2026-03-29T09:44:02.146Z</time></trkpt><trkpt lat="45.8922433" lon="8.7066333"><ele>344.0</ele><time>2026-03-29T09:44:03.145Z</time></trkpt><trkpt lat="45.892175" lon="8.706575"><ele>344.0</ele><time>2026-03-29T09:44:04.145Z</time></trkpt><trkpt lat="45.8921167" lon="8.7065117"><ele>344.0</ele><time>2026-03-29T09:44:05.146Z</time></trkpt><trkpt lat="45.89207" lon="8.7064333"><ele>344.0</ele><time>2026-03-29T09:44:06.145Z</time></trkpt><trkpt lat="45.8920283" lon="8.7063383"><ele>344.0</ele><time>2026-03-29T09:44:07.145Z</time></trkpt><trkpt lat="45.8919833" lon="8.7062417"><ele>344.0</ele><time>2026-03-29T09:44:08.145Z</time></trkpt><trkpt lat="45.8919483" lon="8.70614"><ele>344.0</ele><time>2026-03-29T09:44:09.145Z</time></trkpt><trkpt lat="45.89192" lon="8.706045"><ele>342.1666666666667</ele><time>2026-03-29T09:44:10.146Z</time></trkpt><trkpt lat="45.8918983" lon="8.7059383"><ele>340.33333333333337</ele><time>2026-03-29T09:44:11.145Z</time></trkpt><trkpt lat="45.8918783" lon="8.705845"><ele>338.5</ele><time>2026-03-29T09:44:12.145Z</time></trkpt><trkpt lat="45.8918667" lon="8.7057417"><ele>336.6666666666667</ele><time>2026-03-29T09:44:13.145Z</time></trkpt><trkpt lat="45.89184" lon="8.705635"><ele>334.8333333333333</ele><time>2026-03-29T09:44:14.145Z</time></trkpt><trkpt lat="45.891815" lon="8.705525"><ele>333.0</ele><time>2026-03-29T09:44:15.145Z</time></trkpt><trkpt lat="45.8917917" lon="8.705395"><ele>333.0</ele><time>2026-03-29T09:44:16.145Z</time></trkpt><trkpt lat="45.8917733" lon="8.7052667"><ele>333.0</ele><time>2026-03-29T09:44:17.145Z</time></trkpt><trkpt lat="45.891755" lon="8.7051267"><ele>333.0</ele><time>2026-03-29T09:44:18.145Z</time></trkpt><trkpt lat="45.8917417" lon="8.7049617"><ele>333.0</ele><time>2026-03-29T09:44:19.146Z</time></trkpt><trkpt lat="45.8917167" lon="8.70481"><ele>333.0</ele><time>2026-03-29T09:44:20.145Z</time></trkpt><trkpt lat="45.8916833" lon="8.7046483"><ele>334.6666666666667</ele><time>2026-03-29T09:44:21.145Z</time></trkpt><trkpt lat="45.8916533" lon="8.7045017"><ele>336.3333333333333</ele><time>2026-03-29T09:44:22.146Z</time></trkpt><trkpt lat="45.891615" lon="8.7043717"><ele>338.0</ele><time>2026-03-29T09:44:23.145Z</time></trkpt><trkpt lat="45.8915833" lon="8.7042733"><ele>339.66666666666663</ele><time>2026-03-29T09:44:24.145Z</time></trkpt><trkpt lat="45.8915517" lon="8.704185"><ele>341.3333333333333</ele><time>2026-03-29T09:44:25.145Z</time></trkpt><trkpt lat="45.89152" lon="8.70409"><ele>343.0</ele><time>2026-03-29T09:44:26.145Z</time></trkpt><trkpt lat="45.8915067" lon="8.7039967"><ele>343.0</ele><time>2026-03-29T09:44:27.146Z</time></trkpt><trkpt lat="45.891485" lon="8.7038717"><ele>343.0</ele><time>2026-03-29T09:44:28.145Z</time></trkpt><trkpt lat="45.8914467" lon="8.70376"><ele>343.0</ele><time>2026-03-29T09:44:29.145Z</time></trkpt><trkpt lat="45.8914017" lon="8.703635"><ele>343.0</ele><time>2026-03-29T09:44:30.145Z</time></trkpt><trkpt lat="45.89135" lon="8.7035167"><ele>343.0</ele><time>2026-03-29T09:44:31.146Z</time></trkpt><trkpt lat="45.8913183" lon="8.7034017"><ele>341.8333333333333</ele><time>2026-03-29T09:44:32.145Z</time></trkpt><trkpt lat="45.8912867" lon="8.7032917"><ele>340.66666666666663</ele><time>2026-03-29T09:44:33.145Z</time></trkpt><trkpt lat="45.89125" lon="8.7032033"><ele>339.5</ele><time>2026-03-29T09:44:34.146Z</time></trkpt><trkpt lat="45.89121" lon="8.7030767"><ele>338.3333333333333</ele><time>2026-03-29T09:44:36.145Z</time></trkpt><trkpt lat="45.8912017" lon="8.7029533"><ele>337.1666666666667</ele><time>2026-03-29T09:44:38.146Z</time></trkpt><trkpt lat="45.8911983" lon="8.7028017"><ele>336.0</ele><time>2026-03-29T09:44:40.145Z</time></trkpt><trkpt lat="45.89118" lon="8.702635"><ele>334.20000000000005</ele><time>2026-03-29T09:44:42.146Z</time></trkpt><trkpt lat="45.8911667" lon="8.70248"><ele>332.40000000000003</ele><time>2026-03-29T09:44:44.145Z</time></trkpt><trkpt lat="45.89113" lon="8.7023083"><ele>330.6</ele><time>2026-03-29T09:44:46.146Z</time></trkpt><trkpt lat="45.89109" lon="8.7021883"><ele>328.8</ele><time>2026-03-29T09:44:47.146Z</time></trkpt><trkpt lat="45.8910317" lon="8.702065"><ele>327.0</ele><time>2026-03-29T09:44:48.146Z</time></trkpt><trkpt lat="45.8909817" lon="8.701965"><ele>325.57142857142856</ele><time>2026-03-29T09:44:49.145Z</time></trkpt><trkpt lat="45.8909283" lon="8.70188"><ele>324.14285714285717</ele><time>2026-03-29T09:44:50.145Z</time></trkpt><trkpt lat="45.890885" lon="8.701805"><ele>322.7142857142857</ele><time>2026-03-29T09:44:51.145Z</time></trkpt><trkpt lat="45.8908533" lon="8.7017217"><ele>321.2857142857143</ele><time>2026-03-29T09:44:52.145Z</time></trkpt><trkpt lat="45.8908367" lon="8.7016317"><ele>319.85714285714283</ele><time>2026-03-29T09:44:53.145Z</time></trkpt><trkpt lat="45.8908183" lon="8.7015283"><ele>318.42857142857144</ele><time>2026-03-29T09:44:54.146Z</time></trkpt><trkpt lat="45.8907933" lon="8.70142"><ele>317.0</ele><time>2026-03-29T09:44:55.146Z</time></trkpt><trkpt lat="45.8907717" lon="8.7013333"><ele>319.6666666666667</ele><time>2026-03-29T09:44:56.145Z</time></trkpt><trkpt lat="45.8907517" lon="8.70124"><ele>322.33333333333337</ele><time>2026-03-29T09:44:57.145Z</time></trkpt><trkpt lat="45.8906967" lon="8.7011083"><ele>325.0</ele><time>2026-03-29T09:44:59.145Z</time></trkpt><trkpt lat="45.8906267" lon="8.70104"><ele>327.6666666666667</ele><time>2026-03-29T09:45:01.145Z</time></trkpt><trkpt lat="45.890555" lon="8.701035"><ele>330.3333333333333</ele><time>2026-03-29T09:45:03.145Z</time></trkpt><trkpt lat="45.8904733" lon="8.7010517"><ele>333.0</ele><time>2026-03-29T09:45:07.146Z</time></trkpt><trkpt lat="45.890395" lon="8.7010767"><ele>334.0</ele><time>2026-03-29T09:45:09.145Z</time></trkpt><trkpt lat="45.89034" lon="8.7011267"><ele>335.0</ele><time>2026-03-29T09:45:10.146Z</time></trkpt><trkpt lat="45.890245" lon="8.7011833"><ele>336.0</ele><time>2026-03-29T09:45:12.145Z</time></trkpt><trkpt lat="45.8901217" lon="8.7012283"><ele>337.0</ele><time>2026-03-29T09:45:14.145Z</time></trkpt><trkpt lat="45.890055" lon="8.7012733"><ele>338.0</ele><time>2026-03-29T09:45:15.145Z</time></trkpt><trkpt lat="45.88999" lon="8.7013167"><ele>339.0</ele><time>2026-03-29T09:45:16.146Z</time></trkpt><trkpt lat="45.88987" lon="8.7013433"><ele>340.5</ele><time>2026-03-29T09:45:18.146Z</time></trkpt><trkpt lat="45.889745" lon="8.7013033"><ele>342.0</ele><time>2026-03-29T09:45:19.146Z</time></trkpt><trkpt lat="45.8896117" lon="8.70131"><ele>343.5</ele><time>2026-03-29T09:45:20.145Z</time></trkpt><trkpt lat="45.88949" lon="8.701325"><ele>345.0</ele><time>2026-03-29T09:45:21.145Z</time></trkpt><trkpt lat="45.8893817" lon="8.7013717"><ele>345.0</ele><time>2026-03-29T09:45:22.145Z</time></trkpt><trkpt lat="45.8892967" lon="8.7014283"><ele>345.0</ele><time>2026-03-29T09:45:23.145Z</time></trkpt><trkpt lat="45.8892433" lon="8.7014783"><ele>345.0</ele><time>2026-03-29T09:45:24.145Z</time></trkpt><trkpt lat="45.8891833" lon="8.70153"><ele>345.0</ele><time>2026-03-29T09:45:27.146Z</time></trkpt><trkpt lat="45.8891233" lon="8.70164"><ele>345.0</ele><time>2026-03-29T09:45:35.146Z</time></trkpt><trkpt lat="45.8890833" lon="8.7017283"><ele>345.0</ele><time>2026-03-29T09:45:37.146Z</time></trkpt><trkpt lat="45.8890367" lon="8.7017917"><ele>345.8</ele><time>2026-03-29T09:45:39.145Z</time></trkpt><trkpt lat="45.8889767" lon="8.7018433"><ele>346.6</ele><time>2026-03-29T09:45:41.146Z</time></trkpt><trkpt lat="45.888865" lon="8.7019317"><ele>347.4</ele><time>2026-03-29T09:45:43.145Z</time></trkpt><trkpt lat="45.8887783" lon="8.70203"><ele>348.2</ele><time>2026-03-29T09:45:44.145Z</time></trkpt><trkpt lat="45.8886783" lon="8.7021483"><ele>349.0</ele><time>2026-03-29T09:45:45.145Z</time></trkpt><trkpt lat="45.8886" lon="8.70224"><ele>351.0</ele><time>2026-03-29T09:45:46.146Z</time></trkpt><trkpt lat="45.8885033" lon="8.7023467"><ele>353.0</ele><time>2026-03-29T09:45:47.146Z</time></trkpt><trkpt lat="45.8884133" lon="8.7024467"><ele>355.0</ele><time>2026-03-29T09:45:48.145Z</time></trkpt><trkpt lat="45.8883217" lon="8.7025617"><ele>357.0</ele><time>2026-03-29T09:45:49.145Z</time></trkpt><trkpt lat="45.8882317" lon="8.7027283"><ele>358.0</ele><time>2026-03-29T09:45:50.145Z</time></trkpt><trkpt lat="45.8881717" lon="8.7028717"><ele>359.0</ele><time>2026-03-29T09:45:51.145Z</time></trkpt><trkpt lat="45.8881333" lon="8.7030183"><ele>360.0</ele><time>2026-03-29T09:45:52.145Z</time></trkpt><trkpt lat="45.888115" lon="8.7031483"><ele>361.0</ele><time>2026-03-29T09:45:53.145Z</time></trkpt><trkpt lat="45.8881117" lon="8.7032883"><ele>362.0</ele><time>2026-03-29T09:45:54.145Z</time></trkpt><trkpt lat="45.8881167" lon="8.70341"><ele>362.0</ele><time>2026-03-29T09:45:55.145Z</time></trkpt><trkpt lat="45.88812" lon="8.7035333"><ele>362.0</ele><time>2026-03-29T09:45:56.146Z</time></trkpt><trkpt lat="45.8881217" lon="8.70366"><ele>362.0</ele><time>2026-03-29T09:45:57.145Z</time></trkpt><trkpt lat="45.8881" lon="8.7037867"><ele>362.0</ele><time>2026-03-29T09:45:58.145Z</time></trkpt><trkpt lat="45.8880483" lon="8.703895"><ele>362.0</ele><time>2026-03-29T09:45:59.145Z</time></trkpt><trkpt lat="45.887985" lon="8.7040117"><ele>362.6</ele><time>2026-03-29T09:46:00.146Z</time></trkpt><trkpt lat="45.8879117" lon="8.7041183"><ele>363.20000000000005</ele><time>2026-03-29T09:46:01.145Z</time></trkpt><trkpt lat="45.887825" lon="8.7041983"><ele>363.8</ele><time>2026-03-29T09:46:02.145Z</time></trkpt><trkpt lat="45.887755" lon="8.7042867"><ele>364.4</ele><time>2026-03-29T09:46:03.145Z</time></trkpt><trkpt lat="45.8876883" lon="8.7043683"><ele>365.0</ele><time>2026-03-29T09:46:04.145Z</time></trkpt><trkpt lat="45.8876283" lon="8.7044483"><ele>365.6666666666667</ele><time>2026-03-29T09:46:05.145Z</time></trkpt><trkpt lat="45.8875667" lon="8.7045083"><ele>366.33333333333337</ele><time>2026-03-29T09:46:06.145Z</time></trkpt><trkpt lat="45.8875067" lon="8.7045367"><ele>367.0</ele><time>2026-03-29T09:46:07.145Z</time></trkpt><trkpt lat="45.8874267" lon="8.7045517"><ele>367.6666666666667</ele><time>2026-03-29T09:46:08.146Z</time></trkpt><trkpt lat="45.8873483" lon="8.7045933"><ele>368.3333333333333</ele><time>2026-03-29T09:46:09.146Z</time></trkpt><trkpt lat="45.88726" lon="8.70466"><ele>369.0</ele><time>2026-03-29T09:46:10.145Z</time></trkpt><trkpt lat="45.88717" lon="8.70476"><ele>369.0</ele><time>2026-03-29T09:46:11.146Z</time></trkpt><trkpt lat="45.8870833" lon="8.70484"><ele>369.0</ele><time>2026-03-29T09:46:12.145Z</time></trkpt><trkpt lat="45.8869917" lon="8.7049317"><ele>369.0</ele><time>2026-03-29T09:46:13.145Z</time></trkpt><trkpt lat="45.8869083" lon="8.7050233"><ele>369.0</ele><time>2026-03-29T09:46:14.145Z</time></trkpt><trkpt lat="45.8868367" lon="8.7051067"><ele>369.0</ele><time>2026-03-29T09:46:15.145Z</time></trkpt><trkpt lat="45.8867817" lon="8.7051867"><ele>369.0</ele><time>2026-03-29T09:46:16.146Z</time></trkpt><trkpt lat="45.886755" lon="8.7052733"><ele>369.0</ele><time>2026-03-29T09:46:17.145Z</time></trkpt><trkpt lat="45.886745" lon="8.705365"><ele>369.0</ele><time>2026-03-29T09:46:18.145Z</time></trkpt><trkpt lat="45.886755" lon="8.70547"><ele>369.0</ele><time>2026-03-29T09:46:19.145Z</time></trkpt><trkpt lat="45.88675" lon="8.70558"><ele>369.0</ele><time>2026-03-29T09:46:20.145Z</time></trkpt><trkpt lat="45.8867217" lon="8.7056883"><ele>369.0</ele><time>2026-03-29T09:46:21.146Z</time></trkpt><trkpt lat="45.8866567" lon="8.7057783"><ele>369.0</ele><time>2026-03-29T09:46:22.145Z</time></trkpt><trkpt lat="45.8865867" lon="8.7058617"><ele>369.0</ele><time>2026-03-29T09:46:23.145Z</time></trkpt><trkpt lat="45.8865117" lon="8.7059417"><ele>369.0</ele><time>2026-03-29T09:46:24.145Z</time></trkpt><trkpt lat="45.8864567" lon="8.706005"><ele>369.0</ele><time>2026-03-29T09:46:25.145Z</time></trkpt><trkpt lat="45.8863483" lon="8.7060717"><ele>369.0</ele><time>2026-03-29T09:46:27.145Z</time></trkpt><trkpt lat="45.88629" lon="8.7060017"><ele>369.0</ele><time>2026-03-29T09:46:29.145Z</time></trkpt><trkpt lat="45.88625" lon="8.7059317"><ele>369.0</ele><time>2026-03-29T09:46:30.146Z</time></trkpt><trkpt lat="45.8862067" lon="8.705835"><ele>369.0</ele><time>2026-03-29T09:46:31.145Z</time></trkpt><trkpt lat="45.8861633" lon="8.7057117"><ele>369.0</ele><time>2026-03-29T09:46:32.145Z</time></trkpt><trkpt lat="45.8861067" lon="8.7055683"><ele>369.0</ele><time>2026-03-29T09:46:33.146Z</time></trkpt><trkpt lat="45.8860533" lon="8.7054183"><ele>369.0</ele><time>2026-03-29T09:46:34.145Z</time></trkpt><trkpt lat="45.88601" lon="8.705265"><ele>369.2</ele><time>2026-03-29T09:46:35.145Z</time></trkpt><trkpt lat="45.8859733" lon="8.7051167"><ele>369.4</ele><time>2026-03-29T09:46:36.146Z</time></trkpt><trkpt lat="45.88594" lon="8.7049817"><ele>369.6</ele><time>2026-03-29T09:46:37.146Z</time></trkpt><trkpt lat="45.8859033" lon="8.7048683"><ele>369.8</ele><time>2026-03-29T09:46:38.145Z</time></trkpt><trkpt lat="45.8858833" lon="8.7047733"><ele>370.0</ele><time>2026-03-29T09:46:39.145Z</time></trkpt><trkpt lat="45.8858567" lon="8.7046417"><ele>370.0</ele><time>2026-03-29T09:46:41.145Z</time></trkpt><trkpt lat="45.88582" lon="8.7045583"><ele>370.0</ele><time>2026-03-29T09:46:44.146Z</time></trkpt><trkpt lat="45.8857683" lon="8.704465"><ele>370.0</ele><time>2026-03-29T09:46:48.146Z</time></trkpt><trkpt lat="45.8857117" lon="8.7043433"><ele>370.0</ele><time>2026-03-29T09:46:50.145Z</time></trkpt><trkpt lat="45.8856633" lon="8.7042533"><ele>370.0</ele><time>2026-03-29T09:46:51.146Z</time></trkpt><trkpt lat="45.8856117" lon="8.70415"><ele>370.0</ele><time>2026-03-29T09:46:52.145Z</time></trkpt><trkpt lat="45.885565" lon="8.7040283"><ele>369.5</ele><time>2026-03-29T09:46:53.146Z</time></trkpt><trkpt lat="45.8855283" lon="8.70388"><ele>369.0</ele><time>2026-03-29T09:46:54.145Z</time></trkpt><trkpt lat="45.8854883" lon="8.7037183"><ele>368.5</ele><time>2026-03-29T09:46:55.145Z</time></trkpt><trkpt lat="45.885455" lon="8.703555"><ele>368.0</ele><time>2026-03-29T09:46:56.146Z</time></trkpt><trkpt lat="45.8854383" lon="8.7033883"><ele>368.0</ele><time>2026-03-29T09:46:57.146Z</time></trkpt><trkpt lat="45.8854017" lon="8.7032183"><ele>368.0</ele><time>2026-03-29T09:46:58.146Z</time></trkpt><trkpt lat="45.8853683" lon="8.7030333"><ele>368.0</ele><time>2026-03-29T09:46:59.146Z</time></trkpt><trkpt lat="45.8853367" lon="8.70285"><ele>368.0</ele><time>2026-03-29T09:47:00.145Z</time></trkpt><trkpt lat="45.8853033" lon="8.702655"><ele>366.25</ele><time>2026-03-29T09:47:01.145Z</time></trkpt><trkpt lat="45.8852783" lon="8.7024633"><ele>364.5</ele><time>2026-03-29T09:47:02.145Z</time></trkpt><trkpt lat="45.88527" lon="8.702245"><ele>362.75</ele><time>2026-03-29T09:47:03.145Z</time></trkpt><trkpt lat="45.88528" lon="8.7020283"><ele>361.0</ele><time>2026-03-29T09:47:04.145Z</time></trkpt><trkpt lat="45.8852967" lon="8.7018233"><ele>360.0</ele><time>2026-03-29T09:47:05.146Z</time></trkpt><trkpt lat="45.8853067" lon="8.70161"><ele>359.0</ele><time>2026-03-29T09:47:06.146Z</time></trkpt><trkpt lat="45.8853033" lon="8.7014017"><ele>358.0</ele><time>2026-03-29T09:47:07.145Z</time></trkpt><trkpt lat="45.88529" lon="8.7011867"><ele>357.0</ele><time>2026-03-29T09:47:08.146Z</time></trkpt><trkpt lat="45.8852533" lon="8.7009767"><ele>355.3333333333333</ele><time>2026-03-29T09:47:09.145Z</time></trkpt><trkpt lat="45.8852217" lon="8.7007683"><ele>353.66666666666663</ele><time>2026-03-29T09:47:10.145Z</time></trkpt><trkpt lat="45.885185" lon="8.700565"><ele>352.0</ele><time>2026-03-29T09:47:11.145Z</time></trkpt><trkpt lat="45.8851333" lon="8.7003533"><ele>354.0</ele><time>2026-03-29T09:47:12.145Z</time></trkpt><trkpt lat="45.88508" lon="8.7001283"><ele>356.0</ele><time>2026-03-29T09:47:13.145Z</time></trkpt><trkpt lat="45.885035" lon="8.6999183"><ele>358.0</ele><time>2026-03-29T09:47:14.145Z</time></trkpt><trkpt lat="45.88501" lon="8.6997133"><ele>358.0</ele><time>2026-03-29T09:47:15.146Z</time></trkpt><trkpt lat="45.8849667" lon="8.6995"><ele>358.0</ele><time>2026-03-29T09:47:16.145Z</time></trkpt><trkpt lat="45.884925" lon="8.6992917"><ele>358.0</ele><time>2026-03-29T09:47:17.145Z</time></trkpt><trkpt lat="45.8848833" lon="8.699085"><ele>357.66666666666663</ele><time>2026-03-29T09:47:18.145Z</time></trkpt><trkpt lat="45.8848467" lon="8.6988733"><ele>357.3333333333333</ele><time>2026-03-29T09:47:19.146Z</time></trkpt><trkpt lat="45.884815" lon="8.698655"><ele>357.0</ele><time>2026-03-29T09:47:20.145Z</time></trkpt><trkpt lat="45.88479" lon="8.6984533"><ele>356.5</ele><time>2026-03-29T09:47:21.145Z</time></trkpt><trkpt lat="45.88477" lon="8.6982717"><ele>356.0</ele><time>2026-03-29T09:47:22.145Z</time></trkpt><trkpt lat="45.8847583" lon="8.6980767"><ele>355.5</ele><time>2026-03-29T09:47:23.145Z</time></trkpt><trkpt lat="45.884745" lon="8.697875"><ele>355.0</ele><time>2026-03-29T09:47:24.146Z</time></trkpt><trkpt lat="45.8847217" lon="8.6976733"><ele>354.75</ele><time>2026-03-29T09:47:25.145Z</time></trkpt><trkpt lat="45.88469" lon="8.69746"><ele>354.5</ele><time>2026-03-29T09:47:26.145Z</time></trkpt><trkpt lat="45.88464" lon="8.6972583"><ele>354.25</ele><time>2026-03-29T09:47:27.145Z</time></trkpt><trkpt lat="45.8845817" lon="8.697065"><ele>354.0</ele><time>2026-03-29T09:47:28.146Z</time></trkpt><trkpt lat="45.8845167" lon="8.69689"><ele>353.5</ele><time>2026-03-29T09:47:29.145Z</time></trkpt><trkpt lat="45.884455" lon="8.6967267"><ele>353.0</ele><time>2026-03-29T09:47:30.145Z</time></trkpt><trkpt lat="45.8843933" lon="8.6965467"><ele>352.5</ele><time>2026-03-29T09:47:31.145Z</time></trkpt><trkpt lat="45.88432" lon="8.6963383"><ele>352.0</ele><time>2026-03-29T09:47:32.145Z</time></trkpt><trkpt lat="45.88425" lon="8.6961333"><ele>352.66666666666663</ele><time>2026-03-29T09:47:33.145Z</time></trkpt><trkpt lat="45.8841833" lon="8.695935"><ele>353.3333333333333</ele><time>2026-03-29T09:47:34.145Z</time></trkpt><trkpt lat="45.8841183" lon="8.695735"><ele>354.0</ele><time>2026-03-29T09:47:35.145Z</time></trkpt><trkpt lat="45.8840567" lon="8.695545"><ele>354.0</ele><time>2026-03-29T09:47:36.145Z</time></trkpt><trkpt lat="45.8839833" lon="8.6953533"><ele>354.0</ele><time>2026-03-29T09:47:37.145Z</time></trkpt><trkpt lat="45.88391" lon="8.6951483"><ele>354.0</ele><time>2026-03-29T09:47:38.145Z</time></trkpt><trkpt lat="45.8838383" lon="8.6949267"><ele>351.0</ele><time>2026-03-29T09:47:39.145Z</time></trkpt><trkpt lat="45.8837617" lon="8.6947167"><ele>348.0</ele><time>2026-03-29T09:47:40.146Z</time></trkpt><trkpt lat="45.883685" lon="8.6945133"><ele>345.0</ele><time>2026-03-29T09:47:41.145Z</time></trkpt><trkpt lat="45.8836117" lon="8.6943217"><ele>345.6666666666667</ele><time>2026-03-29T09:47:42.145Z</time></trkpt><trkpt lat="45.8835267" lon="8.6941417"><ele>346.33333333333337</ele><time>2026-03-29T09:47:43.145Z</time></trkpt><trkpt lat="45.8834217" lon="8.6939467"><ele>347.0</ele><time>2026-03-29T09:47:44.145Z</time></trkpt><trkpt lat="45.8833" lon="8.69374"><ele>344.0</ele><time>2026-03-29T09:47:45.146Z</time></trkpt><trkpt lat="45.8831717" lon="8.6935167"><ele>341.0</ele><time>2026-03-29T09:47:46.145Z</time></trkpt><trkpt lat="45.8830333" lon="8.693275"><ele>338.0</ele><time>2026-03-29T09:47:47.145Z</time></trkpt><trkpt lat="45.8829" lon="8.6930383"><ele>338.0</ele><time>2026-03-29T09:47:48.145Z</time></trkpt><trkpt lat="45.8827567" lon="8.69281"><ele>338.0</ele><time>2026-03-29T09:47:49.146Z</time></trkpt><trkpt lat="45.8826317" lon="8.692595"><ele>338.0</ele><time>2026-03-29T09:47:50.145Z</time></trkpt><trkpt lat="45.88252" lon="8.6924"><ele>338.33333333333337</ele><time>2026-03-29T09:47:51.145Z</time></trkpt><trkpt lat="45.8824117" lon="8.6922167"><ele>338.6666666666667</ele><time>2026-03-29T09:47:52.145Z</time></trkpt><trkpt lat="45.8823167" lon="8.6920383"><ele>339.0</ele><time>2026-03-29T09:47:53.146Z</time></trkpt><trkpt lat="45.88223" lon="8.69187"><ele>339.0</ele><time>2026-03-29T09:47:54.145Z</time></trkpt><trkpt lat="45.8821533" lon="8.691725"><ele>339.0</ele><time>2026-03-29T09:47:55.145Z</time></trkpt><trkpt lat="45.8820767" lon="8.6916"><ele>339.0</ele><time>2026-03-29T09:47:56.145Z</time></trkpt><trkpt lat="45.8820083" lon="8.6914817"><ele>339.0</ele><time>2026-03-29T09:47:57.145Z</time></trkpt><trkpt lat="45.8819467" lon="8.6913683"><ele>339.0</ele><time>2026-03-29T09:47:58.145Z</time></trkpt><trkpt lat="45.881895" lon="8.69127"><ele>339.0</ele><time>2026-03-29T09:47:59.146Z</time></trkpt><trkpt lat="45.8818533" lon="8.69119"><ele>339.0</ele><time>2026-03-29T09:48:00.145Z</time></trkpt><trkpt lat="45.881795" lon="8.6910717"><ele>339.0</ele><time>2026-03-29T09:48:02.145Z</time></trkpt><trkpt lat="45.8817533" lon="8.6909867"><ele>339.0</ele><time>2026-03-29T09:48:25.145Z</time></trkpt><trkpt lat="45.88171" lon="8.69108"><ele>339.0</ele><time>2026-03-29T09:48:29.145Z</time></trkpt><trkpt lat="45.881675" lon="8.6911767"><ele>341.3333333333333</ele><time>2026-03-29T09:48:33.145Z</time></trkpt><trkpt lat="45.8816183" lon="8.6912233"><ele>343.6666666666667</ele><time>2026-03-29T09:48:36.145Z</time></trkpt><trkpt lat="45.88158" lon="8.6913417"><ele>346.0</ele><time>2026-03-29T09:48:39.145Z</time></trkpt><trkpt lat="45.8815883" lon="8.6914783"><ele>348.33333333333337</ele><time>2026-03-29T09:48:41.145Z</time></trkpt><trkpt lat="45.8816" lon="8.6915733"><ele>350.6666666666667</ele><time>2026-03-29T09:48:43.145Z</time></trkpt><trkpt lat="45.8816167" lon="8.6916917"><ele>353.0</ele><time>2026-03-29T09:48:45.146Z</time></trkpt><trkpt lat="45.8816183" lon="8.6918017"><ele>353.0</ele><time>2026-03-29T09:48:47.145Z</time></trkpt><trkpt lat="45.8815783" lon="8.6918817"><ele>353.0</ele><time>2026-03-29T09:48:49.146Z</time></trkpt><trkpt lat="45.8815333" lon="8.691985"><ele>353.0</ele><time>2026-03-29T09:48:51.146Z</time></trkpt><trkpt lat="45.8814867" lon="8.6920483"><ele>353.0</ele><time>2026-03-29T09:48:53.145Z</time></trkpt><trkpt lat="45.8814367" lon="8.692135"><ele>353.0</ele><time>2026-03-29T09:48:56.145Z</time></trkpt><trkpt lat="45.8813683" lon="8.692165"><ele>353.0</ele><time>2026-03-29T09:49:04.145Z</time></trkpt><trkpt lat="45.8813083" lon="8.6921067"><ele>353.0</ele><time>2026-03-29T09:49:09.146Z</time></trkpt><trkpt lat="45.8812233" lon="8.6920567"><ele>353.6666666666667</ele><time>2026-03-29T09:49:12.146Z</time></trkpt><trkpt lat="45.881145" lon="8.6920267"><ele>354.33333333333337</ele><time>2026-03-29T09:49:15.146Z</time></trkpt><trkpt lat="45.8810767" lon="8.6920433"><ele>355.0</ele><time>2026-03-29T09:49:18.145Z</time></trkpt><trkpt lat="45.8810167" lon="8.69211"><ele>355.6666666666667</ele><time>2026-03-29T09:49:21.145Z</time></trkpt><trkpt lat="45.8809533" lon="8.692205"><ele>356.3333333333333</ele><time>2026-03-29T09:49:24.145Z</time></trkpt><trkpt lat="45.8809233" lon="8.6923083"><ele>357.0</ele><time>2026-03-29T09:49:26.145Z</time></trkpt><trkpt lat="45.8808983" lon="8.6924583"><ele>354.5</ele><time>2026-03-29T09:49:28.145Z</time></trkpt><trkpt lat="45.8808683" lon="8.6925667"><ele>352.0</ele><time>2026-03-29T09:49:29.145Z</time></trkpt><trkpt lat="45.8808533" lon="8.692665"><ele>349.5</ele><time>2026-03-29T09:49:30.145Z</time></trkpt><trkpt lat="45.8808167" lon="8.69278"><ele>347.0</ele><time>2026-03-29T09:49:31.146Z</time></trkpt><trkpt lat="45.8808" lon="8.6929083"><ele>344.5</ele><time>2026-03-29T09:49:33.146Z</time></trkpt><trkpt lat="45.8807983" lon="8.6930667"><ele>342.0</ele><time>2026-03-29T09:49:35.145Z</time></trkpt><trkpt lat="45.880795" lon="8.69318"><ele>341.5</ele><time>2026-03-29T09:49:37.145Z</time></trkpt><trkpt lat="45.88077" lon="8.69328"><ele>341.0</ele><time>2026-03-29T09:49:40.145Z</time></trkpt><trkpt lat="45.8806933" lon="8.6932667"><ele>340.5</ele><time>2026-03-29T09:49:43.145Z</time></trkpt><trkpt lat="45.88062" lon="8.6932433"><ele>340.0</ele><time>2026-03-29T09:49:45.145Z</time></trkpt><trkpt lat="45.8805317" lon="8.6932233"><ele>339.5</ele><time>2026-03-29T09:49:47.145Z</time></trkpt><trkpt lat="45.8804483" lon="8.6931933"><ele>339.0</ele><time>2026-03-29T09:49:49.145Z</time></trkpt><trkpt lat="45.8803833" lon="8.6931467"><ele>339.0</ele><time>2026-03-29T09:49:51.145Z</time></trkpt><trkpt lat="45.88033" lon="8.69309"><ele>339.0</ele><time>2026-03-29T09:49:53.145Z</time></trkpt><trkpt lat="45.8802917" lon="8.6929783"><ele>339.0</ele><time>2026-03-29T09:49:56.146Z</time></trkpt><trkpt lat="45.880295" lon="8.6928617"><ele>339.0</ele><time>2026-03-29T09:49:58.145Z</time></trkpt><trkpt lat="45.88032" lon="8.6927583"><ele>339.0</ele><time>2026-03-29T09:50:00.145Z</time></trkpt><trkpt lat="45.88028" lon="8.6926817"><ele>339.0</ele><time>2026-03-29T09:50:04.146Z</time></trkpt><trkpt lat="45.8802133" lon="8.6926383"><ele>339.5</ele><time>2026-03-29T09:50:07.146Z</time></trkpt><trkpt lat="45.8801333" lon="8.6925683"><ele>340.0</ele><time>2026-03-29T09:50:15.145Z</time></trkpt><trkpt lat="45.8800617" lon="8.692505"><ele>340.5</ele><time>2026-03-29T09:50:17.145Z</time></trkpt><trkpt lat="45.8799833" lon="8.6924683"><ele>341.0</ele><time>2026-03-29T09:50:19.145Z</time></trkpt><trkpt lat="45.8798917" lon="8.6924383"><ele>341.5</ele><time>2026-03-29T09:50:21.145Z</time></trkpt><trkpt lat="45.8798217" lon="8.6923933"><ele>342.0</ele><time>2026-03-29T09:50:23.145Z</time></trkpt><trkpt lat="45.8797667" lon="8.6923383"><ele>340.6666666666667</ele><time>2026-03-29T09:50:25.145Z</time></trkpt><trkpt lat="45.87971" lon="8.69225"><ele>339.3333333333333</ele><time>2026-03-29T09:50:35.145Z</time></trkpt><trkpt lat="45.879665" lon="8.6921633"><ele>338.0</ele><time>2026-03-29T09:50:37.145Z</time></trkpt><trkpt lat="45.8795933" lon="8.6920167"><ele>336.66666666666663</ele><time>2026-03-29T09:50:39.145Z</time></trkpt><trkpt lat="45.8795517" lon="8.6919367"><ele>335.3333333333333</ele><time>2026-03-29T09:50:40.145Z</time></trkpt><trkpt lat="45.87951" lon="8.6918583"><ele>334.0</ele><time>2026-03-29T09:50:41.145Z</time></trkpt><trkpt lat="45.879465" lon="8.69179"><ele>333.3333333333333</ele><time>2026-03-29T09:50:43.145Z</time></trkpt><trkpt lat="45.8794067" lon="8.691675"><ele>332.66666666666663</ele><time>2026-03-29T09:50:48.145Z</time></trkpt><trkpt lat="45.8793533" lon="8.6916017"><ele>332.0</ele><time>2026-03-29T09:50:50.145Z</time></trkpt><trkpt lat="45.879305" lon="8.6915267"><ele>331.3333333333333</ele><time>2026-03-29T09:50:52.146Z</time></trkpt><trkpt lat="45.8792733" lon="8.6914483"><ele>330.6666666666667</ele><time>2026-03-29T09:50:54.145Z</time></trkpt><trkpt lat="45.8792317" lon="8.6913583"><ele>330.0</ele><time>2026-03-29T09:50:56.145Z</time></trkpt><trkpt lat="45.8791767" lon="8.691225"><ele>330.4</ele><time>2026-03-29T09:50:58.146Z</time></trkpt><trkpt lat="45.8791267" lon="8.6910433"><ele>330.8</ele><time>2026-03-29T09:51:00.145Z</time></trkpt><trkpt lat="45.8790883" lon="8.69092"><ele>331.20000000000005</ele><time>2026-03-29T09:51:01.145Z</time></trkpt><trkpt lat="45.87902" lon="8.6908217"><ele>331.6</ele><time>2026-03-29T09:51:02.145Z</time></trkpt><trkpt lat="45.8789567" lon="8.6907417"><ele>332.0</ele><time>2026-03-29T09:51:03.146Z</time></trkpt><trkpt lat="45.8788833" lon="8.690665"><ele>332.0</ele><time>2026-03-29T09:51:04.146Z</time></trkpt><trkpt lat="45.8788017" lon="8.690585"><ele>332.0</ele><time>2026-03-29T09:51:05.146Z</time></trkpt><trkpt lat="45.8787233" lon="8.6905217"><ele>332.0</ele><time>2026-03-29T09:51:06.145Z</time></trkpt><trkpt lat="45.8786517" lon="8.690465"><ele>332.0</ele><time>2026-03-29T09:51:07.145Z</time></trkpt><trkpt lat="45.8785867" lon="8.6903983"><ele>332.0</ele><time>2026-03-29T09:51:08.145Z</time></trkpt><trkpt lat="45.8785267" lon="8.6903083"><ele>332.0</ele><time>2026-03-29T09:51:09.145Z</time></trkpt><trkpt lat="45.8784667" lon="8.6902"><ele>333.40000000000003</ele><time>2026-03-29T09:51:10.146Z</time></trkpt><trkpt lat="45.8784167" lon="8.6900767"><ele>334.8</ele><time>2026-03-29T09:51:11.146Z</time></trkpt><trkpt lat="45.878375" lon="8.6899583"><ele>336.2</ele><time>2026-03-29T09:51:12.145Z</time></trkpt><trkpt lat="45.8783317" lon="8.689835"><ele>337.6</ele><time>2026-03-29T09:51:13.145Z</time></trkpt><trkpt lat="45.878275" lon="8.6897083"><ele>339.0</ele><time>2026-03-29T09:51:14.145Z</time></trkpt><trkpt lat="45.8782117" lon="8.689585"><ele>339.0</ele><time>2026-03-29T09:51:15.145Z</time></trkpt><trkpt lat="45.878155" lon="8.689475"><ele>339.0</ele><time>2026-03-29T09:51:16.145Z</time></trkpt><trkpt lat="45.8780917" lon="8.6893567"><ele>339.0</ele><time>2026-03-29T09:51:17.145Z</time></trkpt><trkpt lat="45.8780183" lon="8.68924"><ele>339.0</ele><time>2026-03-29T09:51:18.145Z</time></trkpt><trkpt lat="45.87795" lon="8.6891283"><ele>339.0</ele><time>2026-03-29T09:51:19.145Z</time></trkpt><trkpt lat="45.8778867" lon="8.6890217"><ele>337.8333333333333</ele><time>2026-03-29T09:51:20.145Z</time></trkpt><trkpt lat="45.8778317" lon="8.6889217"><ele>336.6666666666667</ele><time>2026-03-29T09:51:21.145Z</time></trkpt><trkpt lat="45.8778067" lon="8.688815"><ele>335.5</ele><time>2026-03-29T09:51:22.145Z</time></trkpt><trkpt lat="45.87778" lon="8.688695"><ele>334.33333333333337</ele><time>2026-03-29T09:51:23.145Z</time></trkpt><trkpt lat="45.877755" lon="8.6885733"><ele>333.1666666666667</ele><time>2026-03-29T09:51:24.145Z</time></trkpt><trkpt lat="45.87772" lon="8.688465"><ele>332.0</ele><time>2026-03-29T09:51:25.145Z</time></trkpt><trkpt lat="45.87767" lon="8.6883667"><ele>330.83333333333337</ele><time>2026-03-29T09:51:26.146Z</time></trkpt><trkpt lat="45.877605" lon="8.6882867"><ele>329.6666666666667</ele><time>2026-03-29T09:51:27.145Z</time></trkpt><trkpt lat="45.87755" lon="8.6882117"><ele>328.5</ele><time>2026-03-29T09:51:28.145Z</time></trkpt><trkpt lat="45.8774667" lon="8.6880867"><ele>327.3333333333333</ele><time>2026-03-29T09:51:30.146Z</time></trkpt><trkpt lat="45.877435" lon="8.68799"><ele>326.16666666666663</ele><time>2026-03-29T09:51:31.145Z</time></trkpt><trkpt lat="45.8773983" lon="8.687905"><ele>325.0</ele><time>2026-03-29T09:51:32.146Z</time></trkpt><trkpt lat="45.8773617" lon="8.6877867"><ele>326.8</ele><time>2026-03-29T09:51:33.145Z</time></trkpt><trkpt lat="45.8773133" lon="8.6876667"><ele>328.6</ele><time>2026-03-29T09:51:34.145Z</time></trkpt><trkpt lat="45.87726" lon="8.687545"><ele>330.4</ele><time>2026-03-29T09:51:35.146Z</time></trkpt><trkpt lat="45.8772133" lon="8.6874333"><ele>332.2</ele><time>2026-03-29T09:51:36.145Z</time></trkpt><trkpt lat="45.8771583" lon="8.687335"><ele>334.0</ele><time>2026-03-29T09:51:37.146Z</time></trkpt><trkpt lat="45.8771167" lon="8.687225"><ele>334.0</ele><time>2026-03-29T09:51:38.146Z</time></trkpt><trkpt lat="45.8770867" lon="8.68713"><ele>334.0</ele><time>2026-03-29T09:51:39.145Z</time></trkpt><trkpt lat="45.8770533" lon="8.6870417"><ele>334.0</ele><time>2026-03-29T09:51:40.145Z</time></trkpt><trkpt lat="45.8770383" lon="8.6869367"><ele>334.0</ele><time>2026-03-29T09:51:45.146Z</time></trkpt><trkpt lat="45.8770567" lon="8.68703"><ele>334.0</ele><time>2026-03-29T09:52:13.145Z</time></trkpt><trkpt lat="45.8770133" lon="8.6871217"><ele>334.0</ele><time>2026-03-29T09:52:17.145Z</time></trkpt><trkpt lat="45.8769817" lon="8.68704"><ele>334.0</ele><time>2026-03-29T09:52:26.145Z</time></trkpt><trkpt lat="45.87694" lon="8.68694"><ele>332.0</ele><time>2026-03-29T09:52:29.145Z</time></trkpt><trkpt lat="45.8769" lon="8.6868567"><ele>330.0</ele><time>2026-03-29T09:52:32.145Z</time></trkpt><trkpt lat="45.8768583" lon="8.6867717"><ele>328.0</ele><time>2026-03-29T09:52:37.145Z</time></trkpt><trkpt lat="45.8768183" lon="8.68669"><ele>326.0</ele><time>2026-03-29T09:52:40.145Z</time></trkpt><trkpt lat="45.8767683" lon="8.6866233"><ele>324.0</ele><time>2026-03-29T09:52:42.145Z</time></trkpt><trkpt lat="45.87671" lon="8.6864983"><ele>322.0</ele><time>2026-03-29T09:52:44.145Z</time></trkpt><trkpt lat="45.8766733" lon="8.68642"><ele>324.8333333333333</ele><time>2026-03-29T09:52:45.145Z</time></trkpt><trkpt lat="45.87663" lon="8.6863233"><ele>327.66666666666663</ele><time>2026-03-29T09:52:46.145Z</time></trkpt><trkpt lat="45.8765783" lon="8.686225"><ele>330.5</ele><time>2026-03-29T09:52:47.145Z</time></trkpt><trkpt lat="45.876525" lon="8.6861267"><ele>333.3333333333333</ele><time>2026-03-29T09:52:48.146Z</time></trkpt><trkpt lat="45.8764717" lon="8.68603"><ele>336.1666666666667</ele><time>2026-03-29T09:52:49.145Z</time></trkpt><trkpt lat="45.8764017" lon="8.6859233"><ele>339.0</ele><time>2026-03-29T09:52:50.146Z</time></trkpt><trkpt lat="45.8763183" lon="8.68579"><ele>339.0</ele><time>2026-03-29T09:52:51.145Z</time></trkpt><trkpt lat="45.8762367" lon="8.685645"><ele>339.0</ele><time>2026-03-29T09:52:52.145Z</time></trkpt><trkpt lat="45.8761533" lon="8.685525"><ele>339.0</ele><time>2026-03-29T09:52:53.146Z</time></trkpt><trkpt lat="45.8760783" lon="8.6854067"><ele>339.0</ele><time>2026-03-29T09:52:54.145Z</time></trkpt><trkpt lat="45.8760033" lon="8.68532"><ele>339.4</ele><time>2026-03-29T09:52:55.145Z</time></trkpt><trkpt lat="45.8759333" lon="8.6852417"><ele>339.79999999999995</ele><time>2026-03-29T09:52:56.146Z</time></trkpt><trkpt lat="45.8758683" lon="8.68515"><ele>340.20000000000005</ele><time>2026-03-29T09:52:57.145Z</time></trkpt><trkpt lat="45.8757867" lon="8.685065"><ele>340.6</ele><time>2026-03-29T09:52:58.145Z</time></trkpt><trkpt lat="45.875695" lon="8.684995"><ele>341.0</ele><time>2026-03-29T09:52:59.146Z</time></trkpt><trkpt lat="45.8756067" lon="8.6849267"><ele>341.0</ele><time>2026-03-29T09:53:00.145Z</time></trkpt><trkpt lat="45.8755017" lon="8.684855"><ele>341.0</ele><time>2026-03-29T09:53:01.145Z</time></trkpt><trkpt lat="45.875385" lon="8.6848"><ele>341.0</ele><time>2026-03-29T09:53:02.145Z</time></trkpt><trkpt lat="45.875275" lon="8.6847483"><ele>341.0</ele><time>2026-03-29T09:53:03.145Z</time></trkpt><trkpt lat="45.8751667" lon="8.6847133"><ele>341.0</ele><time>2026-03-29T09:53:04.145Z</time></trkpt><trkpt lat="45.875075" lon="8.6846783"><ele>341.0</ele><time>2026-03-29T09:53:05.145Z</time></trkpt><trkpt lat="45.8749833" lon="8.68463"><ele>341.0</ele><time>2026-03-29T09:53:06.146Z</time></trkpt><trkpt lat="45.874895" lon="8.6845717"><ele>341.0</ele><time>2026-03-29T09:53:07.145Z</time></trkpt><trkpt lat="45.874805" lon="8.6845017"><ele>341.0</ele><time>2026-03-29T09:53:08.145Z</time></trkpt><trkpt lat="45.8747133" lon="8.6844117"><ele>340.0</ele><time>2026-03-29T09:53:09.146Z</time></trkpt><trkpt lat="45.874625" lon="8.6843217"><ele>339.0</ele><time>2026-03-29T09:53:10.146Z</time></trkpt><trkpt lat="45.8745317" lon="8.6842433"><ele>338.0</ele><time>2026-03-29T09:53:11.146Z</time></trkpt><trkpt lat="45.8744467" lon="8.6841667"><ele>337.0</ele><time>2026-03-29T09:53:12.145Z</time></trkpt><trkpt lat="45.8743717" lon="8.684095"><ele>336.0</ele><time>2026-03-29T09:53:13.146Z</time></trkpt><trkpt lat="45.8743017" lon="8.684035"><ele>335.8</ele><time>2026-03-29T09:53:14.145Z</time></trkpt><trkpt lat="45.8742467" lon="8.683985"><ele>335.6</ele><time>2026-03-29T09:53:15.145Z</time></trkpt><trkpt lat="45.8741683" lon="8.6838967"><ele>335.4</ele><time>2026-03-29T09:53:17.146Z</time></trkpt><trkpt lat="45.8740383" lon="8.6838067"><ele>335.2</ele><time>2026-03-29T09:54:26.145Z</time></trkpt><trkpt lat="45.8741333" lon="8.68381"><ele>335.0</ele><time>2026-03-29T09:56:04.145Z</time></trkpt><trkpt lat="45.8740933" lon="8.6839033"><ele>335.0</ele><time>2026-03-29T09:59:40.145Z</time></trkpt><trkpt lat="45.874115" lon="8.683815"><ele>335.0</ele><time>2026-03-29T10:01:16.146Z</time></trkpt><trkpt lat="45.8741517" lon="8.683705"><ele>335.0</ele><time>2026-03-29T10:01:18.146Z</time></trkpt><trkpt lat="45.8741983" lon="8.6835933"><ele>335.0</ele><time>2026-03-29T10:01:20.145Z</time></trkpt><trkpt lat="45.87427" lon="8.683515"><ele>335.0</ele><time>2026-03-29T10:01:22.145Z</time></trkpt><trkpt lat="45.8743517" lon="8.6834417"><ele>335.0</ele><time>2026-03-29T10:01:24.146Z</time></trkpt><trkpt lat="45.87441" lon="8.6833167"><ele>334.1666666666667</ele><time>2026-03-29T10:01:26.145Z</time></trkpt><trkpt lat="45.87443" lon="8.68323"><ele>333.33333333333337</ele><time>2026-03-29T10:01:27.145Z</time></trkpt><trkpt lat="45.87443" lon="8.68313"><ele>332.5</ele><time>2026-03-29T10:01:28.145Z</time></trkpt><trkpt lat="45.87439" lon="8.6830233"><ele>331.6666666666667</ele><time>2026-03-29T10:01:29.146Z</time></trkpt><trkpt lat="45.87435" lon="8.6829133"><ele>330.8333333333333</ele><time>2026-03-29T10:01:30.145Z</time></trkpt><trkpt lat="45.8743033" lon="8.682825"><ele>330.0</ele><time>2026-03-29T10:01:31.146Z</time></trkpt><trkpt lat="45.874255" lon="8.682735"><ele>328.8333333333333</ele><time>2026-03-29T10:01:32.145Z</time></trkpt><trkpt lat="45.8742133" lon="8.68265"><ele>327.6666666666667</ele><time>2026-03-29T10:01:33.145Z</time></trkpt><trkpt lat="45.8741867" lon="8.6825533"><ele>326.5</ele><time>2026-03-29T10:01:34.145Z</time></trkpt><trkpt lat="45.8741717" lon="8.6824567"><ele>325.33333333333337</ele><time>2026-03-29T10:01:35.145Z</time></trkpt><trkpt lat="45.8741667" lon="8.6823483"><ele>324.1666666666667</ele><time>2026-03-29T10:01:36.146Z</time></trkpt><trkpt lat="45.8741683" lon="8.682245"><ele>323.0</ele><time>2026-03-29T10:01:37.145Z</time></trkpt><trkpt lat="45.874185" lon="8.68209"><ele>323.0</ele><time>2026-03-29T10:01:39.145Z</time></trkpt><trkpt lat="45.8742433" lon="8.6819967"><ele>323.0</ele><time>2026-03-29T10:01:41.145Z</time></trkpt><trkpt lat="45.8743117" lon="8.681975"><ele>323.0</ele><time>2026-03-29T10:01:42.145Z</time></trkpt><trkpt lat="45.8744" lon="8.681945"><ele>323.0</ele><time>2026-03-29T10:01:43.145Z</time></trkpt><trkpt lat="45.874515" lon="8.6819217"><ele>323.0</ele><time>2026-03-29T10:01:44.145Z</time></trkpt><trkpt lat="45.8746267" lon="8.6818917"><ele>321.0</ele><time>2026-03-29T10:01:45.145Z</time></trkpt><trkpt lat="45.8747333" lon="8.6818683"><ele>319.0</ele><time>2026-03-29T10:01:46.145Z</time></trkpt><trkpt lat="45.874825" lon="8.6818567"><ele>317.0</ele><time>2026-03-29T10:01:47.146Z</time></trkpt><trkpt lat="45.874905" lon="8.6818317"><ele>315.0</ele><time>2026-03-29T10:01:48.145Z</time></trkpt><trkpt lat="45.8749733" lon="8.68179"><ele>313.0</ele><time>2026-03-29T10:01:49.145Z</time></trkpt><trkpt lat="45.8750283" lon="8.6817383"><ele>311.0</ele><time>2026-03-29T10:01:50.145Z</time></trkpt><trkpt lat="45.8750717" lon="8.681665"><ele>310.1666666666667</ele><time>2026-03-29T10:01:51.145Z</time></trkpt><trkpt lat="45.875115" lon="8.6815833"><ele>309.33333333333337</ele><time>2026-03-29T10:01:52.145Z</time></trkpt><trkpt lat="45.8751483" lon="8.681485"><ele>308.5</ele><time>2026-03-29T10:01:53.146Z</time></trkpt><trkpt lat="45.875185" lon="8.68137"><ele>307.6666666666667</ele><time>2026-03-29T10:01:54.145Z</time></trkpt><trkpt lat="45.8752217" lon="8.681255"><ele>306.8333333333333</ele><time>2026-03-29T10:01:55.146Z</time></trkpt><trkpt lat="45.87526" lon="8.6811433"><ele>306.0</ele><time>2026-03-29T10:01:56.146Z</time></trkpt><trkpt lat="45.8752833" lon="8.6810267"><ele>305.5</ele><time>2026-03-29T10:01:57.145Z</time></trkpt><trkpt lat="45.8752817" lon="8.680915"><ele>305.0</ele><time>2026-03-29T10:01:58.146Z</time></trkpt><trkpt lat="45.87526" lon="8.6808033"><ele>304.5</ele><time>2026-03-29T10:01:59.145Z</time></trkpt><trkpt lat="45.875215" lon="8.6806983"><ele>304.0</ele><time>2026-03-29T10:02:00.146Z</time></trkpt><trkpt lat="45.8751733" lon="8.6805783"><ele>303.5</ele><time>2026-03-29T10:02:01.145Z</time></trkpt><trkpt lat="45.875125" lon="8.6804667"><ele>303.0</ele><time>2026-03-29T10:02:02.145Z</time></trkpt><trkpt lat="45.8749967" lon="8.6804067"><ele>303.0</ele><time>2026-03-29T10:02:03.146Z</time></trkpt><trkpt lat="45.87492" lon="8.6803417"><ele>303.0</ele><time>2026-03-29T10:02:04.145Z</time></trkpt><trkpt lat="45.874845" lon="8.6802633"><ele>303.0</ele><time>2026-03-29T10:02:05.146Z</time></trkpt><trkpt lat="45.8747717" lon="8.68021"><ele>303.0</ele><time>2026-03-29T10:02:06.146Z</time></trkpt><trkpt lat="45.8746883" lon="8.680165"><ele>303.0</ele><time>2026-03-29T10:02:07.145Z</time></trkpt><trkpt lat="45.8745917" lon="8.68016"><ele>301.4</ele><time>2026-03-29T10:02:08.145Z</time></trkpt><trkpt lat="45.8744983" lon="8.6801583"><ele>299.8</ele><time>2026-03-29T10:02:09.145Z</time></trkpt><trkpt lat="45.874385" lon="8.6801733"><ele>298.2</ele><time>2026-03-29T10:02:10.145Z</time></trkpt><trkpt lat="45.87427" lon="8.6801733"><ele>296.6</ele><time>2026-03-29T10:02:11.145Z</time></trkpt><trkpt lat="45.8741717" lon="8.680155"><ele>295.0</ele><time>2026-03-29T10:02:12.146Z</time></trkpt><trkpt lat="45.874075" lon="8.680155"><ele>295.0</ele><time>2026-03-29T10:02:13.146Z</time></trkpt><trkpt lat="45.8739833" lon="8.6801517"><ele>295.0</ele><time>2026-03-29T10:02:14.146Z</time></trkpt><trkpt lat="45.8738967" lon="8.6801433"><ele>295.0</ele><time>2026-03-29T10:02:15.145Z</time></trkpt><trkpt lat="45.873805" lon="8.6801417"><ele>295.0</ele><time>2026-03-29T10:02:16.146Z</time></trkpt><trkpt lat="45.8737067" lon="8.68013"><ele>295.0</ele><time>2026-03-29T10:02:17.146Z</time></trkpt><trkpt lat="45.87358" lon="8.6800983"><ele>295.0</ele><time>2026-03-29T10:02:18.145Z</time></trkpt><trkpt lat="45.87345" lon="8.6800383"><ele>295.0</ele><time>2026-03-29T10:02:19.145Z</time></trkpt><trkpt lat="45.8733217" lon="8.679975"><ele>295.0</ele><time>2026-03-29T10:02:20.145Z</time></trkpt><trkpt lat="45.8731983" lon="8.6798983"><ele>295.0</ele><time>2026-03-29T10:02:21.145Z</time></trkpt><trkpt lat="45.8730683" lon="8.67983"><ele>294.25</ele><time>2026-03-29T10:02:22.146Z</time></trkpt><trkpt lat="45.872955" lon="8.6797633"><ele>293.5</ele><time>2026-03-29T10:02:23.146Z</time></trkpt><trkpt lat="45.8728467" lon="8.67971"><ele>292.75</ele><time>2026-03-29T10:02:24.146Z</time></trkpt><trkpt lat="45.8727267" lon="8.6796583"><ele>292.0</ele><time>2026-03-29T10:02:25.145Z</time></trkpt><trkpt lat="45.8726" lon="8.6796167"><ele>291.6</ele><time>2026-03-29T10:02:26.145Z</time></trkpt><trkpt lat="45.8724867" lon="8.679575"><ele>291.2</ele><time>2026-03-29T10:02:27.145Z</time></trkpt><trkpt lat="45.8723833" lon="8.6795517"><ele>290.8</ele><time>2026-03-29T10:02:28.145Z</time></trkpt><trkpt lat="45.8722883" lon="8.679555"><ele>290.4</ele><time>2026-03-29T10:02:29.145Z</time></trkpt><trkpt lat="45.8722017" lon="8.6795683"><ele>290.0</ele><time>2026-03-29T10:02:30.146Z</time></trkpt><trkpt lat="45.8721217" lon="8.6795733"><ele>290.0</ele><time>2026-03-29T10:02:31.145Z</time></trkpt><trkpt lat="45.87205" lon="8.67956"><ele>290.0</ele><time>2026-03-29T10:02:32.145Z</time></trkpt><trkpt lat="45.8719883" lon="8.679415"><ele>290.0</ele><time>2026-03-29T10:02:34.145Z</time></trkpt><trkpt lat="45.8719867" lon="8.679305"><ele>290.0</ele><time>2026-03-29T10:02:35.145Z</time></trkpt><trkpt lat="45.8719917" lon="8.6791883"><ele>290.0</ele><time>2026-03-29T10:02:36.145Z</time></trkpt><trkpt lat="45.8719983" lon="8.6790517"><ele>290.0</ele><time>2026-03-29T10:02:37.146Z</time></trkpt><trkpt lat="45.87198" lon="8.6789617"><ele>288.6</ele><time>2026-03-29T10:02:38.146Z</time></trkpt><trkpt lat="45.8718617" lon="8.6789633"><ele>287.2</ele><time>2026-03-29T10:02:40.145Z</time></trkpt><trkpt lat="45.8717933" lon="8.6790117"><ele>285.8</ele><time>2026-03-29T10:02:41.145Z</time></trkpt><trkpt lat="45.8717167" lon="8.679085"><ele>284.4</ele><time>2026-03-29T10:02:42.145Z</time></trkpt><trkpt lat="45.8716367" lon="8.6791667"><ele>283.0</ele><time>2026-03-29T10:02:43.145Z</time></trkpt><trkpt lat="45.8715667" lon="8.6792367"><ele>281.8333333333333</ele><time>2026-03-29T10:02:44.146Z</time></trkpt><trkpt lat="45.8714883" lon="8.6793267"><ele>280.66666666666663</ele><time>2026-03-29T10:02:45.145Z</time></trkpt><trkpt lat="45.8714183" lon="8.6793967"><ele>279.5</ele><time>2026-03-29T10:02:46.146Z</time></trkpt><trkpt lat="45.871335" lon="8.6794667"><ele>278.3333333333333</ele><time>2026-03-29T10:02:47.145Z</time></trkpt><trkpt lat="45.8712483" lon="8.6794983"><ele>277.1666666666667</ele><time>2026-03-29T10:02:49.146Z</time></trkpt><trkpt lat="45.8711817" lon="8.6795067"><ele>276.0</ele><time>2026-03-29T10:02:50.145Z</time></trkpt><trkpt lat="45.8711283" lon="8.67945"><ele>275.0</ele><time>2026-03-29T10:02:51.145Z</time></trkpt><trkpt lat="45.8710883" lon="8.6793667"><ele>274.0</ele><time>2026-03-29T10:02:52.145Z</time></trkpt><trkpt lat="45.8710567" lon="8.67928"><ele>273.0</ele><time>2026-03-29T10:02:53.146Z</time></trkpt><trkpt lat="45.8710283" lon="8.67918"><ele>272.0</ele><time>2026-03-29T10:02:54.146Z</time></trkpt><trkpt lat="45.8710033" lon="8.67909"><ele>271.0</ele><time>2026-03-29T10:02:55.145Z</time></trkpt><trkpt lat="45.87097" lon="8.6789733"><ele>270.0</ele><time>2026-03-29T10:02:57.145Z</time></trkpt><trkpt lat="45.87091" lon="8.6788783"><ele>269.2</ele><time>2026-03-29T10:03:26.146Z</time></trkpt><trkpt lat="45.8708267" lon="8.6789367"><ele>268.4</ele><time>2026-03-29T10:03:27.145Z</time></trkpt><trkpt lat="45.870735" lon="8.67901"><ele>267.6</ele><time>2026-03-29T10:03:28.146Z</time></trkpt><trkpt lat="45.8706333" lon="8.679075"><ele>266.8</ele><time>2026-03-29T10:03:29.145Z</time></trkpt><trkpt lat="45.87051" lon="8.6791467"><ele>266.0</ele><time>2026-03-29T10:03:30.145Z</time></trkpt><trkpt lat="45.8703733" lon="8.6792283"><ele>266.0</ele><time>2026-03-29T10:03:31.145Z</time></trkpt><trkpt lat="45.8702383" lon="8.6793183"><ele>266.0</ele><time>2026-03-29T10:03:32.145Z</time></trkpt><trkpt lat="45.8700983" lon="8.6794117"><ele>266.0</ele><time>2026-03-29T10:03:33.146Z</time></trkpt><trkpt lat="45.8699483" lon="8.6794917"><ele>265.6666666666667</ele><time>2026-03-29T10:03:34.145Z</time></trkpt><trkpt lat="45.8698017" lon="8.6795933"><ele>265.3333333333333</ele><time>2026-03-29T10:03:35.145Z</time></trkpt><trkpt lat="45.8696517" lon="8.67967"><ele>265.0</ele><time>2026-03-29T10:03:36.145Z</time></trkpt><trkpt lat="45.869505" lon="8.6797483"><ele>265.0</ele><time>2026-03-29T10:03:37.145Z</time></trkpt><trkpt lat="45.86937" lon="8.6798117"><ele>265.0</ele><time>2026-03-29T10:03:38.145Z</time></trkpt><trkpt lat="45.8692333" lon="8.6798933"><ele>265.0</ele><time>2026-03-29T10:03:39.145Z</time></trkpt><trkpt lat="45.869105" lon="8.6799567"><ele>265.0</ele><time>2026-03-29T10:03:40.146Z</time></trkpt><trkpt lat="45.8689767" lon="8.6800233"><ele>265.0</ele><time>2026-03-29T10:03:41.145Z</time></trkpt><trkpt lat="45.868845" lon="8.6801"><ele>265.0</ele><time>2026-03-29T10:03:42.145Z</time></trkpt><trkpt lat="45.8687017" lon="8.6801683"><ele>265.0</ele><time>2026-03-29T10:03:43.145Z</time></trkpt><trkpt lat="45.868555" lon="8.68024"><ele>265.0</ele><time>2026-03-29T10:03:44.145Z</time></trkpt><trkpt lat="45.8683983" lon="8.6802767"><ele>265.0</ele><time>2026-03-29T10:03:45.145Z</time></trkpt><trkpt lat="45.868245" lon="8.680305"><ele>265.0</ele><time>2026-03-29T10:03:46.146Z</time></trkpt><trkpt lat="45.8680867" lon="8.68034"><ele>265.0</ele><time>2026-03-29T10:03:47.146Z</time></trkpt><trkpt lat="45.8679233" lon="8.6803583"><ele>265.0</ele><time>2026-03-29T10:03:48.145Z</time></trkpt><trkpt lat="45.8677733" lon="8.6803517"><ele>265.0</ele><time>2026-03-29T10:03:49.145Z</time></trkpt><trkpt lat="45.8676233" lon="8.68036"><ele>265.0</ele><time>2026-03-29T10:03:50.145Z</time></trkpt><trkpt lat="45.8674833" lon="8.68036"><ele>265.0</ele><time>2026-03-29T10:03:51.145Z</time></trkpt><trkpt lat="45.8673383" lon="8.6803633"><ele>264.5</ele><time>2026-03-29T10:03:52.145Z</time></trkpt><trkpt lat="45.867195" lon="8.68037"><ele>264.0</ele><time>2026-03-29T10:03:53.145Z</time></trkpt><trkpt lat="45.8670467" lon="8.680375"><ele>263.5</ele><time>2026-03-29T10:03:54.146Z</time></trkpt><trkpt lat="45.8669" lon="8.6803983"><ele>263.0</ele><time>2026-03-29T10:03:55.145Z</time></trkpt><trkpt lat="45.86675" lon="8.680405"><ele>262.5</ele><time>2026-03-29T10:03:56.145Z</time></trkpt><trkpt lat="45.866605" lon="8.6804083"><ele>262.0</ele><time>2026-03-29T10:03:57.145Z</time></trkpt><trkpt lat="45.8664633" lon="8.6804033"><ele>261.5</ele><time>2026-03-29T10:03:58.146Z</time></trkpt><trkpt lat="45.8663167" lon="8.680415"><ele>261.0</ele><time>2026-03-29T10:03:59.145Z</time></trkpt><trkpt lat="45.866175" lon="8.680425"><ele>261.0</ele><time>2026-03-29T10:04:00.145Z</time></trkpt><trkpt lat="45.8660267" lon="8.6804333"><ele>261.0</ele><time>2026-03-29T10:04:01.146Z</time></trkpt><trkpt lat="45.8658767" lon="8.6804383"><ele>261.0</ele><time>2026-03-29T10:04:02.146Z</time></trkpt><trkpt lat="45.8657117" lon="8.680445"><ele>261.3333333333333</ele><time>2026-03-29T10:04:03.146Z</time></trkpt><trkpt lat="45.8655367" lon="8.6804533"><ele>261.66666666666663</ele><time>2026-03-29T10:04:04.146Z</time></trkpt><trkpt lat="45.86536" lon="8.6804583"><ele>262.0</ele><time>2026-03-29T10:04:05.145Z</time></trkpt><trkpt lat="45.8651917" lon="8.6804733"><ele>261.66666666666663</ele><time>2026-03-29T10:04:06.145Z</time></trkpt><trkpt lat="45.8650333" lon="8.6804883"><ele>261.3333333333333</ele><time>2026-03-29T10:04:07.145Z</time></trkpt><trkpt lat="45.864885" lon="8.6804933"><ele>261.0</ele><time>2026-03-29T10:04:08.145Z</time></trkpt><trkpt lat="45.8647333" lon="8.6805233"><ele>261.0</ele><time>2026-03-29T10:04:09.145Z</time></trkpt><trkpt lat="45.8645833" lon="8.6805717"><ele>261.0</ele><time>2026-03-29T10:04:10.145Z</time></trkpt><trkpt lat="45.8644467" lon="8.6806467"><ele>261.0</ele><time>2026-03-29T10:04:11.146Z</time></trkpt><trkpt lat="45.8643067" lon="8.68074"><ele>261.0</ele><time>2026-03-29T10:04:12.145Z</time></trkpt><trkpt lat="45.864175" lon="8.6808433"><ele>261.0</ele><time>2026-03-29T10:04:13.146Z</time></trkpt><trkpt lat="45.8640517" lon="8.6809583"><ele>261.0</ele><time>2026-03-29T10:04:14.146Z</time></trkpt><trkpt lat="45.8639483" lon="8.6810917"><ele>261.0</ele><time>2026-03-29T10:04:15.145Z</time></trkpt><trkpt lat="45.8638433" lon="8.6812517"><ele>261.5</ele><time>2026-03-29T10:04:16.145Z</time></trkpt><trkpt lat="45.86374" lon="8.6814133"><ele>262.0</ele><time>2026-03-29T10:04:17.146Z</time></trkpt><trkpt lat="45.8636433" lon="8.6815783"><ele>262.5</ele><time>2026-03-29T10:04:18.146Z</time></trkpt><trkpt lat="45.86355" lon="8.68174"><ele>263.0</ele><time>2026-03-29T10:04:19.146Z</time></trkpt><trkpt lat="45.86344" lon="8.6818933"><ele>263.25</ele><time>2026-03-29T10:04:20.146Z</time></trkpt><trkpt lat="45.8633433" lon="8.6820517"><ele>263.5</ele><time>2026-03-29T10:04:21.145Z</time></trkpt><trkpt lat="45.86325" lon="8.6822117"><ele>263.75</ele><time>2026-03-29T10:04:22.145Z</time></trkpt><trkpt lat="45.8631633" lon="8.6823733"><ele>264.0</ele><time>2026-03-29T10:04:23.146Z</time></trkpt><trkpt lat="45.8630767" lon="8.68253"><ele>264.0</ele><time>2026-03-29T10:04:24.145Z</time></trkpt><trkpt lat="45.8629817" lon="8.6826817"><ele>264.0</ele><time>2026-03-29T10:04:25.145Z</time></trkpt><trkpt lat="45.8628933" lon="8.6828267"><ele>264.0</ele><time>2026-03-29T10:04:26.145Z</time></trkpt><trkpt lat="45.862795" lon="8.6829833"><ele>264.0</ele><time>2026-03-29T10:04:27.145Z</time></trkpt><trkpt lat="45.862705" lon="8.68314"><ele>264.0</ele><time>2026-03-29T10:04:28.146Z</time></trkpt><trkpt lat="45.8626217" lon="8.6832883"><ele>264.0</ele><time>2026-03-29T10:04:29.145Z</time></trkpt><trkpt lat="45.862535" lon="8.683435"><ele>264.0</ele><time>2026-03-29T10:04:30.145Z</time></trkpt><trkpt lat="45.8624483" lon="8.6835917"><ele>264.0</ele><time>2026-03-29T10:04:31.146Z</time></trkpt><trkpt lat="45.8623533" lon="8.6837417"><ele>264.25</ele><time>2026-03-29T10:04:32.145Z</time></trkpt><trkpt lat="45.8622567" lon="8.68389"><ele>264.5</ele><time>2026-03-29T10:04:33.146Z</time></trkpt><trkpt lat="45.8621533" lon="8.6840333"><ele>264.75</ele><time>2026-03-29T10:04:34.146Z</time></trkpt><trkpt lat="45.8620467" lon="8.68418"><ele>265.0</ele><time>2026-03-29T10:04:35.145Z</time></trkpt><trkpt lat="45.8619367" lon="8.68432"><ele>265.25</ele><time>2026-03-29T10:04:36.145Z</time></trkpt><trkpt lat="45.8618317" lon="8.6844367"><ele>265.5</ele><time>2026-03-29T10:04:37.145Z</time></trkpt><trkpt lat="45.8617183" lon="8.6845567"><ele>265.75</ele><time>2026-03-29T10:04:38.145Z</time></trkpt><trkpt lat="45.8616" lon="8.6846683"><ele>266.0</ele><time>2026-03-29T10:04:39.145Z</time></trkpt><trkpt lat="45.8614917" lon="8.68477"><ele>266.0</ele><time>2026-03-29T10:04:40.145Z</time></trkpt><trkpt lat="45.86139" lon="8.68486"><ele>266.0</ele><time>2026-03-29T10:04:41.145Z</time></trkpt><trkpt lat="45.861295" lon="8.6849467"><ele>266.0</ele><time>2026-03-29T10:04:42.146Z</time></trkpt><trkpt lat="45.8611983" lon="8.6850367"><ele>266.0</ele><time>2026-03-29T10:04:43.145Z</time></trkpt><trkpt lat="45.8611083" lon="8.6851217"><ele>266.0</ele><time>2026-03-29T10:04:44.145Z</time></trkpt><trkpt lat="45.8610167" lon="8.6852017"><ele>266.0</ele><time>2026-03-29T10:04:45.145Z</time></trkpt><trkpt lat="45.8609333" lon="8.6852683"><ele>266.0</ele><time>2026-03-29T10:04:46.146Z</time></trkpt><trkpt lat="45.8608517" lon="8.6853317"><ele>266.0</ele><time>2026-03-29T10:04:47.145Z</time></trkpt><trkpt lat="45.8607817" lon="8.685385"><ele>266.0</ele><time>2026-03-29T10:04:48.145Z</time></trkpt><trkpt lat="45.8607267" lon="8.68544"><ele>266.0</ele><time>2026-03-29T10:04:49.145Z</time></trkpt><trkpt lat="45.86067" lon="8.6854917"><ele>266.1666666666667</ele><time>2026-03-29T10:04:50.146Z</time></trkpt><trkpt lat="45.8606233" lon="8.6855667"><ele>266.33333333333337</ele><time>2026-03-29T10:04:51.145Z</time></trkpt><trkpt lat="45.8605733" lon="8.6856417"><ele>266.5</ele><time>2026-03-29T10:04:52.145Z</time></trkpt><trkpt lat="45.860515" lon="8.6857133"><ele>266.6666666666667</ele><time>2026-03-29T10:04:53.145Z</time></trkpt><trkpt lat="45.860445" lon="8.68577"><ele>266.8333333333333</ele><time>2026-03-29T10:04:54.145Z</time></trkpt><trkpt lat="45.8603717" lon="8.6858367"><ele>267.0</ele><time>2026-03-29T10:04:55.145Z</time></trkpt><trkpt lat="45.8603083" lon="8.6858817"><ele>267.0</ele><time>2026-03-29T10:04:56.145Z</time></trkpt><trkpt lat="45.8602417" lon="8.6859233"><ele>267.0</ele><time>2026-03-29T10:04:57.146Z</time></trkpt><trkpt lat="45.8601583" lon="8.6859767"><ele>267.0</ele><time>2026-03-29T10:04:58.145Z</time></trkpt><trkpt lat="45.8600617" lon="8.6860517"><ele>267.0</ele><time>2026-03-29T10:04:59.145Z</time></trkpt><trkpt lat="45.8599467" lon="8.686155"><ele>267.0</ele><time>2026-03-29T10:05:00.145Z</time></trkpt><trkpt lat="45.8598233" lon="8.6862683"><ele>267.25</ele><time>2026-03-29T10:05:01.145Z</time></trkpt><trkpt lat="45.8597133" lon="8.68639"><ele>267.5</ele><time>2026-03-29T10:05:02.145Z</time></trkpt><trkpt lat="45.8596383" lon="8.6865283"><ele>267.75</ele><time>2026-03-29T10:05:03.145Z</time></trkpt><trkpt lat="45.8595617" lon="8.6866867"><ele>268.0</ele><time>2026-03-29T10:05:04.145Z</time></trkpt><trkpt lat="45.859505" lon="8.6868667"><ele>268.0</ele><time>2026-03-29T10:05:05.146Z</time></trkpt><trkpt lat="45.8594567" lon="8.6870583"><ele>268.0</ele><time>2026-03-29T10:05:06.146Z</time></trkpt><trkpt lat="45.8594133" lon="8.6872533"><ele>268.0</ele><time>2026-03-29T10:05:07.145Z</time></trkpt><trkpt lat="45.85937" lon="8.6874517"><ele>268.0</ele><time>2026-03-29T10:05:08.146Z</time></trkpt><trkpt lat="45.8593167" lon="8.6876467"><ele>267.0</ele><time>2026-03-29T10:05:09.145Z</time></trkpt><trkpt lat="45.8592667" lon="8.6878367"><ele>266.0</ele><time>2026-03-29T10:05:10.146Z</time></trkpt><trkpt lat="45.8592133" lon="8.6880233"><ele>265.0</ele><time>2026-03-29T10:05:11.145Z</time></trkpt><trkpt lat="45.8591683" lon="8.6882083"><ele>264.0</ele><time>2026-03-29T10:05:12.145Z</time></trkpt><trkpt lat="45.859125" lon="8.6884067"><ele>264.5</ele><time>2026-03-29T10:05:13.146Z</time></trkpt><trkpt lat="45.8590817" lon="8.6886067"><ele>265.0</ele><time>2026-03-29T10:05:14.145Z</time></trkpt><trkpt lat="45.8590317" lon="8.688805"><ele>265.5</ele><time>2026-03-29T10:05:15.146Z</time></trkpt><trkpt lat="45.8589783" lon="8.6890083"><ele>266.0</ele><time>2026-03-29T10:05:16.146Z</time></trkpt><trkpt lat="45.8589133" lon="8.6892067"><ele>266.0</ele><time>2026-03-29T10:05:17.146Z</time></trkpt><trkpt lat="45.858845" lon="8.6894"><ele>266.0</ele><time>2026-03-29T10:05:18.145Z</time></trkpt><trkpt lat="45.8587667" lon="8.6895867"><ele>266.0</ele><time>2026-03-29T10:05:19.145Z</time></trkpt><trkpt lat="45.8586933" lon="8.68978"><ele>266.0</ele><time>2026-03-29T10:05:20.145Z</time></trkpt><trkpt lat="45.8586183" lon="8.6899667"><ele>266.0</ele><time>2026-03-29T10:05:21.145Z</time></trkpt><trkpt lat="45.858545" lon="8.6901517"><ele>266.0</ele><time>2026-03-29T10:05:22.145Z</time></trkpt><trkpt lat="45.8584683" lon="8.6903417"><ele>265.33333333333337</ele><time>2026-03-29T10:05:23.146Z</time></trkpt><trkpt lat="45.8583833" lon="8.69053"><ele>264.6666666666667</ele><time>2026-03-29T10:05:24.145Z</time></trkpt><trkpt lat="45.858305" lon="8.6907167"><ele>264.0</ele><time>2026-03-29T10:05:25.145Z</time></trkpt><trkpt lat="45.85823" lon="8.690915"><ele>264.3333333333333</ele><time>2026-03-29T10:05:26.146Z</time></trkpt><trkpt lat="45.858155" lon="8.6911167"><ele>264.66666666666663</ele><time>2026-03-29T10:05:27.145Z</time></trkpt><trkpt lat="45.85808" lon="8.6913233"><ele>265.0</ele><time>2026-03-29T10:05:28.145Z</time></trkpt><trkpt lat="45.8579833" lon="8.6915317"><ele>265.0</ele><time>2026-03-29T10:05:29.145Z</time></trkpt><trkpt lat="45.8578933" lon="8.6917233"><ele>265.0</ele><time>2026-03-29T10:05:30.145Z</time></trkpt><trkpt lat="45.8578183" lon="8.6919133"><ele>265.0</ele><time>2026-03-29T10:05:31.146Z</time></trkpt><trkpt lat="45.857735" lon="8.6920967"><ele>265.0</ele><time>2026-03-29T10:05:32.145Z</time></trkpt><trkpt lat="45.85767" lon="8.6922783"><ele>265.0</ele><time>2026-03-29T10:05:33.145Z</time></trkpt><trkpt lat="45.857595" lon="8.6924633"><ele>265.0</ele><time>2026-03-29T10:05:34.146Z</time></trkpt><trkpt lat="45.857525" lon="8.69266"><ele>265.0</ele><time>2026-03-29T10:05:35.145Z</time></trkpt><trkpt lat="45.8574433" lon="8.6928467"><ele>265.0</ele><time>2026-03-29T10:05:36.145Z</time></trkpt><trkpt lat="45.857375" lon="8.693045"><ele>265.0</ele><time>2026-03-29T10:05:37.145Z</time></trkpt><trkpt lat="45.8573017" lon="8.693235"><ele>265.0</ele><time>2026-03-29T10:05:38.145Z</time></trkpt><trkpt lat="45.8572267" lon="8.69343"><ele>265.0</ele><time>2026-03-29T10:05:39.145Z</time></trkpt><trkpt lat="45.8571533" lon="8.6936217"><ele>265.0</ele><time>2026-03-29T10:05:40.146Z</time></trkpt><trkpt lat="45.85708" lon="8.693815"><ele>265.0</ele><time>2026-03-29T10:05:41.146Z</time></trkpt><trkpt lat="45.8570083" lon="8.694005"><ele>265.0</ele><time>2026-03-29T10:05:42.145Z</time></trkpt><trkpt lat="45.856935" lon="8.6941867"><ele>265.0</ele><time>2026-03-29T10:05:43.146Z</time></trkpt><trkpt lat="45.8568667" lon="8.694375"><ele>265.0</ele><time>2026-03-29T10:05:44.145Z</time></trkpt><trkpt lat="45.856795" lon="8.6945617"><ele>265.0</ele><time>2026-03-29T10:05:45.145Z</time></trkpt><trkpt lat="45.8567283" lon="8.69475"><ele>264.75</ele><time>2026-03-29T10:05:46.145Z</time></trkpt><trkpt lat="45.85666" lon="8.6949417"><ele>264.5</ele><time>2026-03-29T10:05:47.146Z</time></trkpt><trkpt lat="45.8565883" lon="8.6951183"><ele>264.25</ele><time>2026-03-29T10:05:48.146Z</time></trkpt><trkpt lat="45.8565183" lon="8.6953083"><ele>264.0</ele><time>2026-03-29T10:05:49.146Z</time></trkpt><trkpt lat="45.8564433" lon="8.6954967"><ele>264.0</ele><time>2026-03-29T10:05:50.146Z</time></trkpt><trkpt lat="45.8563733" lon="8.69568"><ele>264.0</ele><time>2026-03-29T10:05:51.146Z</time></trkpt><trkpt lat="45.8563017" lon="8.6958683"><ele>264.0</ele><time>2026-03-29T10:05:52.145Z</time></trkpt><trkpt lat="45.856235" lon="8.6960517"><ele>264.0</ele><time>2026-03-29T10:05:53.145Z</time></trkpt><trkpt lat="45.8561567" lon="8.696235"><ele>263.0</ele><time>2026-03-29T10:05:54.145Z</time></trkpt><trkpt lat="45.8560817" lon="8.6964183"><ele>262.0</ele><time>2026-03-29T10:05:55.145Z</time></trkpt><trkpt lat="45.8560017" lon="8.696605"><ele>261.0</ele><time>2026-03-29T10:05:56.145Z</time></trkpt><trkpt lat="45.8559217" lon="8.696795"><ele>262.0</ele><time>2026-03-29T10:05:57.145Z</time></trkpt><trkpt lat="45.855845" lon="8.6969767"><ele>263.0</ele><time>2026-03-29T10:05:58.145Z</time></trkpt><trkpt lat="45.85577" lon="8.697155"><ele>264.0</ele><time>2026-03-29T10:05:59.145Z</time></trkpt><trkpt lat="45.8557067" lon="8.6973483"><ele>265.0</ele><time>2026-03-29T10:06:00.145Z</time></trkpt><trkpt lat="45.855635" lon="8.6975333"><ele>265.0</ele><time>2026-03-29T10:06:01.145Z</time></trkpt><trkpt lat="45.8555617" lon="8.6977133"><ele>265.0</ele><time>2026-03-29T10:06:02.146Z</time></trkpt><trkpt lat="45.8554933" lon="8.6978917"><ele>265.0</ele><time>2026-03-29T10:06:03.145Z</time></trkpt><trkpt lat="45.8554267" lon="8.6980683"><ele>265.0</ele><time>2026-03-29T10:06:04.145Z</time></trkpt><trkpt lat="45.855355" lon="8.6982333"><ele>265.0</ele><time>2026-03-29T10:06:05.146Z</time></trkpt><trkpt lat="45.855265" lon="8.6983783"><ele>265.0</ele><time>2026-03-29T10:06:06.145Z</time></trkpt><trkpt lat="45.8551583" lon="8.6984967"><ele>265.0</ele><time>2026-03-29T10:06:07.145Z</time></trkpt><trkpt lat="45.8550367" lon="8.6985767"><ele>265.0</ele><time>2026-03-29T10:06:08.146Z</time></trkpt><trkpt lat="45.8549133" lon="8.6986233"><ele>266.0</ele><time>2026-03-29T10:06:09.145Z</time></trkpt><trkpt lat="45.85479" lon="8.6986383"><ele>267.0</ele><time>2026-03-29T10:06:10.146Z</time></trkpt><trkpt lat="45.854675" lon="8.6986617"><ele>268.0</ele><time>2026-03-29T10:06:11.145Z</time></trkpt><trkpt lat="45.854575" lon="8.69869"><ele>269.0</ele><time>2026-03-29T10:06:12.146Z</time></trkpt><trkpt lat="45.85449" lon="8.6987"><ele>270.0</ele><time>2026-03-29T10:06:13.145Z</time></trkpt><trkpt lat="45.854405" lon="8.698685"><ele>270.0</ele><time>2026-03-29T10:06:14.146Z</time></trkpt><trkpt lat="45.8543317" lon="8.698645"><ele>270.0</ele><time>2026-03-29T10:06:15.145Z</time></trkpt><trkpt lat="45.8542533" lon="8.6986017"><ele>270.0</ele><time>2026-03-29T10:06:16.146Z</time></trkpt><trkpt lat="45.8541817" lon="8.698575"><ele>270.0</ele><time>2026-03-29T10:06:17.145Z</time></trkpt><trkpt lat="45.85411" lon="8.6985817"><ele>270.0</ele><time>2026-03-29T10:06:18.145Z</time></trkpt><trkpt lat="45.854005" lon="8.6986967"><ele>270.0</ele><time>2026-03-29T10:06:20.145Z</time></trkpt><trkpt lat="45.8539667" lon="8.6987933"><ele>269.2</ele><time>2026-03-29T10:06:21.145Z</time></trkpt><trkpt lat="45.85394" lon="8.69893"><ele>268.4</ele><time>2026-03-29T10:06:22.145Z</time></trkpt><trkpt lat="45.8538967" lon="8.6990633"><ele>267.6</ele><time>2026-03-29T10:06:23.146Z</time></trkpt><trkpt lat="45.8538383" lon="8.6991833"><ele>266.8</ele><time>2026-03-29T10:06:24.146Z</time></trkpt><trkpt lat="45.8537583" lon="8.6992933"><ele>266.0</ele><time>2026-03-29T10:06:25.146Z</time></trkpt><trkpt lat="45.853665" lon="8.699395"><ele>267.0</ele><time>2026-03-29T10:06:26.145Z</time></trkpt><trkpt lat="45.8535717" lon="8.6994967"><ele>268.0</ele><time>2026-03-29T10:06:27.145Z</time></trkpt><trkpt lat="45.8534617" lon="8.6995817"><ele>269.0</ele><time>2026-03-29T10:06:28.145Z</time></trkpt><trkpt lat="45.8533483" lon="8.699635"><ele>270.0</ele><time>2026-03-29T10:06:29.146Z</time></trkpt><trkpt lat="45.8532167" lon="8.6996783"><ele>270.0</ele><time>2026-03-29T10:06:30.146Z</time></trkpt><trkpt lat="45.8530883" lon="8.6996917"><ele>270.0</ele><time>2026-03-29T10:06:31.146Z</time></trkpt><trkpt lat="45.8529617" lon="8.699685"><ele>270.0</ele><time>2026-03-29T10:06:32.145Z</time></trkpt><trkpt lat="45.8528333" lon="8.6996717"><ele>270.0</ele><time>2026-03-29T10:06:33.145Z</time></trkpt><trkpt lat="45.8527017" lon="8.69966"><ele>268.5</ele><time>2026-03-29T10:06:34.145Z</time></trkpt><trkpt lat="45.8525683" lon="8.6996467"><ele>267.0</ele><time>2026-03-29T10:06:35.145Z</time></trkpt><trkpt lat="45.852435" lon="8.69963"><ele>265.5</ele><time>2026-03-29T10:06:36.146Z</time></trkpt><trkpt lat="45.8523083" lon="8.6996183"><ele>264.0</ele><time>2026-03-29T10:06:37.145Z</time></trkpt><trkpt lat="45.8521783" lon="8.6996133"><ele>264.0</ele><time>2026-03-29T10:06:38.145Z</time></trkpt><trkpt lat="45.852045" lon="8.6996117"><ele>264.0</ele><time>2026-03-29T10:06:39.145Z</time></trkpt><trkpt lat="45.851915" lon="8.6996133"><ele>264.0</ele><time>2026-03-29T10:06:40.146Z</time></trkpt><trkpt lat="45.8517883" lon="8.6996317"><ele>264.0</ele><time>2026-03-29T10:06:41.146Z</time></trkpt><trkpt lat="45.851655" lon="8.6996667"><ele>264.5</ele><time>2026-03-29T10:06:42.146Z</time></trkpt><trkpt lat="45.8515283" lon="8.6997017"><ele>265.0</ele><time>2026-03-29T10:06:43.145Z</time></trkpt><trkpt lat="45.8513967" lon="8.6997483"><ele>265.5</ele><time>2026-03-29T10:06:44.145Z</time></trkpt><trkpt lat="45.8512667" lon="8.6997917"><ele>266.0</ele><time>2026-03-29T10:06:45.145Z</time></trkpt><trkpt lat="45.8511267" lon="8.69985"><ele>266.0</ele><time>2026-03-29T10:06:46.146Z</time></trkpt><trkpt lat="45.85099" lon="8.699885"><ele>266.0</ele><time>2026-03-29T10:06:47.146Z</time></trkpt><trkpt lat="45.850865" lon="8.699905"><ele>266.0</ele><time>2026-03-29T10:06:48.145Z</time></trkpt><trkpt lat="45.85073" lon="8.69993"><ele>266.0</ele><time>2026-03-29T10:06:49.145Z</time></trkpt><trkpt lat="45.8505933" lon="8.6999383"><ele>264.5</ele><time>2026-03-29T10:06:50.146Z</time></trkpt><trkpt lat="45.85046" lon="8.6999517"><ele>263.0</ele><time>2026-03-29T10:06:51.145Z</time></trkpt><trkpt lat="45.8503267" lon="8.6999517"><ele>261.5</ele><time>2026-03-29T10:06:52.145Z</time></trkpt><trkpt lat="45.85019" lon="8.6999517"><ele>260.0</ele><time>2026-03-29T10:06:53.145Z</time></trkpt><trkpt lat="45.850055" lon="8.6999417"><ele>259.25</ele><time>2026-03-29T10:06:54.146Z</time></trkpt><trkpt lat="45.8499217" lon="8.6999317"><ele>258.5</ele><time>2026-03-29T10:06:55.146Z</time></trkpt><trkpt lat="45.8497933" lon="8.6999117"><ele>257.75</ele><time>2026-03-29T10:06:56.146Z</time></trkpt><trkpt lat="45.8496683" lon="8.699865"><ele>257.0</ele><time>2026-03-29T10:06:57.145Z</time></trkpt><trkpt lat="45.84955" lon="8.6998067"><ele>257.0</ele><time>2026-03-29T10:06:58.145Z</time></trkpt><trkpt lat="45.849435" lon="8.69973"><ele>257.0</ele><time>2026-03-29T10:06:59.145Z</time></trkpt><trkpt lat="45.8493267" lon="8.6996367"><ele>257.0</ele><time>2026-03-29T10:07:00.145Z</time></trkpt><trkpt lat="45.8492233" lon="8.699535"><ele>257.0</ele><time>2026-03-29T10:07:01.145Z</time></trkpt><trkpt lat="45.8491267" lon="8.6994167"><ele>257.25</ele><time>2026-03-29T10:07:02.146Z</time></trkpt><trkpt lat="45.8490367" lon="8.6992883"><ele>257.5</ele><time>2026-03-29T10:07:03.146Z</time></trkpt><trkpt lat="45.84895" lon="8.6991533"><ele>257.75</ele><time>2026-03-29T10:07:04.145Z</time></trkpt><trkpt lat="45.8488583" lon="8.6990217"><ele>258.0</ele><time>2026-03-29T10:07:05.145Z</time></trkpt><trkpt lat="45.8487567" lon="8.6989167"><ele>258.0</ele><time>2026-03-29T10:07:06.145Z</time></trkpt><trkpt lat="45.8486417" lon="8.6988217"><ele>258.0</ele><time>2026-03-29T10:07:07.145Z</time></trkpt><trkpt lat="45.8485217" lon="8.69874"><ele>258.0</ele><time>2026-03-29T10:07:08.146Z</time></trkpt><trkpt lat="45.8484" lon="8.6986583"><ele>258.0</ele><time>2026-03-29T10:07:09.146Z</time></trkpt><trkpt lat="45.848275" lon="8.6985933"><ele>259.25</ele><time>2026-03-29T10:07:10.145Z</time></trkpt><trkpt lat="45.848145" lon="8.6985333"><ele>260.5</ele><time>2026-03-29T10:07:11.145Z</time></trkpt><trkpt lat="45.8480167" lon="8.6984833"><ele>261.75</ele><time>2026-03-29T10:07:12.145Z</time></trkpt><trkpt lat="45.8478833" lon="8.6984317"><ele>263.0</ele><time>2026-03-29T10:07:13.145Z</time></trkpt><trkpt lat="45.8477533" lon="8.6983733"><ele>263.5</ele><time>2026-03-29T10:07:14.146Z</time></trkpt><trkpt lat="45.8476233" lon="8.6983117"><ele>264.0</ele><time>2026-03-29T10:07:15.146Z</time></trkpt><trkpt lat="45.847495" lon="8.6982467"><ele>264.5</ele><time>2026-03-29T10:07:16.145Z</time></trkpt><trkpt lat="45.8473617" lon="8.6982"><ele>265.0</ele><time>2026-03-29T10:07:17.145Z</time></trkpt><trkpt lat="45.8472267" lon="8.698175"><ele>265.0</ele><time>2026-03-29T10:07:18.145Z</time></trkpt><trkpt lat="45.84708" lon="8.6981433"><ele>265.0</ele><time>2026-03-29T10:07:19.145Z</time></trkpt><trkpt lat="45.8469433" lon="8.69814"><ele>265.0</ele><time>2026-03-29T10:07:20.145Z</time></trkpt><trkpt lat="45.846815" lon="8.6981383"><ele>265.0</ele><time>2026-03-29T10:07:21.145Z</time></trkpt><trkpt lat="45.8466917" lon="8.6981683"><ele>265.25</ele><time>2026-03-29T10:07:22.145Z</time></trkpt><trkpt lat="45.846565" lon="8.6982083"><ele>265.5</ele><time>2026-03-29T10:07:23.145Z</time></trkpt><trkpt lat="45.846455" lon="8.6982267"><ele>265.75</ele><time>2026-03-29T10:07:24.146Z</time></trkpt><trkpt lat="45.8463383" lon="8.698285"><ele>266.0</ele><time>2026-03-29T10:07:25.145Z</time></trkpt><trkpt lat="45.84624" lon="8.6983583"><ele>266.0</ele><time>2026-03-29T10:07:26.145Z</time></trkpt><trkpt lat="45.8461367" lon="8.6984333"><ele>266.0</ele><time>2026-03-29T10:07:27.145Z</time></trkpt><trkpt lat="45.84603" lon="8.6985067"><ele>266.0</ele><time>2026-03-29T10:07:28.146Z</time></trkpt><trkpt lat="45.84593" lon="8.6985817"><ele>266.0</ele><time>2026-03-29T10:07:29.145Z</time></trkpt><trkpt lat="45.8458383" lon="8.69867"><ele>264.6</ele><time>2026-03-29T10:07:30.145Z</time></trkpt><trkpt lat="45.8457783" lon="8.6987667"><ele>263.20000000000005</ele><time>2026-03-29T10:07:31.145Z</time></trkpt><trkpt lat="45.845745" lon="8.698875"><ele>261.79999999999995</ele><time>2026-03-29T10:07:32.146Z</time></trkpt><trkpt lat="45.84572" lon="8.6990217"><ele>260.4</ele><time>2026-03-29T10:07:33.145Z</time></trkpt><trkpt lat="45.8456933" lon="8.6991883"><ele>259.0</ele><time>2026-03-29T10:07:34.146Z</time></trkpt><trkpt lat="45.8456633" lon="8.699365"><ele>259.75</ele><time>2026-03-29T10:07:35.145Z</time></trkpt><trkpt lat="45.84562" lon="8.6995483"><ele>260.5</ele><time>2026-03-29T10:07:36.145Z</time></trkpt><trkpt lat="45.845585" lon="8.6997367"><ele>261.25</ele><time>2026-03-29T10:07:37.145Z</time></trkpt><trkpt lat="45.8455717" lon="8.6999267"><ele>262.0</ele><time>2026-03-29T10:07:38.146Z</time></trkpt><trkpt lat="45.8455583" lon="8.7001067"><ele>261.75</ele><time>2026-03-29T10:07:39.145Z</time></trkpt><trkpt lat="45.8455567" lon="8.7002967"><ele>261.5</ele><time>2026-03-29T10:07:40.146Z</time></trkpt><trkpt lat="45.8455633" lon="8.700505"><ele>261.25</ele><time>2026-03-29T10:07:41.145Z</time></trkpt><trkpt lat="45.8455683" lon="8.7007017"><ele>261.0</ele><time>2026-03-29T10:07:42.145Z</time></trkpt><trkpt lat="45.8455633" lon="8.70089"><ele>261.0</ele><time>2026-03-29T10:07:43.146Z</time></trkpt><trkpt lat="45.8455583" lon="8.7010683"><ele>261.0</ele><time>2026-03-29T10:07:44.145Z</time></trkpt><trkpt lat="45.845555" lon="8.70125"><ele>261.0</ele><time>2026-03-29T10:07:45.146Z</time></trkpt><trkpt lat="45.8455633" lon="8.7014417"><ele>261.0</ele><time>2026-03-29T10:07:46.145Z</time></trkpt><trkpt lat="45.8455617" lon="8.7016283"><ele>262.0</ele><time>2026-03-29T10:07:47.146Z</time></trkpt><trkpt lat="45.8455633" lon="8.7018233"><ele>263.0</ele><time>2026-03-29T10:07:48.145Z</time></trkpt><trkpt lat="45.8455567" lon="8.7020117"><ele>264.0</ele><time>2026-03-29T10:07:49.145Z</time></trkpt><trkpt lat="45.845555" lon="8.7021933"><ele>265.0</ele><time>2026-03-29T10:07:50.145Z</time></trkpt><trkpt lat="45.84555" lon="8.70238"><ele>265.25</ele><time>2026-03-29T10:07:51.145Z</time></trkpt><trkpt lat="45.8455233" lon="8.7025567"><ele>265.5</ele><time>2026-03-29T10:07:52.146Z</time></trkpt><trkpt lat="45.84549" lon="8.7027383"><ele>265.75</ele><time>2026-03-29T10:07:53.145Z</time></trkpt><trkpt lat="45.84546" lon="8.702925"><ele>266.0</ele><time>2026-03-29T10:07:54.145Z</time></trkpt><trkpt lat="45.8454183" lon="8.703105"><ele>265.5</ele><time>2026-03-29T10:07:55.146Z</time></trkpt><trkpt lat="45.84537" lon="8.7032833"><ele>265.0</ele><time>2026-03-29T10:07:56.145Z</time></trkpt><trkpt lat="45.8453133" lon="8.7034467"><ele>264.5</ele><time>2026-03-29T10:07:57.145Z</time></trkpt><trkpt lat="45.8452517" lon="8.70362"><ele>264.0</ele><time>2026-03-29T10:07:58.145Z</time></trkpt><trkpt lat="45.845185" lon="8.7037867"><ele>261.0</ele><time>2026-03-29T10:07:59.145Z</time></trkpt><trkpt lat="45.8451083" lon="8.7039567"><ele>258.0</ele><time>2026-03-29T10:08:00.145Z</time></trkpt><trkpt lat="45.8450167" lon="8.704115"><ele>255.0</ele><time>2026-03-29T10:08:01.146Z</time></trkpt><trkpt lat="45.8449183" lon="8.7042683"><ele>252.0</ele><time>2026-03-29T10:08:02.145Z</time></trkpt><trkpt lat="45.8448133" lon="8.704395"><ele>252.25</ele><time>2026-03-29T10:08:03.145Z</time></trkpt><trkpt lat="45.8447083" lon="8.70451"><ele>252.5</ele><time>2026-03-29T10:08:04.146Z</time></trkpt><trkpt lat="45.8445967" lon="8.7046383"><ele>252.75</ele><time>2026-03-29T10:08:05.145Z</time></trkpt><trkpt lat="45.84449" lon="8.7047733"><ele>253.0</ele><time>2026-03-29T10:08:06.145Z</time></trkpt><trkpt lat="45.8443833" lon="8.7049067"><ele>252.75</ele><time>2026-03-29T10:08:07.146Z</time></trkpt><trkpt lat="45.8442783" lon="8.70504"><ele>252.5</ele><time>2026-03-29T10:08:08.145Z</time></trkpt><trkpt lat="45.8441717" lon="8.7051717"><ele>252.25</ele><time>2026-03-29T10:08:09.145Z</time></trkpt><trkpt lat="45.8440733" lon="8.7053017"><ele>252.0</ele><time>2026-03-29T10:08:10.145Z</time></trkpt><trkpt lat="45.84397" lon="8.7054317"><ele>252.0</ele><time>2026-03-29T10:08:11.145Z</time></trkpt><trkpt lat="45.843865" lon="8.7055633"><ele>252.0</ele><time>2026-03-29T10:08:12.145Z</time></trkpt><trkpt lat="45.8437583" lon="8.7057017"><ele>252.0</ele><time>2026-03-29T10:08:13.145Z</time></trkpt><trkpt lat="45.8436533" lon="8.7058317"><ele>252.0</ele><time>2026-03-29T10:08:14.145Z</time></trkpt><trkpt lat="45.8435483" lon="8.7059617"><ele>253.0</ele><time>2026-03-29T10:08:15.145Z</time></trkpt><trkpt lat="45.8434483" lon="8.7060817"><ele>254.0</ele><time>2026-03-29T10:08:16.146Z</time></trkpt><trkpt lat="45.8433517" lon="8.7062"><ele>255.0</ele><time>2026-03-29T10:08:17.145Z</time></trkpt><trkpt lat="45.8432783" lon="8.7062967"><ele>256.0</ele><time>2026-03-29T10:08:18.145Z</time></trkpt><trkpt lat="45.843205" lon="8.7063817"><ele>255.99999999999997</ele><time>2026-03-29T10:08:19.146Z</time></trkpt><trkpt lat="45.8431367" lon="8.7064583"><ele>256.0</ele><time>2026-03-29T10:08:20.146Z</time></trkpt><trkpt lat="45.84307" lon="8.7065133"><ele>256.0</ele><time>2026-03-29T10:08:21.145Z</time></trkpt><trkpt lat="45.84301" lon="8.7065483"><ele>256.0</ele><time>2026-03-29T10:08:22.146Z</time></trkpt><trkpt lat="45.8429417" lon="8.7065817"><ele>255.99999999999997</ele><time>2026-03-29T10:08:23.145Z</time></trkpt><trkpt lat="45.8428767" lon="8.706625"><ele>256.0</ele><time>2026-03-29T10:08:24.146Z</time></trkpt><trkpt lat="45.8428133" lon="8.7067"><ele>256.0</ele><time>2026-03-29T10:08:25.145Z</time></trkpt><trkpt lat="45.8427633" lon="8.7068317"><ele>256.0</ele><time>2026-03-29T10:08:26.145Z</time></trkpt><trkpt lat="45.8427117" lon="8.706965"><ele>256.0</ele><time>2026-03-29T10:08:27.145Z</time></trkpt><trkpt lat="45.8426417" lon="8.70708"><ele>256.0</ele><time>2026-03-29T10:08:28.146Z</time></trkpt><trkpt lat="45.842555" lon="8.7071833"><ele>256.0</ele><time>2026-03-29T10:08:29.145Z</time></trkpt><trkpt lat="45.8424683" lon="8.7072917"><ele>256.25</ele><time>2026-03-29T10:08:30.145Z</time></trkpt><trkpt lat="45.84238" lon="8.7074083"><ele>256.5</ele><time>2026-03-29T10:08:31.145Z</time></trkpt><trkpt lat="45.8422833" lon="8.7075233"><ele>256.75</ele><time>2026-03-29T10:08:32.145Z</time></trkpt><trkpt lat="45.8421817" lon="8.7076383"><ele>257.0</ele><time>2026-03-29T10:08:33.145Z</time></trkpt><trkpt lat="45.8420833" lon="8.70776"><ele>257.25</ele><time>2026-03-29T10:08:34.146Z</time></trkpt><trkpt lat="45.8419883" lon="8.7078833"><ele>257.5</ele><time>2026-03-29T10:08:35.145Z</time></trkpt><trkpt lat="45.8418867" lon="8.7080133"><ele>257.75</ele><time>2026-03-29T10:08:36.146Z</time></trkpt><trkpt lat="45.8417883" lon="8.7081517"><ele>258.0</ele><time>2026-03-29T10:08:37.145Z</time></trkpt><trkpt lat="45.8416867" lon="8.7082817"><ele>258.0</ele><time>2026-03-29T10:08:38.146Z</time></trkpt><trkpt lat="45.8415817" lon="8.7084117"><ele>258.0</ele><time>2026-03-29T10:08:39.145Z</time></trkpt><trkpt lat="45.84148" lon="8.7085417"><ele>258.0</ele><time>2026-03-29T10:08:40.145Z</time></trkpt><trkpt lat="45.841385" lon="8.70867"><ele>258.0</ele><time>2026-03-29T10:08:41.146Z</time></trkpt><trkpt lat="45.841285" lon="8.7088"><ele>258.0</ele><time>2026-03-29T10:08:42.145Z</time></trkpt><trkpt lat="45.8411833" lon="8.7089283"><ele>258.0</ele><time>2026-03-29T10:08:43.145Z</time></trkpt><trkpt lat="45.84108" lon="8.709055"><ele>258.0</ele><time>2026-03-29T10:08:44.145Z</time></trkpt><trkpt lat="45.840975" lon="8.7091833"><ele>258.0</ele><time>2026-03-29T10:08:45.145Z</time></trkpt><trkpt lat="45.84087" lon="8.7093167"><ele>258.75</ele><time>2026-03-29T10:08:46.146Z</time></trkpt><trkpt lat="45.840765" lon="8.7094483"><ele>259.5</ele><time>2026-03-29T10:08:47.145Z</time></trkpt><trkpt lat="45.8406617" lon="8.7095833"><ele>260.25</ele><time>2026-03-29T10:08:48.146Z</time></trkpt><trkpt lat="45.8405533" lon="8.7097217"><ele>261.0</ele><time>2026-03-29T10:08:49.145Z</time></trkpt><trkpt lat="45.84044" lon="8.70985"><ele>261.0</ele><time>2026-03-29T10:08:50.145Z</time></trkpt><trkpt lat="45.8403283" lon="8.7099867"><ele>261.0</ele><time>2026-03-29T10:08:51.146Z</time></trkpt><trkpt lat="45.84022" lon="8.7101167"><ele>261.0</ele><time>2026-03-29T10:08:52.145Z</time></trkpt><trkpt lat="45.8401183" lon="8.7102417"><ele>261.0</ele><time>2026-03-29T10:08:53.146Z</time></trkpt><trkpt lat="45.84002" lon="8.7103667"><ele>260.75</ele><time>2026-03-29T10:08:54.146Z</time></trkpt><trkpt lat="45.8399183" lon="8.7105"><ele>260.5</ele><time>2026-03-29T10:08:55.146Z</time></trkpt><trkpt lat="45.8398133" lon="8.7106367"><ele>260.25</ele><time>2026-03-29T10:08:56.146Z</time></trkpt><trkpt lat="45.839705" lon="8.7107733"><ele>260.0</ele><time>2026-03-29T10:08:57.145Z</time></trkpt><trkpt lat="45.8396067" lon="8.7109033"><ele>260.0</ele><time>2026-03-29T10:08:58.145Z</time></trkpt><trkpt lat="45.839505" lon="8.7110333"><ele>260.0</ele><time>2026-03-29T10:08:59.145Z</time></trkpt><trkpt lat="45.83941" lon="8.7111617"><ele>260.0</ele><time>2026-03-29T10:09:00.146Z</time></trkpt><trkpt lat="45.8393167" lon="8.711305"><ele>260.0</ele><time>2026-03-29T10:09:01.145Z</time></trkpt><trkpt lat="45.8392283" lon="8.711465"><ele>260.0</ele><time>2026-03-29T10:09:02.145Z</time></trkpt><trkpt lat="45.839145" lon="8.71163"><ele>260.0</ele><time>2026-03-29T10:09:03.145Z</time></trkpt><trkpt lat="45.8390733" lon="8.7118083"><ele>260.0</ele><time>2026-03-29T10:09:04.145Z</time></trkpt><trkpt lat="45.8390117" lon="8.7119883"><ele>260.0</ele><time>2026-03-29T10:09:05.146Z</time></trkpt><trkpt lat="45.8389533" lon="8.7121733"><ele>260.0</ele><time>2026-03-29T10:09:06.145Z</time></trkpt><trkpt lat="45.8389267" lon="8.712365"><ele>260.0</ele><time>2026-03-29T10:09:07.145Z</time></trkpt><trkpt lat="45.8389117" lon="8.7125517"><ele>260.0</ele><time>2026-03-29T10:09:08.146Z</time></trkpt><trkpt lat="45.8388883" lon="8.7127383"><ele>260.0</ele><time>2026-03-29T10:09:09.145Z</time></trkpt><trkpt lat="45.8388933" lon="8.712935"><ele>259.25</ele><time>2026-03-29T10:09:10.146Z</time></trkpt><trkpt lat="45.8389383" lon="8.7131417"><ele>258.5</ele><time>2026-03-29T10:09:11.145Z</time></trkpt><trkpt lat="45.8389983" lon="8.713325"><ele>257.75</ele><time>2026-03-29T10:09:12.145Z</time></trkpt><trkpt lat="45.8390433" lon="8.713515"><ele>257.0</ele><time>2026-03-29T10:09:13.145Z</time></trkpt><trkpt lat="45.839095" lon="8.7136867"><ele>257.25</ele><time>2026-03-29T10:09:14.146Z</time></trkpt><trkpt lat="45.839145" lon="8.7138633"><ele>257.5</ele><time>2026-03-29T10:09:15.146Z</time></trkpt><trkpt lat="45.8391967" lon="8.7140217"><ele>257.75</ele><time>2026-03-29T10:09:16.145Z</time></trkpt><trkpt lat="45.8392517" lon="8.7141783"><ele>258.0</ele><time>2026-03-29T10:09:17.145Z</time></trkpt><trkpt lat="45.8393083" lon="8.71434"><ele>257.25</ele><time>2026-03-29T10:09:18.145Z</time></trkpt><trkpt lat="45.8393583" lon="8.7145033"><ele>256.5</ele><time>2026-03-29T10:09:19.145Z</time></trkpt><trkpt lat="45.8394133" lon="8.7146667"><ele>255.75</ele><time>2026-03-29T10:09:20.145Z</time></trkpt><trkpt lat="45.83946" lon="8.714835"><ele>255.0</ele><time>2026-03-29T10:09:21.145Z</time></trkpt><trkpt lat="45.8395133" lon="8.715"><ele>255.0</ele><time>2026-03-29T10:09:22.146Z</time></trkpt><trkpt lat="45.8395633" lon="8.715165"><ele>255.0</ele><time>2026-03-29T10:09:23.145Z</time></trkpt><trkpt lat="45.8396083" lon="8.71533"><ele>255.0</ele><time>2026-03-29T10:09:24.145Z</time></trkpt><trkpt lat="45.8396567" lon="8.7154917"><ele>255.0</ele><time>2026-03-29T10:09:25.145Z</time></trkpt><trkpt lat="45.8397067" lon="8.7156633"><ele>255.5</ele><time>2026-03-29T10:09:26.145Z</time></trkpt><trkpt lat="45.8397583" lon="8.7158333"><ele>256.0</ele><time>2026-03-29T10:09:27.146Z</time></trkpt><trkpt lat="45.839815" lon="8.7160033"><ele>256.5</ele><time>2026-03-29T10:09:28.146Z</time></trkpt><trkpt lat="45.8398717" lon="8.7161683"><ele>257.0</ele><time>2026-03-29T10:09:29.145Z</time></trkpt><trkpt lat="45.8399283" lon="8.7163333"><ele>257.0</ele><time>2026-03-29T10:09:30.145Z</time></trkpt><trkpt lat="45.8399867" lon="8.7165017"><ele>257.0</ele><time>2026-03-29T10:09:31.145Z</time></trkpt><trkpt lat="45.840045" lon="8.7166667"><ele>257.0</ele><time>2026-03-29T10:09:32.145Z</time></trkpt><trkpt lat="45.8401033" lon="8.7168333"><ele>257.0</ele><time>2026-03-29T10:09:33.145Z</time></trkpt><trkpt lat="45.8401633" lon="8.7170017"><ele>257.75</ele><time>2026-03-29T10:09:34.146Z</time></trkpt><trkpt lat="45.8402233" lon="8.7171783"><ele>258.5</ele><time>2026-03-29T10:09:35.146Z</time></trkpt><trkpt lat="45.8402883" lon="8.71737"><ele>259.25</ele><time>2026-03-29T10:09:36.145Z</time></trkpt><trkpt lat="45.8403517" lon="8.7175533"><ele>260.0</ele><time>2026-03-29T10:09:37.146Z</time></trkpt><trkpt lat="45.840415" lon="8.71774"><ele>260.0</ele><time>2026-03-29T10:09:38.145Z</time></trkpt><trkpt lat="45.840475" lon="8.7179233"><ele>260.0</ele><time>2026-03-29T10:09:39.145Z</time></trkpt><trkpt lat="45.840535" lon="8.7180917"><ele>260.0</ele><time>2026-03-29T10:09:40.145Z</time></trkpt><trkpt lat="45.8405933" lon="8.7182667"><ele>260.0</ele><time>2026-03-29T10:09:41.145Z</time></trkpt><trkpt lat="45.84066" lon="8.7184467"><ele>258.25</ele><time>2026-03-29T10:09:42.145Z</time></trkpt><trkpt lat="45.8407233" lon="8.71863"><ele>256.5</ele><time>2026-03-29T10:09:43.145Z</time></trkpt><trkpt lat="45.8407867" lon="8.7188083"><ele>254.75</ele><time>2026-03-29T10:09:44.145Z</time></trkpt><trkpt lat="45.8408433" lon="8.7189817"><ele>253.0</ele><time>2026-03-29T10:09:45.146Z</time></trkpt><trkpt lat="45.8408967" lon="8.7191383"><ele>253.0</ele><time>2026-03-29T10:09:46.145Z</time></trkpt><trkpt lat="45.84095" lon="8.7192883"><ele>253.0</ele><time>2026-03-29T10:09:47.146Z</time></trkpt><trkpt lat="45.841" lon="8.7194283"><ele>253.0</ele><time>2026-03-29T10:09:48.145Z</time></trkpt><trkpt lat="45.8410483" lon="8.7195583"><ele>253.0</ele><time>2026-03-29T10:09:49.145Z</time></trkpt><trkpt lat="45.84109" lon="8.719675"><ele>253.0</ele><time>2026-03-29T10:09:50.146Z</time></trkpt><trkpt lat="45.8411283" lon="8.71978"><ele>253.49999999999997</ele><time>2026-03-29T10:09:51.146Z</time></trkpt><trkpt lat="45.8411567" lon="8.719865"><ele>254.0</ele><time>2026-03-29T10:09:52.145Z</time></trkpt><trkpt lat="45.8411767" lon="8.7199667"><ele>254.5</ele><time>2026-03-29T10:09:57.146Z</time></trkpt><trkpt lat="45.8411867" lon="8.7200833"><ele>255.0</ele><time>2026-03-29T10:09:59.145Z</time></trkpt><trkpt lat="45.8412067" lon="8.7202733"><ele>255.49999999999997</ele><time>2026-03-29T10:10:01.145Z</time></trkpt><trkpt lat="45.8412317" lon="8.7203917"><ele>256.0</ele><time>2026-03-29T10:10:02.145Z</time></trkpt><trkpt lat="45.8412467" lon="8.7205633"><ele>256.0</ele><time>2026-03-29T10:10:03.145Z</time></trkpt><trkpt lat="45.84124" lon="8.72075"><ele>256.0</ele><time>2026-03-29T10:10:04.145Z</time></trkpt><trkpt lat="45.8412467" lon="8.72095"><ele>256.0</ele><time>2026-03-29T10:10:05.145Z</time></trkpt><trkpt lat="45.841225" lon="8.721125"><ele>256.0</ele><time>2026-03-29T10:10:06.146Z</time></trkpt><trkpt lat="45.8412017" lon="8.7212633"><ele>256.8</ele><time>2026-03-29T10:10:07.145Z</time></trkpt><trkpt lat="45.841175" lon="8.7213583"><ele>257.6</ele><time>2026-03-29T10:10:08.145Z</time></trkpt><trkpt lat="45.8411017" lon="8.7214567"><ele>258.4</ele><time>2026-03-29T10:10:10.145Z</time></trkpt><trkpt lat="45.8410333" lon="8.7215317"><ele>259.2</ele><time>2026-03-29T10:10:13.145Z</time></trkpt><trkpt lat="45.8410983" lon="8.7216033"><ele>260.0</ele><time>2026-03-29T10:12:58.145Z</time></trkpt><trkpt lat="45.8411783" lon="8.72142"><ele>260.0</ele><time>2026-03-29T10:13:01.145Z</time></trkpt><trkpt lat="45.8412167" lon="8.7212967"><ele>260.0</ele><time>2026-03-29T10:13:02.146Z</time></trkpt><trkpt lat="45.8412417" lon="8.72115"><ele>260.0</ele><time>2026-03-29T10:13:03.145Z</time></trkpt><trkpt lat="45.841255" lon="8.721"><ele>260.0</ele><time>2026-03-29T10:13:04.145Z</time></trkpt><trkpt lat="45.8412583" lon="8.7208333"><ele>260.0</ele><time>2026-03-29T10:13:05.145Z</time></trkpt><trkpt lat="45.841265" lon="8.7206633"><ele>259.5</ele><time>2026-03-29T10:13:06.145Z</time></trkpt><trkpt lat="45.8412683" lon="8.7205283"><ele>259.0</ele><time>2026-03-29T10:13:07.145Z</time></trkpt><trkpt lat="45.84127" lon="8.7204167"><ele>258.5</ele><time>2026-03-29T10:13:08.145Z</time></trkpt><trkpt lat="45.841275" lon="8.720315"><ele>258.0</ele><time>2026-03-29T10:13:09.145Z</time></trkpt><trkpt lat="45.8412833" lon="8.72021"><ele>257.5</ele><time>2026-03-29T10:13:10.145Z</time></trkpt><trkpt lat="45.84132" lon="8.72006"><ele>257.0</ele><time>2026-03-29T10:13:12.145Z</time></trkpt><trkpt lat="45.841365" lon="8.7199867"><ele>257.0</ele><time>2026-03-29T10:13:13.145Z</time></trkpt><trkpt lat="45.8414167" lon="8.7199233"><ele>257.0</ele><time>2026-03-29T10:13:14.146Z</time></trkpt><trkpt lat="45.841475" lon="8.7198533"><ele>257.0</ele><time>2026-03-29T10:13:15.145Z</time></trkpt><trkpt lat="45.8415467" lon="8.7198033"><ele>257.0</ele><time>2026-03-29T10:13:16.145Z</time></trkpt><trkpt lat="45.8416333" lon="8.719755"><ele>257.0</ele><time>2026-03-29T10:13:17.145Z</time></trkpt><trkpt lat="45.8416983" lon="8.7197083"><ele>257.0</ele><time>2026-03-29T10:13:18.146Z</time></trkpt><trkpt lat="45.84176" lon="8.7196567"><ele>258.0</ele><time>2026-03-29T10:13:19.145Z</time></trkpt><trkpt lat="45.8418233" lon="8.7196017"><ele>259.0</ele><time>2026-03-29T10:13:20.145Z</time></trkpt><trkpt lat="45.8418883" lon="8.7195467"><ele>260.0</ele><time>2026-03-29T10:13:21.145Z</time></trkpt><trkpt lat="45.8419517" lon="8.7194867"><ele>261.0</ele><time>2026-03-29T10:13:22.146Z</time></trkpt><trkpt lat="45.8420133" lon="8.7194217"><ele>262.0</ele><time>2026-03-29T10:13:23.145Z</time></trkpt><trkpt lat="45.8420733" lon="8.7193567"><ele>263.0</ele><time>2026-03-29T10:13:24.146Z</time></trkpt><trkpt lat="45.8421333" lon="8.719295"><ele>263.33333333333337</ele><time>2026-03-29T10:13:25.145Z</time></trkpt><trkpt lat="45.8421967" lon="8.7192333"><ele>263.6666666666667</ele><time>2026-03-29T10:13:26.145Z</time></trkpt><trkpt lat="45.84226" lon="8.7191767"><ele>264.0</ele><time>2026-03-29T10:13:27.145Z</time></trkpt><trkpt lat="45.8423117" lon="8.7191083"><ele>264.3333333333333</ele><time>2026-03-29T10:13:28.146Z</time></trkpt><trkpt lat="45.8423933" lon="8.7189917"><ele>264.66666666666663</ele><time>2026-03-29T10:13:30.146Z</time></trkpt><trkpt lat="45.842435" lon="8.7188917"><ele>265.0</ele><time>2026-03-29T10:13:32.145Z</time></trkpt><trkpt lat="45.8425133" lon="8.71887"><ele>265.0</ele><time>2026-03-29T10:13:35.145Z</time></trkpt><trkpt lat="45.84251" lon="8.7189867"><ele>265.0</ele><time>2026-03-29T10:13:37.145Z</time></trkpt><trkpt lat="45.842905" lon="8.7189417"><ele>265.0</ele><time>2026-03-29T10:14:42.14Z</time></trkpt><trkpt lat="45.84282" lon="8.7189983"><ele>265.0</ele><time>2026-03-29T10:14:48.141Z</time></trkpt><trkpt lat="45.84275" lon="8.7190233"><ele>265.0</ele><time>2026-03-29T10:14:52.14Z</time></trkpt><trkpt lat="45.842715" lon="8.7191167"><ele>265.0</ele><time>2026-03-29T10:14:55.14Z</time></trkpt><trkpt lat="45.8426283" lon="8.7191083"><ele>265.0</ele><time>2026-03-29T10:15:10.14Z</time></trkpt><trkpt lat="45.8429017" lon="8.719105"><ele>266.3333333333333</ele><time>2026-03-29T10:15:12.141Z</time></trkpt><trkpt lat="45.84281" lon="8.7191867"><ele>267.66666666666663</ele><time>2026-03-29T10:15:27.141Z</time></trkpt><trkpt lat="45.8427417" lon="8.71928"><ele>269.0</ele><time>2026-03-29T10:15:31.14Z</time></trkpt><trkpt lat="45.8427917" lon="8.7192217"><ele>270.3333333333333</ele><time>2026-03-29T10:15:50.14Z</time></trkpt><trkpt lat="45.8428917" lon="8.7192333"><ele>271.6666666666667</ele><time>2026-03-29T10:16:08.14Z</time></trkpt><trkpt lat="45.8428433" lon="8.7193217"><ele>273.0</ele><time>2026-03-29T10:16:25.14Z</time></trkpt><trkpt lat="45.84276" lon="8.7193183"><ele>273.0</ele><time>2026-03-29T10:16:30.141Z</time></trkpt></trkseg></trk></gpx>